<?xml version='1.0' encoding='UTF-8'?><gpx version="1.1" creator="JPX - https://github.com/jenetics/jpx" xmlns="http://www.topografix.com/GPX/1/1"><trk><trkseg><trkpt lat="43.58094113241307" lon="3.7467753267407136"><ele>71.0</ele><time>2026-05-03T06:23:15.011Z</time></trkpt><trkpt lat="43.58097147122329" lon="3.7468554116382036"><ele>71.0</ele><time>2026-05-03T06:23:19.011Z</time></trkpt><trkpt lat="43.58102977450174" lon="3.7469263435654523"><ele>71.0</ele><time>2026-05-03T06:23:23.011Z</time></trkpt><trkpt lat="43.58108010038432" lon="3.7470020453688546"><ele>71.0</ele><time>2026-05-03T06:23:27.011Z</time></trkpt><trkpt lat="43.58112908143966" lon="3.7470625626091714"><ele>71.0</ele><time>2026-05-03T06:23:30.011Z</time></trkpt><trkpt lat="43.581187547603186" lon="3.747125837049704"><ele>71.0</ele><time>2026-05-03T06:23:34.009Z</time></trkpt><trkpt lat="43.58124479383835" lon="3.7472095744642533"><ele>71.0</ele><time>2026-05-03T06:23:38.01Z</time></trkpt><trkpt lat="43.58129740437871" lon="3.747282450344639"><ele>71.28571428571428</ele><time>2026-05-03T06:23:42.009Z</time></trkpt><trkpt lat="43.58135267611938" lon="3.7473431723014405"><ele>71.57142857142857</ele><time>2026-05-03T06:23:46.01Z</time></trkpt><trkpt lat="43.58142112951885" lon="3.747389334678551"><ele>71.85714285714286</ele><time>2026-05-03T06:23:50.009Z</time></trkpt><trkpt lat="43.58148100603969" lon="3.747431723875407"><ele>72.14285714285714</ele><time>2026-05-03T06:23:54.009Z</time></trkpt><trkpt lat="43.58155331998" lon="3.74747889640948"><ele>72.42857142857143</ele><time>2026-05-03T06:23:58.009Z</time></trkpt><trkpt lat="43.58159205697686" lon="3.74755143649957"><ele>72.71428571428571</ele><time>2026-05-03T06:24:01.009Z</time></trkpt><trkpt lat="43.58156669085141" lon="3.7476476170585515"><ele>73.0</ele><time>2026-05-03T06:24:04.009Z</time></trkpt><trkpt lat="43.581543021143425" lon="3.747771758503289"><ele>72.33333333333333</ele><time>2026-05-03T06:24:07.009Z</time></trkpt><trkpt lat="43.58152005255518" lon="3.747885412097088"><ele>71.66666666666666</ele><time>2026-05-03T06:24:09.009Z</time></trkpt><trkpt lat="43.58148548411219" lon="3.748019474712775"><ele>71.0</ele><time>2026-05-03T06:24:11.009Z</time></trkpt><trkpt lat="43.5814753436174" lon="3.7481599953028915"><ele>70.33333333333333</ele><time>2026-05-03T06:24:13.009Z</time></trkpt><trkpt lat="43.58147565891021" lon="3.7482485674502355"><ele>69.66666666666667</ele><time>2026-05-03T06:24:14.009Z</time></trkpt><trkpt lat="43.581460219595016" lon="3.7483560797903244"><ele>69.0</ele><time>2026-05-03T06:24:15.009Z</time></trkpt><trkpt lat="43.58141820814501" lon="3.748449189522477"><ele>67.83333333333333</ele><time>2026-05-03T06:24:16.009Z</time></trkpt><trkpt lat="43.58138504387518" lon="3.74855103583588"><ele>66.66666666666667</ele><time>2026-05-03T06:24:17.009Z</time></trkpt><trkpt lat="43.58135539173788" lon="3.7486423279328474"><ele>65.5</ele><time>2026-05-03T06:24:18.009Z</time></trkpt><trkpt lat="43.581334335404186" lon="3.7487305626404956"><ele>64.33333333333334</ele><time>2026-05-03T06:24:19.009Z</time></trkpt><trkpt lat="43.581265439266595" lon="3.7488585522020568"><ele>63.16666666666667</ele><time>2026-05-03T06:24:21.009Z</time></trkpt><trkpt lat="43.581184896299916" lon="3.7488950022482155"><ele>62.0</ele><time>2026-05-03T06:24:22.009Z</time></trkpt><trkpt lat="43.5810972794432" lon="3.7489019603532485"><ele>61.16666666666667</ele><time>2026-05-03T06:24:23.009Z</time></trkpt><trkpt lat="43.58101095929181" lon="3.748901659918062"><ele>60.333333333333336</ele><time>2026-05-03T06:24:24.009Z</time></trkpt><trkpt lat="43.58092994813128" lon="3.748915041583329"><ele>59.5</ele><time>2026-05-03T06:24:25.009Z</time></trkpt><trkpt lat="43.580860940100386" lon="3.74893152689725"><ele>58.66666666666667</ele><time>2026-05-03T06:24:26.009Z</time></trkpt><trkpt lat="43.580763177071375" lon="3.7489768212435646"><ele>57.833333333333336</ele><time>2026-05-03T06:24:28.009Z</time></trkpt><trkpt lat="43.58075212721339" lon="3.7490863663249128"><ele>57.0</ele><time>2026-05-03T06:24:30.009Z</time></trkpt><trkpt lat="43.58082532235011" lon="3.749167367365733"><ele>57.0</ele><time>2026-05-03T06:24:32.009Z</time></trkpt><trkpt lat="43.580875959944535" lon="3.749236994751967"><ele>56.99999999999999</ele><time>2026-05-03T06:24:34.009Z</time></trkpt><trkpt lat="43.58091747486906" lon="3.749325338164184"><ele>57.0</ele><time>2026-05-03T06:24:36.009Z</time></trkpt><trkpt lat="43.58095793955868" lon="3.749394304345032"><ele>57.0</ele><time>2026-05-03T06:24:38.009Z</time></trkpt><trkpt lat="43.58100224920817" lon="3.7495000163848995"><ele>56.99999999999999</ele><time>2026-05-03T06:24:41.009Z</time></trkpt><trkpt lat="43.58105171884614" lon="3.7495852563538468"><ele>57.0</ele><time>2026-05-03T06:24:44.009Z</time></trkpt><trkpt lat="43.581084631904815" lon="3.749663901012271"><ele>57.0</ele><time>2026-05-03T06:24:46.009Z</time></trkpt><trkpt lat="43.58110499938219" lon="3.749768873445267"><ele>56.857142857142854</ele><time>2026-05-03T06:24:49.009Z</time></trkpt><trkpt lat="43.58110527706764" lon="3.749877581842287"><ele>56.71428571428571</ele><time>2026-05-03T06:24:52.009Z</time></trkpt><trkpt lat="43.58112950004711" lon="3.749959645923642"><ele>56.57142857142857</ele><time>2026-05-03T06:24:55.009Z</time></trkpt><trkpt lat="43.58116956458457" lon="3.75005255689578"><ele>56.42857142857143</ele><time>2026-05-03T06:34:48.009Z</time></trkpt><trkpt lat="43.5811303778204" lon="3.749984037889745"><ele>56.285714285714285</ele><time>2026-05-03T06:34:56.009Z</time></trkpt><trkpt lat="43.58111667509044" lon="3.749884884895125"><ele>56.14285714285714</ele><time>2026-05-03T06:36:46.008Z</time></trkpt><trkpt lat="43.58112851597816" lon="3.74979147712031"><ele>56.0</ele><time>2026-05-03T06:36:50.008Z</time></trkpt><trkpt lat="43.5811204565222" lon="3.74968057011639"><ele>56.00000000000001</ele><time>2026-05-03T06:36:53.008Z</time></trkpt><trkpt lat="43.58106119076311" lon="3.7495934929587262"><ele>56.0</ele><time>2026-05-03T06:36:56.008Z</time></trkpt><trkpt lat="43.581015587268794" lon="3.7495105691763015"><ele>56.0</ele><time>2026-05-03T06:36:59.008Z</time></trkpt><trkpt lat="43.580971306082795" lon="3.749408460110025"><ele>56.0</ele><time>2026-05-03T06:37:02.008Z</time></trkpt><trkpt lat="43.580925059953046" lon="3.7493037270003367"><ele>56.00000000000001</ele><time>2026-05-03T06:37:05.008Z</time></trkpt><trkpt lat="43.58088207444139" lon="3.749214650598199"><ele>56.0</ele><time>2026-05-03T06:37:08.008Z</time></trkpt><trkpt lat="43.580848239174806" lon="3.74912135586875"><ele>56.16666666666667</ele><time>2026-05-03T06:37:11.008Z</time></trkpt><trkpt lat="43.580782807788566" lon="3.7490345074328397"><ele>56.333333333333336</ele><time>2026-05-03T06:37:14.008Z</time></trkpt><trkpt lat="43.58073990940877" lon="3.748926882898507"><ele>56.5</ele><time>2026-05-03T06:37:17.008Z</time></trkpt><trkpt lat="43.580684311241946" lon="3.748835991088257"><ele>56.66666666666667</ele><time>2026-05-03T06:37:20.008Z</time></trkpt><trkpt lat="43.58063399870524" lon="3.7487283417956587"><ele>56.833333333333336</ele><time>2026-05-03T06:37:23.008Z</time></trkpt><trkpt lat="43.580587248653536" lon="3.7486556792299126"><ele>57.0</ele><time>2026-05-03T06:37:25.008Z</time></trkpt><trkpt lat="43.580549108509764" lon="3.748585224529996"><ele>56.666666666666664</ele><time>2026-05-03T06:37:27.008Z</time></trkpt><trkpt lat="43.58050768534071" lon="3.748486838548832"><ele>56.33333333333333</ele><time>2026-05-03T06:37:30.008Z</time></trkpt><trkpt lat="43.58046568420679" lon="3.748419724725099"><ele>56.0</ele><time>2026-05-03T06:37:32.008Z</time></trkpt><trkpt lat="43.58043294601638" lon="3.7483377279126464"><ele>55.666666666666664</ele><time>2026-05-03T06:37:34.008Z</time></trkpt><trkpt lat="43.580394212629805" lon="3.7482563687554102"><ele>55.33333333333333</ele><time>2026-05-03T06:37:36.008Z</time></trkpt><trkpt lat="43.58033825515131" lon="3.7481477813034725"><ele>55.0</ele><time>2026-05-03T06:37:39.008Z</time></trkpt><trkpt lat="43.58029965796864" lon="3.748063694514759"><ele>54.99999999999999</ele><time>2026-05-03T06:37:41.008Z</time></trkpt><trkpt lat="43.5802630830287" lon="3.74798760070612"><ele>55.0</ele><time>2026-05-03T06:37:43.008Z</time></trkpt><trkpt lat="43.580232141224464" lon="3.747910573709091"><ele>55.0</ele><time>2026-05-03T06:37:45.008Z</time></trkpt><trkpt lat="43.58018529185614" lon="3.747803273290313"><ele>55.0</ele><time>2026-05-03T06:37:48.008Z</time></trkpt><trkpt lat="43.58015698752886" lon="3.747724173698123"><ele>55.0</ele><time>2026-05-03T06:37:50.008Z</time></trkpt><trkpt lat="43.58011275525822" lon="3.747623944242877"><ele>54.99999999999999</ele><time>2026-05-03T06:37:53.008Z</time></trkpt><trkpt lat="43.58007693761681" lon="3.747552324052729"><ele>55.0</ele><time>2026-05-03T06:37:55.008Z</time></trkpt><trkpt lat="43.58002459751929" lon="3.747485286172713"><ele>55.49999999999999</ele><time>2026-05-03T06:37:57.008Z</time></trkpt><trkpt lat="43.57999732888358" lon="3.747404773200941"><ele>56.0</ele><time>2026-05-03T06:37:59.008Z</time></trkpt><trkpt lat="43.57994552134151" lon="3.7473074102434256"><ele>56.5</ele><time>2026-05-03T06:38:02.008Z</time></trkpt><trkpt lat="43.579905838560734" lon="3.7471904058140004"><ele>57.0</ele><time>2026-05-03T06:38:05.008Z</time></trkpt><trkpt lat="43.57985429573955" lon="3.7471244035339972"><ele>57.49999999999999</ele><time>2026-05-03T06:38:07.008Z</time></trkpt><trkpt lat="43.57980913388995" lon="3.7470488901472967"><ele>58.0</ele><time>2026-05-03T06:38:09.008Z</time></trkpt><trkpt lat="43.579767666308086" lon="3.7469433682263107"><ele>58.666666666666664</ele><time>2026-05-03T06:38:12.008Z</time></trkpt><trkpt lat="43.5797320899287" lon="3.7468521783062445"><ele>59.33333333333333</ele><time>2026-05-03T06:38:14.008Z</time></trkpt><trkpt lat="43.57968960157065" lon="3.746743774362304"><ele>60.0</ele><time>2026-05-03T06:38:17.009Z</time></trkpt><trkpt lat="43.57964192925291" lon="3.7466803666297106"><ele>60.66666666666667</ele><time>2026-05-03T06:38:19.009Z</time></trkpt><trkpt lat="43.579603578731124" lon="3.746579296604667"><ele>61.333333333333336</ele><time>2026-05-03T06:38:22.009Z</time></trkpt><trkpt lat="43.57956536350943" lon="3.7465062176075663"><ele>62.0</ele><time>2026-05-03T06:38:24.009Z</time></trkpt><trkpt lat="43.579538599053684" lon="3.7464026083428235"><ele>61.66666666666667</ele><time>2026-05-03T06:38:27.009Z</time></trkpt><trkpt lat="43.5795124476733" lon="3.746314398158173"><ele>61.333333333333336</ele><time>2026-05-03T06:38:29.009Z</time></trkpt><trkpt lat="43.57946553521836" lon="3.7462527184385923"><ele>61.0</ele><time>2026-05-03T06:38:31.009Z</time></trkpt><trkpt lat="43.579423671705115" lon="3.7461637683582643"><ele>60.66666666666667</ele><time>2026-05-03T06:38:33.009Z</time></trkpt><trkpt lat="43.579371163022394" lon="3.746059784503208"><ele>60.333333333333336</ele><time>2026-05-03T06:38:36.009Z</time></trkpt><trkpt lat="43.579324879590025" lon="3.7459611439079854"><ele>60.0</ele><time>2026-05-03T06:38:39.009Z</time></trkpt><trkpt lat="43.57927136370817" lon="3.7458554720246404"><ele>60.0</ele><time>2026-05-03T06:38:42.009Z</time></trkpt><trkpt lat="43.579226337619275" lon="3.7457644541918422"><ele>60.0</ele><time>2026-05-03T06:38:45.009Z</time></trkpt><trkpt lat="43.57918015100304" lon="3.7456910843015665"><ele>60.0</ele><time>2026-05-03T06:38:47.009Z</time></trkpt><trkpt lat="43.579147733305945" lon="3.7456102869217367"><ele>60.0</ele><time>2026-05-03T06:38:49.009Z</time></trkpt><trkpt lat="43.579106049355715" lon="3.745525477853725"><ele>60.0</ele><time>2026-05-03T06:38:51.009Z</time></trkpt><trkpt lat="43.57906562861641" lon="3.745446213849388"><ele>60.0</ele><time>2026-05-03T06:38:53.009Z</time></trkpt><trkpt lat="43.57902740424322" lon="3.74536800552416"><ele>60.0</ele><time>2026-05-03T06:38:55.009Z</time></trkpt><trkpt lat="43.57898534554411" lon="3.7452867616169434"><ele>60.714285714285715</ele><time>2026-05-03T06:38:57.009Z</time></trkpt><trkpt lat="43.57894983688308" lon="3.7451981229467317"><ele>61.42857142857143</ele><time>2026-05-03T06:38:59.009Z</time></trkpt><trkpt lat="43.57891103005453" lon="3.745122613506523"><ele>62.142857142857146</ele><time>2026-05-03T06:39:01.009Z</time></trkpt><trkpt lat="43.57887889338654" lon="3.7450396392019845"><ele>62.85714285714286</ele><time>2026-05-03T06:39:03.009Z</time></trkpt><trkpt lat="43.57884376195117" lon="3.7449539426590817"><ele>63.57142857142857</ele><time>2026-05-03T06:39:05.009Z</time></trkpt><trkpt lat="43.578783149726064" lon="3.7448614866320575"><ele>64.28571428571429</ele><time>2026-05-03T06:39:08.009Z</time></trkpt><trkpt lat="43.57874336487564" lon="3.744774191573432"><ele>65.0</ele><time>2026-05-03T06:39:10.009Z</time></trkpt><trkpt lat="43.578704164721216" lon="3.744698838837226"><ele>64.66666666666667</ele><time>2026-05-03T06:39:12.009Z</time></trkpt><trkpt lat="43.57865816526429" lon="3.7446204550443247"><ele>64.33333333333334</ele><time>2026-05-03T06:39:14.009Z</time></trkpt><trkpt lat="43.57863271766649" lon="3.7445289351031663"><ele>64.0</ele><time>2026-05-03T06:39:16.009Z</time></trkpt><trkpt lat="43.57856954750155" lon="3.7444092588105478"><ele>63.66666666666667</ele><time>2026-05-03T06:39:19.009Z</time></trkpt><trkpt lat="43.57853936835227" lon="3.7443305582795987"><ele>63.333333333333336</ele><time>2026-05-03T06:39:21.009Z</time></trkpt><trkpt lat="43.578488286254384" lon="3.744233062799359"><ele>63.0</ele><time>2026-05-03T06:39:24.009Z</time></trkpt><trkpt lat="43.57844389322314" lon="3.744155564558811"><ele>63.0</ele><time>2026-05-03T06:39:26.009Z</time></trkpt><trkpt lat="43.578376235246424" lon="3.74405644540034"><ele>63.0</ele><time>2026-05-03T06:39:29.009Z</time></trkpt><trkpt lat="43.57831572201249" lon="3.7439718825441384"><ele>63.0</ele><time>2026-05-03T06:39:31.009Z</time></trkpt><trkpt lat="43.578272331600296" lon="3.743896187526284"><ele>63.0</ele><time>2026-05-03T06:39:33.009Z</time></trkpt><trkpt lat="43.578216040166495" lon="3.743804518474779"><ele>63.0</ele><time>2026-05-03T06:39:35.009Z</time></trkpt><trkpt lat="43.578145389423305" lon="3.743708767770857"><ele>63.0</ele><time>2026-05-03T06:39:37.008Z</time></trkpt><trkpt lat="43.5781006639996" lon="3.7436125294671587"><ele>63.0</ele><time>2026-05-03T06:39:39.007Z</time></trkpt><trkpt lat="43.57805317887354" lon="3.743534542542666"><ele>63.0</ele><time>2026-05-03T06:39:41.006Z</time></trkpt><trkpt lat="43.57799197070745" lon="3.743466064950872"><ele>63.0</ele><time>2026-05-03T06:39:43.005Z</time></trkpt><trkpt lat="43.57794668758043" lon="3.7433897722667258"><ele>63.0</ele><time>2026-05-03T06:39:45.005Z</time></trkpt><trkpt lat="43.57789135571224" lon="3.743320137699192"><ele>63.0</ele><time>2026-05-03T06:39:47.004Z</time></trkpt><trkpt lat="43.577841465650195" lon="3.7432586740093226"><ele>63.0</ele><time>2026-05-03T06:39:49.003Z</time></trkpt><trkpt lat="43.57779438087388" lon="3.7431866239855007"><ele>63.0</ele><time>2026-05-03T06:39:51.003Z</time></trkpt><trkpt lat="43.57774159023466" lon="3.7431206982581395"><ele>62.0</ele><time>2026-05-03T06:39:53.003Z</time></trkpt><trkpt lat="43.5776905976808" lon="3.7430644933799444"><ele>61.0</ele><time>2026-05-03T06:39:55.002Z</time></trkpt><trkpt lat="43.577633720840815" lon="3.743005137745577"><ele>60.0</ele><time>2026-05-03T06:39:57.002Z</time></trkpt><trkpt lat="43.57757835971581" lon="3.7429294509446267"><ele>59.0</ele><time>2026-05-03T06:39:59.002Z</time></trkpt><trkpt lat="43.57752551142496" lon="3.742877240491995"><ele>58.0</ele><time>2026-05-03T06:40:01.001Z</time></trkpt><trkpt lat="43.57746812535086" lon="3.742805993587169"><ele>57.0</ele><time>2026-05-03T06:40:03.001Z</time></trkpt><trkpt lat="43.577414142914016" lon="3.7427470159929968"><ele>56.0</ele><time>2026-05-03T06:40:05.001Z</time></trkpt><trkpt lat="43.57735675997038" lon="3.7426957288915816"><ele>56.0</ele><time>2026-05-03T06:40:07.001Z</time></trkpt><trkpt lat="43.57729796733016" lon="3.7426258434706656"><ele>56.0</ele><time>2026-05-03T06:40:09.001Z</time></trkpt><trkpt lat="43.577246227885816" lon="3.7425749337913556"><ele>56.0</ele><time>2026-05-03T06:40:11.001Z</time></trkpt><trkpt lat="43.57719365984897" lon="3.742521755996583"><ele>56.0</ele><time>2026-05-03T06:40:13Z</time></trkpt><trkpt lat="43.577142389089374" lon="3.742466990670266"><ele>56.0</ele><time>2026-05-03T06:40:15Z</time></trkpt><trkpt lat="43.577079364292054" lon="3.742415364127479"><ele>56.0</ele><time>2026-05-03T06:40:17Z</time></trkpt><trkpt lat="43.57700780901029" lon="3.742338810303864"><ele>56.0</ele><time>2026-05-03T06:40:20Z</time></trkpt><trkpt lat="43.57694295031346" lon="3.7422625180458304"><ele>56.00000000000001</ele><time>2026-05-03T06:40:23Z</time></trkpt><trkpt lat="43.57693867219219" lon="3.742165439057608"><ele>56.0</ele><time>2026-05-03T06:40:26Z</time></trkpt><trkpt lat="43.576992777106526" lon="3.7420874548257954"><ele>56.0</ele><time>2026-05-03T06:40:29Z</time></trkpt><trkpt lat="43.577057669556545" lon="3.742062031918082"><ele>56.0</ele><time>2026-05-03T06:40:30.001Z</time></trkpt><trkpt lat="43.577166379488254" lon="3.742016167537648"><ele>56.00000000000001</ele><time>2026-05-03T06:40:32Z</time></trkpt><trkpt lat="43.57723241329679" lon="3.7419675487146757"><ele>56.0</ele><time>2026-05-03T06:40:34Z</time></trkpt><trkpt lat="43.57728382963198" lon="3.7418956435227346"><ele>56.00000000000001</ele><time>2026-05-03T06:40:38Z</time></trkpt><trkpt lat="43.577350027944796" lon="3.741961818587425"><ele>56.0</ele><time>2026-05-03T06:40:41Z</time></trkpt><trkpt lat="43.577433881916015" lon="3.7420401848837415"><ele>56.0</ele><time>2026-05-03T06:40:44Z</time></trkpt><trkpt lat="43.57750743844749" lon="3.7420947010615024"><ele>56.0</ele><time>2026-05-03T06:40:48Z</time></trkpt><trkpt lat="43.57756745430211" lon="3.74215367662456"><ele>56.00000000000001</ele><time>2026-05-03T06:40:49Z</time></trkpt><trkpt lat="43.57764566854238" lon="3.7422164328179344"><ele>56.0</ele><time>2026-05-03T06:40:54Z</time></trkpt><trkpt lat="43.57765328990182" lon="3.7423208736422153"><ele>56.0</ele><time>2026-05-03T06:40:57Z</time></trkpt><trkpt lat="43.57762870855652" lon="3.742232959716627"><ele>56.0</ele><time>2026-05-03T06:41:27.999Z</time></trkpt><trkpt lat="43.57758777034155" lon="3.742131831893313"><ele>56.0</ele><time>2026-05-03T06:41:31.999Z</time></trkpt><trkpt lat="43.577526795433684" lon="3.7420866801445807"><ele>56.0</ele><time>2026-05-03T06:41:35.999Z</time></trkpt><trkpt lat="43.57746758729681" lon="3.74203624398237"><ele>56.0</ele><time>2026-05-03T06:41:39.999Z</time></trkpt><trkpt lat="43.57744289791627" lon="3.741949466248541"><ele>56.0</ele><time>2026-05-03T06:41:42.999Z</time></trkpt><trkpt lat="43.577452816324026" lon="3.741854656220401"><ele>56.0</ele><time>2026-05-03T06:41:47.999Z</time></trkpt><trkpt lat="43.57747736349208" lon="3.741764321385245"><ele>56.66666666666667</ele><time>2026-05-03T06:41:51.999Z</time></trkpt><trkpt lat="43.57750661174617" lon="3.7416524769467823"><ele>57.333333333333336</ele><time>2026-05-03T06:41:55.999Z</time></trkpt><trkpt lat="43.577546852885774" lon="3.741573082041937"><ele>58.0</ele><time>2026-05-03T06:41:59.999Z</time></trkpt><trkpt lat="43.577599743336435" lon="3.7414853466421634"><ele>58.66666666666667</ele><time>2026-05-03T06:42:03.999Z</time></trkpt><trkpt lat="43.57766117008066" lon="3.741427421394233"><ele>59.333333333333336</ele><time>2026-05-03T06:42:06.999Z</time></trkpt><trkpt lat="43.5777024419987" lon="3.7413605799906806"><ele>60.0</ele><time>2026-05-03T06:42:09.999Z</time></trkpt><trkpt lat="43.577747532155705" lon="3.741278274327223"><ele>60.0</ele><time>2026-05-03T06:42:11.999Z</time></trkpt><trkpt lat="43.57778586053085" lon="3.741207973464365"><ele>60.0</ele><time>2026-05-03T06:42:13.999Z</time></trkpt><trkpt lat="43.57782430411779" lon="3.7410945606990964"><ele>60.0</ele><time>2026-05-03T06:42:16.999Z</time></trkpt><trkpt lat="43.577882168666875" lon="3.7410122602358773"><ele>60.0</ele><time>2026-05-03T06:42:19.999Z</time></trkpt><trkpt lat="43.57795110819673" lon="3.740956301425326"><ele>60.0</ele><time>2026-05-03T06:42:22.999Z</time></trkpt><trkpt lat="43.57800668358463" lon="3.740875650175759"><ele>60.0</ele><time>2026-05-03T06:42:25.999Z</time></trkpt><trkpt lat="43.57806706994291" lon="3.740808062418413"><ele>60.85714285714286</ele><time>2026-05-03T06:42:28.999Z</time></trkpt><trkpt lat="43.57811542083941" lon="3.740726710686493"><ele>61.71428571428571</ele><time>2026-05-03T06:42:31.999Z</time></trkpt><trkpt lat="43.57817977598929" lon="3.7406652212147415"><ele>62.57142857142857</ele><time>2026-05-03T06:42:34.998Z</time></trkpt><trkpt lat="43.578233375230525" lon="3.7406006707534427"><ele>63.42857142857143</ele><time>2026-05-03T06:42:37.999Z</time></trkpt><trkpt lat="43.578291420228325" lon="3.740538752561747"><ele>64.28571428571429</ele><time>2026-05-03T06:42:40.999Z</time></trkpt><trkpt lat="43.578356976917455" lon="3.7404874441188243"><ele>65.14285714285714</ele><time>2026-05-03T06:42:43.999Z</time></trkpt><trkpt lat="43.57841936675579" lon="3.7404319385743765"><ele>66.0</ele><time>2026-05-03T06:42:46.999Z</time></trkpt><trkpt lat="43.57846719382613" lon="3.74036894532753"><ele>66.0</ele><time>2026-05-03T06:42:49.999Z</time></trkpt><trkpt lat="43.57852548187007" lon="3.7403202067337666"><ele>66.0</ele><time>2026-05-03T06:42:52.999Z</time></trkpt><trkpt lat="43.57860026771885" lon="3.7402864638994258"><ele>66.0</ele><time>2026-05-03T06:42:55.999Z</time></trkpt><trkpt lat="43.57868751386264" lon="3.7402645333784057"><ele>66.0</ele><time>2026-05-03T06:42:58.999Z</time></trkpt><trkpt lat="43.57877143246145" lon="3.740262401445623"><ele>66.0</ele><time>2026-05-03T06:43:00.999Z</time></trkpt><trkpt lat="43.578845340187584" lon="3.74026268417015"><ele>66.0</ele><time>2026-05-03T06:43:02.999Z</time></trkpt><trkpt lat="43.5789255518302" lon="3.740257304787875"><ele>66.16666666666667</ele><time>2026-05-03T06:43:05.999Z</time></trkpt><trkpt lat="43.57900850433196" lon="3.740261776086583"><ele>66.33333333333333</ele><time>2026-05-03T06:43:08.999Z</time></trkpt><trkpt lat="43.57907550835874" lon="3.740268354969622"><ele>66.5</ele><time>2026-05-03T06:43:10.999Z</time></trkpt><trkpt lat="43.579165105226465" lon="3.740268863391118"><ele>66.66666666666666</ele><time>2026-05-03T06:43:13.999Z</time></trkpt><trkpt lat="43.579250215708726" lon="3.7402562376963675"><ele>66.83333333333333</ele><time>2026-05-03T06:43:16.999Z</time></trkpt><trkpt lat="43.57931852047387" lon="3.7402445769276453"><ele>67.0</ele><time>2026-05-03T06:43:18.999Z</time></trkpt><trkpt lat="43.5793950136938" lon="3.7401796030752994"><ele>67.0</ele><time>2026-05-03T06:43:21.999Z</time></trkpt><trkpt lat="43.579435390994746" lon="3.7401010378310255"><ele>67.0</ele><time>2026-05-03T06:43:23.999Z</time></trkpt><trkpt lat="43.57948553317851" lon="3.7399953909816945"><ele>67.0</ele><time>2026-05-03T06:43:26.999Z</time></trkpt><trkpt lat="43.579514111991905" lon="3.739880322912631"><ele>67.0</ele><time>2026-05-03T06:43:29.999Z</time></trkpt><trkpt lat="43.57954467756362" lon="3.739797102724074"><ele>67.0</ele><time>2026-05-03T06:43:31.999Z</time></trkpt><trkpt lat="43.579582737853755" lon="3.7396981285106814"><ele>67.0</ele><time>2026-05-03T06:43:34.999Z</time></trkpt><trkpt lat="43.57962790833581" lon="3.739617513897274"><ele>67.85714285714286</ele><time>2026-05-03T06:43:36.999Z</time></trkpt><trkpt lat="43.57969442748957" lon="3.7395146172021403"><ele>68.71428571428571</ele><time>2026-05-03T06:43:39.999Z</time></trkpt><trkpt lat="43.579731436173965" lon="3.7394433042643116"><ele>69.57142857142857</ele><time>2026-05-03T06:43:41.999Z</time></trkpt><trkpt lat="43.5797805440357" lon="3.739374019181462"><ele>70.42857142857143</ele><time>2026-05-03T06:43:43.999Z</time></trkpt><trkpt lat="43.579812667508236" lon="3.7392885575003714"><ele>71.28571428571429</ele><time>2026-05-03T06:43:45.999Z</time></trkpt><trkpt lat="43.579864341364456" lon="3.7392239432827017"><ele>72.14285714285714</ele><time>2026-05-03T06:43:47.999Z</time></trkpt><trkpt lat="43.57988809505018" lon="3.7391377048245453"><ele>73.0</ele><time>2026-05-03T06:43:49.999Z</time></trkpt><trkpt lat="43.57992705755809" lon="3.739054296746498"><ele>73.0</ele><time>2026-05-03T06:43:51.999Z</time></trkpt><trkpt lat="43.579947087908444" lon="3.7389709475510076"><ele>73.0</ele><time>2026-05-03T06:43:53.999Z</time></trkpt><trkpt lat="43.57998556902542" lon="3.738897386630546"><ele>73.0</ele><time>2026-05-03T06:43:55.999Z</time></trkpt><trkpt lat="43.580036197080744" lon="3.73884508273996"><ele>73.0</ele><time>2026-05-03T06:43:57.999Z</time></trkpt><trkpt lat="43.580089283803154" lon="3.7387445293786374"><ele>73.0</ele><time>2026-05-03T06:44:00.999Z</time></trkpt><trkpt lat="43.58012234398045" lon="3.7386117541724784"><ele>73.0</ele><time>2026-05-03T06:44:03.999Z</time></trkpt><trkpt lat="43.5801717320921" lon="3.7385038465819367"><ele>73.16666666666666</ele><time>2026-05-03T06:44:06.999Z</time></trkpt><trkpt lat="43.580221276015976" lon="3.73839706605072"><ele>73.33333333333333</ele><time>2026-05-03T06:44:09.999Z</time></trkpt><trkpt lat="43.580277606154574" lon="3.7382899600979473"><ele>73.5</ele><time>2026-05-03T06:44:12.999Z</time></trkpt><trkpt lat="43.58032513051375" lon="3.7381807682434824"><ele>73.66666666666667</ele><time>2026-05-03T06:44:15.999Z</time></trkpt><trkpt lat="43.5803671311597" lon="3.7381144108345827"><ele>73.83333333333334</ele><time>2026-05-03T06:44:17.999Z</time></trkpt><trkpt lat="43.580424225205725" lon="3.738019732043276"><ele>74.0</ele><time>2026-05-03T06:44:20.999Z</time></trkpt><trkpt lat="43.580508940907684" lon="3.737977140172783"><ele>74.0</ele><time>2026-05-03T06:44:23.999Z</time></trkpt><trkpt lat="43.580607284452704" lon="3.7380147838466615"><ele>74.0</ele><time>2026-05-03T06:44:26.999Z</time></trkpt><trkpt lat="43.58066626246652" lon="3.7380612697380067"><ele>74.0</ele><time>2026-05-03T06:44:28.999Z</time></trkpt><trkpt lat="43.58071142526122" lon="3.738126751497965"><ele>74.0</ele><time>2026-05-03T06:44:30.999Z</time></trkpt><trkpt lat="43.58075531063632" lon="3.7382330195870654"><ele>74.0</ele><time>2026-05-03T06:44:33.999Z</time></trkpt><trkpt lat="43.5808180333342" lon="3.7383451600833766"><ele>74.0</ele><time>2026-05-03T06:44:36.998Z</time></trkpt><trkpt lat="43.580874736889314" lon="3.7384469987821816"><ele>74.0</ele><time>2026-05-03T06:44:39.999Z</time></trkpt><trkpt lat="43.58091798314013" lon="3.7385120701051573"><ele>74.0</ele><time>2026-05-03T06:44:41.998Z</time></trkpt><trkpt lat="43.580972105847685" lon="3.7385926009786643"><ele>74.0</ele><time>2026-05-03T06:44:44.999Z</time></trkpt><trkpt lat="43.5810249883217" lon="3.7386953685309274"><ele>74.0</ele><time>2026-05-03T06:44:47.999Z</time></trkpt><trkpt lat="43.58108977306224" lon="3.738780992076792"><ele>74.0</ele><time>2026-05-03T06:44:50.999Z</time></trkpt><trkpt lat="43.58113071825225" lon="3.7388591966652767"><ele>74.0</ele><time>2026-05-03T06:44:52.999Z</time></trkpt><trkpt lat="43.5811678224541" lon="3.738931207948185"><ele>75.83333333333334</ele><time>2026-05-03T06:44:54.999Z</time></trkpt><trkpt lat="43.581208224848616" lon="3.739008039052616"><ele>77.66666666666667</ele><time>2026-05-03T06:44:56.999Z</time></trkpt><trkpt lat="43.58126770615524" lon="3.739076615973405"><ele>79.5</ele><time>2026-05-03T06:44:59.999Z</time></trkpt><trkpt lat="43.58132482191995" lon="3.7391623206346356"><ele>81.33333333333333</ele><time>2026-05-03T06:45:02.999Z</time></trkpt><trkpt lat="43.58137367419672" lon="3.7392482904930198"><ele>83.16666666666666</ele><time>2026-05-03T06:45:05.999Z</time></trkpt><trkpt lat="43.581419697751386" lon="3.7393348114947043"><ele>85.0</ele><time>2026-05-03T06:45:08.999Z</time></trkpt><trkpt lat="43.58144901399416" lon="3.7394128022936632"><ele>86.83333333333333</ele><time>2026-05-03T06:45:10.999Z</time></trkpt><trkpt lat="43.58149653127501" lon="3.7394967068453675"><ele>88.66666666666666</ele><time>2026-05-03T06:45:13.999Z</time></trkpt><trkpt lat="43.58155858277392" lon="3.7395620193800183"><ele>90.5</ele><time>2026-05-03T06:45:16.999Z</time></trkpt><trkpt lat="43.581615022043735" lon="3.7396485636260435"><ele>92.33333333333333</ele><time>2026-05-03T06:45:19.999Z</time></trkpt><trkpt lat="43.581677567694484" lon="3.73972648603371"><ele>94.16666666666667</ele><time>2026-05-03T06:45:22.998Z</time></trkpt><trkpt lat="43.581736718668" lon="3.7398071276864973"><ele>96.0</ele><time>2026-05-03T06:45:25.998Z</time></trkpt><trkpt lat="43.58178151682793" lon="3.739900760979864"><ele>96.0</ele><time>2026-05-03T06:45:28.998Z</time></trkpt><trkpt lat="43.581833455189546" lon="3.739986222533706"><ele>96.0</ele><time>2026-05-03T06:45:31.998Z</time></trkpt><trkpt lat="43.58189233318721" lon="3.7400680352283233"><ele>96.0</ele><time>2026-05-03T06:45:34.998Z</time></trkpt><trkpt lat="43.581949008167236" lon="3.7401545556157063"><ele>96.0</ele><time>2026-05-03T06:45:37.998Z</time></trkpt><trkpt lat="43.582011878601264" lon="3.7402510180165174"><ele>96.0</ele><time>2026-05-03T06:45:40.998Z</time></trkpt><trkpt lat="43.58209613062357" lon="3.740314390323571"><ele>96.0</ele><time>2026-05-03T06:45:43.998Z</time></trkpt><trkpt lat="43.58215076390757" lon="3.7403693845085213"><ele>96.28571428571428</ele><time>2026-05-03T06:45:45.998Z</time></trkpt><trkpt lat="43.58220681403152" lon="3.7404293057336355"><ele>96.57142857142857</ele><time>2026-05-03T06:45:47.998Z</time></trkpt><trkpt lat="43.58228218962211" lon="3.7404967659711366"><ele>96.85714285714286</ele><time>2026-05-03T06:45:50.998Z</time></trkpt><trkpt lat="43.582331994617235" lon="3.740555489876234"><ele>97.14285714285714</ele><time>2026-05-03T06:45:52.998Z</time></trkpt><trkpt lat="43.582407304280196" lon="3.7406162843980844"><ele>97.42857142857143</ele><time>2026-05-03T06:45:55.998Z</time></trkpt><trkpt lat="43.582457128197184" lon="3.74066972976196"><ele>97.71428571428571</ele><time>2026-05-03T06:45:57.998Z</time></trkpt><trkpt lat="43.58251239573274" lon="3.740721853943343"><ele>98.0</ele><time>2026-05-03T06:45:59.998Z</time></trkpt><trkpt lat="43.58259170134535" lon="3.7407928024690076"><ele>97.99999999999999</ele><time>2026-05-03T06:46:02.998Z</time></trkpt><trkpt lat="43.58265159804592" lon="3.7408374081812545"><ele>98.0</ele><time>2026-05-03T06:46:04.998Z</time></trkpt><trkpt lat="43.582709657883775" lon="3.740882496273786"><ele>98.0</ele><time>2026-05-03T06:46:06.998Z</time></trkpt><trkpt lat="43.582789097694445" lon="3.7409585545256117"><ele>98.0</ele><time>2026-05-03T06:46:09.998Z</time></trkpt><trkpt lat="43.58287859347895" lon="3.7409749062270947"><ele>97.99999999999999</ele><time>2026-05-03T06:46:12.998Z</time></trkpt><trkpt lat="43.582962600295375" lon="3.741024065410186"><ele>98.0</ele><time>2026-05-03T06:46:15.998Z</time></trkpt><trkpt lat="43.5830236106103" lon="3.74095769253765"><ele>97.99999999999999</ele><time>2026-05-03T06:46:18.998Z</time></trkpt><trkpt lat="43.583074016640495" lon="3.7408673535707715"><ele>98.0</ele><time>2026-05-03T06:46:21.998Z</time></trkpt><trkpt lat="43.58309819144567" lon="3.740777872394728"><ele>98.0</ele><time>2026-05-03T06:46:24.998Z</time></trkpt><trkpt lat="43.58313616008362" lon="3.7406895392713313"><ele>98.0</ele><time>2026-05-03T06:46:27.998Z</time></trkpt><trkpt lat="43.58312617687082" lon="3.7405581257060607"><ele>97.99999999999999</ele><time>2026-05-03T06:46:31.998Z</time></trkpt><trkpt lat="43.58316007134586" lon="3.740472798010272"><ele>98.0</ele><time>2026-05-03T06:46:33.998Z</time></trkpt><trkpt lat="43.58318338104499" lon="3.740376788825364"><ele>98.0</ele><time>2026-05-03T06:46:36.998Z</time></trkpt><trkpt lat="43.583261564430664" lon="3.740376402080274"><ele>98.0</ele><time>2026-05-03T06:46:47.998Z</time></trkpt><trkpt lat="43.58331943286849" lon="3.740312665819281"><ele>98.0</ele><time>2026-05-03T06:46:50.998Z</time></trkpt><trkpt lat="43.583374800048865" lon="3.7402485790986115"><ele>98.0</ele><time>2026-05-03T06:46:52.998Z</time></trkpt><trkpt lat="43.58343794777224" lon="3.740190788590936"><ele>98.0</ele><time>2026-05-03T06:46:54.998Z</time></trkpt><trkpt lat="43.58349825086006" lon="3.7401642240051576"><ele>98.0</ele><time>2026-05-03T06:46:56.998Z</time></trkpt><trkpt lat="43.58358122790695" lon="3.74015973683254"><ele>98.0</ele><time>2026-05-03T06:47:00.998Z</time></trkpt><trkpt lat="43.58364410735241" lon="3.7401800112324217"><ele>98.28571428571429</ele><time>2026-05-03T06:47:04.998Z</time></trkpt><trkpt lat="43.58372038847504" lon="3.740130607272016"><ele>98.57142857142857</ele><time>2026-05-03T06:47:08.998Z</time></trkpt><trkpt lat="43.58377574215077" lon="3.740085714858246"><ele>98.85714285714286</ele><time>2026-05-03T06:47:11.998Z</time></trkpt><trkpt lat="43.58385611817497" lon="3.7401128688051215"><ele>99.14285714285714</ele><time>2026-05-03T06:47:15.998Z</time></trkpt><trkpt lat="43.58391668584726" lon="3.7400554934409738"><ele>99.42857142857143</ele><time>2026-05-03T06:47:21.998Z</time></trkpt><trkpt lat="43.58396134334115" lon="3.7399765125119178"><ele>99.71428571428572</ele><time>2026-05-03T06:47:24.998Z</time></trkpt><trkpt lat="43.58400036194113" lon="3.739904199274761"><ele>100.0</ele><time>2026-05-03T06:47:27.998Z</time></trkpt><trkpt lat="43.58404686868493" lon="3.7398431072483067"><ele>100.00000000000001</ele><time>2026-05-03T06:47:30.998Z</time></trkpt><trkpt lat="43.58408205066674" lon="3.7397393935569396"><ele>100.0</ele><time>2026-05-03T06:47:33.998Z</time></trkpt><trkpt lat="43.584109713287404" lon="3.739636371765531"><ele>100.0</ele><time>2026-05-03T06:47:36.998Z</time></trkpt><trkpt lat="43.58413093684499" lon="3.7395460245800574"><ele>100.0</ele><time>2026-05-03T06:47:39.998Z</time></trkpt><trkpt lat="43.584106085902064" lon="3.7394628669744727"><ele>100.0</ele><time>2026-05-03T06:47:43.998Z</time></trkpt><trkpt lat="43.58404124624486" lon="3.739427745980558"><ele>100.00000000000001</ele><time>2026-05-03T06:47:46.998Z</time></trkpt><trkpt lat="43.58397702216456" lon="3.7393707679616948"><ele>100.0</ele><time>2026-05-03T06:47:49.998Z</time></trkpt><trkpt lat="43.58394453025232" lon="3.7392722100401707"><ele>100.71428571428572</ele><time>2026-05-03T06:47:52.998Z</time></trkpt><trkpt lat="43.583890741693814" lon="3.739197680966745"><ele>101.42857142857143</ele><time>2026-05-03T06:47:55.997Z</time></trkpt><trkpt lat="43.5838320543994" lon="3.7391243157067713"><ele>102.14285714285714</ele><time>2026-05-03T06:47:58.997Z</time></trkpt><trkpt lat="43.583804686828636" lon="3.7390414367328684"><ele>102.85714285714286</ele><time>2026-05-03T06:48:00.997Z</time></trkpt><trkpt lat="43.58375532141195" lon="3.738983166975911"><ele>103.57142857142857</ele><time>2026-05-03T06:48:02.997Z</time></trkpt><trkpt lat="43.58373997464367" lon="3.7388819373889777"><ele>104.28571428571429</ele><time>2026-05-03T06:48:05.997Z</time></trkpt><trkpt lat="43.58369902950393" lon="3.738796184706565"><ele>105.0</ele><time>2026-05-03T06:48:09.997Z</time></trkpt><trkpt lat="43.58362592248164" lon="3.738768193260867"><ele>103.33333333333333</ele><time>2026-05-03T06:48:13.997Z</time></trkpt><trkpt lat="43.58355791442548" lon="3.7387120568258156"><ele>101.66666666666667</ele><time>2026-05-03T06:48:17.997Z</time></trkpt><trkpt lat="43.583491986390804" lon="3.7386847474727687"><ele>100.0</ele><time>2026-05-03T06:48:19.997Z</time></trkpt><trkpt lat="43.58340882298865" lon="3.7386946569844794"><ele>98.33333333333334</ele><time>2026-05-03T06:48:21.997Z</time></trkpt><trkpt lat="43.583328401376555" lon="3.738666751043729"><ele>96.66666666666667</ele><time>2026-05-03T06:48:23.997Z</time></trkpt><trkpt lat="43.58334453703796" lon="3.7385733374621175"><ele>95.0</ele><time>2026-05-03T06:48:25.997Z</time></trkpt><trkpt lat="43.5833009389399" lon="3.7384873459178234"><ele>95.0</ele><time>2026-05-03T06:48:28.997Z</time></trkpt><trkpt lat="43.5832283922345" lon="3.7385379460838335"><ele>95.0</ele><time>2026-05-03T06:48:31.997Z</time></trkpt><trkpt lat="43.58315208369839" lon="3.738505165555802"><ele>95.0</ele><time>2026-05-03T06:48:36.997Z</time></trkpt><trkpt lat="43.58314899649986" lon="3.738384436659469"><ele>95.0</ele><time>2026-05-03T06:48:39.997Z</time></trkpt><trkpt lat="43.583192856338144" lon="3.738307617731957"><ele>95.0</ele><time>2026-05-03T06:48:41.997Z</time></trkpt><trkpt lat="43.58322756014871" lon="3.7382026062191414"><ele>95.0</ele><time>2026-05-03T06:48:44.998Z</time></trkpt><trkpt lat="43.5832364962532" lon="3.7380987067386098"><ele>95.0</ele><time>2026-05-03T06:48:47.998Z</time></trkpt><trkpt lat="43.583257103988245" lon="3.7380042962576328"><ele>95.0</ele><time>2026-05-03T06:48:51.998Z</time></trkpt><trkpt lat="43.583286908494294" lon="3.7379040438149973"><ele>95.0</ele><time>2026-05-03T06:48:55.998Z</time></trkpt><trkpt lat="43.583275536315234" lon="3.7377907695919683"><ele>95.0</ele><time>2026-05-03T06:48:57.998Z</time></trkpt><trkpt lat="43.583279416032866" lon="3.7376762076441232"><ele>95.0</ele><time>2026-05-03T06:49:00.998Z</time></trkpt><trkpt lat="43.58326052090214" lon="3.7375827341534875"><ele>95.0</ele><time>2026-05-03T06:49:03.998Z</time></trkpt><trkpt lat="43.58317274071866" lon="3.7375212967185645"><ele>95.16666666666667</ele><time>2026-05-03T06:49:06.998Z</time></trkpt><trkpt lat="43.58316015461691" lon="3.7373981609179348"><ele>95.33333333333334</ele><time>2026-05-03T06:49:08.998Z</time></trkpt><trkpt lat="43.583111945597985" lon="3.7372940987490835"><ele>95.5</ele><time>2026-05-03T06:49:11.998Z</time></trkpt><trkpt lat="43.583093031348554" lon="3.737180110630307"><ele>95.66666666666667</ele><time>2026-05-03T06:49:15.998Z</time></trkpt><trkpt lat="43.583073686738466" lon="3.73708309191818"><ele>95.83333333333333</ele><time>2026-05-03T06:49:17.998Z</time></trkpt><trkpt lat="43.583027242630756" lon="3.737006296561562"><ele>96.0</ele><time>2026-05-03T06:49:19.998Z</time></trkpt><trkpt lat="43.583002356120005" lon="3.736904628157548"><ele>95.83333333333333</ele><time>2026-05-03T06:49:21.998Z</time></trkpt><trkpt lat="43.58297812888015" lon="3.7368026265590877"><ele>95.66666666666667</ele><time>2026-05-03T06:49:24.998Z</time></trkpt><trkpt lat="43.582966870231374" lon="3.736652792770433"><ele>95.5</ele><time>2026-05-03T06:49:28.998Z</time></trkpt><trkpt lat="43.582970480287436" lon="3.7365487576534804"><ele>95.33333333333334</ele><time>2026-05-03T06:49:30.998Z</time></trkpt><trkpt lat="43.58302097507714" lon="3.736488602853476"><ele>95.16666666666667</ele><time>2026-05-03T06:49:33.998Z</time></trkpt><trkpt lat="43.58305389044721" lon="3.7364069922483525"><ele>95.0</ele><time>2026-05-03T06:49:37.998Z</time></trkpt><trkpt lat="43.583049335215144" lon="3.736311577837171"><ele>95.0</ele><time>2026-05-03T06:49:39.998Z</time></trkpt><trkpt lat="43.583062461917464" lon="3.7362162016959983"><ele>95.0</ele><time>2026-05-03T06:49:42.997Z</time></trkpt><trkpt lat="43.583108360836206" lon="3.7361384238877435"><ele>95.0</ele><time>2026-05-03T06:49:45.997Z</time></trkpt><trkpt lat="43.583163755195656" lon="3.7360630943845017"><ele>95.0</ele><time>2026-05-03T06:49:49.997Z</time></trkpt><trkpt lat="43.583171829914406" lon="3.735938710028434"><ele>95.0</ele><time>2026-05-03T06:49:54.997Z</time></trkpt><trkpt lat="43.583231496372065" lon="3.7358833342997393"><ele>95.0</ele><time>2026-05-03T06:49:58.997Z</time></trkpt><trkpt lat="43.583300324918454" lon="3.7358701093816404"><ele>94.42857142857143</ele><time>2026-05-03T06:50:03.997Z</time></trkpt><trkpt lat="43.58329235659473" lon="3.7357591871057885"><ele>93.85714285714286</ele><time>2026-05-03T06:50:09.997Z</time></trkpt><trkpt lat="43.58331063574999" lon="3.7356717788142983"><ele>93.28571428571428</ele><time>2026-05-03T06:50:11.997Z</time></trkpt><trkpt lat="43.58337995652792" lon="3.7356257260208294"><ele>92.71428571428572</ele><time>2026-05-03T06:50:14.997Z</time></trkpt><trkpt lat="43.58346387060589" lon="3.7356024528753258"><ele>92.14285714285714</ele><time>2026-05-03T06:50:23.997Z</time></trkpt><trkpt lat="43.58352645078289" lon="3.7356161165836745"><ele>91.57142857142857</ele><time>2026-05-03T06:50:28.997Z</time></trkpt><trkpt lat="43.58359321139242" lon="3.7356102146863424"><ele>91.0</ele><time>2026-05-03T06:50:32.997Z</time></trkpt><trkpt lat="43.58365896829537" lon="3.735579742250474"><ele>91.0</ele><time>2026-05-03T06:50:35.997Z</time></trkpt><trkpt lat="43.58370440285073" lon="3.735506542392385"><ele>91.0</ele><time>2026-05-03T06:50:38.997Z</time></trkpt><trkpt lat="43.58370660633191" lon="3.735394816353358"><ele>91.0</ele><time>2026-05-03T06:50:42.997Z</time></trkpt><trkpt lat="43.58364871142838" lon="3.7353394228598056"><ele>91.0</ele><time>2026-05-03T06:50:46.997Z</time></trkpt><trkpt lat="43.58358355165091" lon="3.735312221181862"><ele>91.0</ele><time>2026-05-03T06:50:49.997Z</time></trkpt><trkpt lat="43.58351419470575" lon="3.7352715753798584"><ele>91.0</ele><time>2026-05-03T06:50:52.998Z</time></trkpt><trkpt lat="43.58347727848609" lon="3.7351805214354274"><ele>91.0</ele><time>2026-05-03T06:50:55.998Z</time></trkpt><trkpt lat="43.58340347886221" lon="3.735140264626011"><ele>91.66666666666666</ele><time>2026-05-03T06:50:58.998Z</time></trkpt><trkpt lat="43.58334701448012" lon="3.735080147717721"><ele>92.33333333333333</ele><time>2026-05-03T06:51:00.998Z</time></trkpt><trkpt lat="43.58329439301578" lon="3.73498798239762"><ele>93.0</ele><time>2026-05-03T06:51:03.997Z</time></trkpt><trkpt lat="43.58324922529896" lon="3.7349178694459115"><ele>93.66666666666667</ele><time>2026-05-03T06:51:06.997Z</time></trkpt><trkpt lat="43.58321408972412" lon="3.7348075803528906"><ele>94.33333333333334</ele><time>2026-05-03T06:51:09.997Z</time></trkpt><trkpt lat="43.58317305058539" lon="3.734705068922969"><ele>95.0</ele><time>2026-05-03T06:51:13.997Z</time></trkpt><trkpt lat="43.583135701428496" lon="3.734632680484269"><ele>95.0</ele><time>2026-05-03T06:51:15.997Z</time></trkpt><trkpt lat="43.583077317559244" lon="3.734587989877406"><ele>95.0</ele><time>2026-05-03T06:51:17.997Z</time></trkpt><trkpt lat="43.583001876645525" lon="3.7346059796654587"><ele>95.0</ele><time>2026-05-03T06:51:19.997Z</time></trkpt><trkpt lat="43.58292499992857" lon="3.734590316300263"><ele>95.0</ele><time>2026-05-03T06:51:21.997Z</time></trkpt><trkpt lat="43.582858421443476" lon="3.734520519089152"><ele>95.0</ele><time>2026-05-03T06:51:24.997Z</time></trkpt><trkpt lat="43.582824393820545" lon="3.7344297149498225"><ele>95.0</ele><time>2026-05-03T06:51:27.997Z</time></trkpt><trkpt lat="43.58276882015139" lon="3.734357856446909"><ele>95.0</ele><time>2026-05-03T06:51:31.997Z</time></trkpt><trkpt lat="43.582694871183826" lon="3.7343005678633263"><ele>95.0</ele><time>2026-05-03T06:51:34.997Z</time></trkpt><trkpt lat="43.58265176472655" lon="3.7343844963920625"><ele>95.0</ele><time>2026-05-03T06:51:40.997Z</time></trkpt><trkpt lat="43.582708534935065" lon="3.7344264044186173"><ele>95.0</ele><time>2026-05-03T06:51:43.997Z</time></trkpt><trkpt lat="43.58277296423537" lon="3.7343532268067245"><ele>95.0</ele><time>2026-05-03T06:51:46.997Z</time></trkpt><trkpt lat="43.582825777254435" lon="3.7344408157262237"><ele>95.0</ele><time>2026-05-03T06:51:51.997Z</time></trkpt><trkpt lat="43.58287981440024" lon="3.734526010304753"><ele>95.0</ele><time>2026-05-03T06:51:55.997Z</time></trkpt><trkpt lat="43.58295708057995" lon="3.7345268023382174"><ele>95.0</ele><time>2026-05-03T06:51:59.997Z</time></trkpt><trkpt lat="43.58298090131317" lon="3.734436069466701"><ele>95.0</ele><time>2026-05-03T06:52:03.997Z</time></trkpt><trkpt lat="43.58303496047531" lon="3.7343720739617723"><ele>95.0</ele><time>2026-05-03T06:52:08.997Z</time></trkpt><trkpt lat="43.583101639366184" lon="3.734358677239902"><ele>95.0</ele><time>2026-05-03T06:52:12.997Z</time></trkpt><trkpt lat="43.583151990358324" lon="3.7344159893842765"><ele>95.0</ele><time>2026-05-03T06:52:15.997Z</time></trkpt><trkpt lat="43.583217983475514" lon="3.734445793860194"><ele>95.0</ele><time>2026-05-03T06:52:19.997Z</time></trkpt><trkpt lat="43.58324077773096" lon="3.7343587657590467"><ele>95.85714285714286</ele><time>2026-05-03T06:52:22.997Z</time></trkpt><trkpt lat="43.58327639052608" lon="3.734284118359515"><ele>96.71428571428572</ele><time>2026-05-03T06:52:25.997Z</time></trkpt><trkpt lat="43.583357239617804" lon="3.7342528702134787"><ele>97.57142857142857</ele><time>2026-05-03T06:52:29.997Z</time></trkpt><trkpt lat="43.583427973501415" lon="3.734194447845753"><ele>98.42857142857143</ele><time>2026-05-03T06:52:33.997Z</time></trkpt><trkpt lat="43.58348184597479" lon="3.734138635540085"><ele>99.28571428571428</ele><time>2026-05-03T06:52:36.997Z</time></trkpt><trkpt lat="43.58355694981937" lon="3.734122419982555"><ele>100.14285714285714</ele><time>2026-05-03T06:52:40.997Z</time></trkpt><trkpt lat="43.58361060397075" lon="3.7341727268623552"><ele>101.0</ele><time>2026-05-03T06:52:43.997Z</time></trkpt><trkpt lat="43.58365428104657" lon="3.7342513642801967"><ele>101.85714285714286</ele><time>2026-05-03T06:52:47.997Z</time></trkpt><trkpt lat="43.58373097411649" lon="3.7342923063415014"><ele>102.71428571428571</ele><time>2026-05-03T06:52:51.997Z</time></trkpt><trkpt lat="43.58375985235389" lon="3.734392594571647"><ele>103.57142857142858</ele><time>2026-05-03T06:53:01.998Z</time></trkpt><trkpt lat="43.58382919567376" lon="3.7343975256681787"><ele>104.42857142857143</ele><time>2026-05-03T06:53:05.998Z</time></trkpt><trkpt lat="43.583898307155536" lon="3.7344072895650786"><ele>105.28571428571429</ele><time>2026-05-03T06:53:10.997Z</time></trkpt><trkpt lat="43.58396051447929" lon="3.7343340967938086"><ele>106.14285714285715</ele><time>2026-05-03T06:53:14.997Z</time></trkpt><trkpt lat="43.584028624538846" lon="3.734337448643591"><ele>107.0</ele><time>2026-05-03T06:53:17.997Z</time></trkpt><trkpt lat="43.58410966548313" lon="3.734361079308455"><ele>106.99999999999999</ele><time>2026-05-03T06:53:21.997Z</time></trkpt><trkpt lat="43.584178481858956" lon="3.734414187675561"><ele>107.0</ele><time>2026-05-03T06:53:24.997Z</time></trkpt><trkpt lat="43.58425422185558" lon="3.7344500168338812"><ele>107.0</ele><time>2026-05-03T06:53:27.997Z</time></trkpt><trkpt lat="43.58432338419564" lon="3.7344912199741556"><ele>107.0</ele><time>2026-05-03T06:53:30.997Z</time></trkpt><trkpt lat="43.5843900054754" lon="3.7345361618677573"><ele>106.99999999999999</ele><time>2026-05-03T06:53:33.997Z</time></trkpt><trkpt lat="43.58447195955748" lon="3.734564679215227"><ele>107.0</ele><time>2026-05-03T06:53:36.997Z</time></trkpt><trkpt lat="43.58454092756819" lon="3.7346413051422163"><ele>107.71428571428572</ele><time>2026-05-03T06:53:39.997Z</time></trkpt><trkpt lat="43.58458104936852" lon="3.734717920393655"><ele>108.42857142857143</ele><time>2026-05-03T06:53:41.997Z</time></trkpt><trkpt lat="43.5846243857773" lon="3.734783177506432"><ele>109.14285714285714</ele><time>2026-05-03T06:53:43.997Z</time></trkpt><trkpt lat="43.584701220039236" lon="3.7348182146738296"><ele>109.85714285714286</ele><time>2026-05-03T06:53:46.997Z</time></trkpt><trkpt lat="43.58477222468326" lon="3.7348567200796476"><ele>110.57142857142857</ele><time>2026-05-03T06:53:49.997Z</time></trkpt><trkpt lat="43.58483273901967" lon="3.7349086689911832"><ele>111.28571428571429</ele><time>2026-05-03T06:53:52.997Z</time></trkpt><trkpt lat="43.58487197459538" lon="3.7349888248000185"><ele>112.0</ele><time>2026-05-03T06:53:54.997Z</time></trkpt><trkpt lat="43.584932333946355" lon="3.7350781850529526"><ele>112.00000000000001</ele><time>2026-05-03T06:53:57.997Z</time></trkpt><trkpt lat="43.584957486873485" lon="3.735181516462026"><ele>112.0</ele><time>2026-05-03T06:54:00.997Z</time></trkpt><trkpt lat="43.58501360794257" lon="3.735265912860604"><ele>112.0</ele><time>2026-05-03T06:54:03.997Z</time></trkpt><trkpt lat="43.58506771507839" lon="3.735318777097565"><ele>112.0</ele><time>2026-05-03T06:54:06.997Z</time></trkpt><trkpt lat="43.58513727923936" lon="3.7353828271311458"><ele>112.00000000000001</ele><time>2026-05-03T06:54:09.997Z</time></trkpt><trkpt lat="43.58520535843953" lon="3.7354280032589777"><ele>112.0</ele><time>2026-05-03T06:54:12.997Z</time></trkpt><trkpt lat="43.58528919137649" lon="3.7354604170378263"><ele>112.00000000000001</ele><time>2026-05-03T06:54:16.997Z</time></trkpt><trkpt lat="43.58532065253926" lon="3.735558386009235"><ele>112.0</ele><time>2026-05-03T06:54:19.997Z</time></trkpt><trkpt lat="43.58529692498495" lon="3.7354653383439747"><ele>112.0</ele><time>2026-05-03T06:54:25.997Z</time></trkpt><trkpt lat="43.585268274219644" lon="3.7353432420996633"><ele>112.0</ele><time>2026-05-03T06:54:28.997Z</time></trkpt><trkpt lat="43.585282637972675" lon="3.7352510664970446"><ele>112.00000000000001</ele><time>2026-05-03T06:54:30.997Z</time></trkpt><trkpt lat="43.58528111078684" lon="3.7351487280675633"><ele>112.0</ele><time>2026-05-03T06:54:32.997Z</time></trkpt><trkpt lat="43.58527540937304" lon="3.735026805547186"><ele>112.00000000000001</ele><time>2026-05-03T06:54:34.997Z</time></trkpt><trkpt lat="43.58528660864591" lon="3.7349164824285084"><ele>112.0</ele><time>2026-05-03T06:54:36.997Z</time></trkpt><trkpt lat="43.585291649959046" lon="3.7348130600857954"><ele>112.0</ele><time>2026-05-03T06:54:38.997Z</time></trkpt><trkpt lat="43.585293000780005" lon="3.73470580392752"><ele>112.0</ele><time>2026-05-03T06:54:40.996Z</time></trkpt><trkpt lat="43.58527969519664" lon="3.734603905598973"><ele>112.00000000000001</ele><time>2026-05-03T06:54:42.996Z</time></trkpt><trkpt lat="43.58524372390092" lon="3.7345078318535037"><ele>112.0</ele><time>2026-05-03T06:54:44.996Z</time></trkpt><trkpt lat="43.58518922150389" lon="3.7344281744643992"><ele>111.85714285714286</ele><time>2026-05-03T06:54:46.996Z</time></trkpt><trkpt lat="43.5851419169471" lon="3.7343455957247618"><ele>111.71428571428572</ele><time>2026-05-03T06:54:48.996Z</time></trkpt><trkpt lat="43.58510748200029" lon="3.7342645578948668"><ele>111.57142857142857</ele><time>2026-05-03T06:54:50.996Z</time></trkpt><trkpt lat="43.58507954442769" lon="3.7341663968849654"><ele>111.42857142857143</ele><time>2026-05-03T06:54:52.996Z</time></trkpt><trkpt lat="43.58503349834244" lon="3.734084581982633"><ele>111.28571428571429</ele><time>2026-05-03T06:54:54.996Z</time></trkpt><trkpt lat="43.58498343259153" lon="3.7340085663294538"><ele>111.14285714285714</ele><time>2026-05-03T06:54:56.996Z</time></trkpt><trkpt lat="43.58492406896637" lon="3.7339429330086347"><ele>111.0</ele><time>2026-05-03T06:54:58.996Z</time></trkpt><trkpt lat="43.584878749010855" lon="3.733871478778129"><ele>111.0</ele><time>2026-05-03T06:55:00.996Z</time></trkpt><trkpt lat="43.584835524684685" lon="3.733795032330979"><ele>111.0</ele><time>2026-05-03T06:55:02.998Z</time></trkpt><trkpt lat="43.584783156339206" lon="3.7337029864059015"><ele>111.0</ele><time>2026-05-03T06:55:04.998Z</time></trkpt><trkpt lat="43.584734309222355" lon="3.733611428124081"><ele>111.0</ele><time>2026-05-03T06:55:06.998Z</time></trkpt><trkpt lat="43.58468274604626" lon="3.733545260340124"><ele>111.0</ele><time>2026-05-03T06:55:08.997Z</time></trkpt><trkpt lat="43.584595779064344" lon="3.7335800280033222"><ele>111.0</ele><time>2026-05-03T06:55:11.998Z</time></trkpt><trkpt lat="43.584521777105216" lon="3.7336177599370086"><ele>110.66666666666667</ele><time>2026-05-03T06:55:14.997Z</time></trkpt><trkpt lat="43.58444926554857" lon="3.7336816036009552"><ele>110.33333333333334</ele><time>2026-05-03T06:55:17.998Z</time></trkpt><trkpt lat="43.584356237116566" lon="3.733667691979332"><ele>110.0</ele><time>2026-05-03T06:55:20.998Z</time></trkpt><trkpt lat="43.58428949573594" lon="3.7336337192598483"><ele>109.66666666666667</ele><time>2026-05-03T06:55:23.998Z</time></trkpt><trkpt lat="43.58423112149127" lon="3.73367843841621"><ele>109.33333333333334</ele><time>2026-05-03T06:55:25.998Z</time></trkpt><trkpt lat="43.58415445937235" lon="3.7337393250139552"><ele>109.0</ele><time>2026-05-03T06:55:28.998Z</time></trkpt><trkpt lat="43.58406972751359" lon="3.7337153620739656"><ele>109.0</ele><time>2026-05-03T06:55:31.998Z</time></trkpt><trkpt lat="43.58400412249736" lon="3.7337115556256517"><ele>109.0</ele><time>2026-05-03T06:55:39.998Z</time></trkpt><trkpt lat="43.58393179190949" lon="3.73374348340092"><ele>109.0</ele><time>2026-05-03T06:55:45.998Z</time></trkpt><trkpt lat="43.583869374190414" lon="3.733794436469711"><ele>109.0</ele><time>2026-05-03T06:55:51.998Z</time></trkpt><trkpt lat="43.58380342844791" lon="3.7338451942572135"><ele>109.0</ele><time>2026-05-03T06:55:55.998Z</time></trkpt><trkpt lat="43.58378511171525" lon="3.7339490146796557"><ele>109.0</ele><time>2026-05-03T06:55:58.998Z</time></trkpt><trkpt lat="43.58374914678053" lon="3.7340488040305755"><ele>109.0</ele><time>2026-05-03T06:56:05.997Z</time></trkpt><trkpt lat="43.583712035712416" lon="3.7341387413550033"><ele>107.66666666666667</ele><time>2026-05-03T06:56:08.997Z</time></trkpt><trkpt lat="43.58364185372751" lon="3.7341031597607075"><ele>106.33333333333334</ele><time>2026-05-03T06:56:12.997Z</time></trkpt><trkpt lat="43.58357168109314" lon="3.7340667173769457"><ele>105.0</ele><time>2026-05-03T06:56:14.997Z</time></trkpt><trkpt lat="43.58350330398212" lon="3.7340912090966665"><ele>103.66666666666666</ele><time>2026-05-03T06:56:16.997Z</time></trkpt><trkpt lat="43.58343774498848" lon="3.7341651798344357"><ele>102.33333333333333</ele><time>2026-05-03T06:56:18.997Z</time></trkpt><trkpt lat="43.58336205662407" lon="3.73422195090488"><ele>101.0</ele><time>2026-05-03T06:56:21.997Z</time></trkpt><trkpt lat="43.58329530006741" lon="3.7342804545116737"><ele>101.0</ele><time>2026-05-03T06:56:23.997Z</time></trkpt><trkpt lat="43.58327166695402" lon="3.7344114681550065"><ele>101.0</ele><time>2026-05-03T06:56:25.997Z</time></trkpt><trkpt lat="43.58318055816071" lon="3.734414194435691"><ele>101.0</ele><time>2026-05-03T06:56:28.997Z</time></trkpt><trkpt lat="43.58310339104303" lon="3.7343343256216954"><ele>101.0</ele><time>2026-05-03T06:56:30.997Z</time></trkpt><trkpt lat="43.58301668049829" lon="3.7343734833989672"><ele>101.0</ele><time>2026-05-03T06:56:33.997Z</time></trkpt><trkpt lat="43.58301133839467" lon="3.734498210492833"><ele>99.99999999999999</ele><time>2026-05-03T06:56:37.997Z</time></trkpt><trkpt lat="43.583029492228526" lon="3.7345874286589598"><ele>99.0</ele><time>2026-05-03T06:56:40.997Z</time></trkpt><trkpt lat="43.583102447949464" lon="3.7345480194951044"><ele>98.0</ele><time>2026-05-03T06:56:43.997Z</time></trkpt><trkpt lat="43.58315087322882" lon="3.734629722853343"><ele>97.0</ele><time>2026-05-03T06:56:46.997Z</time></trkpt><trkpt lat="43.58318962580698" lon="3.7347267290682824"><ele>96.0</ele><time>2026-05-03T06:56:49.997Z</time></trkpt><trkpt lat="43.58320862959103" lon="3.7348399551869482"><ele>95.0</ele><time>2026-05-03T06:56:52.997Z</time></trkpt><trkpt lat="43.58326109062545" lon="3.73491246772703"><ele>95.0</ele><time>2026-05-03T06:56:55.997Z</time></trkpt><trkpt lat="43.58329594223381" lon="3.7350307080051475"><ele>95.0</ele><time>2026-05-03T06:56:58.997Z</time></trkpt><trkpt lat="43.58336969851023" lon="3.735102726702262"><ele>95.0</ele><time>2026-05-03T06:57:01.997Z</time></trkpt><trkpt lat="43.58343027350276" lon="3.735138574783895"><ele>95.0</ele><time>2026-05-03T06:57:04.997Z</time></trkpt><trkpt lat="43.58349151046936" lon="3.735223704735368"><ele>95.0</ele><time>2026-05-03T06:57:08.998Z</time></trkpt><trkpt lat="43.583539950653496" lon="3.735282347746004"><ele>95.0</ele><time>2026-05-03T06:57:10.997Z</time></trkpt><trkpt lat="43.5836165151418" lon="3.735278768795755"><ele>96.66666666666667</ele><time>2026-05-03T06:57:13.997Z</time></trkpt><trkpt lat="43.583681179293194" lon="3.7353275772928693"><ele>98.33333333333334</ele><time>2026-05-03T06:57:16.998Z</time></trkpt><trkpt lat="43.583751652095" lon="3.735269903346403"><ele>100.0</ele><time>2026-05-03T06:57:19.997Z</time></trkpt><trkpt lat="43.58382266567994" lon="3.735212129029752"><ele>101.66666666666667</ele><time>2026-05-03T06:57:23.998Z</time></trkpt><trkpt lat="43.58390284901638" lon="3.7352609064494966"><ele>103.33333333333333</ele><time>2026-05-03T06:57:26.998Z</time></trkpt><trkpt lat="43.58398547578462" lon="3.73530024570796"><ele>105.0</ele><time>2026-05-03T06:57:30.998Z</time></trkpt><trkpt lat="43.5840621113475" lon="3.735302634114577"><ele>105.0</ele><time>2026-05-03T06:57:33.998Z</time></trkpt><trkpt lat="43.584119861341236" lon="3.735248697268406"><ele>105.0</ele><time>2026-05-03T06:57:36.998Z</time></trkpt><trkpt lat="43.58420529304646" lon="3.7352315062985535"><ele>105.0</ele><time>2026-05-03T06:57:40.997Z</time></trkpt><trkpt lat="43.584285064643986" lon="3.735258042089327"><ele>105.0</ele><time>2026-05-03T06:57:43.997Z</time></trkpt><trkpt lat="43.58433969850132" lon="3.7353052082798346"><ele>105.0</ele><time>2026-05-03T06:57:45.997Z</time></trkpt><trkpt lat="43.58442082071595" lon="3.7353179105942838"><ele>105.0</ele><time>2026-05-03T06:57:48.997Z</time></trkpt><trkpt lat="43.5844728522305" lon="3.7353706423388764"><ele>105.0</ele><time>2026-05-03T06:57:50.997Z</time></trkpt><trkpt lat="43.584531023592604" lon="3.7353323110412835"><ele>106.33333333333333</ele><time>2026-05-03T06:57:52.997Z</time></trkpt><trkpt lat="43.58457145722635" lon="3.7352337987043134"><ele>107.66666666666666</ele><time>2026-05-03T06:57:55.997Z</time></trkpt><trkpt lat="43.5846332626743" lon="3.7352555136576147"><ele>109.0</ele><time>2026-05-03T06:57:57.997Z</time></trkpt><trkpt lat="43.58468649083617" lon="3.735313690827228"><ele>110.33333333333333</ele><time>2026-05-03T06:58:00.997Z</time></trkpt><trkpt lat="43.58476425023359" lon="3.735338106633184"><ele>111.66666666666666</ele><time>2026-05-03T06:58:03.997Z</time></trkpt><trkpt lat="43.584813231836655" lon="3.73542177046868"><ele>113.0</ele><time>2026-05-03T06:58:06.997Z</time></trkpt><trkpt lat="43.58485200987777" lon="3.73552280956919"><ele>112.99999999999999</ele><time>2026-05-03T06:58:09.997Z</time></trkpt><trkpt lat="43.584873666432415" lon="3.7356219777625577"><ele>113.0</ele><time>2026-05-03T06:58:11.997Z</time></trkpt><trkpt lat="43.58493931169754" lon="3.73565806378071"><ele>113.0</ele><time>2026-05-03T06:58:13.997Z</time></trkpt><trkpt lat="43.58500015194466" lon="3.7357071545422555"><ele>113.0</ele><time>2026-05-03T06:58:16.997Z</time></trkpt><trkpt lat="43.585081171939116" lon="3.735743887035797"><ele>112.99999999999999</ele><time>2026-05-03T06:58:19.997Z</time></trkpt><trkpt lat="43.58514282918976" lon="3.7357912810013607"><ele>113.0</ele><time>2026-05-03T06:58:21.997Z</time></trkpt><trkpt lat="43.585211584366114" lon="3.7358734621156304"><ele>112.99999999999999</ele><time>2026-05-03T06:58:24.997Z</time></trkpt><trkpt lat="43.585275566139536" lon="3.7359251811822833"><ele>113.0</ele><time>2026-05-03T06:58:27.997Z</time></trkpt><trkpt lat="43.58535441283622" lon="3.7359113951737304"><ele>113.0</ele><time>2026-05-03T06:58:30.997Z</time></trkpt><trkpt lat="43.585421953528375" lon="3.7358471482709112"><ele>113.0</ele><time>2026-05-03T06:58:33.997Z</time></trkpt><trkpt lat="43.58551533502416" lon="3.7358613564127"><ele>112.99999999999999</ele><time>2026-05-03T06:58:36.997Z</time></trkpt><trkpt lat="43.58558981404358" lon="3.7358827235342504"><ele>113.0</ele><time>2026-05-03T06:58:39.997Z</time></trkpt><trkpt lat="43.58569110192735" lon="3.7359292343107984"><ele>113.33333333333333</ele><time>2026-05-03T06:58:42.997Z</time></trkpt><trkpt lat="43.585766522193545" lon="3.735968946516141"><ele>113.66666666666666</ele><time>2026-05-03T06:58:45.997Z</time></trkpt><trkpt lat="43.58583655294706" lon="3.735985167812585"><ele>114.0</ele><time>2026-05-03T06:58:48.997Z</time></trkpt><trkpt lat="43.58590364100954" lon="3.736060352433698"><ele>114.33333333333334</ele><time>2026-05-03T06:58:51.997Z</time></trkpt><trkpt lat="43.58598422300943" lon="3.736087069381378"><ele>114.66666666666667</ele><time>2026-05-03T06:58:54.996Z</time></trkpt><trkpt lat="43.586058287705136" lon="3.7361359570706365"><ele>115.0</ele><time>2026-05-03T06:58:57.996Z</time></trkpt><trkpt lat="43.586139800928706" lon="3.736155726613201"><ele>114.66666666666667</ele><time>2026-05-03T06:58:59.996Z</time></trkpt><trkpt lat="43.58622077670931" lon="3.736181501261769"><ele>114.33333333333334</ele><time>2026-05-03T06:59:02.996Z</time></trkpt><trkpt lat="43.58627943405721" lon="3.7362236006896397"><ele>114.0</ele><time>2026-05-03T06:59:04.996Z</time></trkpt><trkpt lat="43.586342066528395" lon="3.736212342966944"><ele>113.66666666666666</ele><time>2026-05-03T06:59:06.996Z</time></trkpt><trkpt lat="43.58643325765638" lon="3.73619243460878"><ele>113.33333333333333</ele><time>2026-05-03T06:59:09.996Z</time></trkpt><trkpt lat="43.58649701249019" lon="3.736173035720097"><ele>113.0</ele><time>2026-05-03T06:59:11.996Z</time></trkpt><trkpt lat="43.58658062058695" lon="3.736158259717772"><ele>112.99999999999999</ele><time>2026-05-03T06:59:14.997Z</time></trkpt><trkpt lat="43.586646087044215" lon="3.736212465488627"><ele>113.0</ele><time>2026-05-03T06:59:16.997Z</time></trkpt><trkpt lat="43.58672479520097" lon="3.7362517674303266"><ele>113.0</ele><time>2026-05-03T06:59:18.996Z</time></trkpt><trkpt lat="43.58678138910189" lon="3.7362953642593433"><ele>113.0</ele><time>2026-05-03T06:59:20.997Z</time></trkpt><trkpt lat="43.58684372611916" lon="3.73631155187038"><ele>112.99999999999999</ele><time>2026-05-03T06:59:23.996Z</time></trkpt><trkpt lat="43.58690593920127" lon="3.7363791456849027"><ele>113.0</ele><time>2026-05-03T06:59:26.996Z</time></trkpt><trkpt lat="43.58698154243517" lon="3.736450939044087"><ele>113.71428571428572</ele><time>2026-05-03T06:59:29.996Z</time></trkpt><trkpt lat="43.587059724565876" lon="3.7364801455130334"><ele>114.42857142857142</ele><time>2026-05-03T06:59:32.996Z</time></trkpt><trkpt lat="43.5871253553542" lon="3.736524531132305"><ele>115.14285714285714</ele><time>2026-05-03T06:59:35.996Z</time></trkpt><trkpt lat="43.58718597170019" lon="3.7365692355961753"><ele>115.85714285714286</ele><time>2026-05-03T06:59:38.996Z</time></trkpt><trkpt lat="43.58724768461063" lon="3.7366047523275623"><ele>116.57142857142858</ele><time>2026-05-03T06:59:41.996Z</time></trkpt><trkpt lat="43.587318591850305" lon="3.736567759479227"><ele>117.28571428571428</ele><time>2026-05-03T06:59:44.996Z</time></trkpt><trkpt lat="43.58738282150209" lon="3.7365320352296685"><ele>118.0</ele><time>2026-05-03T06:59:46.996Z</time></trkpt><trkpt lat="43.587435692401904" lon="3.736478393398014"><ele>118.00000000000001</ele><time>2026-05-03T06:59:48.996Z</time></trkpt><trkpt lat="43.58750631042482" lon="3.7364185334480595"><ele>118.0</ele><time>2026-05-03T06:59:51.996Z</time></trkpt><trkpt lat="43.58761847177456" lon="3.7364109144547184"><ele>118.0</ele><time>2026-05-03T06:59:56.996Z</time></trkpt><trkpt lat="43.58769359334614" lon="3.736379111823966"><ele>118.0</ele><time>2026-05-03T06:59:58.996Z</time></trkpt><trkpt lat="43.58775874029405" lon="3.7363633664010534"><ele>118.00000000000001</ele><time>2026-05-03T07:00:00.996Z</time></trkpt><trkpt lat="43.58781497955601" lon="3.7363143479259926"><ele>118.0</ele><time>2026-05-03T07:00:02.996Z</time></trkpt><trkpt lat="43.58789786895656" lon="3.736253772372568"><ele>119.33333333333334</ele><time>2026-05-03T07:00:05.996Z</time></trkpt><trkpt lat="43.58797139246856" lon="3.7361961289594463"><ele>120.66666666666667</ele><time>2026-05-03T07:00:07.996Z</time></trkpt><trkpt lat="43.588029886431315" lon="3.736136215647148"><ele>122.0</ele><time>2026-05-03T07:00:10.996Z</time></trkpt><trkpt lat="43.58807998662809" lon="3.736076242464294"><ele>123.33333333333334</ele><time>2026-05-03T07:00:12.996Z</time></trkpt><trkpt lat="43.58813582379956" lon="3.736010940400141"><ele>124.66666666666667</ele><time>2026-05-03T07:00:15.996Z</time></trkpt><trkpt lat="43.58821414238846" lon="3.7359480342550047"><ele>126.0</ele><time>2026-05-03T07:00:18.996Z</time></trkpt><trkpt lat="43.5882568876577" lon="3.735869154781673"><ele>126.16666666666667</ele><time>2026-05-03T07:00:20.996Z</time></trkpt><trkpt lat="43.58831735555188" lon="3.73580783345804"><ele>126.33333333333334</ele><time>2026-05-03T07:00:22.996Z</time></trkpt><trkpt lat="43.58838999759669" lon="3.7357583413992566"><ele>126.5</ele><time>2026-05-03T07:00:24.996Z</time></trkpt><trkpt lat="43.588473425617735" lon="3.735693226707324"><ele>126.66666666666667</ele><time>2026-05-03T07:00:27.996Z</time></trkpt><trkpt lat="43.5885388181066" lon="3.735646162810744"><ele>126.83333333333334</ele><time>2026-05-03T07:00:29.996Z</time></trkpt><trkpt lat="43.588614957371206" lon="3.73561924873818"><ele>127.0</ele><time>2026-05-03T07:00:32.996Z</time></trkpt><trkpt lat="43.58868116979487" lon="3.7355371616010644"><ele>128.14285714285714</ele><time>2026-05-03T07:00:35.996Z</time></trkpt><trkpt lat="43.58874550864632" lon="3.735475524600158"><ele>129.28571428571428</ele><time>2026-05-03T07:00:37.995Z</time></trkpt><trkpt lat="43.588813087241604" lon="3.7355171486979657"><ele>130.42857142857142</ele><time>2026-05-03T07:00:40.995Z</time></trkpt><trkpt lat="43.58887659714674" lon="3.7355379744916486"><ele>131.57142857142856</ele><time>2026-05-03T07:00:45.995Z</time></trkpt><trkpt lat="43.58892461489461" lon="3.735458321880141"><ele>132.7142857142857</ele><time>2026-05-03T07:00:53.995Z</time></trkpt><trkpt lat="43.588975117950795" lon="3.7353584602379972"><ele>133.85714285714286</ele><time>2026-05-03T07:00:56.995Z</time></trkpt><trkpt lat="43.589016178882424" lon="3.735288637796235"><ele>135.0</ele><time>2026-05-03T07:00:59.995Z</time></trkpt><trkpt lat="43.58906336059313" lon="3.735229870126324"><ele>134.16666666666666</ele><time>2026-05-03T07:01:01.995Z</time></trkpt><trkpt lat="43.58910957362426" lon="3.7351198198923283"><ele>133.33333333333334</ele><time>2026-05-03T07:01:04.995Z</time></trkpt><trkpt lat="43.589171537385376" lon="3.7350260664628396"><ele>132.5</ele><time>2026-05-03T07:01:07.995Z</time></trkpt><trkpt lat="43.58922003359813" lon="3.7349681357329465"><ele>131.66666666666669</ele><time>2026-05-03T07:01:09.995Z</time></trkpt><trkpt lat="43.58926823705633" lon="3.7349058885486315"><ele>130.83333333333334</ele><time>2026-05-03T07:01:11.995Z</time></trkpt><trkpt lat="43.58932059950264" lon="3.7348359549627155"><ele>130.0</ele><time>2026-05-03T07:01:13.995Z</time></trkpt><trkpt lat="43.58937704372875" lon="3.7347294965449973"><ele>130.0</ele><time>2026-05-03T07:01:16.995Z</time></trkpt><trkpt lat="43.58943882737766" lon="3.7346269607389635"><ele>130.0</ele><time>2026-05-03T07:01:19.996Z</time></trkpt><trkpt lat="43.589517597816396" lon="3.7345452377162713"><ele>130.0</ele><time>2026-05-03T07:01:22.996Z</time></trkpt><trkpt lat="43.58956735234263" lon="3.7344873003835293"><ele>130.0</ele><time>2026-05-03T07:01:24.996Z</time></trkpt><trkpt lat="43.58964464296383" lon="3.7344553660518462"><ele>130.0</ele><time>2026-05-03T07:01:27.997Z</time></trkpt><trkpt lat="43.58972309036115" lon="3.734402016696678"><ele>130.0</ele><time>2026-05-03T07:01:30.996Z</time></trkpt><trkpt lat="43.58978788460403" lon="3.7343736343828877"><ele>129.75</ele><time>2026-05-03T07:01:33.996Z</time></trkpt><trkpt lat="43.589945354450634" lon="3.7343801094513576"><ele>129.5</ele><time>2026-05-03T07:01:37.996Z</time></trkpt><trkpt lat="43.59001109552081" lon="3.734399858830039"><ele>129.25</ele><time>2026-05-03T07:01:39.996Z</time></trkpt><trkpt lat="43.590186736850214" lon="3.7343935421293226"><ele>129.0</ele><time>2026-05-03T07:01:44.996Z</time></trkpt><trkpt lat="43.590251731574256" lon="3.734378332543342"><ele>129.0</ele><time>2026-05-03T07:01:46.996Z</time></trkpt><trkpt lat="43.590334033402875" lon="3.734350738036902"><ele>129.0</ele><time>2026-05-03T07:01:48.996Z</time></trkpt><trkpt lat="43.5903946403452" lon="3.734322565455281"><ele>129.0</ele><time>2026-05-03T07:01:50.996Z</time></trkpt><trkpt lat="43.59048555168009" lon="3.73429578378203"><ele>129.0</ele><time>2026-05-03T07:01:52.996Z</time></trkpt><trkpt lat="43.590562166053715" lon="3.734267672982627"><ele>129.0</ele><time>2026-05-03T07:01:54.995Z</time></trkpt><trkpt lat="43.590639929744334" lon="3.7342541465164816"><ele>129.0</ele><time>2026-05-03T07:01:56.995Z</time></trkpt><trkpt lat="43.59071761775797" lon="3.7341711665615063"><ele>129.7142857142857</ele><time>2026-05-03T07:01:58.995Z</time></trkpt><trkpt lat="43.59078511713636" lon="3.7341227637067687"><ele>130.42857142857142</ele><time>2026-05-03T07:02:00.995Z</time></trkpt><trkpt lat="43.5908484042851" lon="3.734076719487854"><ele>131.14285714285714</ele><time>2026-05-03T07:02:02.995Z</time></trkpt><trkpt lat="43.59090985661383" lon="3.734051782193119"><ele>131.85714285714283</ele><time>2026-05-03T07:02:04.995Z</time></trkpt><trkpt lat="43.590981872184905" lon="3.7340061380095957"><ele>132.57142857142856</ele><time>2026-05-03T07:02:06.995Z</time></trkpt><trkpt lat="43.591045520186135" lon="3.733961233303813"><ele>133.28571428571428</ele><time>2026-05-03T07:02:09.995Z</time></trkpt><trkpt lat="43.59111607474438" lon="3.7339094303175004"><ele>134.0</ele><time>2026-05-03T07:02:11.995Z</time></trkpt><trkpt lat="43.59118874847517" lon="3.733858503179049"><ele>135.66666666666666</ele><time>2026-05-03T07:02:13.995Z</time></trkpt><trkpt lat="43.59125346887781" lon="3.73384556112097"><ele>137.33333333333331</ele><time>2026-05-03T07:02:15.995Z</time></trkpt><trkpt lat="43.591353118615544" lon="3.733800155474283"><ele>139.0</ele><time>2026-05-03T07:02:18.995Z</time></trkpt><trkpt lat="43.59143144989026" lon="3.733739471334916"><ele>140.66666666666666</ele><time>2026-05-03T07:02:20.995Z</time></trkpt><trkpt lat="43.59149439385135" lon="3.7336851884534235"><ele>142.33333333333334</ele><time>2026-05-03T07:02:22.995Z</time></trkpt><trkpt lat="43.591561306865515" lon="3.7336421045074473"><ele>144.0</ele><time>2026-05-03T07:02:24.995Z</time></trkpt><trkpt lat="43.5916459129128" lon="3.733596262134128"><ele>144.0</ele><time>2026-05-03T07:02:27.995Z</time></trkpt><trkpt lat="43.59172851930699" lon="3.7335851976716663"><ele>144.0</ele><time>2026-05-03T07:02:30.995Z</time></trkpt><trkpt lat="43.59180052438369" lon="3.7336170266623614"><ele>144.0</ele><time>2026-05-03T07:02:33.995Z</time></trkpt><trkpt lat="43.59189656669856" lon="3.7336304923242234"><ele>144.0</ele><time>2026-05-03T07:02:36.995Z</time></trkpt><trkpt lat="43.591977494829614" lon="3.7336432390897754"><ele>144.0</ele><time>2026-05-03T07:02:38.995Z</time></trkpt><trkpt lat="43.59206727591527" lon="3.733679898954705"><ele>144.0</ele><time>2026-05-03T07:02:41.995Z</time></trkpt><trkpt lat="43.59213669232508" lon="3.733691675498084"><ele>144.83333333333334</ele><time>2026-05-03T07:02:43.995Z</time></trkpt><trkpt lat="43.592213969552965" lon="3.7337326711704795"><ele>145.66666666666666</ele><time>2026-05-03T07:02:46.995Z</time></trkpt><trkpt lat="43.59228679623908" lon="3.7337924725923473"><ele>146.5</ele><time>2026-05-03T07:02:49.995Z</time></trkpt><trkpt lat="43.59236749306214" lon="3.7338612295078937"><ele>147.33333333333331</ele><time>2026-05-03T07:02:52.995Z</time></trkpt><trkpt lat="43.5924429314774" lon="3.7338949932647485"><ele>148.16666666666666</ele><time>2026-05-03T07:02:54.995Z</time></trkpt><trkpt lat="43.592510961664374" lon="3.733907987817844"><ele>149.0</ele><time>2026-05-03T07:02:56.995Z</time></trkpt><trkpt lat="43.59259309502159" lon="3.733950944919356"><ele>149.0</ele><time>2026-05-03T07:02:59.995Z</time></trkpt><trkpt lat="43.59266725070891" lon="3.7339756262152073"><ele>149.0</ele><time>2026-05-03T07:03:01.995Z</time></trkpt><trkpt lat="43.59273319203444" lon="3.7340018213519306"><ele>149.0</ele><time>2026-05-03T07:03:03.995Z</time></trkpt><trkpt lat="43.59280069838674" lon="3.734026535465009"><ele>149.0</ele><time>2026-05-03T07:03:05.995Z</time></trkpt><trkpt lat="43.59287818545481" lon="3.7340637435210677"><ele>149.0</ele><time>2026-05-03T07:03:07.995Z</time></trkpt><trkpt lat="43.59296087139425" lon="3.734068403714579"><ele>149.0</ele><time>2026-05-03T07:03:10.995Z</time></trkpt><trkpt lat="43.593022003379346" lon="3.7340221908169875"><ele>149.0</ele><time>2026-05-03T07:03:12.995Z</time></trkpt><trkpt lat="43.59309193555466" lon="3.7339529699803"><ele>149.33333333333331</ele><time>2026-05-03T07:03:14.995Z</time></trkpt><trkpt lat="43.59314433683421" lon="3.7338956187134325"><ele>149.66666666666666</ele><time>2026-05-03T07:03:16.995Z</time></trkpt><trkpt lat="43.5932109243581" lon="3.733850757229929"><ele>150.0</ele><time>2026-05-03T07:03:18.995Z</time></trkpt><trkpt lat="43.59319258614913" lon="3.7337229232935445"><ele>150.33333333333334</ele><time>2026-05-03T07:03:21.995Z</time></trkpt><trkpt lat="43.5931259887184" lon="3.7336664584300157"><ele>150.66666666666669</ele><time>2026-05-03T07:03:23.995Z</time></trkpt><trkpt lat="43.59304706176592" lon="3.733610152952453"><ele>151.0</ele><time>2026-05-03T07:03:25.996Z</time></trkpt><trkpt lat="43.592995170623006" lon="3.733538988328999"><ele>151.0</ele><time>2026-05-03T07:03:27.997Z</time></trkpt><trkpt lat="43.59292265966059" lon="3.733492961771257"><ele>151.0</ele><time>2026-05-03T07:03:29.997Z</time></trkpt><trkpt lat="43.59282589179629" lon="3.733499904720826"><ele>151.0</ele><time>2026-05-03T07:03:31.996Z</time></trkpt><trkpt lat="43.5927311414434" lon="3.7334449526858102"><ele>151.0</ele><time>2026-05-03T07:03:33.996Z</time></trkpt><trkpt lat="43.59265451250007" lon="3.7334358356208934"><ele>151.0</ele><time>2026-05-03T07:03:35.996Z</time></trkpt><trkpt lat="43.592593333828695" lon="3.733386577852494"><ele>151.0</ele><time>2026-05-03T07:03:37.996Z</time></trkpt><trkpt lat="43.592524865797536" lon="3.7333470740488606"><ele>150.0</ele><time>2026-05-03T07:03:39.997Z</time></trkpt><trkpt lat="43.59246096900298" lon="3.733318400811186"><ele>149.0</ele><time>2026-05-03T07:03:41.997Z</time></trkpt><trkpt lat="43.59239031696841" lon="3.733281260031494"><ele>148.0</ele><time>2026-05-03T07:03:44.997Z</time></trkpt><trkpt lat="43.59233320571264" lon="3.733232745787942"><ele>147.0</ele><time>2026-05-03T07:03:46.997Z</time></trkpt><trkpt lat="43.592275903441895" lon="3.7331556551669802"><ele>146.0</ele><time>2026-05-03T07:03:48.997Z</time></trkpt><trkpt lat="43.5922851910396" lon="3.7330574150927456"><ele>145.0</ele><time>2026-05-03T07:03:51.997Z</time></trkpt><trkpt lat="43.59232677728681" lon="3.7329391966818375"><ele>145.0</ele><time>2026-05-03T07:03:55.997Z</time></trkpt><trkpt lat="43.59237001611458" lon="3.732844801495938"><ele>145.0</ele><time>2026-05-03T07:03:58.996Z</time></trkpt><trkpt lat="43.59240360087127" lon="3.732761789479274"><ele>145.0</ele><time>2026-05-03T07:04:01.996Z</time></trkpt><trkpt lat="43.59243396211033" lon="3.732657491318837"><ele>145.0</ele><time>2026-05-03T07:04:05.996Z</time></trkpt><trkpt lat="43.592485628199626" lon="3.73259811744686"><ele>145.0</ele><time>2026-05-03T07:04:08.996Z</time></trkpt><trkpt lat="43.59253129584003" lon="3.7324838404696767"><ele>145.0</ele><time>2026-05-03T07:04:11.996Z</time></trkpt><trkpt lat="43.59257467797046" lon="3.732409633126027"><ele>145.57142857142858</ele><time>2026-05-03T07:04:13.996Z</time></trkpt><trkpt lat="43.59261662615855" lon="3.73233700544168"><ele>146.14285714285717</ele><time>2026-05-03T07:04:15.996Z</time></trkpt><trkpt lat="43.59264809819831" lon="3.7322523658763815"><ele>146.71428571428572</ele><time>2026-05-03T07:04:19.996Z</time></trkpt><trkpt lat="43.59268895281427" lon="3.7321701052469876"><ele>147.28571428571428</ele><time>2026-05-03T07:04:22.996Z</time></trkpt><trkpt lat="43.592716836528446" lon="3.7320852430577895"><ele>147.85714285714283</ele><time>2026-05-03T07:04:25.996Z</time></trkpt><trkpt lat="43.59276018043838" lon="3.7320107632327653"><ele>148.42857142857142</ele><time>2026-05-03T07:04:28.996Z</time></trkpt><trkpt lat="43.59279917732063" lon="3.731912416793228"><ele>149.0</ele><time>2026-05-03T07:04:32.996Z</time></trkpt><trkpt lat="43.59284122070841" lon="3.731835551865672"><ele>149.83333333333331</ele><time>2026-05-03T07:04:35.996Z</time></trkpt><trkpt lat="43.592874098706176" lon="3.7317449464473045"><ele>150.66666666666666</ele><time>2026-05-03T07:04:38.996Z</time></trkpt><trkpt lat="43.59290434698349" lon="3.7316643747293035"><ele>151.5</ele><time>2026-05-03T07:04:41.996Z</time></trkpt><trkpt lat="43.592933802592164" lon="3.731571856340288"><ele>152.33333333333334</ele><time>2026-05-03T07:04:44.996Z</time></trkpt><trkpt lat="43.59295245592243" lon="3.731451228359863"><ele>153.16666666666669</ele><time>2026-05-03T07:04:47.996Z</time></trkpt><trkpt lat="43.593009076617214" lon="3.731386431945302"><ele>154.0</ele><time>2026-05-03T07:04:49.996Z</time></trkpt><trkpt lat="43.593081271868925" lon="3.731438891616634"><ele>154.0</ele><time>2026-05-03T07:04:52.996Z</time></trkpt><trkpt lat="43.593137323004164" lon="3.731539630140714"><ele>154.0</ele><time>2026-05-03T07:04:55.996Z</time></trkpt><trkpt lat="43.59321171285511" lon="3.7315829651243035"><ele>154.0</ele><time>2026-05-03T07:04:58.996Z</time></trkpt><trkpt lat="43.5932971545422" lon="3.7316330880494166"><ele>154.0</ele><time>2026-05-03T07:05:01.996Z</time></trkpt><trkpt lat="43.593359933020345" lon="3.731662772176093"><ele>154.0</ele><time>2026-05-03T07:05:03.996Z</time></trkpt><trkpt lat="43.5934276478405" lon="3.731691424667152"><ele>154.0</ele><time>2026-05-03T07:05:05.996Z</time></trkpt><trkpt lat="43.5935131519223" lon="3.7317312908434297"><ele>154.0</ele><time>2026-05-03T07:05:08.996Z</time></trkpt><trkpt lat="43.59360136965951" lon="3.7317731176905085"><ele>154.0</ele><time>2026-05-03T07:05:11.995Z</time></trkpt><trkpt lat="43.59368445329173" lon="3.73181916223442"><ele>154.0</ele><time>2026-05-03T07:05:14.995Z</time></trkpt><trkpt lat="43.59374764075807" lon="3.7318465070864772"><ele>154.0</ele><time>2026-05-03T07:05:16.994Z</time></trkpt><trkpt lat="43.59381603742734" lon="3.731893942436732"><ele>154.0</ele><time>2026-05-03T07:05:18.994Z</time></trkpt><trkpt lat="43.59391258382189" lon="3.731926680470568"><ele>154.0</ele><time>2026-05-03T07:05:21.993Z</time></trkpt><trkpt lat="43.593975484094734" lon="3.731965713650254"><ele>154.66666666666669</ele><time>2026-05-03T07:05:23.993Z</time></trkpt><trkpt lat="43.59404032146757" lon="3.7320195784435852"><ele>155.33333333333334</ele><time>2026-05-03T07:05:25.993Z</time></trkpt><trkpt lat="43.594104811346064" lon="3.732051548121432"><ele>156.0</ele><time>2026-05-03T07:05:27.993Z</time></trkpt><trkpt lat="43.59417834729182" lon="3.732090188051037"><ele>156.66666666666666</ele><time>2026-05-03T07:05:29.993Z</time></trkpt><trkpt lat="43.59426154620614" lon="3.732130021731599"><ele>157.33333333333331</ele><time>2026-05-03T07:05:32.993Z</time></trkpt><trkpt lat="43.59434530944504" lon="3.732165305376952"><ele>158.0</ele><time>2026-05-03T07:05:35.993Z</time></trkpt><trkpt lat="43.59441085773596" lon="3.7321864694329725"><ele>158.00000000000003</ele><time>2026-05-03T07:05:37.992Z</time></trkpt><trkpt lat="43.59448440975738" lon="3.732202128307739"><ele>158.0</ele><time>2026-05-03T07:05:40.992Z</time></trkpt><trkpt lat="43.594553622815326" lon="3.73222627856807"><ele>158.0</ele><time>2026-05-03T07:05:42.992Z</time></trkpt><trkpt lat="43.5946308040019" lon="3.732250417887383"><ele>158.0</ele><time>2026-05-03T07:05:44.992Z</time></trkpt><trkpt lat="43.59469158283581" lon="3.732281513424538"><ele>158.0</ele><time>2026-05-03T07:05:46.992Z</time></trkpt><trkpt lat="43.594757756010154" lon="3.7322890850008017"><ele>158.00000000000003</ele><time>2026-05-03T07:05:48.992Z</time></trkpt><trkpt lat="43.594834941737346" lon="3.732292347276392"><ele>158.0</ele><time>2026-05-03T07:05:50.992Z</time></trkpt><trkpt lat="43.594909971735646" lon="3.732275636860874"><ele>158.71428571428572</ele><time>2026-05-03T07:05:52.992Z</time></trkpt><trkpt lat="43.59497189725085" lon="3.732252460198753"><ele>159.42857142857144</ele><time>2026-05-03T07:05:54.992Z</time></trkpt><trkpt lat="43.595045996374864" lon="3.732241891204147"><ele>160.14285714285717</ele><time>2026-05-03T07:05:57.991Z</time></trkpt><trkpt lat="43.595116725837116" lon="3.732250244974613"><ele>160.85714285714286</ele><time>2026-05-03T07:06:00.991Z</time></trkpt><trkpt lat="43.59518551883289" lon="3.7322534284272626"><ele>161.57142857142856</ele><time>2026-05-03T07:06:04.991Z</time></trkpt><trkpt lat="43.59526200661991" lon="3.7322691555081984"><ele>162.2857142857143</ele><time>2026-05-03T07:06:08.991Z</time></trkpt><trkpt lat="43.59532702344814" lon="3.7322399640196844"><ele>163.0</ele><time>2026-05-03T07:06:11.991Z</time></trkpt><trkpt lat="43.59540276894096" lon="3.732286546432332"><ele>163.16666666666669</ele><time>2026-05-03T07:06:14.991Z</time></trkpt><trkpt lat="43.59541109777408" lon="3.732402026292655"><ele>163.33333333333334</ele><time>2026-05-03T07:06:17.991Z</time></trkpt><trkpt lat="43.59542340997533" lon="3.7325030456931794"><ele>163.5</ele><time>2026-05-03T07:06:20.991Z</time></trkpt><trkpt lat="43.595428511039316" lon="3.7325990715623303"><ele>163.66666666666666</ele><time>2026-05-03T07:06:23.991Z</time></trkpt><trkpt lat="43.59544901399424" lon="3.732701442884911"><ele>163.83333333333331</ele><time>2026-05-03T07:06:26.991Z</time></trkpt><trkpt lat="43.59544747983636" lon="3.732819340283444"><ele>164.0</ele><time>2026-05-03T07:06:30.991Z</time></trkpt><trkpt lat="43.59548411351013" lon="3.732923588472921"><ele>164.7142857142857</ele><time>2026-05-03T07:06:34.991Z</time></trkpt><trkpt lat="43.59550106120736" lon="3.733027653512414"><ele>165.42857142857142</ele><time>2026-05-03T07:06:37.991Z</time></trkpt><trkpt lat="43.595514810702014" lon="3.733120362730647"><ele>166.14285714285714</ele><time>2026-05-03T07:06:40.991Z</time></trkpt><trkpt lat="43.59550536371899" lon="3.733227815236059"><ele>166.85714285714283</ele><time>2026-05-03T07:06:43.991Z</time></trkpt><trkpt lat="43.595515484952145" lon="3.733325160342042"><ele>167.57142857142856</ele><time>2026-05-03T07:06:46.991Z</time></trkpt><trkpt lat="43.5955183251121" lon="3.7334201459247653"><ele>168.28571428571428</ele><time>2026-05-03T07:06:49.991Z</time></trkpt><trkpt lat="43.59554441387325" lon="3.733519009037474"><ele>169.0</ele><time>2026-05-03T07:06:53.991Z</time></trkpt><trkpt lat="43.595552199059796" lon="3.7336116098396586"><ele>170.33333333333334</ele><time>2026-05-03T07:06:56.991Z</time></trkpt><trkpt lat="43.595576818240914" lon="3.73371552288504"><ele>171.66666666666669</ele><time>2026-05-03T07:06:59.991Z</time></trkpt><trkpt lat="43.59560992129353" lon="3.733795567626184"><ele>173.0</ele><time>2026-05-03T07:07:02.991Z</time></trkpt><trkpt lat="43.595644094585076" lon="3.7338895745510197"><ele>174.33333333333334</ele><time>2026-05-03T07:07:05.991Z</time></trkpt><trkpt lat="43.595710912000094" lon="3.7339379477534775"><ele>175.66666666666666</ele><time>2026-05-03T07:07:08.991Z</time></trkpt><trkpt lat="43.595780242097526" lon="3.733991626800359"><ele>177.0</ele><time>2026-05-03T07:07:11.991Z</time></trkpt><trkpt lat="43.59584714406183" lon="3.7340411958331106"><ele>177.0</ele><time>2026-05-03T07:07:14.991Z</time></trkpt><trkpt lat="43.59591599784143" lon="3.7340991615970913"><ele>177.0</ele><time>2026-05-03T07:07:17.991Z</time></trkpt><trkpt lat="43.59598304090187" lon="3.7341715170327197"><ele>177.0</ele><time>2026-05-03T07:07:21.99Z</time></trkpt><trkpt lat="43.59603591200715" lon="3.7342634024196144"><ele>177.0</ele><time>2026-05-03T07:07:24.99Z</time></trkpt><trkpt lat="43.59610018234226" lon="3.734321641741957"><ele>177.0</ele><time>2026-05-03T07:07:26.99Z</time></trkpt><trkpt lat="43.596168814139126" lon="3.734385799006079"><ele>177.0</ele><time>2026-05-03T07:07:28.99Z</time></trkpt><trkpt lat="43.59621688031028" lon="3.734452586079229"><ele>177.2</ele><time>2026-05-03T07:07:29.99Z</time></trkpt><trkpt lat="43.59627943554995" lon="3.7345747590322427"><ele>177.39999999999998</ele><time>2026-05-03T07:07:31.99Z</time></trkpt><trkpt lat="43.59634667765261" lon="3.7346878510191246"><ele>177.60000000000002</ele><time>2026-05-03T07:07:33.99Z</time></trkpt><trkpt lat="43.59643296295681" lon="3.734807993319889"><ele>177.8</ele><time>2026-05-03T07:07:35.99Z</time></trkpt><trkpt lat="43.59651848856375" lon="3.7348790614282654"><ele>178.0</ele><time>2026-05-03T07:07:37.991Z</time></trkpt><trkpt lat="43.59660623390397" lon="3.7349406963479668"><ele>178.0</ele><time>2026-05-03T07:07:39.992Z</time></trkpt><trkpt lat="43.59669758425724" lon="3.734987960044254"><ele>178.0</ele><time>2026-05-03T07:07:42.992Z</time></trkpt><trkpt lat="43.596776598956055" lon="3.7350166380632532"><ele>178.0</ele><time>2026-05-03T07:07:45.992Z</time></trkpt><trkpt lat="43.59685733629557" lon="3.7350537840588856"><ele>178.0</ele><time>2026-05-03T07:07:48.992Z</time></trkpt><trkpt lat="43.596927000817" lon="3.7350960032437412"><ele>178.0</ele><time>2026-05-03T07:07:52.992Z</time></trkpt><trkpt lat="43.59700003977445" lon="3.735136435351954"><ele>178.0</ele><time>2026-05-03T07:07:55.992Z</time></trkpt><trkpt lat="43.59707350011346" lon="3.735147230374466"><ele>177.83333333333334</ele><time>2026-05-03T07:07:58.992Z</time></trkpt><trkpt lat="43.59715078290109" lon="3.7351557821963457"><ele>177.66666666666669</ele><time>2026-05-03T07:08:01.992Z</time></trkpt><trkpt lat="43.59722119471463" lon="3.7351704537869814"><ele>177.5</ele><time>2026-05-03T07:08:03.992Z</time></trkpt><trkpt lat="43.597296684053745" lon="3.7351938828443902"><ele>177.33333333333334</ele><time>2026-05-03T07:08:06.992Z</time></trkpt><trkpt lat="43.59738266555621" lon="3.7351806353152983"><ele>177.16666666666666</ele><time>2026-05-03T07:08:08.992Z</time></trkpt><trkpt lat="43.59747572705539" lon="3.7352128199194654"><ele>177.0</ele><time>2026-05-03T07:08:10.992Z</time></trkpt><trkpt lat="43.5975771823617" lon="3.7352311303102463"><ele>176.0</ele><time>2026-05-03T07:08:12.992Z</time></trkpt><trkpt lat="43.597684110126" lon="3.7352204630482357"><ele>175.0</ele><time>2026-05-03T07:08:15.992Z</time></trkpt><trkpt lat="43.597788890834664" lon="3.735154563953854"><ele>174.0</ele><time>2026-05-03T07:08:18.992Z</time></trkpt><trkpt lat="43.59787417400745" lon="3.735127965192568"><ele>173.0</ele><time>2026-05-03T07:08:19.992Z</time></trkpt><trkpt lat="43.597969239385954" lon="3.7351148692321856"><ele>172.0</ele><time>2026-05-03T07:08:21.992Z</time></trkpt><trkpt lat="43.59802633667534" lon="3.7350763509426317"><ele>170.16666666666669</ele><time>2026-05-03T07:08:24.992Z</time></trkpt><trkpt lat="43.59808491203188" lon="3.735020497682592"><ele>168.33333333333334</ele><time>2026-05-03T07:08:26.992Z</time></trkpt><trkpt lat="43.59815703228824" lon="3.735034365438816"><ele>166.5</ele><time>2026-05-03T07:08:30.992Z</time></trkpt><trkpt lat="43.59826861992752" lon="3.735049774912203"><ele>164.66666666666666</ele><time>2026-05-03T07:08:35.992Z</time></trkpt><trkpt lat="43.59834041958606" lon="3.735076557095411"><ele>162.83333333333331</ele><time>2026-05-03T07:08:39.992Z</time></trkpt><trkpt lat="43.59841798396704" lon="3.73508765896758"><ele>161.0</ele><time>2026-05-03T07:08:42.992Z</time></trkpt><trkpt lat="43.59848677410993" lon="3.735034179951045"><ele>161.0</ele><time>2026-05-03T07:08:45.992Z</time></trkpt><trkpt lat="43.59865196121983" lon="3.735004787278822"><ele>161.0</ele><time>2026-05-03T07:08:53.992Z</time></trkpt><trkpt lat="43.59873244389761" lon="3.7349487024143846"><ele>161.0</ele><time>2026-05-03T07:08:57.992Z</time></trkpt><trkpt lat="43.59882054877684" lon="3.7349038458813046"><ele>161.0</ele><time>2026-05-03T07:09:00.992Z</time></trkpt><trkpt lat="43.598901528808376" lon="3.734930010653915"><ele>161.0</ele><time>2026-05-03T07:09:04.992Z</time></trkpt><trkpt lat="43.59897110201134" lon="3.7349100166123166"><ele>158.16666666666666</ele><time>2026-05-03T07:09:08.992Z</time></trkpt><trkpt lat="43.59903319071299" lon="3.7348753979763774"><ele>155.33333333333331</ele><time>2026-05-03T07:09:12.991Z</time></trkpt><trkpt lat="43.5990694261299" lon="3.7347895250836376"><ele>152.5</ele><time>2026-05-03T07:09:16.991Z</time></trkpt><trkpt lat="43.599083883277274" lon="3.7346596672897587"><ele>149.66666666666666</ele><time>2026-05-03T07:09:19.991Z</time></trkpt><trkpt lat="43.59904870010001" lon="3.7345612859366732"><ele>146.83333333333334</ele><time>2026-05-03T07:09:23.991Z</time></trkpt><trkpt lat="43.59902936721583" lon="3.73445111418452"><ele>144.0</ele><time>2026-05-03T07:09:25.991Z</time></trkpt><trkpt lat="43.59901370768644" lon="3.734360353571348"><ele>142.83333333333334</ele><time>2026-05-03T07:09:27.991Z</time></trkpt><trkpt lat="43.59896793368932" lon="3.734292481007373"><ele>141.66666666666666</ele><time>2026-05-03T07:09:29.991Z</time></trkpt><trkpt lat="43.59892099460946" lon="3.7341934692038814"><ele>140.5</ele><time>2026-05-03T07:09:33.991Z</time></trkpt><trkpt lat="43.598873797154916" lon="3.734103815858445"><ele>139.33333333333331</ele><time>2026-05-03T07:09:37.991Z</time></trkpt><trkpt lat="43.59882815258494" lon="3.733974819865541"><ele>138.16666666666666</ele><time>2026-05-03T07:09:41.991Z</time></trkpt><trkpt lat="43.59878523360928" lon="3.733889664519835"><ele>137.0</ele><time>2026-05-03T07:09:43.992Z</time></trkpt><trkpt lat="43.59876360481532" lon="3.7337864954882054"><ele>137.0</ele><time>2026-05-03T07:09:46.991Z</time></trkpt><trkpt lat="43.59874299540227" lon="3.7336979994304236"><ele>137.0</ele><time>2026-05-03T07:09:49.991Z</time></trkpt><trkpt lat="43.59877229538674" lon="3.7335936622781225"><ele>137.0</ele><time>2026-05-03T07:09:52.992Z</time></trkpt><trkpt lat="43.59881390241161" lon="3.7335136882876547"><ele>137.0</ele><time>2026-05-03T07:09:54.992Z</time></trkpt><trkpt lat="43.598827645042334" lon="3.733387541255783"><ele>137.0</ele><time>2026-05-03T07:09:57.992Z</time></trkpt><trkpt lat="43.59882421932612" lon="3.7332843161828664"><ele>137.0</ele><time>2026-05-03T07:09:59.992Z</time></trkpt><trkpt lat="43.598837164374416" lon="3.733179318149363"><ele>136.0</ele><time>2026-05-03T07:10:02.992Z</time></trkpt><trkpt lat="43.59881764038071" lon="3.7330563424136134"><ele>135.0</ele><time>2026-05-03T07:10:05.992Z</time></trkpt><trkpt lat="43.59880564497732" lon="3.7329558806234013"><ele>134.0</ele><time>2026-05-03T07:10:07.992Z</time></trkpt><trkpt lat="43.59880048351366" lon="3.7328252087677014"><ele>133.0</ele><time>2026-05-03T07:10:09.992Z</time></trkpt><trkpt lat="43.59883322025525" lon="3.732718626607117"><ele>132.0</ele><time>2026-05-03T07:10:11.992Z</time></trkpt><trkpt lat="43.598878584799046" lon="3.7326330491255875"><ele>131.0</ele><time>2026-05-03T07:10:13.991Z</time></trkpt><trkpt lat="43.59886972646534" lon="3.732500595281791"><ele>130.66666666666666</ele><time>2026-05-03T07:10:16.991Z</time></trkpt><trkpt lat="43.59885427787938" lon="3.732400184375043"><ele>130.33333333333331</ele><time>2026-05-03T07:10:18.991Z</time></trkpt><trkpt lat="43.598821173166705" lon="3.732308975229478"><ele>130.0</ele><time>2026-05-03T07:10:20.991Z</time></trkpt><trkpt lat="43.598811548001635" lon="3.732206368896164"><ele>129.66666666666666</ele><time>2026-05-03T07:10:22.991Z</time></trkpt><trkpt lat="43.59876496901308" lon="3.732101853007635"><ele>129.33333333333334</ele><time>2026-05-03T07:10:25.991Z</time></trkpt><trkpt lat="43.598718449859845" lon="3.7319934200209333"><ele>129.0</ele><time>2026-05-03T07:10:28.991Z</time></trkpt><trkpt lat="43.598711157559634" lon="3.731857826204316"><ele>128.5</ele><time>2026-05-03T07:10:31.991Z</time></trkpt><trkpt lat="43.598679166599354" lon="3.731733439302243"><ele>128.0</ele><time>2026-05-03T07:10:33.991Z</time></trkpt><trkpt lat="43.598609510443566" lon="3.7316463911724114"><ele>127.5</ele><time>2026-05-03T07:10:36.991Z</time></trkpt><trkpt lat="43.59857846319855" lon="3.731564895480695"><ele>127.0</ele><time>2026-05-03T07:10:38.991Z</time></trkpt><trkpt lat="43.59855436400096" lon="3.7314778158433226"><ele>126.5</ele><time>2026-05-03T07:10:40.991Z</time></trkpt><trkpt lat="43.598501111019424" lon="3.73141164806172"><ele>126.0</ele><time>2026-05-03T07:10:42.991Z</time></trkpt><trkpt lat="43.59843868773877" lon="3.731346563949864"><ele>126.57142857142857</ele><time>2026-05-03T07:10:44.991Z</time></trkpt><trkpt lat="43.598396929154845" lon="3.7312680695353775"><ele>127.14285714285714</ele><time>2026-05-03T07:10:47.991Z</time></trkpt><trkpt lat="43.598338787482575" lon="3.73121062003247"><ele>127.71428571428572</ele><time>2026-05-03T07:10:49.991Z</time></trkpt><trkpt lat="43.59831308708579" lon="3.7311253658070895"><ele>128.28571428571428</ele><time>2026-05-03T07:10:52.991Z</time></trkpt><trkpt lat="43.59836713566097" lon="3.7310351642645236"><ele>128.85714285714286</ele><time>2026-05-03T07:10:54.991Z</time></trkpt><trkpt lat="43.59841329922234" lon="3.7309600656274022"><ele>129.42857142857144</ele><time>2026-05-03T07:10:56.991Z</time></trkpt><trkpt lat="43.59843412077475" lon="3.730870644853695"><ele>130.0</ele><time>2026-05-03T07:10:58.991Z</time></trkpt><trkpt lat="43.598404281063765" lon="3.730776449985642"><ele>130.0</ele><time>2026-05-03T07:11:01.991Z</time></trkpt><trkpt lat="43.598389874050106" lon="3.7306790653808095"><ele>130.0</ele><time>2026-05-03T07:11:04.991Z</time></trkpt><trkpt lat="43.598404297455765" lon="3.7305901956463523"><ele>130.0</ele><time>2026-05-03T07:11:07.991Z</time></trkpt><trkpt lat="43.59842985011955" lon="3.7304565644205594"><ele>130.0</ele><time>2026-05-03T07:11:10.991Z</time></trkpt><trkpt lat="43.598449205909546" lon="3.730340879619794"><ele>130.0</ele><time>2026-05-03T07:11:12.991Z</time></trkpt><trkpt lat="43.59846852973173" lon="3.7302416036180874"><ele>130.0</ele><time>2026-05-03T07:11:14.991Z</time></trkpt><trkpt lat="43.5984982501756" lon="3.73014244794495"><ele>129.66666666666669</ele><time>2026-05-03T07:11:16.991Z</time></trkpt><trkpt lat="43.59854878257156" lon="3.7300437311522705"><ele>129.33333333333334</ele><time>2026-05-03T07:11:18.991Z</time></trkpt><trkpt lat="43.59859414341298" lon="3.7299277839178253"><ele>129.0</ele><time>2026-05-03T07:11:20.991Z</time></trkpt><trkpt lat="43.59865464574495" lon="3.72983082759298"><ele>128.66666666666666</ele><time>2026-05-03T07:11:22.991Z</time></trkpt><trkpt lat="43.59870180562907" lon="3.729754284148482"><ele>128.33333333333331</ele><time>2026-05-03T07:11:24.991Z</time></trkpt><trkpt lat="43.59872983685719" lon="3.729660950263904"><ele>128.0</ele><time>2026-05-03T07:11:26.991Z</time></trkpt><trkpt lat="43.59877563127149" lon="3.7295533167543584"><ele>127.99999999999999</ele><time>2026-05-03T07:11:29.991Z</time></trkpt><trkpt lat="43.59882142100466" lon="3.7294716184535677"><ele>128.0</ele><time>2026-05-03T07:11:31.991Z</time></trkpt><trkpt lat="43.59884588038897" lon="3.729373695424946"><ele>128.0</ele><time>2026-05-03T07:11:33.991Z</time></trkpt><trkpt lat="43.598877153215405" lon="3.7292575004200295"><ele>128.0</ele><time>2026-05-03T07:11:35.991Z</time></trkpt><trkpt lat="43.598913748184934" lon="3.7291331599913833"><ele>127.99999999999999</ele><time>2026-05-03T07:11:38.991Z</time></trkpt><trkpt lat="43.59896284982217" lon="3.7290246795079565"><ele>128.0</ele><time>2026-05-03T07:11:40.991Z</time></trkpt><trkpt lat="43.59900591281208" lon="3.7289577333497435"><ele>128.5</ele><time>2026-05-03T07:11:42.991Z</time></trkpt><trkpt lat="43.599079261753005" lon="3.7289138856834922"><ele>129.0</ele><time>2026-05-03T07:11:44.991Z</time></trkpt><trkpt lat="43.59913721940175" lon="3.7288136453858094"><ele>129.5</ele><time>2026-05-03T07:11:46.991Z</time></trkpt><trkpt lat="43.5991834075178" lon="3.7287076083155526"><ele>130.0</ele><time>2026-05-03T07:11:48.991Z</time></trkpt><trkpt lat="43.59922428261228" lon="3.7286244928108645"><ele>130.5</ele><time>2026-05-03T07:11:50.991Z</time></trkpt><trkpt lat="43.599240270054146" lon="3.7285116112656573"><ele>131.0</ele><time>2026-05-03T07:11:52.992Z</time></trkpt><trkpt lat="43.59926495807514" lon="3.728410171609763"><ele>131.2</ele><time>2026-05-03T07:11:54.992Z</time></trkpt><trkpt lat="43.59930361008055" lon="3.7282651895287904"><ele>131.39999999999998</ele><time>2026-05-03T07:11:56.992Z</time></trkpt><trkpt lat="43.59939143717419" lon="3.7281446782756973"><ele>131.6</ele><time>2026-05-03T07:11:58.992Z</time></trkpt><trkpt lat="43.59943174281931" lon="3.728077686256068"><ele>131.79999999999998</ele><time>2026-05-03T07:11:59.992Z</time></trkpt><trkpt lat="43.599475200478366" lon="3.7280119545194923"><ele>132.0</ele><time>2026-05-03T07:12:00.992Z</time></trkpt><trkpt lat="43.599537210567846" lon="3.7278978150086526"><ele>132.0</ele><time>2026-05-03T07:12:02.991Z</time></trkpt><trkpt lat="43.5995809498977" lon="3.727761346469865"><ele>132.0</ele><time>2026-05-03T07:12:04.991Z</time></trkpt><trkpt lat="43.59960088911626" lon="3.727635262790284"><ele>132.0</ele><time>2026-05-03T07:12:06.991Z</time></trkpt><trkpt lat="43.5996444603373" lon="3.727531171787922"><ele>132.0</ele><time>2026-05-03T07:12:08.991Z</time></trkpt><trkpt lat="43.599672344784416" lon="3.727443054419118"><ele>132.0</ele><time>2026-05-03T07:12:11.991Z</time></trkpt><trkpt lat="43.59968529062591" lon="3.727319479682272"><ele>132.0</ele><time>2026-05-03T07:12:13.991Z</time></trkpt><trkpt lat="43.59964652749915" lon="3.7272172149074296"><ele>132.5</ele><time>2026-05-03T07:12:15.991Z</time></trkpt><trkpt lat="43.599592990036655" lon="3.72714751336253"><ele>133.0</ele><time>2026-05-03T07:12:17.991Z</time></trkpt><trkpt lat="43.59954473298256" lon="3.7270622940033147"><ele>133.5</ele><time>2026-05-03T07:12:19.991Z</time></trkpt><trkpt lat="43.59950530074656" lon="3.7269761499460503"><ele>134.0</ele><time>2026-05-03T07:12:21.991Z</time></trkpt><trkpt lat="43.599483441766736" lon="3.726894345933689"><ele>134.5</ele><time>2026-05-03T07:12:23.991Z</time></trkpt><trkpt lat="43.599435033529645" lon="3.7267994319509543"><ele>135.0</ele><time>2026-05-03T07:12:26.991Z</time></trkpt><trkpt lat="43.5993415113742" lon="3.7267384310911993"><ele>135.6</ele><time>2026-05-03T07:12:29.991Z</time></trkpt><trkpt lat="43.599288492439484" lon="3.726653246843245"><ele>136.2</ele><time>2026-05-03T07:12:31.991Z</time></trkpt><trkpt lat="43.59921063569143" lon="3.7265782946563615"><ele>136.8</ele><time>2026-05-03T07:12:33.991Z</time></trkpt><trkpt lat="43.59914209454698" lon="3.726498892536033"><ele>137.4</ele><time>2026-05-03T07:12:35.991Z</time></trkpt><trkpt lat="43.599079404719205" lon="3.7264168600911978"><ele>138.0</ele><time>2026-05-03T07:12:37.991Z</time></trkpt><trkpt lat="43.59899322654056" lon="3.726352383865088"><ele>138.0</ele><time>2026-05-03T07:12:39.991Z</time></trkpt><trkpt lat="43.59892011497835" lon="3.7262886846800494"><ele>138.0</ele><time>2026-05-03T07:12:41.991Z</time></trkpt><trkpt lat="43.59884994004791" lon="3.7262001394554147"><ele>138.0</ele><time>2026-05-03T07:12:43.991Z</time></trkpt><trkpt lat="43.59878989059367" lon="3.7261321910291323"><ele>138.0</ele><time>2026-05-03T07:12:45.991Z</time></trkpt><trkpt lat="43.59873785952505" lon="3.726041817031412"><ele>138.0</ele><time>2026-05-03T07:12:47.991Z</time></trkpt><trkpt lat="43.59866840001548" lon="3.7259529507882716"><ele>138.0</ele><time>2026-05-03T07:12:49.991Z</time></trkpt><trkpt lat="43.59863496386151" lon="3.7258518157546803"><ele>138.4</ele><time>2026-05-03T07:12:51.991Z</time></trkpt><trkpt lat="43.5985869279098" lon="3.725731396789874"><ele>138.8</ele><time>2026-05-03T07:12:53.991Z</time></trkpt><trkpt lat="43.59853432044623" lon="3.72563295576932"><ele>139.2</ele><time>2026-05-03T07:12:55.99Z</time></trkpt><trkpt lat="43.59846595821642" lon="3.7255311911396087"><ele>139.6</ele><time>2026-05-03T07:12:57.99Z</time></trkpt><trkpt lat="43.598420953408706" lon="3.725430337157524"><ele>140.0</ele><time>2026-05-03T07:12:59.99Z</time></trkpt><trkpt lat="43.598372713478874" lon="3.725326327552948"><ele>140.0</ele><time>2026-05-03T07:13:01.99Z</time></trkpt><trkpt lat="43.598331064709086" lon="3.725235336107773"><ele>140.0</ele><time>2026-05-03T07:13:03.99Z</time></trkpt><trkpt lat="43.59829447741491" lon="3.7251515499834147"><ele>140.0</ele><time>2026-05-03T07:13:05.99Z</time></trkpt><trkpt lat="43.59824004718495" lon="3.7250834543835034"><ele>140.0</ele><time>2026-05-03T07:13:07.99Z</time></trkpt><trkpt lat="43.598190556832606" lon="3.7249889054176943"><ele>140.0</ele><time>2026-05-03T07:13:09.99Z</time></trkpt><trkpt lat="43.598118850988136" lon="3.724889574642629"><ele>140.0</ele><time>2026-05-03T07:13:11.99Z</time></trkpt><trkpt lat="43.59806496936508" lon="3.724794306138609"><ele>140.5</ele><time>2026-05-03T07:13:13.99Z</time></trkpt><trkpt lat="43.59797334475705" lon="3.7247334115368127"><ele>141.0</ele><time>2026-05-03T07:13:15.99Z</time></trkpt><trkpt lat="43.59790374117236" lon="3.7246636028842808"><ele>141.5</ele><time>2026-05-03T07:13:17.99Z</time></trkpt><trkpt lat="43.59783156480175" lon="3.724589450146155"><ele>142.0</ele><time>2026-05-03T07:13:19.99Z</time></trkpt><trkpt lat="43.59775945561747" lon="3.7245248672115125"><ele>142.5</ele><time>2026-05-03T07:13:21.99Z</time></trkpt><trkpt lat="43.59770602715647" lon="3.7244537549546983"><ele>143.0</ele><time>2026-05-03T07:13:23.99Z</time></trkpt><trkpt lat="43.597638687209276" lon="3.7243849192966625"><ele>144.16666666666666</ele><time>2026-05-03T07:13:25.99Z</time></trkpt><trkpt lat="43.59757041203615" lon="3.7243261594611674"><ele>145.33333333333331</ele><time>2026-05-03T07:13:27.99Z</time></trkpt><trkpt lat="43.597511828904075" lon="3.724217717670245"><ele>146.5</ele><time>2026-05-03T07:13:29.99Z</time></trkpt><trkpt lat="43.597485515457315" lon="3.7241097120778854"><ele>147.66666666666666</ele><time>2026-05-03T07:13:31.99Z</time></trkpt><trkpt lat="43.597444628308125" lon="3.7240067140062436"><ele>148.83333333333334</ele><time>2026-05-03T07:13:33.99Z</time></trkpt><trkpt lat="43.5974183846667" lon="3.723904087114268"><ele>150.0</ele><time>2026-05-03T07:13:35.99Z</time></trkpt><trkpt lat="43.59738663454872" lon="3.723797040110054"><ele>149.99999999999997</ele><time>2026-05-03T07:13:37.99Z</time></trkpt><trkpt lat="43.59736473866051" lon="3.723713863346467"><ele>150.0</ele><time>2026-05-03T07:13:39.99Z</time></trkpt><trkpt lat="43.597300849132345" lon="3.7236928885325753"><ele>150.0</ele><time>2026-05-03T07:13:43.99Z</time></trkpt><trkpt lat="43.597224442134326" lon="3.7237126558907523"><ele>150.0</ele><time>2026-05-03T07:13:47.99Z</time></trkpt><trkpt lat="43.59715534959423" lon="3.723761147244888"><ele>150.0</ele><time>2026-05-03T07:13:50.99Z</time></trkpt><trkpt lat="43.59707235155084" lon="3.7238022529929777"><ele>149.99999999999997</ele><time>2026-05-03T07:13:53.99Z</time></trkpt><trkpt lat="43.59702340434386" lon="3.72386200631274"><ele>150.0</ele><time>2026-05-03T07:13:55.992Z</time></trkpt><trkpt lat="43.59700558433065" lon="3.7239883153967304"><ele>150.0</ele><time>2026-05-03T07:13:58.991Z</time></trkpt><trkpt lat="43.597004848356804" lon="3.724104756984018"><ele>150.0</ele><time>2026-05-03T07:14:00.991Z</time></trkpt><trkpt lat="43.59699469711401" lon="3.7242164422426236"><ele>150.0</ele><time>2026-05-03T07:14:02.992Z</time></trkpt><trkpt lat="43.59698386376174" lon="3.724337277567979"><ele>150.0</ele><time>2026-05-03T07:14:04.991Z</time></trkpt><trkpt lat="43.59694342843025" lon="3.724451028851115"><ele>150.0</ele><time>2026-05-03T07:14:06.991Z</time></trkpt><trkpt lat="43.59693226528271" lon="3.7245622486165653"><ele>150.0</ele><time>2026-05-03T07:14:08.991Z</time></trkpt><trkpt lat="43.59687175627781" lon="3.7245977927294875"><ele>149.16666666666666</ele><time>2026-05-03T07:14:10.991Z</time></trkpt><trkpt lat="43.596803472852294" lon="3.7246116170985815"><ele>148.33333333333334</ele><time>2026-05-03T07:14:12.991Z</time></trkpt><trkpt lat="43.5967498823721" lon="3.724709760600342"><ele>147.5</ele><time>2026-05-03T07:14:15.991Z</time></trkpt><trkpt lat="43.59679525272919" lon="3.724784296016614"><ele>146.66666666666669</ele><time>2026-05-03T07:14:17.991Z</time></trkpt><trkpt lat="43.59678635127575" lon="3.724881198142136"><ele>145.83333333333334</ele><time>2026-05-03T07:14:20.991Z</time></trkpt><trkpt lat="43.596767226710504" lon="3.7249704984655785"><ele>145.0</ele><time>2026-05-03T07:14:23.991Z</time></trkpt><trkpt lat="43.59677725578687" lon="3.7251051767022654"><ele>145.0</ele><time>2026-05-03T07:14:26.991Z</time></trkpt><trkpt lat="43.59676120968164" lon="3.725203935305026"><ele>145.0</ele><time>2026-05-03T07:14:28.991Z</time></trkpt><trkpt lat="43.59670035131564" lon="3.7252550138759766"><ele>145.0</ele><time>2026-05-03T07:14:31.991Z</time></trkpt><trkpt lat="43.596638344971346" lon="3.7253177120531666"><ele>145.0</ele><time>2026-05-03T07:14:35.991Z</time></trkpt><trkpt lat="43.59660668046866" lon="3.725423932654959"><ele>145.0</ele><time>2026-05-03T07:14:38.991Z</time></trkpt><trkpt lat="43.59653925825764" lon="3.725494446857347"><ele>145.0</ele><time>2026-05-03T07:14:42.991Z</time></trkpt><trkpt lat="43.59647545718302" lon="3.7254706129297226"><ele>145.0</ele><time>2026-05-03T07:14:45.991Z</time></trkpt><trkpt lat="43.596413028710856" lon="3.7255376773526474"><ele>145.0</ele><time>2026-05-03T07:14:49.991Z</time></trkpt><trkpt lat="43.596342805810416" lon="3.7255493824258568"><ele>145.0</ele><time>2026-05-03T07:14:51.991Z</time></trkpt><trkpt lat="43.596262009373284" lon="3.725634569134603"><ele>145.0</ele><time>2026-05-03T07:14:53.991Z</time></trkpt><trkpt lat="43.59626915291804" lon="3.7257725541255513"><ele>145.0</ele><time>2026-05-03T07:14:56.991Z</time></trkpt><trkpt lat="43.596260674045816" lon="3.725866252372289"><ele>145.0</ele><time>2026-05-03T07:14:58.991Z</time></trkpt><trkpt lat="43.596267357349525" lon="3.725992019565797"><ele>144.83333333333334</ele><time>2026-05-03T07:15:01.991Z</time></trkpt><trkpt lat="43.59625709973499" lon="3.726117634138761"><ele>144.66666666666669</ele><time>2026-05-03T07:15:03.991Z</time></trkpt><trkpt lat="43.59624496348199" lon="3.7262171945580826"><ele>144.5</ele><time>2026-05-03T07:15:05.991Z</time></trkpt><trkpt lat="43.59621442127042" lon="3.7263088114139835"><ele>144.33333333333334</ele><time>2026-05-03T07:15:07.991Z</time></trkpt><trkpt lat="43.59617146562163" lon="3.726411289338688"><ele>144.16666666666666</ele><time>2026-05-03T07:15:09.991Z</time></trkpt><trkpt lat="43.596133410584855" lon="3.7264822881297905"><ele>144.0</ele><time>2026-05-03T07:15:11.991Z</time></trkpt><trkpt lat="43.59608208517266" lon="3.7265583879329305"><ele>144.0</ele><time>2026-05-03T07:15:13.991Z</time></trkpt><trkpt lat="43.595998793671725" lon="3.7266211890235335"><ele>144.0</ele><time>2026-05-03T07:15:15.991Z</time></trkpt><trkpt lat="43.59590404612414" lon="3.7266162631573017"><ele>144.0</ele><time>2026-05-03T07:15:17.991Z</time></trkpt><trkpt lat="43.59581138116892" lon="3.7266028569209775"><ele>144.0</ele><time>2026-05-03T07:15:19.991Z</time></trkpt><trkpt lat="43.59572999167928" lon="3.726580219308233"><ele>144.0</ele><time>2026-05-03T07:15:21.991Z</time></trkpt><trkpt lat="43.59565280487873" lon="3.7265470976953563"><ele>144.0</ele><time>2026-05-03T07:15:23.991Z</time></trkpt><trkpt lat="43.595572005907975" lon="3.726489200628805"><ele>144.0</ele><time>2026-05-03T07:15:25.991Z</time></trkpt><trkpt lat="43.59550378554681" lon="3.7264344138039442"><ele>144.0</ele><time>2026-05-03T07:15:27.99Z</time></trkpt><trkpt lat="43.595433344140496" lon="3.7263574669477904"><ele>144.0</ele><time>2026-05-03T07:15:29.99Z</time></trkpt><trkpt lat="43.59536273943061" lon="3.7262797561485197"><ele>144.0</ele><time>2026-05-03T07:15:31.99Z</time></trkpt><trkpt lat="43.59529789359101" lon="3.7262072594149362"><ele>144.0</ele><time>2026-05-03T07:15:33.99Z</time></trkpt><trkpt lat="43.59524378543379" lon="3.726127514604524"><ele>144.0</ele><time>2026-05-03T07:15:35.99Z</time></trkpt><trkpt lat="43.595173675989564" lon="3.7260323651456932"><ele>144.16666666666666</ele><time>2026-05-03T07:15:37.99Z</time></trkpt><trkpt lat="43.59511449456161" lon="3.7259406794925276"><ele>144.33333333333334</ele><time>2026-05-03T07:15:39.99Z</time></trkpt><trkpt lat="43.595053943185405" lon="3.7258404013888575"><ele>144.5</ele><time>2026-05-03T07:15:41.99Z</time></trkpt><trkpt lat="43.59499844534046" lon="3.725740293387192"><ele>144.66666666666669</ele><time>2026-05-03T07:15:43.99Z</time></trkpt><trkpt lat="43.594939121476145" lon="3.7256447281329486"><ele>144.83333333333334</ele><time>2026-05-03T07:15:45.99Z</time></trkpt><trkpt lat="43.59490707378063" lon="3.725553942681268"><ele>145.0</ele><time>2026-05-03T07:15:47.99Z</time></trkpt><trkpt lat="43.594858327546554" lon="3.725464052737184"><ele>145.0</ele><time>2026-05-03T07:15:49.99Z</time></trkpt><trkpt lat="43.59480188506218" lon="3.725365472964693"><ele>145.0</ele><time>2026-05-03T07:15:51.99Z</time></trkpt><trkpt lat="43.59477741115191" lon="3.725279582505303"><ele>145.0</ele><time>2026-05-03T07:15:53.99Z</time></trkpt><trkpt lat="43.59473945378106" lon="3.725192262389024"><ele>145.0</ele><time>2026-05-03T07:15:55.99Z</time></trkpt><trkpt lat="43.59468792870036" lon="3.72509057597353"><ele>145.0</ele><time>2026-05-03T07:15:57.99Z</time></trkpt><trkpt lat="43.59464859013073" lon="3.724976775085259"><ele>145.0</ele><time>2026-05-03T07:15:59.99Z</time></trkpt><trkpt lat="43.59460722807623" lon="3.724859009676524"><ele>144.4</ele><time>2026-05-03T07:16:01.991Z</time></trkpt><trkpt lat="43.59456171058279" lon="3.724727588439051"><ele>143.8</ele><time>2026-05-03T07:16:03.991Z</time></trkpt><trkpt lat="43.59451946135586" lon="3.724619530203055"><ele>143.2</ele><time>2026-05-03T07:16:05.991Z</time></trkpt><trkpt lat="43.59449038988197" lon="3.724494742615964"><ele>142.6</ele><time>2026-05-03T07:16:07.991Z</time></trkpt><trkpt lat="43.59446147778325" lon="3.7243855623439956"><ele>142.0</ele><time>2026-05-03T07:16:09.991Z</time></trkpt><trkpt lat="43.59442001477176" lon="3.724273781010283"><ele>142.0</ele><time>2026-05-03T07:16:11.991Z</time></trkpt><trkpt lat="43.59438955215923" lon="3.72418327993602"><ele>142.0</ele><time>2026-05-03T07:16:13.991Z</time></trkpt><trkpt lat="43.5943505586468" lon="3.724063523083191"><ele>142.0</ele><time>2026-05-03T07:16:15.991Z</time></trkpt><trkpt lat="43.594322278599805" lon="3.7239345069950773"><ele>142.0</ele><time>2026-05-03T07:16:17.991Z</time></trkpt><trkpt lat="43.594291156998985" lon="3.7237907863720356"><ele>142.0</ele><time>2026-05-03T07:16:19.991Z</time></trkpt><trkpt lat="43.59427270230767" lon="3.7236567963539455"><ele>142.2</ele><time>2026-05-03T07:16:21.991Z</time></trkpt><trkpt lat="43.59423752908589" lon="3.7235217269642713"><ele>142.39999999999998</ele><time>2026-05-03T07:16:23.991Z</time></trkpt><trkpt lat="43.594226495620426" lon="3.7233799385886868"><ele>142.60000000000002</ele><time>2026-05-03T07:16:25.991Z</time></trkpt><trkpt lat="43.59421481624768" lon="3.723256348391679"><ele>142.8</ele><time>2026-05-03T07:16:27.991Z</time></trkpt><trkpt lat="43.59419331747821" lon="3.723111270890901"><ele>143.0</ele><time>2026-05-03T07:16:29.991Z</time></trkpt><trkpt lat="43.594176884148105" lon="3.722977416491129"><ele>143.0</ele><time>2026-05-03T07:16:31.991Z</time></trkpt><trkpt lat="43.59415053731875" lon="3.722849529289553"><ele>143.0</ele><time>2026-05-03T07:16:33.991Z</time></trkpt><trkpt lat="43.59414183488499" lon="3.72271919641661"><ele>143.0</ele><time>2026-05-03T07:16:35.991Z</time></trkpt><trkpt lat="43.59411425217036" lon="3.722605393822847"><ele>143.0</ele><time>2026-05-03T07:16:37.991Z</time></trkpt><trkpt lat="43.59410322385205" lon="3.7224557334532427"><ele>143.0</ele><time>2026-05-03T07:16:39.991Z</time></trkpt><trkpt lat="43.594079157603424" lon="3.722347172285981"><ele>143.16666666666666</ele><time>2026-05-03T07:16:41.991Z</time></trkpt><trkpt lat="43.5940696303948" lon="3.7222260306563038"><ele>143.33333333333331</ele><time>2026-05-03T07:16:43.991Z</time></trkpt><trkpt lat="43.5940620891099" lon="3.72210981028342"><ele>143.5</ele><time>2026-05-03T07:16:45.991Z</time></trkpt><trkpt lat="43.59407454808888" lon="3.721985103001885"><ele>143.66666666666666</ele><time>2026-05-03T07:16:47.99Z</time></trkpt><trkpt lat="43.594067290355966" lon="3.7218803134546827"><ele>143.83333333333334</ele><time>2026-05-03T07:16:49.99Z</time></trkpt><trkpt lat="43.59406254596449" lon="3.721790284702055"><ele>144.0</ele><time>2026-05-03T07:16:51.99Z</time></trkpt><trkpt lat="43.594103765616794" lon="3.72167925973361"><ele>144.16666666666666</ele><time>2026-05-03T07:16:53.99Z</time></trkpt><trkpt lat="43.59412650185115" lon="3.7215815952028217"><ele>144.33333333333334</ele><time>2026-05-03T07:16:55.99Z</time></trkpt><trkpt lat="43.59416033672517" lon="3.721495216354157"><ele>144.5</ele><time>2026-05-03T07:16:57.99Z</time></trkpt><trkpt lat="43.59421238273459" lon="3.7213913548435893"><ele>144.66666666666669</ele><time>2026-05-03T07:16:59.99Z</time></trkpt><trkpt lat="43.59424970946163" lon="3.721277808174371"><ele>144.83333333333334</ele><time>2026-05-03T07:17:01.99Z</time></trkpt><trkpt lat="43.59427975257767" lon="3.721183698135326"><ele>145.0</ele><time>2026-05-03T07:17:03.99Z</time></trkpt><trkpt lat="43.5943157872791" lon="3.7210561185719326"><ele>145.0</ele><time>2026-05-03T07:17:05.99Z</time></trkpt><trkpt lat="43.594330414889534" lon="3.7209531689204853"><ele>145.0</ele><time>2026-05-03T07:17:07.99Z</time></trkpt><trkpt lat="43.59430639258476" lon="3.7208157054674094"><ele>145.0</ele><time>2026-05-03T07:17:09.99Z</time></trkpt><trkpt lat="43.594266666534246" lon="3.7206960161603937"><ele>145.0</ele><time>2026-05-03T07:17:11.99Z</time></trkpt><trkpt lat="43.59421909317296" lon="3.7205776154206625"><ele>145.0</ele><time>2026-05-03T07:17:13.99Z</time></trkpt><trkpt lat="43.59416799124709" lon="3.720475698065472"><ele>145.0</ele><time>2026-05-03T07:17:15.99Z</time></trkpt><trkpt lat="43.594101688142956" lon="3.7203848221661158"><ele>145.0</ele><time>2026-05-03T07:17:17.99Z</time></trkpt><trkpt lat="43.59405038381368" lon="3.7202936804227913"><ele>145.0</ele><time>2026-05-03T07:17:19.99Z</time></trkpt><trkpt lat="43.59400588599343" lon="3.7202141542435605"><ele>145.0</ele><time>2026-05-03T07:17:21.99Z</time></trkpt><trkpt lat="43.59397849267748" lon="3.720129180693766"><ele>145.0</ele><time>2026-05-03T07:17:23.99Z</time></trkpt><trkpt lat="43.59393744413846" lon="3.720013708594124"><ele>145.0</ele><time>2026-05-03T07:17:25.99Z</time></trkpt><trkpt lat="43.593902278736664" lon="3.7198954880131025"><ele>145.33333333333334</ele><time>2026-05-03T07:17:27.99Z</time></trkpt><trkpt lat="43.59386943589148" lon="3.719788283148804"><ele>145.66666666666669</ele><time>2026-05-03T07:17:29.99Z</time></trkpt><trkpt lat="43.59382818551822" lon="3.7196980949110716"><ele>146.0</ele><time>2026-05-03T07:17:31.99Z</time></trkpt><trkpt lat="43.59378916323236" lon="3.719599883440962"><ele>146.33333333333334</ele><time>2026-05-03T07:17:33.99Z</time></trkpt><trkpt lat="43.59377315771667" lon="3.719493078498735"><ele>146.66666666666666</ele><time>2026-05-03T07:17:35.99Z</time></trkpt><trkpt lat="43.59375599332652" lon="3.719388198317044"><ele>147.0</ele><time>2026-05-03T07:17:37.99Z</time></trkpt><trkpt lat="43.59374011345151" lon="3.7192940311229807"><ele>147.16666666666666</ele><time>2026-05-03T07:17:39.99Z</time></trkpt><trkpt lat="43.59372584097466" lon="3.719179405950573"><ele>147.33333333333334</ele><time>2026-05-03T07:17:41.99Z</time></trkpt><trkpt lat="43.59374535321211" lon="3.7190844169882578"><ele>147.5</ele><time>2026-05-03T07:17:43.99Z</time></trkpt><trkpt lat="43.59375486842745" lon="3.718985751006384"><ele>147.66666666666669</ele><time>2026-05-03T07:17:45.99Z</time></trkpt><trkpt lat="43.593779471804424" lon="3.7188972023059312"><ele>147.83333333333334</ele><time>2026-05-03T07:17:47.99Z</time></trkpt><trkpt lat="43.593788000084245" lon="3.7187839518524055"><ele>148.0</ele><time>2026-05-03T07:17:49.99Z</time></trkpt><trkpt lat="43.5937931758442" lon="3.718682862553637"><ele>148.0</ele><time>2026-05-03T07:17:51.99Z</time></trkpt><trkpt lat="43.593795655952434" lon="3.718572359729294"><ele>148.0</ele><time>2026-05-03T07:17:53.99Z</time></trkpt><trkpt lat="43.59381273497528" lon="3.7184550209914327"><ele>148.0</ele><time>2026-05-03T07:17:55.99Z</time></trkpt><trkpt lat="43.59382585158635" lon="3.7183557713068973"><ele>148.0</ele><time>2026-05-03T07:17:57.99Z</time></trkpt><trkpt lat="43.5938200361906" lon="3.718222992139858"><ele>148.0</ele><time>2026-05-03T07:17:59.99Z</time></trkpt><trkpt lat="43.59382431797318" lon="3.718129243611061"><ele>148.0</ele><time>2026-05-03T07:18:01.99Z</time></trkpt><trkpt lat="43.593809519291604" lon="3.718012822994072"><ele>148.14285714285714</ele><time>2026-05-03T07:18:03.99Z</time></trkpt><trkpt lat="43.593793836498456" lon="3.7179234532703327"><ele>148.28571428571428</ele><time>2026-05-03T07:18:05.99Z</time></trkpt><trkpt lat="43.593767770830866" lon="3.7178318185023285"><ele>148.42857142857142</ele><time>2026-05-03T07:18:07.991Z</time></trkpt><trkpt lat="43.59376094967393" lon="3.717720375759316"><ele>148.57142857142856</ele><time>2026-05-03T07:18:09.992Z</time></trkpt><trkpt lat="43.5937447546357" lon="3.71762832873677"><ele>148.7142857142857</ele><time>2026-05-03T07:18:11.991Z</time></trkpt><trkpt lat="43.593733581260004" lon="3.717519857379203"><ele>148.85714285714286</ele><time>2026-05-03T07:18:13.991Z</time></trkpt><trkpt lat="43.59371512739776" lon="3.7174287404365023"><ele>149.0</ele><time>2026-05-03T07:18:15.991Z</time></trkpt><trkpt lat="43.59366158353384" lon="3.7173204253164904"><ele>149.14285714285714</ele><time>2026-05-03T07:18:18.991Z</time></trkpt><trkpt lat="43.593616237607314" lon="3.717244731761307"><ele>149.28571428571428</ele><time>2026-05-03T07:18:21.991Z</time></trkpt><trkpt lat="43.593553284612526" lon="3.717180261645905"><ele>149.42857142857142</ele><time>2026-05-03T07:18:24.991Z</time></trkpt><trkpt lat="43.59348806861167" lon="3.7171531818198558"><ele>149.57142857142856</ele><time>2026-05-03T07:18:26.991Z</time></trkpt><trkpt lat="43.59341297088934" lon="3.7171416034370774"><ele>149.71428571428572</ele><time>2026-05-03T07:18:29.991Z</time></trkpt><trkpt lat="43.59335233353253" lon="3.7171131017537684"><ele>149.85714285714283</ele><time>2026-05-03T07:18:31.991Z</time></trkpt><trkpt lat="43.5932909350474" lon="3.717084992777803"><ele>150.0</ele><time>2026-05-03T07:18:33.991Z</time></trkpt><trkpt lat="43.59322048261638" lon="3.7170503193614137"><ele>150.0</ele><time>2026-05-03T07:18:35.991Z</time></trkpt><trkpt lat="43.59315092232523" lon="3.7170127146306404"><ele>150.0</ele><time>2026-05-03T07:18:37.991Z</time></trkpt><trkpt lat="43.5930735765243" lon="3.7169881996175747"><ele>150.0</ele><time>2026-05-03T07:18:39.991Z</time></trkpt><trkpt lat="43.59299478818939" lon="3.7169380025300507"><ele>150.0</ele><time>2026-05-03T07:18:41.991Z</time></trkpt><trkpt lat="43.59292064707229" lon="3.716877162712546"><ele>150.0</ele><time>2026-05-03T07:18:43.991Z</time></trkpt><trkpt lat="43.592834030604806" lon="3.716827121421709"><ele>150.0</ele><time>2026-05-03T07:18:45.991Z</time></trkpt><trkpt lat="43.59276186788397" lon="3.716755239603367"><ele>149.5</ele><time>2026-05-03T07:18:47.991Z</time></trkpt><trkpt lat="43.59269272724464" lon="3.7166851315649585"><ele>149.0</ele><time>2026-05-03T07:18:49.991Z</time></trkpt><trkpt lat="43.59262254982548" lon="3.716619530506718"><ele>148.5</ele><time>2026-05-03T07:18:51.991Z</time></trkpt><trkpt lat="43.59254501791532" lon="3.716562068098528"><ele>148.0</ele><time>2026-05-03T07:18:53.991Z</time></trkpt><trkpt lat="43.59247802089326" lon="3.716489031320105"><ele>147.5</ele><time>2026-05-03T07:18:55.991Z</time></trkpt><trkpt lat="43.592413058482286" lon="3.716427649502135"><ele>147.0</ele><time>2026-05-03T07:18:57.991Z</time></trkpt><trkpt lat="43.592337811135245" lon="3.7163516356966446"><ele>147.0</ele><time>2026-05-03T07:18:59.991Z</time></trkpt><trkpt lat="43.59227580877915" lon="3.716277734740298"><ele>147.0</ele><time>2026-05-03T07:19:01.991Z</time></trkpt><trkpt lat="43.59221157845962" lon="3.716199645631812"><ele>147.0</ele><time>2026-05-03T07:19:03.991Z</time></trkpt><trkpt lat="43.592151394363796" lon="3.7161143956783356"><ele>147.0</ele><time>2026-05-03T07:19:05.991Z</time></trkpt><trkpt lat="43.59209175039068" lon="3.7160297775992372"><ele>147.0</ele><time>2026-05-03T07:19:07.991Z</time></trkpt><trkpt lat="43.592020588573725" lon="3.715956878980576"><ele>147.0</ele><time>2026-05-03T07:19:09.991Z</time></trkpt><trkpt lat="43.59195035773468" lon="3.715886201872941"><ele>146.66666666666666</ele><time>2026-05-03T07:19:11.991Z</time></trkpt><trkpt lat="43.59188451750239" lon="3.715823756590051"><ele>146.33333333333334</ele><time>2026-05-03T07:19:13.991Z</time></trkpt><trkpt lat="43.591823505265765" lon="3.7157290986738523"><ele>146.0</ele><time>2026-05-03T07:19:15.991Z</time></trkpt><trkpt lat="43.5917795421764" lon="3.715632439809309"><ele>145.66666666666669</ele><time>2026-05-03T07:19:17.991Z</time></trkpt><trkpt lat="43.591741091291155" lon="3.7155351446860556"><ele>145.33333333333334</ele><time>2026-05-03T07:19:19.991Z</time></trkpt><trkpt lat="43.591703749603816" lon="3.715453903074148"><ele>145.0</ele><time>2026-05-03T07:19:21.991Z</time></trkpt><trkpt lat="43.59165797898121" lon="3.7153523122892156"><ele>145.0</ele><time>2026-05-03T07:19:23.991Z</time></trkpt><trkpt lat="43.591615951259236" lon="3.7152565378251343"><ele>145.0</ele><time>2026-05-03T07:19:25.99Z</time></trkpt><trkpt lat="43.59157110482029" lon="3.7151846415457626"><ele>145.0</ele><time>2026-05-03T07:19:27.99Z</time></trkpt><trkpt lat="43.591531757969776" lon="3.715073019196374"><ele>145.0</ele><time>2026-05-03T07:19:29.99Z</time></trkpt><trkpt lat="43.59148078586242" lon="3.714993611779466"><ele>145.0</ele><time>2026-05-03T07:19:31.99Z</time></trkpt><trkpt lat="43.59144921364822" lon="3.714912767456533"><ele>145.0</ele><time>2026-05-03T07:19:33.99Z</time></trkpt><trkpt lat="43.59140818262582" lon="3.714827316916856"><ele>145.5</ele><time>2026-05-03T07:19:35.99Z</time></trkpt><trkpt lat="43.59134055915941" lon="3.714740110947802"><ele>146.0</ele><time>2026-05-03T07:19:38.99Z</time></trkpt><trkpt lat="43.59129628597099" lon="3.714674605020507"><ele>146.5</ele><time>2026-05-03T07:19:40.99Z</time></trkpt><trkpt lat="43.59123499282834" lon="3.7145999339710505"><ele>147.0</ele><time>2026-05-03T07:19:43.99Z</time></trkpt><trkpt lat="43.59117004724428" lon="3.7145237119168493"><ele>147.5</ele><time>2026-05-03T07:19:46.99Z</time></trkpt><trkpt lat="43.59111658388995" lon="3.7144610446975554"><ele>148.0</ele><time>2026-05-03T07:19:48.99Z</time></trkpt><trkpt lat="43.59106150738519" lon="3.714415519294127"><ele>147.5</ele><time>2026-05-03T07:19:50.99Z</time></trkpt><trkpt lat="43.59100516504099" lon="3.714362623446812"><ele>147.0</ele><time>2026-05-03T07:19:52.99Z</time></trkpt><trkpt lat="43.590958743033134" lon="3.7142999957400495"><ele>146.5</ele><time>2026-05-03T07:19:54.99Z</time></trkpt><trkpt lat="43.59088815036673" lon="3.7142012030054308"><ele>146.0</ele><time>2026-05-03T07:19:57.99Z</time></trkpt><trkpt lat="43.59086102043058" lon="3.7141204709778384"><ele>145.5</ele><time>2026-05-03T07:19:59.99Z</time></trkpt><trkpt lat="43.59083609804799" lon="3.7140396139131293"><ele>145.0</ele><time>2026-05-03T07:20:01.99Z</time></trkpt><trkpt lat="43.590793392933556" lon="3.713929918576977"><ele>145.0</ele><time>2026-05-03T07:20:04.99Z</time></trkpt><trkpt lat="43.590765444609595" lon="3.713821215243353"><ele>145.0</ele><time>2026-05-03T07:20:07.99Z</time></trkpt><trkpt lat="43.59074583014806" lon="3.7137194130655984"><ele>145.0</ele><time>2026-05-03T07:20:10.99Z</time></trkpt><trkpt lat="43.590704758457186" lon="3.7136188415570213"><ele>145.0</ele><time>2026-05-03T07:20:13.991Z</time></trkpt><trkpt lat="43.590668402507795" lon="3.7134966376207434"><ele>145.0</ele><time>2026-05-03T07:20:16.991Z</time></trkpt><trkpt lat="43.59063542169505" lon="3.713399123755805"><ele>145.0</ele><time>2026-05-03T07:20:19.991Z</time></trkpt><trkpt lat="43.59059109341013" lon="3.7132973606601984"><ele>145.5</ele><time>2026-05-03T07:20:22.991Z</time></trkpt><trkpt lat="43.59055045445898" lon="3.7132086294382147"><ele>146.0</ele><time>2026-05-03T07:20:25.991Z</time></trkpt><trkpt lat="43.59050586507695" lon="3.71312164729129"><ele>146.5</ele><time>2026-05-03T07:20:28.991Z</time></trkpt><trkpt lat="43.59045256607098" lon="3.7130131944042155"><ele>147.0</ele><time>2026-05-03T07:20:31.991Z</time></trkpt><trkpt lat="43.59040819639817" lon="3.7129105300275747"><ele>147.5</ele><time>2026-05-03T07:20:34.991Z</time></trkpt><trkpt lat="43.590373903918355" lon="3.7128097882798943"><ele>148.0</ele><time>2026-05-03T07:20:37.991Z</time></trkpt><trkpt lat="43.59042825572145" lon="3.71276088536592"><ele>148.0</ele><time>2026-05-03T07:20:40.991Z</time></trkpt><trkpt lat="43.59044932713957" lon="3.7126707615152394"><ele>148.0</ele><time>2026-05-03T07:20:44.991Z</time></trkpt><trkpt lat="43.59045760917099" lon="3.712572434138405"><ele>148.0</ele><time>2026-05-03T07:20:48.991Z</time></trkpt><trkpt lat="43.59050899994664" lon="3.712493218460447"><ele>148.0</ele><time>2026-05-03T07:20:52.991Z</time></trkpt><trkpt lat="43.59056126432129" lon="3.712548236939327"><ele>148.0</ele><time>2026-05-03T07:20:56.991Z</time></trkpt><trkpt lat="43.590638525034976" lon="3.712559662812018"><ele>148.0</ele><time>2026-05-03T07:21:01.991Z</time></trkpt><trkpt lat="43.5906997726959" lon="3.7125186046400565"><ele>148.0</ele><time>2026-05-03T07:21:04.991Z</time></trkpt><trkpt lat="43.59076966614336" lon="3.712497038770543"><ele>148.0</ele><time>2026-05-03T07:21:07.991Z</time></trkpt><trkpt lat="43.59083575837235" lon="3.7124469909508657"><ele>148.0</ele><time>2026-05-03T07:21:11.991Z</time></trkpt><trkpt lat="43.59082677024208" lon="3.7123325601485"><ele>148.0</ele><time>2026-05-03T07:21:14.991Z</time></trkpt><trkpt lat="43.59081318369878" lon="3.7122445842310494"><ele>148.0</ele><time>2026-05-03T07:21:16.99Z</time></trkpt><trkpt lat="43.5908196677976" lon="3.7121239107754693"><ele>148.0</ele><time>2026-05-03T07:21:19.99Z</time></trkpt><trkpt lat="43.59083429384548" lon="3.7120179383547196"><ele>148.0</ele><time>2026-05-03T07:21:22.99Z</time></trkpt><trkpt lat="43.590905730835054" lon="3.711951279395254"><ele>148.0</ele><time>2026-05-03T07:21:24.99Z</time></trkpt><trkpt lat="43.59096188047295" lon="3.7119115807758054"><ele>148.0</ele><time>2026-05-03T07:21:26.99Z</time></trkpt><trkpt lat="43.59105813281488" lon="3.711937408076249"><ele>148.0</ele><time>2026-05-03T07:21:28.99Z</time></trkpt><trkpt lat="43.59112273984786" lon="3.7119461320219798"><ele>148.0</ele><time>2026-05-03T07:21:30.99Z</time></trkpt><trkpt lat="43.59118224520945" lon="3.7119867863616287"><ele>148.0</ele><time>2026-05-03T07:21:32.99Z</time></trkpt><trkpt lat="43.591247205244755" lon="3.7120159401757946"><ele>148.0</ele><time>2026-05-03T07:21:34.99Z</time></trkpt><trkpt lat="43.5913148628829" lon="3.7120350381857867"><ele>148.0</ele><time>2026-05-03T07:21:36.99Z</time></trkpt><trkpt lat="43.5913848719708" lon="3.712027206144824"><ele>148.0</ele><time>2026-05-03T07:21:38.99Z</time></trkpt><trkpt lat="43.5914581520949" lon="3.712081394956681"><ele>148.0</ele><time>2026-05-03T07:21:41.99Z</time></trkpt><trkpt lat="43.59152889683397" lon="3.7121218761687627"><ele>148.0</ele><time>2026-05-03T07:21:43.99Z</time></trkpt><trkpt lat="43.591598872247225" lon="3.712123320627379"><ele>148.0</ele><time>2026-05-03T07:21:45.99Z</time></trkpt><trkpt lat="43.59166418201692" lon="3.71213797352003"><ele>148.0</ele><time>2026-05-03T07:21:47.99Z</time></trkpt><trkpt lat="43.59170661187605" lon="3.712072882160718"><ele>148.0</ele><time>2026-05-03T07:21:49.99Z</time></trkpt><trkpt lat="43.59177791788019" lon="3.7120061942630307"><ele>148.0</ele><time>2026-05-03T07:21:51.99Z</time></trkpt><trkpt lat="43.591837096119754" lon="3.7119426189620834"><ele>147.83333333333334</ele><time>2026-05-03T07:21:53.99Z</time></trkpt><trkpt lat="43.59188571500611" lon="3.7118387326371756"><ele>147.66666666666669</ele><time>2026-05-03T07:21:55.99Z</time></trkpt><trkpt lat="43.59193536592229" lon="3.7117628746410642"><ele>147.5</ele><time>2026-05-03T07:21:57.99Z</time></trkpt><trkpt lat="43.59198032589475" lon="3.7116686542246886"><ele>147.33333333333334</ele><time>2026-05-03T07:21:59.99Z</time></trkpt><trkpt lat="43.59203247371767" lon="3.7115882464773837"><ele>147.16666666666666</ele><time>2026-05-03T07:22:01.99Z</time></trkpt><trkpt lat="43.592087829498766" lon="3.711501556674468"><ele>147.0</ele><time>2026-05-03T07:22:03.99Z</time></trkpt><trkpt lat="43.592145382631664" lon="3.7114127244782265"><ele>147.0</ele><time>2026-05-03T07:22:05.99Z</time></trkpt><trkpt lat="43.59219670217773" lon="3.7113538966568576"><ele>147.0</ele><time>2026-05-03T07:22:07.99Z</time></trkpt><trkpt lat="43.59216608572416" lon="3.71127219948506"><ele>147.0</ele><time>2026-05-03T07:22:09.99Z</time></trkpt><trkpt lat="43.59219328302552" lon="3.7111911998325793"><ele>147.0</ele><time>2026-05-03T07:22:11.99Z</time></trkpt><trkpt lat="43.59223645125198" lon="3.7110900714570545"><ele>147.0</ele><time>2026-05-03T07:22:13.99Z</time></trkpt><trkpt lat="43.59226197242126" lon="3.71099227245105"><ele>147.0</ele><time>2026-05-03T07:22:15.99Z</time></trkpt><trkpt lat="43.592299072048704" lon="3.710870922631476"><ele>144.79999999999998</ele><time>2026-05-03T07:22:17.99Z</time></trkpt><trkpt lat="43.5922866343594" lon="3.7107404550829655"><ele>142.6</ele><time>2026-05-03T07:22:19.99Z</time></trkpt><trkpt lat="43.5923303969567" lon="3.7105992249627002"><ele>140.39999999999998</ele><time>2026-05-03T07:22:21.991Z</time></trkpt><trkpt lat="43.59236794647529" lon="3.7104711809941744"><ele>138.2</ele><time>2026-05-03T07:22:23.991Z</time></trkpt><trkpt lat="43.59238974237689" lon="3.7103466508022755"><ele>136.0</ele><time>2026-05-03T07:22:25.991Z</time></trkpt><trkpt lat="43.59238466846409" lon="3.7102505305881923"><ele>134.0</ele><time>2026-05-03T07:22:26.991Z</time></trkpt><trkpt lat="43.59240310907621" lon="3.7100695125294463"><ele>132.0</ele><time>2026-05-03T07:22:28.991Z</time></trkpt><trkpt lat="43.592397435713856" lon="3.7099629969466696"><ele>130.0</ele><time>2026-05-03T07:22:29.991Z</time></trkpt><trkpt lat="43.59241687246261" lon="3.7098577271449686"><ele>128.0</ele><time>2026-05-03T07:22:30.991Z</time></trkpt><trkpt lat="43.59240683106464" lon="3.7097706710318348"><ele>126.00000000000001</ele><time>2026-05-03T07:22:31.99Z</time></trkpt><trkpt lat="43.592406951230245" lon="3.7096691947545883"><ele>124.0</ele><time>2026-05-03T07:22:32.99Z</time></trkpt><trkpt lat="43.59242317989243" lon="3.709505293505973"><ele>121.80000000000001</ele><time>2026-05-03T07:22:34.99Z</time></trkpt><trkpt lat="43.59247345720743" lon="3.709363897346956"><ele>119.60000000000001</ele><time>2026-05-03T07:22:36.99Z</time></trkpt><trkpt lat="43.59252210599171" lon="3.7092509360940213"><ele>117.4</ele><time>2026-05-03T07:22:38.99Z</time></trkpt><trkpt lat="43.592560317538904" lon="3.709131543028332"><ele>115.2</ele><time>2026-05-03T07:22:40.99Z</time></trkpt><trkpt lat="43.59261394479655" lon="3.7090087170531683"><ele>113.0</ele><time>2026-05-03T07:22:42.99Z</time></trkpt><trkpt lat="43.59265292835907" lon="3.708887213655548"><ele>112.99999999999999</ele><time>2026-05-03T07:22:44.99Z</time></trkpt><trkpt lat="43.59271532018276" lon="3.70880908254223"><ele>113.0</ele><time>2026-05-03T07:22:46.99Z</time></trkpt><trkpt lat="43.59278482198331" lon="3.7087426155874024"><ele>113.0</ele><time>2026-05-03T07:22:48.99Z</time></trkpt><trkpt lat="43.59283438460921" lon="3.7086790207115397"><ele>113.0</ele><time>2026-05-03T07:22:50.99Z</time></trkpt><trkpt lat="43.592767233775625" lon="3.7086311552393796"><ele>112.99999999999999</ele><time>2026-05-03T07:22:53.99Z</time></trkpt><trkpt lat="43.59267858066936" lon="3.708573015017314"><ele>113.0</ele><time>2026-05-03T07:22:56.99Z</time></trkpt><trkpt lat="43.59260480872798" lon="3.708550059965469"><ele>112.99999999999999</ele><time>2026-05-03T07:22:58.99Z</time></trkpt><trkpt lat="43.59253382191625" lon="3.7085490098083618"><ele>113.0</ele><time>2026-05-03T07:23:00.99Z</time></trkpt><trkpt lat="43.592464752066" lon="3.708556936491988"><ele>113.0</ele><time>2026-05-03T07:23:02.99Z</time></trkpt><trkpt lat="43.592402626164926" lon="3.708610479803099"><ele>113.0</ele><time>2026-05-03T07:23:04.99Z</time></trkpt><trkpt lat="43.59232199095984" lon="3.7086105986090834"><ele>112.99999999999999</ele><time>2026-05-03T07:23:07.99Z</time></trkpt><trkpt lat="43.592256471545774" lon="3.7085328563800326"><ele>113.0</ele><time>2026-05-03T07:23:10.99Z</time></trkpt><trkpt lat="43.59223361089717" lon="3.70840798308235"><ele>113.16666666666666</ele><time>2026-05-03T07:23:12.99Z</time></trkpt><trkpt lat="43.59217340350531" lon="3.7083413254630795"><ele>113.33333333333333</ele><time>2026-05-03T07:23:15.99Z</time></trkpt><trkpt lat="43.59209375345958" lon="3.708372606891607"><ele>113.5</ele><time>2026-05-03T07:23:18.99Z</time></trkpt><trkpt lat="43.592013721522164" lon="3.708383642183698"><ele>113.66666666666666</ele><time>2026-05-03T07:23:21.99Z</time></trkpt><trkpt lat="43.591944622192834" lon="3.7083912877173257"><ele>113.83333333333333</ele><time>2026-05-03T07:23:24.99Z</time></trkpt><trkpt lat="43.5918686225542" lon="3.7084002294540355"><ele>114.0</ele><time>2026-05-03T07:23:27.99Z</time></trkpt><trkpt lat="43.591790089494715" lon="3.7084165219632723"><ele>114.0</ele><time>2026-05-03T07:23:30.99Z</time></trkpt><trkpt lat="43.59172259435616" lon="3.7084298511925637"><ele>114.0</ele><time>2026-05-03T07:23:33.99Z</time></trkpt><trkpt lat="43.591653735155205" lon="3.708432583996147"><ele>114.0</ele><time>2026-05-03T07:23:36.99Z</time></trkpt><trkpt lat="43.59156012131978" lon="3.7084444512613564"><ele>114.0</ele><time>2026-05-03T07:23:39.99Z</time></trkpt><trkpt lat="43.59147259952368" lon="3.7084432080673766"><ele>114.0</ele><time>2026-05-03T07:23:42.99Z</time></trkpt><trkpt lat="43.591395153668905" lon="3.708403438504631"><ele>114.0</ele><time>2026-05-03T07:23:45.99Z</time></trkpt><trkpt lat="43.59133158278343" lon="3.7083400938679563"><ele>114.0</ele><time>2026-05-03T07:23:48.99Z</time></trkpt><trkpt lat="43.59126742563972" lon="3.708251905222826"><ele>114.0</ele><time>2026-05-03T07:23:51.989Z</time></trkpt><trkpt lat="43.591218480405395" lon="3.7081686041138746"><ele>114.0</ele><time>2026-05-03T07:23:54.989Z</time></trkpt><trkpt lat="43.59117548056017" lon="3.7080771558503245"><ele>114.0</ele><time>2026-05-03T07:23:57.989Z</time></trkpt><trkpt lat="43.591128781212376" lon="3.7079901953693297"><ele>114.0</ele><time>2026-05-03T07:24:00.989Z</time></trkpt><trkpt lat="43.5910876157925" lon="3.7079007138188875"><ele>114.0</ele><time>2026-05-03T07:24:03.989Z</time></trkpt><trkpt lat="43.591048126433805" lon="3.707807356379194"><ele>114.0</ele><time>2026-05-03T07:24:06.989Z</time></trkpt><trkpt lat="43.591005812202276" lon="3.707710085855585"><ele>114.0</ele><time>2026-05-03T07:24:09.989Z</time></trkpt><trkpt lat="43.59097074176071" lon="3.707614986599777"><ele>114.0</ele><time>2026-05-03T07:24:12.988Z</time></trkpt><trkpt lat="43.590945527281825" lon="3.707511875457995"><ele>114.0</ele><time>2026-05-03T07:24:15.987Z</time></trkpt><trkpt lat="43.590922367729554" lon="3.7074079592420643"><ele>114.0</ele><time>2026-05-03T07:24:18.986Z</time></trkpt><trkpt lat="43.590904396763" lon="3.7072899034874984"><ele>114.0</ele><time>2026-05-03T07:24:21.986Z</time></trkpt><trkpt lat="43.590900355386985" lon="3.7071639049658667"><ele>114.0</ele><time>2026-05-03T07:24:24.986Z</time></trkpt><trkpt lat="43.5909045068115" lon="3.7070684538553267"><ele>114.0</ele><time>2026-05-03T07:24:27.987Z</time></trkpt><trkpt lat="43.590906896368146" lon="3.7069509690662383"><ele>114.0</ele><time>2026-05-03T07:24:30.986Z</time></trkpt><trkpt lat="43.59089316854685" lon="3.7068547372453495"><ele>114.0</ele><time>2026-05-03T07:24:32.986Z</time></trkpt><trkpt lat="43.59087596508269" lon="3.706746615688096"><ele>114.0</ele><time>2026-05-03T07:24:34.985Z</time></trkpt><trkpt lat="43.590848157955655" lon="3.706651573219544"><ele>114.0</ele><time>2026-05-03T07:24:36.985Z</time></trkpt><trkpt lat="43.59082092063082" lon="3.706561611290301"><ele>114.71428571428571</ele><time>2026-05-03T07:24:38.985Z</time></trkpt><trkpt lat="43.59080626108943" lon="3.7064608517497546"><ele>115.42857142857142</ele><time>2026-05-03T07:24:40.985Z</time></trkpt><trkpt lat="43.59078269255964" lon="3.706373855190771"><ele>116.14285714285714</ele><time>2026-05-03T07:24:42.985Z</time></trkpt><trkpt lat="43.59077052867857" lon="3.7062663054590654"><ele>116.85714285714286</ele><time>2026-05-03T07:24:44.984Z</time></trkpt><trkpt lat="43.59077959551624" lon="3.706169042707121"><ele>117.57142857142857</ele><time>2026-05-03T07:24:46.984Z</time></trkpt><trkpt lat="43.59078111084325" lon="3.706076116208875"><ele>118.28571428571428</ele><time>2026-05-03T07:24:48.984Z</time></trkpt><trkpt lat="43.59080809175937" lon="3.7059782717517034"><ele>119.0</ele><time>2026-05-03T07:24:50.984Z</time></trkpt><trkpt lat="43.59084805690406" lon="3.705871614401328"><ele>119.66666666666666</ele><time>2026-05-03T07:24:52.984Z</time></trkpt><trkpt lat="43.59089510352997" lon="3.705790472371585"><ele>120.33333333333333</ele><time>2026-05-03T07:24:54.984Z</time></trkpt><trkpt lat="43.590941398472886" lon="3.705704362672164"><ele>121.0</ele><time>2026-05-03T07:24:56.984Z</time></trkpt><trkpt lat="43.59099644129136" lon="3.705637610675956"><ele>121.66666666666666</ele><time>2026-05-03T07:24:58.984Z</time></trkpt><trkpt lat="43.591054486670906" lon="3.7055626499698993"><ele>122.33333333333333</ele><time>2026-05-03T07:25:00.984Z</time></trkpt><trkpt lat="43.59110583229695" lon="3.7054979036298885"><ele>123.0</ele><time>2026-05-03T07:25:02.984Z</time></trkpt><trkpt lat="43.59117527742238" lon="3.7054579598141757"><ele>124.5</ele><time>2026-05-03T07:25:04.984Z</time></trkpt><trkpt lat="43.591240892229834" lon="3.705414719141278"><ele>126.0</ele><time>2026-05-03T07:25:06.984Z</time></trkpt><trkpt lat="43.591324122401744" lon="3.7053995778434228"><ele>127.5</ele><time>2026-05-03T07:25:08.984Z</time></trkpt><trkpt lat="43.591385834763365" lon="3.7053356045255548"><ele>129.0</ele><time>2026-05-03T07:25:10.984Z</time></trkpt><trkpt lat="43.59145551239947" lon="3.7052833525588835"><ele>130.5</ele><time>2026-05-03T07:25:12.984Z</time></trkpt><trkpt lat="43.59154497931476" lon="3.7052572036279066"><ele>132.0</ele><time>2026-05-03T07:25:14.984Z</time></trkpt><trkpt lat="43.591612049834524" lon="3.705257096372396"><ele>132.0</ele><time>2026-05-03T07:25:16.984Z</time></trkpt><trkpt lat="43.59168752634959" lon="3.7052621053572334"><ele>132.0</ele><time>2026-05-03T07:25:18.984Z</time></trkpt><trkpt lat="43.59175022932248" lon="3.7052789182607175"><ele>132.0</ele><time>2026-05-03T07:25:20.984Z</time></trkpt><trkpt lat="43.5918084714368" lon="3.705324067020709"><ele>132.0</ele><time>2026-05-03T07:25:22.984Z</time></trkpt><trkpt lat="43.591871179239554" lon="3.7053594084779147"><ele>132.0</ele><time>2026-05-03T07:25:24.984Z</time></trkpt><trkpt lat="43.591931368606154" lon="3.7054035726675303"><ele>132.0</ele><time>2026-05-03T07:25:26.983Z</time></trkpt><trkpt lat="43.59202973053687" lon="3.705452817360246"><ele>132.0</ele><time>2026-05-03T07:25:29.983Z</time></trkpt><trkpt lat="43.59209198679165" lon="3.705487491956741"><ele>131.5</ele><time>2026-05-03T07:25:31.983Z</time></trkpt><trkpt lat="43.592159327726996" lon="3.7055374335267244"><ele>131.0</ele><time>2026-05-03T07:25:33.983Z</time></trkpt><trkpt lat="43.59222787319399" lon="3.705587608456394"><ele>130.5</ele><time>2026-05-03T07:25:35.983Z</time></trkpt><trkpt lat="43.59230036882958" lon="3.7056210028706973"><ele>130.0</ele><time>2026-05-03T07:25:37.983Z</time></trkpt><trkpt lat="43.59238565568398" lon="3.70568517319294"><ele>129.5</ele><time>2026-05-03T07:25:40.983Z</time></trkpt><trkpt lat="43.592463957241364" lon="3.7057541499123166"><ele>129.0</ele><time>2026-05-03T07:25:42.983Z</time></trkpt><trkpt lat="43.59253530686975" lon="3.705802576997783"><ele>129.0</ele><time>2026-05-03T07:25:44.983Z</time></trkpt><trkpt lat="43.59260809602206" lon="3.705846727811524"><ele>129.0</ele><time>2026-05-03T07:25:46.983Z</time></trkpt><trkpt lat="43.59268124140827" lon="3.7059008841219248"><ele>129.0</ele><time>2026-05-03T07:25:48.983Z</time></trkpt><trkpt lat="43.592747631608916" lon="3.7059459742200342"><ele>129.0</ele><time>2026-05-03T07:25:50.983Z</time></trkpt><trkpt lat="43.5928304138345" lon="3.7060072484682496"><ele>129.0</ele><time>2026-05-03T07:25:52.983Z</time></trkpt><trkpt lat="43.59290638280606" lon="3.706056157747965"><ele>129.0</ele><time>2026-05-03T07:25:54.983Z</time></trkpt><trkpt lat="43.59297652379567" lon="3.706110326270687"><ele>128.66666666666666</ele><time>2026-05-03T07:25:56.983Z</time></trkpt><trkpt lat="43.59305818416477" lon="3.706183562738997"><ele>128.33333333333334</ele><time>2026-05-03T07:25:58.983Z</time></trkpt><trkpt lat="43.59312424260043" lon="3.706235053783122"><ele>128.0</ele><time>2026-05-03T07:26:00.983Z</time></trkpt><trkpt lat="43.59318557109254" lon="3.7062856986814614"><ele>127.66666666666667</ele><time>2026-05-03T07:26:02.983Z</time></trkpt><trkpt lat="43.59327320918429" lon="3.7063572591117593"><ele>127.33333333333334</ele><time>2026-05-03T07:26:04.983Z</time></trkpt><trkpt lat="43.59334879487353" lon="3.706414011867491"><ele>127.0</ele><time>2026-05-03T07:26:06.983Z</time></trkpt><trkpt lat="43.59342786871248" lon="3.7064833967051034"><ele>127.0</ele><time>2026-05-03T07:26:08.983Z</time></trkpt><trkpt lat="43.59350293444052" lon="3.706538821615818"><ele>126.99999999999999</ele><time>2026-05-03T07:26:10.983Z</time></trkpt><trkpt lat="43.593577938520944" lon="3.706586459181105"><ele>126.99999999999999</ele><time>2026-05-03T07:26:12.983Z</time></trkpt><trkpt lat="43.5936557503699" lon="3.7066334932087948"><ele>127.0</ele><time>2026-05-03T07:26:14.983Z</time></trkpt><trkpt lat="43.59373958133773" lon="3.706672760063431"><ele>127.0</ele><time>2026-05-03T07:26:16.983Z</time></trkpt><trkpt lat="43.59388415883949" lon="3.706631303458926"><ele>127.50000000000001</ele><time>2026-05-03T07:26:19.983Z</time></trkpt><trkpt lat="43.593942816708235" lon="3.706557863369878"><ele>128.0</ele><time>2026-05-03T07:26:21.983Z</time></trkpt><trkpt lat="43.59397385247155" lon="3.7064700616817716"><ele>128.5</ele><time>2026-05-03T07:26:23.983Z</time></trkpt><trkpt lat="43.594018343774415" lon="3.706374597220552"><ele>129.0</ele><time>2026-05-03T07:26:25.983Z</time></trkpt><trkpt lat="43.594042044687924" lon="3.706257140983567"><ele>129.5</ele><time>2026-05-03T07:26:27.983Z</time></trkpt><trkpt lat="43.594062234780836" lon="3.706144856943282"><ele>130.0</ele><time>2026-05-03T07:26:29.984Z</time></trkpt><trkpt lat="43.59408531209714" lon="3.70604985989665"><ele>130.00000000000003</ele><time>2026-05-03T07:26:31.984Z</time></trkpt><trkpt lat="43.5941027776008" lon="3.705963380232003"><ele>130.0</ele><time>2026-05-03T07:26:33.984Z</time></trkpt><trkpt lat="43.594124365028534" lon="3.7058798920281837"><ele>130.0</ele><time>2026-05-03T07:26:35.984Z</time></trkpt><trkpt lat="43.594164045651084" lon="3.705810298178854"><ele>130.0</ele><time>2026-05-03T07:26:37.984Z</time></trkpt><trkpt lat="43.59420926498225" lon="3.705740522316414"><ele>130.0</ele><time>2026-05-03T07:26:39.983Z</time></trkpt><trkpt lat="43.59426824685403" lon="3.7056696008588204"><ele>130.00000000000003</ele><time>2026-05-03T07:26:41.984Z</time></trkpt><trkpt lat="43.59435282562817" lon="3.705612101958436"><ele>130.0</ele><time>2026-05-03T07:26:44.985Z</time></trkpt><trkpt lat="43.59443670529244" lon="3.7055592135582756"><ele>131.33333333333334</ele><time>2026-05-03T07:26:47.984Z</time></trkpt><trkpt lat="43.594522841258275" lon="3.7055368017540387"><ele>132.66666666666669</ele><time>2026-05-03T07:26:50.984Z</time></trkpt><trkpt lat="43.59459091146126" lon="3.705605888932791"><ele>134.0</ele><time>2026-05-03T07:26:53.984Z</time></trkpt><trkpt lat="43.59467406338473" lon="3.7056530251639015"><ele>135.33333333333334</ele><time>2026-05-03T07:26:56.984Z</time></trkpt><trkpt lat="43.59475885417942" lon="3.705661604239664"><ele>136.66666666666666</ele><time>2026-05-03T07:26:59.984Z</time></trkpt><trkpt lat="43.59484997409883" lon="3.7056733970803606"><ele>138.0</ele><time>2026-05-03T07:27:02.984Z</time></trkpt><trkpt lat="43.594920635514775" lon="3.705682313050302"><ele>138.0</ele><time>2026-05-03T07:27:04.984Z</time></trkpt><trkpt lat="43.59498231678548" lon="3.705702133966164"><ele>138.0</ele><time>2026-05-03T07:27:06.984Z</time></trkpt><trkpt lat="43.59504527318019" lon="3.7057348550620675"><ele>138.0</ele><time>2026-05-03T07:27:08.984Z</time></trkpt><trkpt lat="43.59510816145192" lon="3.705760882088576"><ele>138.0</ele><time>2026-05-03T07:27:10.984Z</time></trkpt><trkpt lat="43.59516977436726" lon="3.7057894589115996"><ele>138.0</ele><time>2026-05-03T07:27:12.984Z</time></trkpt><trkpt lat="43.59522397420924" lon="3.705839257258212"><ele>138.0</ele><time>2026-05-03T07:27:14.984Z</time></trkpt><trkpt lat="43.59527651176577" lon="3.705889638739034"><ele>138.0</ele><time>2026-05-03T07:27:16.984Z</time></trkpt><trkpt lat="43.595335047656064" lon="3.705936837561664"><ele>138.83333333333334</ele><time>2026-05-03T07:27:18.984Z</time></trkpt><trkpt lat="43.595391304757065" lon="3.7059868332109978"><ele>139.66666666666666</ele><time>2026-05-03T07:27:20.984Z</time></trkpt><trkpt lat="43.595466543400725" lon="3.7060728472969413"><ele>140.5</ele><time>2026-05-03T07:27:23.984Z</time></trkpt><trkpt lat="43.59551372826608" lon="3.7061353311340293"><ele>141.33333333333331</ele><time>2026-05-03T07:27:25.984Z</time></trkpt><trkpt lat="43.59556031196439" lon="3.7062035493064838"><ele>142.16666666666666</ele><time>2026-05-03T07:27:27.984Z</time></trkpt><trkpt lat="43.59561556135325" lon="3.706279822290432"><ele>143.0</ele><time>2026-05-03T07:27:29.984Z</time></trkpt><trkpt lat="43.59566587079257" lon="3.706359810149217"><ele>143.0</ele><time>2026-05-03T07:27:31.984Z</time></trkpt><trkpt lat="43.59571134610103" lon="3.7064363828445352"><ele>143.0</ele><time>2026-05-03T07:27:33.984Z</time></trkpt><trkpt lat="43.59577099575642" lon="3.7065093916719563"><ele>143.0</ele><time>2026-05-03T07:27:35.984Z</time></trkpt><trkpt lat="43.59582765958396" lon="3.7065689310378738"><ele>143.0</ele><time>2026-05-03T07:27:37.984Z</time></trkpt><trkpt lat="43.59588889418128" lon="3.7066281622112243"><ele>143.0</ele><time>2026-05-03T07:27:39.984Z</time></trkpt><trkpt lat="43.59595324163462" lon="3.706688772216495"><ele>143.0</ele><time>2026-05-03T07:27:41.984Z</time></trkpt><trkpt lat="43.59601647001214" lon="3.7067548835799156"><ele>142.99999999999997</ele><time>2026-05-03T07:27:43.984Z</time></trkpt><trkpt lat="43.59606361423919" lon="3.7068229612148973"><ele>143.0</ele><time>2026-05-03T07:27:45.984Z</time></trkpt><trkpt lat="43.596125171420276" lon="3.7068888255881096"><ele>143.0</ele><time>2026-05-03T07:27:47.984Z</time></trkpt><trkpt lat="43.59618619947488" lon="3.7069423317946573"><ele>143.0</ele><time>2026-05-03T07:27:49.984Z</time></trkpt><trkpt lat="43.596231160511735" lon="3.707011057565393"><ele>143.0</ele><time>2026-05-03T07:27:51.984Z</time></trkpt><trkpt lat="43.5962934269281" lon="3.7070761140044475"><ele>142.99999999999997</ele><time>2026-05-03T07:27:53.984Z</time></trkpt><trkpt lat="43.59634454976433" lon="3.707137537314715"><ele>143.0</ele><time>2026-05-03T07:27:55.984Z</time></trkpt><trkpt lat="43.596385668475385" lon="3.7072059219268096"><ele>143.7142857142857</ele><time>2026-05-03T07:27:57.984Z</time></trkpt><trkpt lat="43.59644228241343" lon="3.7072577512202622"><ele>144.42857142857142</ele><time>2026-05-03T07:27:59.984Z</time></trkpt><trkpt lat="43.596498396513496" lon="3.7073259881742744"><ele>145.14285714285714</ele><time>2026-05-03T07:28:01.984Z</time></trkpt><trkpt lat="43.59655422126661" lon="3.7073845956672526"><ele>145.85714285714283</ele><time>2026-05-03T07:28:03.984Z</time></trkpt><trkpt lat="43.59661991403087" lon="3.707482987855344"><ele>146.57142857142856</ele><time>2026-05-03T07:28:06.984Z</time></trkpt><trkpt lat="43.59667046373248" lon="3.7075384632988975"><ele>147.28571428571428</ele><time>2026-05-03T07:28:08.984Z</time></trkpt><trkpt lat="43.59672023057112" lon="3.707608042503526"><ele>148.0</ele><time>2026-05-03T07:28:10.984Z</time></trkpt><trkpt lat="43.59677522107298" lon="3.70766632086811"><ele>148.0</ele><time>2026-05-03T07:28:12.984Z</time></trkpt><trkpt lat="43.5968230790578" lon="3.707739646293578"><ele>148.0</ele><time>2026-05-03T07:28:14.983Z</time></trkpt><trkpt lat="43.596881008820354" lon="3.70779546581132"><ele>148.0</ele><time>2026-05-03T07:28:16.983Z</time></trkpt><trkpt lat="43.59694235075278" lon="3.707851170896842"><ele>148.0</ele><time>2026-05-03T07:28:18.983Z</time></trkpt><trkpt lat="43.59699250363264" lon="3.707905199913304"><ele>148.0</ele><time>2026-05-03T07:28:20.983Z</time></trkpt><trkpt lat="43.59704862406046" lon="3.7079462860177874"><ele>148.0</ele><time>2026-05-03T07:28:22.983Z</time></trkpt><trkpt lat="43.597101911434464" lon="3.707993627914482"><ele>148.0</ele><time>2026-05-03T07:28:24.983Z</time></trkpt><trkpt lat="43.59715456198208" lon="3.70805167744296"><ele>148.33333333333334</ele><time>2026-05-03T07:28:26.983Z</time></trkpt><trkpt lat="43.59719113476844" lon="3.70813342750201"><ele>148.66666666666669</ele><time>2026-05-03T07:28:28.983Z</time></trkpt><trkpt lat="43.59722108890552" lon="3.708224506469104"><ele>149.0</ele><time>2026-05-03T07:28:30.983Z</time></trkpt><trkpt lat="43.597233417299435" lon="3.7083303845587916"><ele>149.33333333333334</ele><time>2026-05-03T07:28:32.983Z</time></trkpt><trkpt lat="43.59725150916675" lon="3.7084572376257117"><ele>149.66666666666666</ele><time>2026-05-03T07:28:34.983Z</time></trkpt><trkpt lat="43.59728643956818" lon="3.708590285333262"><ele>150.0</ele><time>2026-05-03T07:28:36.984Z</time></trkpt><trkpt lat="43.59735302272748" lon="3.7087037639520317"><ele>148.6</ele><time>2026-05-03T07:28:38.984Z</time></trkpt><trkpt lat="43.59741498645174" lon="3.708816601003681"><ele>147.2</ele><time>2026-05-03T07:28:40.983Z</time></trkpt><trkpt lat="43.59747308948214" lon="3.708931496465151"><ele>145.8</ele><time>2026-05-03T07:28:42.983Z</time></trkpt><trkpt lat="43.5975186130747" lon="3.709060007420621"><ele>144.4</ele><time>2026-05-03T07:28:44.983Z</time></trkpt><trkpt lat="43.59760552456508" lon="3.7091455584166115"><ele>143.0</ele><time>2026-05-03T07:28:46.983Z</time></trkpt><trkpt lat="43.597683272376365" lon="3.709253828795856"><ele>143.0</ele><time>2026-05-03T07:28:48.983Z</time></trkpt><trkpt lat="43.597771242054215" lon="3.7093198668100396"><ele>143.0</ele><time>2026-05-03T07:28:50.983Z</time></trkpt><trkpt lat="43.597870091721724" lon="3.7093892592633892"><ele>143.0</ele><time>2026-05-03T07:28:52.983Z</time></trkpt><trkpt lat="43.59796248758623" lon="3.709465550090979"><ele>143.0</ele><time>2026-05-03T07:28:54.983Z</time></trkpt><trkpt lat="43.5980464585456" lon="3.7095497695733535"><ele>143.0</ele><time>2026-05-03T07:28:56.983Z</time></trkpt><trkpt lat="43.59815878172765" lon="3.7096248725365997"><ele>141.4</ele><time>2026-05-03T07:28:58.983Z</time></trkpt><trkpt lat="43.59825168829707" lon="3.7096912856967728"><ele>139.8</ele><time>2026-05-03T07:29:00.983Z</time></trkpt><trkpt lat="43.598357726324856" lon="3.7097515908959653"><ele>138.2</ele><time>2026-05-03T07:29:02.983Z</time></trkpt><trkpt lat="43.59848254248263" lon="3.709791405798938"><ele>136.6</ele><time>2026-05-03T07:29:04.983Z</time></trkpt><trkpt lat="43.59854657762855" lon="3.709807577436737"><ele>135.0</ele><time>2026-05-03T07:29:05.983Z</time></trkpt><trkpt lat="43.5986165235516" lon="3.709815111709388"><ele>134.66666666666666</ele><time>2026-05-03T07:29:06.983Z</time></trkpt><trkpt lat="43.598684811602126" lon="3.7098221399106808"><ele>134.33333333333334</ele><time>2026-05-03T07:29:07.983Z</time></trkpt><trkpt lat="43.598813333336814" lon="3.7098350514930587"><ele>134.0</ele><time>2026-05-03T07:29:09.983Z</time></trkpt><trkpt lat="43.59888640749839" lon="3.7098205155897337"><ele>133.66666666666669</ele><time>2026-05-03T07:29:10.983Z</time></trkpt><trkpt lat="43.59895741859641" lon="3.7098082588958614"><ele>133.33333333333334</ele><time>2026-05-03T07:29:11.983Z</time></trkpt><trkpt lat="43.59903146407645" lon="3.709791442181253"><ele>133.0</ele><time>2026-05-03T07:29:12.983Z</time></trkpt><trkpt lat="43.599110825938304" lon="3.709762090111791"><ele>133.0</ele><time>2026-05-03T07:29:13.983Z</time></trkpt><trkpt lat="43.599186222197616" lon="3.709724800533817"><ele>133.0</ele><time>2026-05-03T07:29:14.983Z</time></trkpt><trkpt lat="43.599262021060674" lon="3.7096677183145"><ele>133.0</ele><time>2026-05-03T07:29:15.983Z</time></trkpt><trkpt lat="43.599325203600785" lon="3.709588186882079"><ele>133.0</ele><time>2026-05-03T07:29:16.983Z</time></trkpt><trkpt lat="43.59939394662101" lon="3.7095181335707825"><ele>133.0</ele><time>2026-05-03T07:29:17.983Z</time></trkpt><trkpt lat="43.59946995347368" lon="3.7094614135369137"><ele>133.0</ele><time>2026-05-03T07:29:18.983Z</time></trkpt><trkpt lat="43.599539243852206" lon="3.709383028547433"><ele>134.0</ele><time>2026-05-03T07:29:19.983Z</time></trkpt><trkpt lat="43.59960065255663" lon="3.709289334197274"><ele>135.0</ele><time>2026-05-03T07:29:20.983Z</time></trkpt><trkpt lat="43.5996470248935" lon="3.7091935011494868"><ele>136.0</ele><time>2026-05-03T07:29:21.983Z</time></trkpt><trkpt lat="43.59968832055853" lon="3.709084311305534"><ele>137.0</ele><time>2026-05-03T07:29:22.983Z</time></trkpt><trkpt lat="43.599721039887946" lon="3.708984114783005"><ele>138.0</ele><time>2026-05-03T07:29:23.983Z</time></trkpt><trkpt lat="43.599738215609534" lon="3.7088864310849767"><ele>139.0</ele><time>2026-05-03T07:29:24.983Z</time></trkpt><trkpt lat="43.59975178590411" lon="3.7087249436055036"><ele>139.0</ele><time>2026-05-03T07:29:26.983Z</time></trkpt><trkpt lat="43.599782442343425" lon="3.708624456052529"><ele>139.0</ele><time>2026-05-03T07:29:28.983Z</time></trkpt><trkpt lat="43.59980515213418" lon="3.7085386346514033"><ele>139.0</ele><time>2026-05-03T07:29:30.983Z</time></trkpt><trkpt lat="43.599777221514024" lon="3.708451057821666"><ele>139.0</ele><time>2026-05-03T07:29:32.983Z</time></trkpt><trkpt lat="43.59979853076899" lon="3.7083315387350186"><ele>139.0</ele><time>2026-05-03T07:29:35.983Z</time></trkpt><trkpt lat="43.59986425782751" lon="3.7082690561951495"><ele>139.0</ele><time>2026-05-03T07:29:37.983Z</time></trkpt><trkpt lat="43.59992665191449" lon="3.7082039671707996"><ele>139.83333333333334</ele><time>2026-05-03T07:29:39.983Z</time></trkpt><trkpt lat="43.59998986395685" lon="3.708144599308425"><ele>140.66666666666669</ele><time>2026-05-03T07:29:41.983Z</time></trkpt><trkpt lat="43.60003306187728" lon="3.7080636036359214"><ele>141.5</ele><time>2026-05-03T07:29:43.983Z</time></trkpt><trkpt lat="43.60008257588529" lon="3.7079543040262357"><ele>142.33333333333334</ele><time>2026-05-03T07:29:45.983Z</time></trkpt><trkpt lat="43.60013395805966" lon="3.707868193907794"><ele>143.16666666666666</ele><time>2026-05-03T07:29:47.983Z</time></trkpt><trkpt lat="43.60016871326662" lon="3.7077533217702423"><ele>144.0</ele><time>2026-05-03T07:29:50.983Z</time></trkpt><trkpt lat="43.60019317598211" lon="3.7076673398232267"><ele>145.14285714285717</ele><time>2026-05-03T07:29:52.983Z</time></trkpt><trkpt lat="43.600214032193925" lon="3.707567988612423"><ele>146.28571428571428</ele><time>2026-05-03T07:29:55.983Z</time></trkpt><trkpt lat="43.600241190814565" lon="3.707475020266876"><ele>147.42857142857144</ele><time>2026-05-03T07:29:58.982Z</time></trkpt><trkpt lat="43.600256656205985" lon="3.7073706542413585"><ele>148.57142857142858</ele><time>2026-05-03T07:30:01.982Z</time></trkpt><trkpt lat="43.60028048501688" lon="3.707280276468425"><ele>149.71428571428572</ele><time>2026-05-03T07:30:04.982Z</time></trkpt><trkpt lat="43.60030166626518" lon="3.7071974570436184"><ele>150.85714285714286</ele><time>2026-05-03T07:30:06.982Z</time></trkpt><trkpt lat="43.600327169833875" lon="3.707078407039965"><ele>152.0</ele><time>2026-05-03T07:30:09.982Z</time></trkpt><trkpt lat="43.60035648881613" lon="3.7069882254343263"><ele>153.0</ele><time>2026-05-03T07:30:11.982Z</time></trkpt><trkpt lat="43.60038790877966" lon="3.7068956881303015"><ele>154.0</ele><time>2026-05-03T07:30:13.982Z</time></trkpt><trkpt lat="43.60041676567491" lon="3.706769159839658"><ele>155.0</ele><time>2026-05-03T07:30:15.982Z</time></trkpt><trkpt lat="43.6004522564079" lon="3.706664698879142"><ele>156.0</ele><time>2026-05-03T07:30:17.982Z</time></trkpt><trkpt lat="43.60049431438434" lon="3.7065611030373455"><ele>157.0</ele><time>2026-05-03T07:30:19.982Z</time></trkpt><trkpt lat="43.600528460318216" lon="3.7064587532601396"><ele>158.0</ele><time>2026-05-03T07:30:21.982Z</time></trkpt><trkpt lat="43.600571625015434" lon="3.7063555133872113"><ele>158.00000000000003</ele><time>2026-05-03T07:30:23.982Z</time></trkpt><trkpt lat="43.60059048917784" lon="3.706252354072044"><ele>158.0</ele><time>2026-05-03T07:30:25.982Z</time></trkpt><trkpt lat="43.600611095493804" lon="3.7061675261593217"><ele>158.0</ele><time>2026-05-03T07:30:27.982Z</time></trkpt><trkpt lat="43.60061175987106" lon="3.7060650596700055"><ele>158.0</ele><time>2026-05-03T07:30:29.982Z</time></trkpt><trkpt lat="43.60062549198559" lon="3.7059559098571264"><ele>158.0</ele><time>2026-05-03T07:30:32.982Z</time></trkpt><trkpt lat="43.60062858373234" lon="3.7058429940633117"><ele>158.00000000000003</ele><time>2026-05-03T07:30:35.982Z</time></trkpt><trkpt lat="43.600626647509976" lon="3.7057511283973534"><ele>158.0</ele><time>2026-05-03T07:30:37.982Z</time></trkpt><trkpt lat="43.60062594843027" lon="3.70564332423783"><ele>158.0</ele><time>2026-05-03T07:30:39.982Z</time></trkpt><trkpt lat="43.60064185264563" lon="3.7055465166603287"><ele>158.0</ele><time>2026-05-03T07:30:41.983Z</time></trkpt><trkpt lat="43.60065145763645" lon="3.7054385874732145"><ele>158.0</ele><time>2026-05-03T07:30:43.983Z</time></trkpt><trkpt lat="43.60066828078032" lon="3.705312051570721"><ele>158.0</ele><time>2026-05-03T07:30:46.982Z</time></trkpt><trkpt lat="43.60068369684794" lon="3.7052158714756382"><ele>158.0</ele><time>2026-05-03T07:30:48.983Z</time></trkpt><trkpt lat="43.600690552907174" lon="3.705116358001565"><ele>158.0</ele><time>2026-05-03T07:30:50.983Z</time></trkpt><trkpt lat="43.60070430044602" lon="3.704996954685174"><ele>159.33333333333331</ele><time>2026-05-03T07:30:52.982Z</time></trkpt><trkpt lat="43.60072571496102" lon="3.704905896332731"><ele>160.66666666666666</ele><time>2026-05-03T07:30:54.982Z</time></trkpt><trkpt lat="43.600744268730345" lon="3.7048196121537003"><ele>162.0</ele><time>2026-05-03T07:30:56.982Z</time></trkpt><trkpt lat="43.60077031795251" lon="3.704711713041682"><ele>163.33333333333334</ele><time>2026-05-03T07:30:58.982Z</time></trkpt><trkpt lat="43.60082627015347" lon="3.7046252611216586"><ele>164.66666666666669</ele><time>2026-05-03T07:31:00.982Z</time></trkpt><trkpt lat="43.600886304023796" lon="3.7045362926190797"><ele>166.0</ele><time>2026-05-03T07:31:03.982Z</time></trkpt><trkpt lat="43.6009311348398" lon="3.7044637481237475"><ele>167.0</ele><time>2026-05-03T07:31:05.982Z</time></trkpt><trkpt lat="43.60099594840275" lon="3.7044105476430067"><ele>168.0</ele><time>2026-05-03T07:31:07.982Z</time></trkpt><trkpt lat="43.60106618801268" lon="3.704329264011402"><ele>169.0</ele><time>2026-05-03T07:31:10.982Z</time></trkpt><trkpt lat="43.601129274762016" lon="3.704300265969202"><ele>170.0</ele><time>2026-05-03T07:31:12.982Z</time></trkpt><trkpt lat="43.601217384974134" lon="3.7042563934310784"><ele>171.0</ele><time>2026-05-03T07:31:15.982Z</time></trkpt><trkpt lat="43.60128195950492" lon="3.704281179224602"><ele>172.0</ele><time>2026-05-03T07:31:17.982Z</time></trkpt><trkpt lat="43.60136038404789" lon="3.7042904854699237"><ele>172.0</ele><time>2026-05-03T07:31:19.982Z</time></trkpt><trkpt lat="43.6015267301203" lon="3.7043081603340253"><ele>172.0</ele><time>2026-05-03T07:31:24.982Z</time></trkpt><trkpt lat="43.60159165990123" lon="3.704342284317519"><ele>172.0</ele><time>2026-05-03T07:31:26.982Z</time></trkpt><trkpt lat="43.60171900295105" lon="3.7043585284208222"><ele>172.0</ele><time>2026-05-03T07:31:31.982Z</time></trkpt><trkpt lat="43.601786446807104" lon="3.7043686740293027"><ele>172.0</ele><time>2026-05-03T07:31:33.982Z</time></trkpt><trkpt lat="43.60189743113606" lon="3.7043569211142193"><ele>172.0</ele><time>2026-05-03T07:31:36.981Z</time></trkpt><trkpt lat="43.60196194207665" lon="3.7043550411502406"><ele>172.0</ele><time>2026-05-03T07:31:38.981Z</time></trkpt><trkpt lat="43.602028388001656" lon="3.704326974130566"><ele>172.0</ele><time>2026-05-03T07:31:40.981Z</time></trkpt><trkpt lat="43.602114151098725" lon="3.704308152194954"><ele>172.0</ele><time>2026-05-03T07:31:43.981Z</time></trkpt><trkpt lat="43.602189619514235" lon="3.7043114708844165"><ele>172.0</ele><time>2026-05-03T07:31:46.981Z</time></trkpt><trkpt lat="43.60240216661936" lon="3.70431103826398"><ele>173.5</ele><time>2026-05-03T07:31:53.981Z</time></trkpt><trkpt lat="43.60248599556151" lon="3.704319183977125"><ele>175.0</ele><time>2026-05-03T07:31:56.981Z</time></trkpt><trkpt lat="43.60255847275284" lon="3.7043490132709254"><ele>176.5</ele><time>2026-05-03T07:31:58.981Z</time></trkpt><trkpt lat="43.602624402487585" lon="3.7044077399708253"><ele>178.0</ele><time>2026-05-03T07:32:00.981Z</time></trkpt><trkpt lat="43.60265390799234" lon="3.704519662188752"><ele>179.5</ele><time>2026-05-03T07:32:03.981Z</time></trkpt><trkpt lat="43.60269638065234" lon="3.7045876301064773"><ele>181.0</ele><time>2026-05-03T07:32:05.981Z</time></trkpt><trkpt lat="43.602777369778856" lon="3.7046128475397087"><ele>183.0</ele><time>2026-05-03T07:32:08.981Z</time></trkpt><trkpt lat="43.602938997593895" lon="3.7045629984290764"><ele>185.0</ele><time>2026-05-03T07:32:14.981Z</time></trkpt><trkpt lat="43.60310313841973" lon="3.7046229872825527"><ele>187.0</ele><time>2026-05-03T07:32:20.981Z</time></trkpt><trkpt lat="43.603180199523464" lon="3.704586958191881"><ele>189.0</ele><time>2026-05-03T07:32:23.981Z</time></trkpt><trkpt lat="43.60323965907811" lon="3.7045195571671083"><ele>188.66666666666666</ele><time>2026-05-03T07:32:26.981Z</time></trkpt><trkpt lat="43.6032777910607" lon="3.704409952212162"><ele>188.33333333333334</ele><time>2026-05-03T07:32:29.981Z</time></trkpt><trkpt lat="43.60332478116114" lon="3.7043028900674297"><ele>188.0</ele><time>2026-05-03T07:32:32.981Z</time></trkpt><trkpt lat="43.603374088028424" lon="3.7042351116863004"><ele>187.66666666666669</ele><time>2026-05-03T07:32:34.981Z</time></trkpt><trkpt lat="43.60344452693166" lon="3.7041515378113794"><ele>187.33333333333334</ele><time>2026-05-03T07:32:37.981Z</time></trkpt><trkpt lat="43.60349037319969" lon="3.7040893650340077"><ele>187.0</ele><time>2026-05-03T07:32:39.981Z</time></trkpt><trkpt lat="43.60354468137149" lon="3.7040083906483523"><ele>187.0</ele><time>2026-05-03T07:32:42.981Z</time></trkpt><trkpt lat="43.603500379293536" lon="3.70391776211483"><ele>187.0</ele><time>2026-05-03T07:32:45.981Z</time></trkpt><trkpt lat="43.60344008993923" lon="3.7038906173394843"><ele>187.0</ele><time>2026-05-03T07:32:47.982Z</time></trkpt><trkpt lat="43.60337241065181" lon="3.703829878369406"><ele>187.0</ele><time>2026-05-03T07:32:49.982Z</time></trkpt><trkpt lat="43.603313871465254" lon="3.7037888615455894"><ele>187.0</ele><time>2026-05-03T07:32:51.982Z</time></trkpt><trkpt lat="43.603235628646715" lon="3.7037287683094218"><ele>187.0</ele><time>2026-05-03T07:32:54.982Z</time></trkpt><trkpt lat="43.603181760356044" lon="3.7036468198545687"><ele>187.0</ele><time>2026-05-03T07:32:57.981Z</time></trkpt><trkpt lat="43.60310925065298" lon="3.7036005411906885"><ele>187.0</ele><time>2026-05-03T07:33:00.982Z</time></trkpt><trkpt lat="43.60302733467193" lon="3.703594898583835"><ele>187.0</ele><time>2026-05-03T07:33:03.982Z</time></trkpt><trkpt lat="43.602961260314814" lon="3.703587075906992"><ele>187.0</ele><time>2026-05-03T07:33:06.982Z</time></trkpt><trkpt lat="43.602888974925236" lon="3.703537659600849"><ele>187.0</ele><time>2026-05-03T07:33:10.982Z</time></trkpt><trkpt lat="43.60282369771427" lon="3.703528534082549"><ele>187.0</ele><time>2026-05-03T07:33:14.982Z</time></trkpt><trkpt lat="43.60274699908459" lon="3.703489848963907"><ele>188.66666666666669</ele><time>2026-05-03T07:33:17.982Z</time></trkpt><trkpt lat="43.602669226689706" lon="3.7034677099803437"><ele>190.33333333333334</ele><time>2026-05-03T07:33:20.982Z</time></trkpt><trkpt lat="43.60258836054753" lon="3.703438207984541"><ele>192.0</ele><time>2026-05-03T07:33:23.982Z</time></trkpt><trkpt lat="43.60251611426064" lon="3.7033854504955164"><ele>193.66666666666669</ele><time>2026-05-03T07:33:26.982Z</time></trkpt><trkpt lat="43.60244575107655" lon="3.7033249455323625"><ele>195.33333333333334</ele><time>2026-05-03T07:33:29.982Z</time></trkpt><trkpt lat="43.60238009998195" lon="3.7032810482487126"><ele>197.0</ele><time>2026-05-03T07:33:31.982Z</time></trkpt><trkpt lat="43.602317402884964" lon="3.7032351683063927"><ele>197.00000000000003</ele><time>2026-05-03T07:33:34.982Z</time></trkpt><trkpt lat="43.60225152122914" lon="3.7031757443085427"><ele>197.0</ele><time>2026-05-03T07:33:37.982Z</time></trkpt><trkpt lat="43.602175320141434" lon="3.7031148520961077"><ele>197.0</ele><time>2026-05-03T07:33:40.982Z</time></trkpt><trkpt lat="43.60210878720867" lon="3.703070189913399"><ele>197.0</ele><time>2026-05-03T07:33:43.982Z</time></trkpt><trkpt lat="43.60206723088205" lon="3.7029960646915456"><ele>197.00000000000003</ele><time>2026-05-03T07:33:46.982Z</time></trkpt><trkpt lat="43.60201454545205" lon="3.7029040323033366"><ele>197.0</ele><time>2026-05-03T07:33:49.982Z</time></trkpt><trkpt lat="43.601949255406616" lon="3.7028248442930516"><ele>197.50000000000003</ele><time>2026-05-03T07:33:52.982Z</time></trkpt><trkpt lat="43.601899231312004" lon="3.7027526166899873"><ele>198.0</ele><time>2026-05-03T07:33:55.982Z</time></trkpt><trkpt lat="43.60183259323348" lon="3.702677482866448"><ele>198.5</ele><time>2026-05-03T07:33:58.981Z</time></trkpt><trkpt lat="43.60178133912739" lon="3.702602860346444"><ele>199.0</ele><time>2026-05-03T07:34:00.981Z</time></trkpt><trkpt lat="43.60172982406859" lon="3.7025245306942396"><ele>199.50000000000003</ele><time>2026-05-03T07:34:02.981Z</time></trkpt><trkpt lat="43.60167612913127" lon="3.7024187350633353"><ele>200.0</ele><time>2026-05-03T07:34:05.981Z</time></trkpt><trkpt lat="43.601633970180295" lon="3.7023504715700675"><ele>200.00000000000003</ele><time>2026-05-03T07:34:07.981Z</time></trkpt><trkpt lat="43.601575752956165" lon="3.702303245365225"><ele>200.0</ele><time>2026-05-03T07:34:10.981Z</time></trkpt><trkpt lat="43.60152628009434" lon="3.702238233053742"><ele>200.0</ele><time>2026-05-03T07:34:13.981Z</time></trkpt><trkpt lat="43.60147640773825" lon="3.7021791355143043"><ele>200.0</ele><time>2026-05-03T07:34:16.981Z</time></trkpt><trkpt lat="43.60141560845233" lon="3.7021500031613424"><ele>200.0</ele><time>2026-05-03T07:34:19.981Z</time></trkpt><trkpt lat="43.60134841513432" lon="3.70213750125914"><ele>200.00000000000003</ele><time>2026-05-03T07:34:22.981Z</time></trkpt><trkpt lat="43.60126807434678" lon="3.702073794780372"><ele>200.0</ele><time>2026-05-03T07:34:25.981Z</time></trkpt><trkpt lat="43.601201335993835" lon="3.7020326928006995"><ele>200.16666666666669</ele><time>2026-05-03T07:34:28.981Z</time></trkpt><trkpt lat="43.601126292008814" lon="3.7020328590592024"><ele>200.33333333333334</ele><time>2026-05-03T07:34:31.981Z</time></trkpt><trkpt lat="43.601052185422446" lon="3.7019980644200636"><ele>200.5</ele><time>2026-05-03T07:34:36.981Z</time></trkpt><trkpt lat="43.601003041095275" lon="3.7019317750198404"><ele>200.66666666666669</ele><time>2026-05-03T07:34:40.981Z</time></trkpt><trkpt lat="43.600963558511914" lon="3.7018308136993565"><ele>200.83333333333334</ele><time>2026-05-03T07:34:45.981Z</time></trkpt><trkpt lat="43.60088760851161" lon="3.7017876549645066"><ele>201.0</ele><time>2026-05-03T07:34:47.981Z</time></trkpt><trkpt lat="43.60081490665721" lon="3.7017450641389975"><ele>202.0</ele><time>2026-05-03T07:34:50.981Z</time></trkpt><trkpt lat="43.60074309513055" lon="3.701725181789114"><ele>203.0</ele><time>2026-05-03T07:34:53.981Z</time></trkpt><trkpt lat="43.6006774826401" lon="3.701762954966228"><ele>204.0</ele><time>2026-05-03T07:34:56.982Z</time></trkpt><trkpt lat="43.600596411424014" lon="3.7017752418448673"><ele>205.0</ele><time>2026-05-03T07:34:59.981Z</time></trkpt><trkpt lat="43.60051970334151" lon="3.70183514884388"><ele>206.0</ele><time>2026-05-03T07:35:03.981Z</time></trkpt><trkpt lat="43.60043899894034" lon="3.70188739631499"><ele>207.0</ele><time>2026-05-03T07:35:07.981Z</time></trkpt><trkpt lat="43.60037909086613" lon="3.701857627547508"><ele>207.0</ele><time>2026-05-03T07:35:11.981Z</time></trkpt><trkpt lat="43.60032058784123" lon="3.7018129893726615"><ele>207.0</ele><time>2026-05-03T07:35:38.981Z</time></trkpt><trkpt lat="43.60023428938336" lon="3.701780582527291"><ele>207.0</ele><time>2026-05-03T07:35:42.981Z</time></trkpt><trkpt lat="43.60018326645091" lon="3.7018847569435476"><ele>207.0</ele><time>2026-05-03T07:35:45.981Z</time></trkpt><trkpt lat="43.600167662201606" lon="3.701991136080373"><ele>207.0</ele><time>2026-05-03T07:35:49.981Z</time></trkpt><trkpt lat="43.600111721151826" lon="3.7020874138384183"><ele>207.0</ele><time>2026-05-03T07:35:53.981Z</time></trkpt><trkpt lat="43.60006930791307" lon="3.702192245735174"><ele>207.0</ele><time>2026-05-03T07:35:56.981Z</time></trkpt><trkpt lat="43.60000568979221" lon="3.7022765050331308"><ele>207.0</ele><time>2026-05-03T07:35:59.981Z</time></trkpt><trkpt lat="43.622738101491976" lon="3.7624232282013983"><ele>193.66666666666666</ele><time>2026-05-03T08:57:13.999Z</time></trkpt><trkpt lat="43.62277005588959" lon="3.7625537058516803"><ele>180.33333333333334</ele><time>2026-05-03T08:57:15.999Z</time></trkpt><trkpt lat="43.622829031950864" lon="3.7626289436193425"><ele>167.0</ele><time>2026-05-03T08:57:18.999Z</time></trkpt><trkpt lat="43.62287461440959" lon="3.7626973635530128"><ele>153.66666666666669</ele><time>2026-05-03T08:57:20.999Z</time></trkpt><trkpt lat="43.622893946099516" lon="3.762837978949829"><ele>140.33333333333334</ele><time>2026-05-03T08:57:22.999Z</time></trkpt><trkpt lat="43.62293588081916" lon="3.762944499486962"><ele>127.0</ele><time>2026-05-03T08:57:24.999Z</time></trkpt><trkpt lat="43.623002730306034" lon="3.763055787170619"><ele>126.42857142857143</ele><time>2026-05-03T08:57:26.999Z</time></trkpt><trkpt lat="43.62303033171713" lon="3.7631423934140638"><ele>125.85714285714286</ele><time>2026-05-03T08:57:27.999Z</time></trkpt><trkpt lat="43.6230540328409" lon="3.7632288330752037"><ele>125.28571428571429</ele><time>2026-05-03T08:57:28.999Z</time></trkpt><trkpt lat="43.6230965285291" lon="3.7633145734786644"><ele>124.71428571428572</ele><time>2026-05-03T08:57:29.999Z</time></trkpt><trkpt lat="43.62309632230189" lon="3.763424951258412"><ele>124.14285714285714</ele><time>2026-05-03T08:57:30.999Z</time></trkpt><trkpt lat="43.62313030841661" lon="3.763517889703529"><ele>123.57142857142858</ele><time>2026-05-03T08:57:31.999Z</time></trkpt><trkpt lat="43.623166676993584" lon="3.76362139841754"><ele>123.00000000000001</ele><time>2026-05-03T08:57:32.999Z</time></trkpt><trkpt lat="43.62321612886251" lon="3.763701859492848"><ele>121.83333333333333</ele><time>2026-05-03T08:57:33.999Z</time></trkpt><trkpt lat="43.62327128668644" lon="3.763820655871891"><ele>120.66666666666666</ele><time>2026-05-03T08:57:34.999Z</time></trkpt><trkpt lat="43.62331028468077" lon="3.763907285959696"><ele>119.5</ele><time>2026-05-03T08:57:35.999Z</time></trkpt><trkpt lat="43.62332015580746" lon="3.764015191898757"><ele>118.33333333333333</ele><time>2026-05-03T08:57:36.999Z</time></trkpt><trkpt lat="43.623350033629144" lon="3.7641014269213797"><ele>117.16666666666666</ele><time>2026-05-03T08:57:37.999Z</time></trkpt><trkpt lat="43.623372021392534" lon="3.764191996445321"><ele>116.0</ele><time>2026-05-03T08:57:38.999Z</time></trkpt><trkpt lat="43.62338473171571" lon="3.764283482428964"><ele>115.83333333333333</ele><time>2026-05-03T08:57:39.999Z</time></trkpt><trkpt lat="43.62338756237009" lon="3.7643715959614568"><ele>115.66666666666666</ele><time>2026-05-03T08:57:40.999Z</time></trkpt><trkpt lat="43.62344057620962" lon="3.7644645499629292"><ele>115.5</ele><time>2026-05-03T08:57:41.999Z</time></trkpt><trkpt lat="43.623423931791585" lon="3.764556481669399"><ele>115.33333333333334</ele><time>2026-05-03T08:57:42.999Z</time></trkpt><trkpt lat="43.62339365716718" lon="3.7646383436080177"><ele>115.16666666666667</ele><time>2026-05-03T08:57:43.999Z</time></trkpt><trkpt lat="43.62333346727342" lon="3.76478680747658"><ele>115.0</ele><time>2026-05-03T08:57:45.999Z</time></trkpt><trkpt lat="43.62327486953853" lon="3.7649356171357726"><ele>115.0</ele><time>2026-05-03T08:57:47.999Z</time></trkpt><trkpt lat="43.623215837324054" lon="3.7650819262305615"><ele>115.0</ele><time>2026-05-03T08:57:49.999Z</time></trkpt><trkpt lat="43.62316916688024" lon="3.765231840871409"><ele>115.0</ele><time>2026-05-03T08:57:51.999Z</time></trkpt><trkpt lat="43.62313820743896" lon="3.7653105906174336"><ele>115.0</ele><time>2026-05-03T08:57:52.999Z</time></trkpt><trkpt lat="43.623079825639394" lon="3.7654516036127212"><ele>115.0</ele><time>2026-05-03T08:57:54.999Z</time></trkpt><trkpt lat="43.623035019778285" lon="3.7656152984383433"><ele>115.4</ele><time>2026-05-03T08:57:56.999Z</time></trkpt><trkpt lat="43.62299545545683" lon="3.7656911923534864"><ele>115.8</ele><time>2026-05-03T08:57:57.999Z</time></trkpt><trkpt lat="43.622946540716626" lon="3.7658364254812047"><ele>116.19999999999999</ele><time>2026-05-03T08:57:59.999Z</time></trkpt><trkpt lat="43.62288888628266" lon="3.765994066982022"><ele>116.6</ele><time>2026-05-03T08:58:01.999Z</time></trkpt><trkpt lat="43.62286019285378" lon="3.7661479229474506"><ele>117.0</ele><time>2026-05-03T08:58:03.999Z</time></trkpt><trkpt lat="43.622826363825155" lon="3.766282337428266"><ele>116.0</ele><time>2026-05-03T08:58:05.999Z</time></trkpt><trkpt lat="43.62278362524811" lon="3.7664265568797917"><ele>114.99999999999999</ele><time>2026-05-03T08:58:07.999Z</time></trkpt><trkpt lat="43.622763803590736" lon="3.7665096686038244"><ele>113.99999999999999</ele><time>2026-05-03T08:58:08.999Z</time></trkpt><trkpt lat="43.6227363923297" lon="3.7666643565362783"><ele>113.0</ele><time>2026-05-03T08:58:10.998Z</time></trkpt><trkpt lat="43.62271079150907" lon="3.7668231212845886"><ele>112.0</ele><time>2026-05-03T08:58:12.998Z</time></trkpt><trkpt lat="43.62270148425954" lon="3.766979946805073"><ele>111.6</ele><time>2026-05-03T08:58:14.998Z</time></trkpt><trkpt lat="43.62268672004416" lon="3.767132310061341"><ele>111.19999999999999</ele><time>2026-05-03T08:58:16.998Z</time></trkpt><trkpt lat="43.62266143974119" lon="3.7672721383091448"><ele>110.8</ele><time>2026-05-03T08:58:18.998Z</time></trkpt><trkpt lat="43.6226435165072" lon="3.767429675483929"><ele>110.4</ele><time>2026-05-03T08:58:20.998Z</time></trkpt><trkpt lat="43.6226250549079" lon="3.7675762231548307"><ele>110.0</ele><time>2026-05-03T08:58:22.998Z</time></trkpt><trkpt lat="43.62260908772646" lon="3.7677203391801424"><ele>109.75</ele><time>2026-05-03T08:58:24.998Z</time></trkpt><trkpt lat="43.62258412539004" lon="3.7678923839383187"><ele>109.5</ele><time>2026-05-03T08:58:26.998Z</time></trkpt><trkpt lat="43.62257135326777" lon="3.7680358517556103"><ele>109.25</ele><time>2026-05-03T08:58:28.998Z</time></trkpt><trkpt lat="43.62251133628027" lon="3.7681807396967866"><ele>109.0</ele><time>2026-05-03T08:58:30.998Z</time></trkpt><trkpt lat="43.622536851831974" lon="3.7683364454544095"><ele>109.0</ele><time>2026-05-03T08:58:32.998Z</time></trkpt><trkpt lat="43.62252055338856" lon="3.7684845220167427"><ele>109.0</ele><time>2026-05-03T08:58:34.998Z</time></trkpt><trkpt lat="43.62250210715927" lon="3.7686488468911263"><ele>109.0</ele><time>2026-05-03T08:58:36.998Z</time></trkpt><trkpt lat="43.622488054272104" lon="3.768815622361895"><ele>109.0</ele><time>2026-05-03T08:58:38.998Z</time></trkpt><trkpt lat="43.622473461383294" lon="3.7689021348785148"><ele>109.0</ele><time>2026-05-03T08:58:39.998Z</time></trkpt><trkpt lat="43.622465467915355" lon="3.768988884216969"><ele>107.80000000000001</ele><time>2026-05-03T08:58:40.998Z</time></trkpt><trkpt lat="43.62244280746751" lon="3.7691559425957166"><ele>106.60000000000001</ele><time>2026-05-03T08:58:42.998Z</time></trkpt><trkpt lat="43.62243762170248" lon="3.7692561194181184"><ele>105.4</ele><time>2026-05-03T08:58:43.998Z</time></trkpt><trkpt lat="43.62242495706285" lon="3.7693468761248488"><ele>104.2</ele><time>2026-05-03T08:58:44.998Z</time></trkpt><trkpt lat="43.622407618012424" lon="3.769437013889248"><ele>103.0</ele><time>2026-05-03T08:58:45.998Z</time></trkpt><trkpt lat="43.622379983985184" lon="3.7696079336937407"><ele>103.0</ele><time>2026-05-03T08:58:47.998Z</time></trkpt><trkpt lat="43.62235406610173" lon="3.7697778726699624"><ele>103.0</ele><time>2026-05-03T08:58:49.998Z</time></trkpt><trkpt lat="43.62232320865325" lon="3.769942242401392"><ele>103.0</ele><time>2026-05-03T08:58:52Z</time></trkpt><trkpt lat="43.62231663088207" lon="3.7700303894016964"><ele>103.0</ele><time>2026-05-03T08:58:53Z</time></trkpt><trkpt lat="43.62230512287207" lon="3.77011717145229"><ele>103.0</ele><time>2026-05-03T08:58:54Z</time></trkpt><trkpt lat="43.622271332396394" lon="3.770283958367143"><ele>103.0</ele><time>2026-05-03T08:58:56Z</time></trkpt><trkpt lat="43.62224085474743" lon="3.770440707708499"><ele>103.0</ele><time>2026-05-03T08:58:58Z</time></trkpt><trkpt lat="43.62220502302506" lon="3.770596352794807"><ele>103.0</ele><time>2026-05-03T08:59:00Z</time></trkpt><trkpt lat="43.62216288432748" lon="3.7707482470533487"><ele>103.0</ele><time>2026-05-03T08:59:02Z</time></trkpt><trkpt lat="43.62210840087958" lon="3.770899333848878"><ele>103.60000000000001</ele><time>2026-05-03T08:59:04Z</time></trkpt><trkpt lat="43.62206822573256" lon="3.7710507167878857"><ele>104.2</ele><time>2026-05-03T08:59:06Z</time></trkpt><trkpt lat="43.62201809948472" lon="3.7711951045758423"><ele>104.8</ele><time>2026-05-03T08:59:08Z</time></trkpt><trkpt lat="43.62197330496151" lon="3.771323008628037"><ele>105.4</ele><time>2026-05-03T08:59:09.999Z</time></trkpt><trkpt lat="43.62192109572947" lon="3.7714614272406632"><ele>106.0</ele><time>2026-05-03T08:59:11.999Z</time></trkpt><trkpt lat="43.621887583512816" lon="3.7715863848948237"><ele>104.4</ele><time>2026-05-03T08:59:13.999Z</time></trkpt><trkpt lat="43.62185648822436" lon="3.7716900716107657"><ele>102.8</ele><time>2026-05-03T08:59:15.999Z</time></trkpt><trkpt lat="43.62179822334693" lon="3.771772739284357"><ele>101.2</ele><time>2026-05-03T08:59:17.999Z</time></trkpt><trkpt lat="43.6217124082118" lon="3.7718765453068563"><ele>99.60000000000001</ele><time>2026-05-03T08:59:19.999Z</time></trkpt><trkpt lat="43.62166490784278" lon="3.7719382520335953"><ele>98.0</ele><time>2026-05-03T08:59:20.999Z</time></trkpt><trkpt lat="43.62157786467262" lon="3.7720548247315127"><ele>98.0</ele><time>2026-05-03T08:59:22.999Z</time></trkpt><trkpt lat="43.621489048614116" lon="3.7721737181645"><ele>98.0</ele><time>2026-05-03T08:59:24.999Z</time></trkpt><trkpt lat="43.621444122090836" lon="3.772242688824318"><ele>98.0</ele><time>2026-05-03T08:59:25.999Z</time></trkpt><trkpt lat="43.621356541499026" lon="3.7723649995481376"><ele>98.0</ele><time>2026-05-03T08:59:27.999Z</time></trkpt><trkpt lat="43.6212634753006" lon="3.772493362092203"><ele>98.0</ele><time>2026-05-03T08:59:29.999Z</time></trkpt><trkpt lat="43.621219045991914" lon="3.7725585249598685"><ele>97.60000000000001</ele><time>2026-05-03T08:59:30.999Z</time></trkpt><trkpt lat="43.62113492476071" lon="3.7726823339749163"><ele>97.2</ele><time>2026-05-03T08:59:32.999Z</time></trkpt><trkpt lat="43.62104080605437" lon="3.7727886844256044"><ele>96.8</ele><time>2026-05-03T08:59:34.999Z</time></trkpt><trkpt lat="43.62097905001731" lon="3.7729246660552174"><ele>96.4</ele><time>2026-05-03T08:59:36.999Z</time></trkpt><trkpt lat="43.62097730457229" lon="3.7730121685950104"><ele>96.0</ele><time>2026-05-03T08:59:37.999Z</time></trkpt><trkpt lat="43.620970969506814" lon="3.7731006344990585"><ele>95.6</ele><time>2026-05-03T08:59:38.999Z</time></trkpt><trkpt lat="43.62094376836841" lon="3.773180027472407"><ele>95.19999999999999</ele><time>2026-05-03T08:59:39.999Z</time></trkpt><trkpt lat="43.620921986867614" lon="3.7733323085008865"><ele>94.80000000000001</ele><time>2026-05-03T08:59:41.999Z</time></trkpt><trkpt lat="43.62097796477582" lon="3.7734616533185803"><ele>94.4</ele><time>2026-05-03T08:59:43.999Z</time></trkpt><trkpt lat="43.62098553630161" lon="3.7736050191257773"><ele>94.0</ele><time>2026-05-03T08:59:45.999Z</time></trkpt><trkpt lat="43.620962019801155" lon="3.77372435091091"><ele>93.80000000000001</ele><time>2026-05-03T08:59:47.999Z</time></trkpt><trkpt lat="43.620942358966616" lon="3.7738686839190128"><ele>93.60000000000001</ele><time>2026-05-03T08:59:50.999Z</time></trkpt><trkpt lat="43.62091740332295" lon="3.7739891735552016"><ele>93.4</ele><time>2026-05-03T08:59:52.999Z</time></trkpt><trkpt lat="43.62088768501327" lon="3.7741129353018446"><ele>93.2</ele><time>2026-05-03T08:59:54.999Z</time></trkpt><trkpt lat="43.620861411022666" lon="3.77424547807757"><ele>93.0</ele><time>2026-05-03T08:59:56.999Z</time></trkpt><trkpt lat="43.6208447081567" lon="3.774374571966942"><ele>92.66666666666667</ele><time>2026-05-03T08:59:58.999Z</time></trkpt><trkpt lat="43.620847361057315" lon="3.7744960692111977"><ele>92.33333333333333</ele><time>2026-05-03T09:00:00.999Z</time></trkpt><trkpt lat="43.62086788149925" lon="3.774608201034567"><ele>92.0</ele><time>2026-05-03T09:00:02.999Z</time></trkpt><trkpt lat="43.62089012672213" lon="3.774726007447986"><ele>91.66666666666666</ele><time>2026-05-03T09:00:04.999Z</time></trkpt><trkpt lat="43.620926528878314" lon="3.7748320320551736"><ele>91.33333333333333</ele><time>2026-05-03T09:00:06.999Z</time></trkpt><trkpt lat="43.62096543830354" lon="3.774934267079541"><ele>91.0</ele><time>2026-05-03T09:00:08.999Z</time></trkpt><trkpt lat="43.62101793394258" lon="3.775029504799049"><ele>91.0</ele><time>2026-05-03T09:00:10.999Z</time></trkpt><trkpt lat="43.62106941159839" lon="3.775126333820703"><ele>91.0</ele><time>2026-05-03T09:00:12.999Z</time></trkpt><trkpt lat="43.621132825447184" lon="3.775220254619682"><ele>91.0</ele><time>2026-05-03T09:00:14.999Z</time></trkpt><trkpt lat="43.62118270419532" lon="3.7753081366700982"><ele>91.0</ele><time>2026-05-03T09:00:16.999Z</time></trkpt><trkpt lat="43.62121999335832" lon="3.775418920683105"><ele>91.0</ele><time>2026-05-03T09:00:18.998Z</time></trkpt><trkpt lat="43.621251743835245" lon="3.775524507925535"><ele>91.0</ele><time>2026-05-03T09:00:20.998Z</time></trkpt><trkpt lat="43.62129493102698" lon="3.775623386197346"><ele>92.33333333333333</ele><time>2026-05-03T09:00:22.998Z</time></trkpt><trkpt lat="43.621340665492255" lon="3.775712473554884"><ele>93.66666666666666</ele><time>2026-05-03T09:00:24.998Z</time></trkpt><trkpt lat="43.62139849707886" lon="3.7757848020851847"><ele>95.0</ele><time>2026-05-03T09:00:26.998Z</time></trkpt><trkpt lat="43.62146242058504" lon="3.775854157652957"><ele>96.33333333333333</ele><time>2026-05-03T09:00:28.998Z</time></trkpt><trkpt lat="43.6215255652155" lon="3.775911572534828"><ele>97.66666666666667</ele><time>2026-05-03T09:00:30.998Z</time></trkpt><trkpt lat="43.621594240710984" lon="3.775940015857774"><ele>99.0</ele><time>2026-05-03T09:00:32.998Z</time></trkpt><trkpt lat="43.62166818158333" lon="3.7758777709823663"><ele>99.0</ele><time>2026-05-03T09:00:34.998Z</time></trkpt><trkpt lat="43.621745140345524" lon="3.775850326829035"><ele>99.0</ele><time>2026-05-03T09:00:36.998Z</time></trkpt><trkpt lat="43.621819698595246" lon="3.775857614144367"><ele>99.0</ele><time>2026-05-03T09:00:38.998Z</time></trkpt><trkpt lat="43.621883285340125" lon="3.7758432890914024"><ele>99.0</ele><time>2026-05-03T09:00:40.998Z</time></trkpt><trkpt lat="43.621974036853246" lon="3.7758178484740785"><ele>99.0</ele><time>2026-05-03T09:00:42.998Z</time></trkpt><trkpt lat="43.622046694323835" lon="3.7758317434067665"><ele>99.0</ele><time>2026-05-03T09:00:44.998Z</time></trkpt><trkpt lat="43.6220909452422" lon="3.7759204415372767"><ele>99.0</ele><time>2026-05-03T09:00:46.998Z</time></trkpt><trkpt lat="43.62211384929984" lon="3.7760122126037308"><ele>99.0</ele><time>2026-05-03T09:00:48.998Z</time></trkpt><trkpt lat="43.62206588024652" lon="3.7761064518108847"><ele>99.0</ele><time>2026-05-03T09:00:52.998Z</time></trkpt><trkpt lat="43.621998999752925" lon="3.7761437010159096"><ele>99.0</ele><time>2026-05-03T09:00:54.998Z</time></trkpt><trkpt lat="43.62191559059096" lon="3.7761747794254608"><ele>99.0</ele><time>2026-05-03T09:00:56.998Z</time></trkpt><trkpt lat="43.62182661332568" lon="3.7762251412912273"><ele>99.0</ele><time>2026-05-03T09:00:59Z</time></trkpt><trkpt lat="43.62176246880325" lon="3.776318191141652"><ele>99.0</ele><time>2026-05-03T09:01:01Z</time></trkpt><trkpt lat="43.621715907626026" lon="3.7764251625706984"><ele>99.0</ele><time>2026-05-03T09:01:03Z</time></trkpt><trkpt lat="43.6216840604457" lon="3.7765140893904796"><ele>99.0</ele><time>2026-05-03T09:01:05Z</time></trkpt><trkpt lat="43.6216755862442" lon="3.7766073340736352"><ele>99.0</ele><time>2026-05-03T09:01:07Z</time></trkpt><trkpt lat="43.621592027692" lon="3.776658298697965"><ele>99.0</ele><time>2026-05-03T09:01:10Z</time></trkpt><trkpt lat="43.621561555853866" lon="3.776757095077846"><ele>99.0</ele><time>2026-05-03T09:01:12Z</time></trkpt><trkpt lat="43.62149828169299" lon="3.7768681398124255"><ele>98.83333333333333</ele><time>2026-05-03T09:01:15Z</time></trkpt><trkpt lat="43.621499563022155" lon="3.776990500596955"><ele>98.66666666666666</ele><time>2026-05-03T09:01:17Z</time></trkpt><trkpt lat="43.62150742778854" lon="3.7770967127930946"><ele>98.5</ele><time>2026-05-03T09:01:19Z</time></trkpt><trkpt lat="43.621497897466405" lon="3.7772257114367713"><ele>98.33333333333333</ele><time>2026-05-03T09:01:21Z</time></trkpt><trkpt lat="43.621507627809216" lon="3.7773470037479684"><ele>98.16666666666666</ele><time>2026-05-03T09:01:24Z</time></trkpt><trkpt lat="43.621521434379204" lon="3.7774625452093864"><ele>98.0</ele><time>2026-05-03T09:01:27Z</time></trkpt><trkpt lat="43.621499367102984" lon="3.7775907434317535"><ele>97.66666666666666</ele><time>2026-05-03T09:01:30Z</time></trkpt><trkpt lat="43.621479721829445" lon="3.777701114179782"><ele>97.33333333333333</ele><time>2026-05-03T09:01:32.999Z</time></trkpt><trkpt lat="43.62146527023495" lon="3.7777977057878"><ele>97.0</ele><time>2026-05-03T09:01:34.999Z</time></trkpt><trkpt lat="43.621471111116996" lon="3.777908566779923"><ele>96.66666666666666</ele><time>2026-05-03T09:01:36.999Z</time></trkpt><trkpt lat="43.6214407735111" lon="3.7780118568030114"><ele>96.33333333333333</ele><time>2026-05-03T09:01:38.999Z</time></trkpt><trkpt lat="43.62142295224123" lon="3.7781441377806333"><ele>96.0</ele><time>2026-05-03T09:01:40.999Z</time></trkpt><trkpt lat="43.621409242160055" lon="3.7782517779898566"><ele>96.0</ele><time>2026-05-03T09:01:42.999Z</time></trkpt><trkpt lat="43.62137893078585" lon="3.7783417066089258"><ele>96.0</ele><time>2026-05-03T09:01:44.999Z</time></trkpt><trkpt lat="43.621375717514134" lon="3.7784539083996087"><ele>96.0</ele><time>2026-05-03T09:01:46.999Z</time></trkpt><trkpt lat="43.62135395131074" lon="3.7785686423431724"><ele>96.0</ele><time>2026-05-03T09:01:48.999Z</time></trkpt><trkpt lat="43.621348153785746" lon="3.7786727751499436"><ele>96.0</ele><time>2026-05-03T09:01:51.999Z</time></trkpt><trkpt lat="43.62133636400456" lon="3.778760196763775"><ele>96.0</ele><time>2026-05-03T09:01:53.999Z</time></trkpt><trkpt lat="43.62131283508016" lon="3.7788721899885043"><ele>95.8</ele><time>2026-05-03T09:01:55.999Z</time></trkpt><trkpt lat="43.62128540722836" lon="3.7789889007504494"><ele>95.6</ele><time>2026-05-03T09:01:57.999Z</time></trkpt><trkpt lat="43.62126717982107" lon="3.779116315518673"><ele>95.4</ele><time>2026-05-03T09:01:59.999Z</time></trkpt><trkpt lat="43.62124669652144" lon="3.779251143238801"><ele>95.2</ele><time>2026-05-03T09:02:01.999Z</time></trkpt><trkpt lat="43.62122611413984" lon="3.779373596719363"><ele>95.0</ele><time>2026-05-03T09:02:03.999Z</time></trkpt><trkpt lat="43.62120160309529" lon="3.779498688022186"><ele>94.4</ele><time>2026-05-03T09:02:05.999Z</time></trkpt><trkpt lat="43.6211857383367" lon="3.779631856819828"><ele>93.8</ele><time>2026-05-03T09:02:07.999Z</time></trkpt><trkpt lat="43.62116928634609" lon="3.779775760425384"><ele>93.19999999999999</ele><time>2026-05-03T09:02:09.999Z</time></trkpt><trkpt lat="43.62114801830801" lon="3.7799341067984353"><ele>92.6</ele><time>2026-05-03T09:02:11.999Z</time></trkpt><trkpt lat="43.62111004002406" lon="3.7800493406924027"><ele>92.0</ele><time>2026-05-03T09:02:13.999Z</time></trkpt><trkpt lat="43.621088204805545" lon="3.7802099241655873"><ele>91.6</ele><time>2026-05-03T09:02:15.999Z</time></trkpt><trkpt lat="43.62107037338556" lon="3.7803351352455588"><ele>91.19999999999999</ele><time>2026-05-03T09:02:17.999Z</time></trkpt><trkpt lat="43.621043516858364" lon="3.780522763904634"><ele>90.8</ele><time>2026-05-03T09:02:19.999Z</time></trkpt><trkpt lat="43.62101489100196" lon="3.7806653092979605"><ele>90.4</ele><time>2026-05-03T09:02:21.999Z</time></trkpt><trkpt lat="43.62097361451261" lon="3.780805994591863"><ele>90.0</ele><time>2026-05-03T09:02:23.999Z</time></trkpt><trkpt lat="43.62092499463987" lon="3.780944419625923"><ele>90.0</ele><time>2026-05-03T09:02:25.999Z</time></trkpt><trkpt lat="43.62083918960565" lon="3.7809900953338427"><ele>90.0</ele><time>2026-05-03T09:02:27.999Z</time></trkpt><trkpt lat="43.62076639753998" lon="3.7810135044868023"><ele>90.0</ele><time>2026-05-03T09:02:29.999Z</time></trkpt><trkpt lat="43.62067298943053" lon="3.781064385318164"><ele>90.0</ele><time>2026-05-03T09:02:31.999Z</time></trkpt><trkpt lat="43.62056814902751" lon="3.781072847340432"><ele>90.0</ele><time>2026-05-03T09:02:33.999Z</time></trkpt><trkpt lat="43.62046114170557" lon="3.7811264881122275"><ele>89.2</ele><time>2026-05-03T09:02:35.998Z</time></trkpt><trkpt lat="43.62038127829525" lon="3.7812220358479762"><ele>88.4</ele><time>2026-05-03T09:02:37.998Z</time></trkpt><trkpt lat="43.620331660702604" lon="3.781336348311499"><ele>87.6</ele><time>2026-05-03T09:02:39.998Z</time></trkpt><trkpt lat="43.62025976999616" lon="3.781429500030829"><ele>86.8</ele><time>2026-05-03T09:02:41.998Z</time></trkpt><trkpt lat="43.62019656541527" lon="3.7815339635769853"><ele>86.0</ele><time>2026-05-03T09:02:43.998Z</time></trkpt><trkpt lat="43.62015952462492" lon="3.7816790727711354"><ele>86.0</ele><time>2026-05-03T09:02:45.998Z</time></trkpt><trkpt lat="43.62016979398567" lon="3.7818256129151147"><ele>86.0</ele><time>2026-05-03T09:02:47.998Z</time></trkpt><trkpt lat="43.6201395537987" lon="3.7819629115790545"><ele>86.0</ele><time>2026-05-03T09:02:49.998Z</time></trkpt><trkpt lat="43.620056205921905" lon="3.78206385091672"><ele>86.0</ele><time>2026-05-03T09:02:51.998Z</time></trkpt><trkpt lat="43.61999876282849" lon="3.7821842106877237"><ele>86.0</ele><time>2026-05-03T09:02:53.998Z</time></trkpt><trkpt lat="43.61995392646472" lon="3.78228041584982"><ele>85.16666666666667</ele><time>2026-05-03T09:02:55.998Z</time></trkpt><trkpt lat="43.61987320355953" lon="3.7823042509479663"><ele>84.33333333333334</ele><time>2026-05-03T09:02:57.998Z</time></trkpt><trkpt lat="43.61982072977465" lon="3.7823962154660804"><ele>83.5</ele><time>2026-05-03T09:02:59.998Z</time></trkpt><trkpt lat="43.619761028559005" lon="3.782496719689717"><ele>82.66666666666667</ele><time>2026-05-03T09:03:01.998Z</time></trkpt><trkpt lat="43.61968932712746" lon="3.7825869789412825"><ele>81.83333333333333</ele><time>2026-05-03T09:03:04Z</time></trkpt><trkpt lat="43.619604817728685" lon="3.782628688868792"><ele>81.0</ele><time>2026-05-03T09:03:06Z</time></trkpt><trkpt lat="43.61953766125566" lon="3.7826842682665873"><ele>80.66666666666667</ele><time>2026-05-03T09:03:08Z</time></trkpt><trkpt lat="43.61952363945774" lon="3.7827975873439015"><ele>80.33333333333333</ele><time>2026-05-03T09:03:09.999Z</time></trkpt><trkpt lat="43.61945482320338" lon="3.782889896538519"><ele>80.0</ele><time>2026-05-03T09:03:12Z</time></trkpt><trkpt lat="43.619402943468344" lon="3.7829431027066214"><ele>79.66666666666666</ele><time>2026-05-03T09:03:13.999Z</time></trkpt><trkpt lat="43.619347748212995" lon="3.7830353810574016"><ele>79.33333333333333</ele><time>2026-05-03T09:03:15.999Z</time></trkpt><trkpt lat="43.61936005143991" lon="3.7831634196387127"><ele>79.0</ele><time>2026-05-03T09:03:17.999Z</time></trkpt><trkpt lat="43.61932923774735" lon="3.783289326248506"><ele>79.0</ele><time>2026-05-03T09:03:19.999Z</time></trkpt><trkpt lat="43.619242795778945" lon="3.7833580524119137"><ele>79.0</ele><time>2026-05-03T09:03:21.999Z</time></trkpt><trkpt lat="43.61918777978713" lon="3.7834476222005864"><ele>79.0</ele><time>2026-05-03T09:03:23.999Z</time></trkpt><trkpt lat="43.61915600577849" lon="3.7835533993952564"><ele>79.0</ele><time>2026-05-03T09:03:25.999Z</time></trkpt><trkpt lat="43.619128582623816" lon="3.783658944162535"><ele>79.0</ele><time>2026-05-03T09:03:27.999Z</time></trkpt><trkpt lat="43.619090583728806" lon="3.783764078329856"><ele>79.0</ele><time>2026-05-03T09:03:29.999Z</time></trkpt><trkpt lat="43.61907029802641" lon="3.78385844822385"><ele>78.16666666666666</ele><time>2026-05-03T09:03:31.999Z</time></trkpt><trkpt lat="43.619045767323954" lon="3.783961131544061"><ele>77.33333333333333</ele><time>2026-05-03T09:03:33.999Z</time></trkpt><trkpt lat="43.61898353205169" lon="3.7840430632563677"><ele>76.5</ele><time>2026-05-03T09:03:35.999Z</time></trkpt><trkpt lat="43.61893808552435" lon="3.7841254490159013"><ele>75.66666666666667</ele><time>2026-05-03T09:03:37.999Z</time></trkpt><trkpt lat="43.61890404628605" lon="3.7841998847918563"><ele>74.83333333333334</ele><time>2026-05-03T09:03:39.999Z</time></trkpt><trkpt lat="43.61882045108512" lon="3.784254497087013"><ele>74.0</ele><time>2026-05-03T09:03:42.999Z</time></trkpt><trkpt lat="43.61874231717194" lon="3.7843041132063875"><ele>74.0</ele><time>2026-05-03T09:03:44.999Z</time></trkpt><trkpt lat="43.61866005543925" lon="3.784327088032534"><ele>74.0</ele><time>2026-05-03T09:03:46.999Z</time></trkpt><trkpt lat="43.61858795269591" lon="3.7843179817625425"><ele>74.0</ele><time>2026-05-03T09:03:48.999Z</time></trkpt><trkpt lat="43.61849979593354" lon="3.784272543207722"><ele>74.0</ele><time>2026-05-03T09:03:50.999Z</time></trkpt><trkpt lat="43.6184465359258" lon="3.7841800830068486"><ele>74.0</ele><time>2026-05-03T09:03:52.999Z</time></trkpt><trkpt lat="43.61842835278281" lon="3.784064110569442"><ele>74.0</ele><time>2026-05-03T09:03:54.999Z</time></trkpt><trkpt lat="43.618405031760496" lon="3.7839497525248915"><ele>73.83333333333334</ele><time>2026-05-03T09:03:56.999Z</time></trkpt><trkpt lat="43.61837128585777" lon="3.783839954313818"><ele>73.66666666666667</ele><time>2026-05-03T09:03:58.999Z</time></trkpt><trkpt lat="43.61835334312418" lon="3.7837098159373577"><ele>73.5</ele><time>2026-05-03T09:04:00.999Z</time></trkpt><trkpt lat="43.61833309715447" lon="3.7835970672323507"><ele>73.33333333333333</ele><time>2026-05-03T09:04:02.999Z</time></trkpt><trkpt lat="43.61828126176157" lon="3.783501858362073"><ele>73.16666666666666</ele><time>2026-05-03T09:04:04.999Z</time></trkpt><trkpt lat="43.618293323861636" lon="3.78340420410293"><ele>73.0</ele><time>2026-05-03T09:04:06.999Z</time></trkpt><trkpt lat="43.618322174968704" lon="3.78330114129281"><ele>73.66666666666666</ele><time>2026-05-03T09:04:08.999Z</time></trkpt><trkpt lat="43.61835644957948" lon="3.7832002348018507"><ele>74.33333333333333</ele><time>2026-05-03T09:04:10.999Z</time></trkpt><trkpt lat="43.618406821838946" lon="3.7831148412742266"><ele>75.0</ele><time>2026-05-03T09:04:12.999Z</time></trkpt><trkpt lat="43.618464948712955" lon="3.7830265522815845"><ele>75.66666666666667</ele><time>2026-05-03T09:04:14.999Z</time></trkpt><trkpt lat="43.618513946389534" lon="3.7829153542802008"><ele>76.33333333333334</ele><time>2026-05-03T09:04:16.999Z</time></trkpt><trkpt lat="43.61852948845081" lon="3.782808287243551"><ele>77.0</ele><time>2026-05-03T09:04:18.999Z</time></trkpt><trkpt lat="43.618539974832636" lon="3.7826986199033192"><ele>77.14285714285714</ele><time>2026-05-03T09:04:20.999Z</time></trkpt><trkpt lat="43.618542326060876" lon="3.7825968966572"><ele>77.28571428571428</ele><time>2026-05-03T09:04:22.999Z</time></trkpt><trkpt lat="43.61854833757013" lon="3.782469657201024"><ele>77.42857142857143</ele><time>2026-05-03T09:04:25.998Z</time></trkpt><trkpt lat="43.6185468792606" lon="3.7823618854682617"><ele>77.57142857142857</ele><time>2026-05-03T09:04:27.998Z</time></trkpt><trkpt lat="43.61859601030855" lon="3.7822972059904565"><ele>77.71428571428571</ele><time>2026-05-03T09:04:29.998Z</time></trkpt><trkpt lat="43.61865063683492" lon="3.7822280489497904"><ele>77.85714285714286</ele><time>2026-05-03T09:04:31.998Z</time></trkpt><trkpt lat="43.61865830172408" lon="3.7821411752775886"><ele>78.0</ele><time>2026-05-03T09:04:33.998Z</time></trkpt><trkpt lat="43.6186955286493" lon="3.7820655504377223"><ele>79.0</ele><time>2026-05-03T09:04:35.998Z</time></trkpt><trkpt lat="43.61868320924192" lon="3.7819346981705655"><ele>80.0</ele><time>2026-05-03T09:04:38.998Z</time></trkpt><trkpt lat="43.61870820076466" lon="3.7818181514500138"><ele>81.0</ele><time>2026-05-03T09:04:41.998Z</time></trkpt><trkpt lat="43.61873208179775" lon="3.781730602881002"><ele>82.0</ele><time>2026-05-03T09:04:43.998Z</time></trkpt><trkpt lat="43.61880781878982" lon="3.7816424746046615"><ele>83.0</ele><time>2026-05-03T09:04:46.998Z</time></trkpt><trkpt lat="43.618850374882584" lon="3.7815733254592145"><ele>84.0</ele><time>2026-05-03T09:04:48.998Z</time></trkpt><trkpt lat="43.61889774797793" lon="3.7815099101611014"><ele>84.0</ele><time>2026-05-03T09:04:50.998Z</time></trkpt><trkpt lat="43.6189275976769" lon="3.781422776651447"><ele>84.0</ele><time>2026-05-03T09:04:53.998Z</time></trkpt><trkpt lat="43.61891196856911" lon="3.7813194192741357"><ele>84.0</ele><time>2026-05-03T09:04:56.998Z</time></trkpt><trkpt lat="43.618965440343146" lon="3.781228537189221"><ele>84.0</ele><time>2026-05-03T09:04:59.998Z</time></trkpt><trkpt lat="43.619017305519414" lon="3.7811679721849405"><ele>84.0</ele><time>2026-05-03T09:05:01.998Z</time></trkpt><trkpt lat="43.619063615039316" lon="3.7810977756830635"><ele>84.0</ele><time>2026-05-03T09:05:03.998Z</time></trkpt><trkpt lat="43.619142697105445" lon="3.781069217274665"><ele>84.0</ele><time>2026-05-03T09:05:06.998Z</time></trkpt><trkpt lat="43.61919527424038" lon="3.7810046529664194"><ele>83.71428571428571</ele><time>2026-05-03T09:05:10Z</time></trkpt><trkpt lat="43.61924987942698" lon="3.780928190888057"><ele>83.42857142857143</ele><time>2026-05-03T09:05:12Z</time></trkpt><trkpt lat="43.619244014231626" lon="3.780818070380339"><ele>83.14285714285714</ele><time>2026-05-03T09:05:13.999Z</time></trkpt><trkpt lat="43.619264308763164" lon="3.7807324669661906"><ele>82.85714285714286</ele><time>2026-05-03T09:05:16Z</time></trkpt><trkpt lat="43.61926050880625" lon="3.7806397967483116"><ele>82.57142857142857</ele><time>2026-05-03T09:05:18Z</time></trkpt><trkpt lat="43.619270974812856" lon="3.7805493161846893"><ele>82.28571428571428</ele><time>2026-05-03T09:05:20Z</time></trkpt><trkpt lat="43.61929602626751" lon="3.7804493537579895"><ele>82.0</ele><time>2026-05-03T09:05:22Z</time></trkpt><trkpt lat="43.619322312791844" lon="3.7803580460626454"><ele>81.99999999999999</ele><time>2026-05-03T09:05:24Z</time></trkpt><trkpt lat="43.61933587489627" lon="3.7802582109503673"><ele>82.0</ele><time>2026-05-03T09:05:26Z</time></trkpt><trkpt lat="43.61936414733375" lon="3.780168482883794"><ele>82.0</ele><time>2026-05-03T09:05:28Z</time></trkpt><trkpt lat="43.619368887388255" lon="3.78005442213371"><ele>82.0</ele><time>2026-05-03T09:05:30Z</time></trkpt><trkpt lat="43.61939302262065" lon="3.779957724774827"><ele>82.0</ele><time>2026-05-03T09:05:32Z</time></trkpt><trkpt lat="43.61940648097838" lon="3.7798575625838673"><ele>81.99999999999999</ele><time>2026-05-03T09:05:34Z</time></trkpt><trkpt lat="43.61940330030323" lon="3.7797638482818927"><ele>82.0</ele><time>2026-05-03T09:05:36Z</time></trkpt><trkpt lat="43.61940100701402" lon="3.779667016029832"><ele>81.8</ele><time>2026-05-03T09:05:38Z</time></trkpt><trkpt lat="43.61942982463704" lon="3.779549277864674"><ele>81.6</ele><time>2026-05-03T09:05:41Z</time></trkpt><trkpt lat="43.61946328325301" lon="3.7794343934264223"><ele>81.39999999999999</ele><time>2026-05-03T09:05:43.999Z</time></trkpt><trkpt lat="43.619501682312276" lon="3.779324089616612"><ele>81.19999999999999</ele><time>2026-05-03T09:05:46.999Z</time></trkpt><trkpt lat="43.61952733963681" lon="3.7791915766228175"><ele>81.0</ele><time>2026-05-03T09:05:49.999Z</time></trkpt><trkpt lat="43.61953686484861" lon="3.7790619854733682"><ele>82.16666666666667</ele><time>2026-05-03T09:05:52.999Z</time></trkpt><trkpt lat="43.61957751336455" lon="3.7789552354786813"><ele>83.33333333333333</ele><time>2026-05-03T09:05:55.999Z</time></trkpt><trkpt lat="43.619616782217825" lon="3.778868946733969"><ele>84.5</ele><time>2026-05-03T09:05:57.999Z</time></trkpt><trkpt lat="43.61965520977126" lon="3.778763101492905"><ele>85.66666666666666</ele><time>2026-05-03T09:06:00.999Z</time></trkpt><trkpt lat="43.6196828981123" lon="3.77865398165017"><ele>86.83333333333333</ele><time>2026-05-03T09:06:03.999Z</time></trkpt><trkpt lat="43.61971886814578" lon="3.778531701928327"><ele>88.0</ele><time>2026-05-03T09:06:06.999Z</time></trkpt><trkpt lat="43.61974851573563" lon="3.778443123445699"><ele>88.0</ele><time>2026-05-03T09:06:08.999Z</time></trkpt><trkpt lat="43.61976144081521" lon="3.7783423834165477"><ele>88.0</ele><time>2026-05-03T09:06:10.999Z</time></trkpt><trkpt lat="43.61973508327001" lon="3.7782591751414936"><ele>88.0</ele><time>2026-05-03T09:06:12.999Z</time></trkpt><trkpt lat="43.61965381891107" lon="3.778216146467303"><ele>88.0</ele><time>2026-05-03T09:06:14.999Z</time></trkpt><trkpt lat="43.61959556298536" lon="3.778137413697266"><ele>88.0</ele><time>2026-05-03T09:06:16.999Z</time></trkpt><trkpt lat="43.6195378454315" lon="3.778032252024243"><ele>88.0</ele><time>2026-05-03T09:06:17.999Z</time></trkpt><trkpt lat="43.61950329834893" lon="3.7779390535455546"><ele>87.33333333333333</ele><time>2026-05-03T09:06:18.999Z</time></trkpt><trkpt lat="43.61945504504581" lon="3.7778635046520734"><ele>86.66666666666666</ele><time>2026-05-03T09:06:19.999Z</time></trkpt><trkpt lat="43.619368528012345" lon="3.7778425652256162"><ele>86.0</ele><time>2026-05-03T09:06:21.999Z</time></trkpt><trkpt lat="43.61929313668043" lon="3.77792938395225"><ele>85.33333333333333</ele><time>2026-05-03T09:06:23.999Z</time></trkpt><trkpt lat="43.61923003759872" lon="3.778018561675077"><ele>84.66666666666667</ele><time>2026-05-03T09:06:25.999Z</time></trkpt><trkpt lat="43.619169972313" lon="3.7780966992635396"><ele>84.0</ele><time>2026-05-03T09:06:27.999Z</time></trkpt><trkpt lat="43.61911890892178" lon="3.7781610092436346"><ele>84.0</ele><time>2026-05-03T09:06:29.999Z</time></trkpt><trkpt lat="43.619051323527025" lon="3.77822948639681"><ele>84.0</ele><time>2026-05-03T09:06:31.999Z</time></trkpt><trkpt lat="43.61898297542041" lon="3.7783019719840225"><ele>84.0</ele><time>2026-05-03T09:06:33.999Z</time></trkpt><trkpt lat="43.618920788569476" lon="3.778381671097306"><ele>84.0</ele><time>2026-05-03T09:06:35.999Z</time></trkpt><trkpt lat="43.61885601927185" lon="3.7784503820259427"><ele>84.0</ele><time>2026-05-03T09:06:37.999Z</time></trkpt><trkpt lat="43.61879092773349" lon="3.7785165346234755"><ele>84.0</ele><time>2026-05-03T09:06:39.999Z</time></trkpt><trkpt lat="43.61871464923617" lon="3.7785667327722585"><ele>84.5</ele><time>2026-05-03T09:06:41.999Z</time></trkpt><trkpt lat="43.61864263884448" lon="3.7786122319751434"><ele>85.0</ele><time>2026-05-03T09:06:43.999Z</time></trkpt><trkpt lat="43.61857409922011" lon="3.7786467436890296"><ele>85.5</ele><time>2026-05-03T09:06:45.999Z</time></trkpt><trkpt lat="43.61851515278188" lon="3.7786901857912167"><ele>86.0</ele><time>2026-05-03T09:06:47.999Z</time></trkpt><trkpt lat="43.618529945546335" lon="3.7787956616487883"><ele>86.5</ele><time>2026-05-03T09:06:49.998Z</time></trkpt><trkpt lat="43.61854101055157" lon="3.7789078208180356"><ele>87.0</ele><time>2026-05-03T09:06:51.998Z</time></trkpt><trkpt lat="43.618541985805784" lon="3.779029899474552"><ele>87.0</ele><time>2026-05-03T09:06:53.998Z</time></trkpt><trkpt lat="43.6185280871863" lon="3.7791709097243626"><ele>87.0</ele><time>2026-05-03T09:06:55.998Z</time></trkpt><trkpt lat="43.61851880917732" lon="3.7792582798630465"><ele>87.0</ele><time>2026-05-03T09:06:56.998Z</time></trkpt><trkpt lat="43.61850348675451" lon="3.7793993224249545"><ele>87.0</ele><time>2026-05-03T09:06:58.998Z</time></trkpt><trkpt lat="43.61847710959865" lon="3.7795558471011863"><ele>87.0</ele><time>2026-05-03T09:07:00.998Z</time></trkpt><trkpt lat="43.61847174401997" lon="3.779709655471045"><ele>86.25</ele><time>2026-05-03T09:07:02.998Z</time></trkpt><trkpt lat="43.61842778058494" lon="3.779863645978904"><ele>85.5</ele><time>2026-05-03T09:07:04.998Z</time></trkpt><trkpt lat="43.61836905979461" lon="3.7799939545922725"><ele>84.75</ele><time>2026-05-03T09:07:06.998Z</time></trkpt><trkpt lat="43.61833177418617" lon="3.7801519218656368"><ele>84.0</ele><time>2026-05-03T09:07:08.998Z</time></trkpt><trkpt lat="43.618280163206585" lon="3.780293491039697"><ele>83.6</ele><time>2026-05-03T09:07:10.998Z</time></trkpt><trkpt lat="43.618244800053915" lon="3.7803683563125667"><ele>83.2</ele><time>2026-05-03T09:07:11.998Z</time></trkpt><trkpt lat="43.618153197754644" lon="3.7804316305247037"><ele>82.8</ele><time>2026-05-03T09:07:13.998Z</time></trkpt><trkpt lat="43.618078721055035" lon="3.7805258291160175"><ele>82.39999999999999</ele><time>2026-05-03T09:07:16Z</time></trkpt><trkpt lat="43.617988280913785" lon="3.7806192871618194"><ele>82.0</ele><time>2026-05-03T09:07:18Z</time></trkpt><trkpt lat="43.61791404139048" lon="3.780701739481438"><ele>82.0</ele><time>2026-05-03T09:07:20Z</time></trkpt><trkpt lat="43.61782682903793" lon="3.780777770306882"><ele>82.0</ele><time>2026-05-03T09:07:22Z</time></trkpt><trkpt lat="43.61774596578812" lon="3.780882792686315"><ele>82.0</ele><time>2026-05-03T09:07:24Z</time></trkpt><trkpt lat="43.6176863865194" lon="3.7810106653314284"><ele>82.0</ele><time>2026-05-03T09:07:26Z</time></trkpt><trkpt lat="43.61762387053795" lon="3.7811517564018216"><ele>82.0</ele><time>2026-05-03T09:07:28Z</time></trkpt><trkpt lat="43.61757644835785" lon="3.781282652347809"><ele>82.5</ele><time>2026-05-03T09:07:30Z</time></trkpt><trkpt lat="43.617526883517094" lon="3.7814481379855076"><ele>83.0</ele><time>2026-05-03T09:07:32Z</time></trkpt><trkpt lat="43.61748467845403" lon="3.781608215778262"><ele>83.5</ele><time>2026-05-03T09:07:34Z</time></trkpt><trkpt lat="43.61744366724957" lon="3.7817709864800917"><ele>84.0</ele><time>2026-05-03T09:07:36Z</time></trkpt><trkpt lat="43.61740308829072" lon="3.7819405743581687"><ele>83.2</ele><time>2026-05-03T09:07:38Z</time></trkpt><trkpt lat="43.617385779662406" lon="3.7820321610155503"><ele>82.4</ele><time>2026-05-03T09:07:39Z</time></trkpt><trkpt lat="43.61734996793648" lon="3.7821953314292864"><ele>81.6</ele><time>2026-05-03T09:07:41Z</time></trkpt><trkpt lat="43.61731333092477" lon="3.7823631191953555"><ele>80.8</ele><time>2026-05-03T09:07:43Z</time></trkpt><trkpt lat="43.61727452099" lon="3.782518495692878"><ele>80.0</ele><time>2026-05-03T09:07:45Z</time></trkpt><trkpt lat="43.61725395873858" lon="3.7826145591731315"><ele>79.33333333333334</ele><time>2026-05-03T09:07:46Z</time></trkpt><trkpt lat="43.61721729806636" lon="3.782778187717636"><ele>78.66666666666667</ele><time>2026-05-03T09:07:48Z</time></trkpt><trkpt lat="43.6171992514364" lon="3.782885943329043"><ele>78.0</ele><time>2026-05-03T09:07:49Z</time></trkpt><trkpt lat="43.617195223432255" lon="3.7829800816139953"><ele>77.33333333333333</ele><time>2026-05-03T09:07:49.999Z</time></trkpt><trkpt lat="43.617182904704954" lon="3.783070636633516"><ele>76.66666666666666</ele><time>2026-05-03T09:07:50.999Z</time></trkpt><trkpt lat="43.617173792547746" lon="3.7831686885445643"><ele>76.0</ele><time>2026-05-03T09:07:51.999Z</time></trkpt><trkpt lat="43.61715275826333" lon="3.783359091569621"><ele>76.0</ele><time>2026-05-03T09:07:53.999Z</time></trkpt><trkpt lat="43.61715499486654" lon="3.7834676524092314"><ele>76.0</ele><time>2026-05-03T09:07:54.999Z</time></trkpt><trkpt lat="43.61716428212593" lon="3.783570427674909"><ele>76.0</ele><time>2026-05-03T09:07:55.999Z</time></trkpt><trkpt lat="43.617173017275164" lon="3.783657129197448"><ele>76.0</ele><time>2026-05-03T09:07:56.999Z</time></trkpt><trkpt lat="43.61719504329148" lon="3.7838323768438817"><ele>76.0</ele><time>2026-05-03T09:07:58.999Z</time></trkpt><trkpt lat="43.6172400962777" lon="3.7839680528296"><ele>75.8</ele><time>2026-05-03T09:08:00.999Z</time></trkpt><trkpt lat="43.61726219608091" lon="3.7841147403147284"><ele>75.6</ele><time>2026-05-03T09:08:02.999Z</time></trkpt><trkpt lat="43.617278432154365" lon="3.7842502935464384"><ele>75.4</ele><time>2026-05-03T09:08:04.999Z</time></trkpt><trkpt lat="43.61728185251917" lon="3.784386416060878"><ele>75.2</ele><time>2026-05-03T09:08:06.999Z</time></trkpt><trkpt lat="43.6172825446504" lon="3.784499261565122"><ele>75.0</ele><time>2026-05-03T09:08:08.999Z</time></trkpt><trkpt lat="43.61727389257906" lon="3.7846457975491314"><ele>75.4</ele><time>2026-05-03T09:08:10.999Z</time></trkpt><trkpt lat="43.617253670031815" lon="3.784781668019226"><ele>75.8</ele><time>2026-05-03T09:08:12.999Z</time></trkpt><trkpt lat="43.6172155475907" lon="3.7849151714549407"><ele>76.2</ele><time>2026-05-03T09:08:14.999Z</time></trkpt><trkpt lat="43.61716569630432" lon="3.78505540004229"><ele>76.6</ele><time>2026-05-03T09:08:16.999Z</time></trkpt><trkpt lat="43.61712852964272" lon="3.7852133965074164"><ele>77.0</ele><time>2026-05-03T09:08:18.999Z</time></trkpt><trkpt lat="43.61710530384976" lon="3.7852983758137313"><ele>76.5</ele><time>2026-05-03T09:08:19.999Z</time></trkpt><trkpt lat="43.61706687820317" lon="3.7853787443412488"><ele>76.0</ele><time>2026-05-03T09:08:20.999Z</time></trkpt><trkpt lat="43.617020498852526" lon="3.7854506762047246"><ele>75.5</ele><time>2026-05-03T09:08:21.999Z</time></trkpt><trkpt lat="43.61697754009425" lon="3.785531220794033"><ele>75.0</ele><time>2026-05-03T09:08:22.999Z</time></trkpt><trkpt lat="43.61693534733097" lon="3.785627536553934"><ele>74.5</ele><time>2026-05-03T09:08:23.999Z</time></trkpt><trkpt lat="43.6168869070798" lon="3.7857214876662413"><ele>74.0</ele><time>2026-05-03T09:08:24.999Z</time></trkpt><trkpt lat="43.616834869529235" lon="3.7858130973060553"><ele>74.0</ele><time>2026-05-03T09:08:25.999Z</time></trkpt><trkpt lat="43.61678433424508" lon="3.7859044962152337"><ele>74.0</ele><time>2026-05-03T09:08:26.999Z</time></trkpt><trkpt lat="43.61674091917417" lon="3.7860058272496464"><ele>74.0</ele><time>2026-05-03T09:08:27.999Z</time></trkpt><trkpt lat="43.616700684158005" lon="3.786106033278114"><ele>74.0</ele><time>2026-05-03T09:08:28.999Z</time></trkpt><trkpt lat="43.616640575578145" lon="3.786207621527427"><ele>74.0</ele><time>2026-05-03T09:08:29.999Z</time></trkpt><trkpt lat="43.61657030864394" lon="3.7863075231354326"><ele>74.0</ele><time>2026-05-03T09:08:30.999Z</time></trkpt><trkpt lat="43.61649868763242" lon="3.786394244440447"><ele>72.83333333333334</ele><time>2026-05-03T09:08:31.999Z</time></trkpt><trkpt lat="43.61644117037061" lon="3.78647232525736"><ele>71.66666666666667</ele><time>2026-05-03T09:08:32.999Z</time></trkpt><trkpt lat="43.616372525983536" lon="3.7865628031246854"><ele>70.5</ele><time>2026-05-03T09:08:34.999Z</time></trkpt><trkpt lat="43.6162967827106" lon="3.7866110962231283"><ele>69.33333333333333</ele><time>2026-05-03T09:08:38.999Z</time></trkpt><trkpt lat="43.61626238925724" lon="3.786709471586769"><ele>68.16666666666666</ele><time>2026-05-03T09:08:40.999Z</time></trkpt><trkpt lat="43.616198096255495" lon="3.786800155828869"><ele>67.0</ele><time>2026-05-03T09:08:42.999Z</time></trkpt><trkpt lat="43.6161411419169" lon="3.7869018029180155"><ele>67.0</ele><time>2026-05-03T09:08:44.999Z</time></trkpt><trkpt lat="43.6160919033282" lon="3.7869643699452973"><ele>67.0</ele><time>2026-05-03T09:08:45.999Z</time></trkpt><trkpt lat="43.61602302464099" lon="3.7870760081078614"><ele>67.0</ele><time>2026-05-03T09:08:47.999Z</time></trkpt><trkpt lat="43.6159596285578" lon="3.78715066798601"><ele>67.0</ele><time>2026-05-03T09:08:49.999Z</time></trkpt><trkpt lat="43.61591979914452" lon="3.7872301412062352"><ele>67.0</ele><time>2026-05-03T09:08:50.999Z</time></trkpt><trkpt lat="43.61588077178089" lon="3.787361796060642"><ele>67.0</ele><time>2026-05-03T09:08:52.999Z</time></trkpt><trkpt lat="43.615837611646484" lon="3.787428270762331"><ele>67.0</ele><time>2026-05-03T09:08:54.999Z</time></trkpt><trkpt lat="43.61578099916723" lon="3.7875548345092986"><ele>67.0</ele><time>2026-05-03T09:08:56.999Z</time></trkpt><trkpt lat="43.61569706107831" lon="3.787686099335481"><ele>67.0</ele><time>2026-05-03T09:08:58.998Z</time></trkpt><trkpt lat="43.61566372703334" lon="3.7877656234365573"><ele>67.0</ele><time>2026-05-03T09:09:00.998Z</time></trkpt><trkpt lat="43.61560865866152" lon="3.7878534525961864"><ele>67.0</ele><time>2026-05-03T09:09:02.998Z</time></trkpt><trkpt lat="43.615568570092286" lon="3.7879252594896498"><ele>67.0</ele><time>2026-05-03T09:09:04.998Z</time></trkpt><trkpt lat="43.61551845933416" lon="3.788040178084708"><ele>67.0</ele><time>2026-05-03T09:09:06.998Z</time></trkpt><trkpt lat="43.61550481565033" lon="3.7882148846071497"><ele>67.0</ele><time>2026-05-03T09:09:08.998Z</time></trkpt><trkpt lat="43.615500881784456" lon="3.788306367087841"><ele>67.0</ele><time>2026-05-03T09:09:09.998Z</time></trkpt><trkpt lat="43.615503730396576" lon="3.788460704920528"><ele>67.0</ele><time>2026-05-03T09:09:11.998Z</time></trkpt><trkpt lat="43.61550341819148" lon="3.7886128239952055"><ele>66.8</ele><time>2026-05-03T09:09:13.998Z</time></trkpt><trkpt lat="43.61550064808045" lon="3.788765542304516"><ele>66.6</ele><time>2026-05-03T09:09:15.998Z</time></trkpt><trkpt lat="43.61552238836821" lon="3.788924658848655"><ele>66.39999999999999</ele><time>2026-05-03T09:09:17.998Z</time></trkpt><trkpt lat="43.61557027825052" lon="3.7890550139763204"><ele>66.2</ele><time>2026-05-03T09:09:19.998Z</time></trkpt><trkpt lat="43.61563433360954" lon="3.789132464281504"><ele>66.0</ele><time>2026-05-03T09:09:21.999Z</time></trkpt><trkpt lat="43.615609621590984" lon="3.7892297925957728"><ele>66.0</ele><time>2026-05-03T09:09:24Z</time></trkpt><trkpt lat="43.61560950006539" lon="3.7893198909679673"><ele>66.0</ele><time>2026-05-03T09:09:27Z</time></trkpt><trkpt lat="43.61564179941404" lon="3.789398878242764"><ele>66.0</ele><time>2026-05-03T09:09:28.999Z</time></trkpt><trkpt lat="43.6156729055003" lon="3.7895003506442686"><ele>66.0</ele><time>2026-05-03T09:09:31Z</time></trkpt><trkpt lat="43.61566372354249" lon="3.7896155239301583"><ele>66.0</ele><time>2026-05-03T09:09:33Z</time></trkpt><trkpt lat="43.61566508996015" lon="3.7897219594096754"><ele>66.0</ele><time>2026-05-03T09:09:35Z</time></trkpt><trkpt lat="43.615667520954396" lon="3.789828308804798"><ele>66.0</ele><time>2026-05-03T09:09:37Z</time></trkpt><trkpt lat="43.61567228680648" lon="3.789940688292882"><ele>65.39999999999999</ele><time>2026-05-03T09:09:39Z</time></trkpt><trkpt lat="43.615680086672825" lon="3.790060530132118"><ele>64.8</ele><time>2026-05-03T09:09:41Z</time></trkpt><trkpt lat="43.615669411606056" lon="3.7901818921093677"><ele>64.19999999999999</ele><time>2026-05-03T09:09:43Z</time></trkpt><trkpt lat="43.61566235967602" lon="3.790311709207744"><ele>63.599999999999994</ele><time>2026-05-03T09:09:45Z</time></trkpt><trkpt lat="43.61564449496685" lon="3.7904399246030005"><ele>63.0</ele><time>2026-05-03T09:09:47Z</time></trkpt><trkpt lat="43.61561250517349" lon="3.790576000249096"><ele>62.599999999999994</ele><time>2026-05-03T09:09:49Z</time></trkpt><trkpt lat="43.61559492170476" lon="3.7907209418299597"><ele>62.199999999999996</ele><time>2026-05-03T09:09:51Z</time></trkpt><trkpt lat="43.615559839363314" lon="3.7908668412567996"><ele>61.8</ele><time>2026-05-03T09:09:53Z</time></trkpt><trkpt lat="43.61553304559575" lon="3.7910064642052634"><ele>61.4</ele><time>2026-05-03T09:09:55Z</time></trkpt><trkpt lat="43.61551056146957" lon="3.7911555136050694"><ele>61.0</ele><time>2026-05-03T09:09:56.999Z</time></trkpt><trkpt lat="43.61548604913741" lon="3.7912647692098282"><ele>61.166666666666664</ele><time>2026-05-03T09:09:58.999Z</time></trkpt><trkpt lat="43.61540213913154" lon="3.791248237775754"><ele>61.33333333333333</ele><time>2026-05-03T09:10:01.999Z</time></trkpt><trkpt lat="43.615382778202374" lon="3.791142763913941"><ele>61.5</ele><time>2026-05-03T09:10:03.999Z</time></trkpt><trkpt lat="43.61535343564518" lon="3.791053615734027"><ele>61.66666666666667</ele><time>2026-05-03T09:10:05.999Z</time></trkpt><trkpt lat="43.615269501296" lon="3.7910569300914347"><ele>61.833333333333336</ele><time>2026-05-03T09:10:08.999Z</time></trkpt><trkpt lat="43.61522638829742" lon="3.7911709988043736"><ele>62.0</ele><time>2026-05-03T09:10:10.999Z</time></trkpt><trkpt lat="43.615180882724445" lon="3.791256206656817"><ele>62.0</ele><time>2026-05-03T09:10:12.999Z</time></trkpt><trkpt lat="43.61513519274328" lon="3.7913839521452983"><ele>62.0</ele><time>2026-05-03T09:10:14.999Z</time></trkpt><trkpt lat="43.61509171749471" lon="3.7915131288875075"><ele>62.0</ele><time>2026-05-03T09:10:16.999Z</time></trkpt><trkpt lat="43.615036445119216" lon="3.791646943703302"><ele>62.0</ele><time>2026-05-03T09:10:18.999Z</time></trkpt><trkpt lat="43.614973216564074" lon="3.7917656276097076"><ele>62.0</ele><time>2026-05-03T09:10:20.999Z</time></trkpt><trkpt lat="43.614896650860146" lon="3.7918726772816504"><ele>61.8</ele><time>2026-05-03T09:10:22.999Z</time></trkpt><trkpt lat="43.61482170979926" lon="3.7919546288081016"><ele>61.6</ele><time>2026-05-03T09:10:24.999Z</time></trkpt><trkpt lat="43.61473602615598" lon="3.792033394254225"><ele>61.39999999999999</ele><time>2026-05-03T09:10:26.999Z</time></trkpt><trkpt lat="43.614647435631966" lon="3.79209881988214"><ele>61.199999999999996</ele><time>2026-05-03T09:10:28.999Z</time></trkpt><trkpt lat="43.61453983308429" lon="3.792142693511874"><ele>61.0</ele><time>2026-05-03T09:10:30.999Z</time></trkpt><trkpt lat="43.61444159980967" lon="3.7921548387815918"><ele>60.99999999999999</ele><time>2026-05-03T09:10:32.999Z</time></trkpt><trkpt lat="43.61435719147177" lon="3.792222923342375"><ele>61.0</ele><time>2026-05-03T09:10:34.999Z</time></trkpt><trkpt lat="43.61431713491629" lon="3.792376284744056"><ele>61.0</ele><time>2026-05-03T09:10:36.999Z</time></trkpt><trkpt lat="43.61428706458856" lon="3.7924697551260023"><ele>61.0</ele><time>2026-05-03T09:10:37.999Z</time></trkpt><trkpt lat="43.61429140675992" lon="3.792573343570285"><ele>60.99999999999999</ele><time>2026-05-03T09:10:38.999Z</time></trkpt><trkpt lat="43.6142621409867" lon="3.7926747079460417"><ele>61.0</ele><time>2026-05-03T09:10:39.999Z</time></trkpt><trkpt lat="43.61421212218564" lon="3.7927640773629645"><ele>60.199999999999996</ele><time>2026-05-03T09:10:40.999Z</time></trkpt><trkpt lat="43.614162175251515" lon="3.792822904258565"><ele>59.39999999999999</ele><time>2026-05-03T09:10:41.999Z</time></trkpt><trkpt lat="43.61409171773311" lon="3.7929607588146523"><ele>58.6</ele><time>2026-05-03T09:10:43.999Z</time></trkpt><trkpt lat="43.614027428236724" lon="3.7930890302955023"><ele>57.8</ele><time>2026-05-03T09:10:45.999Z</time></trkpt><trkpt lat="43.613967758594676" lon="3.793232031115322"><ele>57.0</ele><time>2026-05-03T09:10:47.999Z</time></trkpt><trkpt lat="43.61393172308823" lon="3.7933065883090635"><ele>57.0</ele><time>2026-05-03T09:10:48.999Z</time></trkpt><trkpt lat="43.613891907677534" lon="3.793379922547807"><ele>57.0</ele><time>2026-05-03T09:10:49.999Z</time></trkpt><trkpt lat="43.613861934042475" lon="3.7934634575831945"><ele>57.0</ele><time>2026-05-03T09:10:50.999Z</time></trkpt><trkpt lat="43.61380155049734" lon="3.793605441978607"><ele>57.0</ele><time>2026-05-03T09:10:52.999Z</time></trkpt><trkpt lat="43.6137491555729" lon="3.793754767754628"><ele>57.0</ele><time>2026-05-03T09:10:54.999Z</time></trkpt><trkpt lat="43.61369980641397" lon="3.7938196136965745"><ele>57.0</ele><time>2026-05-03T09:10:56.999Z</time></trkpt><trkpt lat="43.61366648270989" lon="3.793896797830398"><ele>57.0</ele><time>2026-05-03T09:10:58.999Z</time></trkpt><trkpt lat="43.61357412644408" lon="3.793978472565131"><ele>57.0</ele><time>2026-05-03T09:11:00.999Z</time></trkpt><trkpt lat="43.61347911964587" lon="3.794040929122993"><ele>57.0</ele><time>2026-05-03T09:11:02.999Z</time></trkpt><trkpt lat="43.61339306641456" lon="3.7941173648579842"><ele>57.0</ele><time>2026-05-03T09:11:04.999Z</time></trkpt><trkpt lat="43.61331276305582" lon="3.7942197943714207"><ele>57.0</ele><time>2026-05-03T09:11:06.998Z</time></trkpt><trkpt lat="43.613228265646896" lon="3.7943163933809263"><ele>56.25</ele><time>2026-05-03T09:11:08.998Z</time></trkpt><trkpt lat="43.613132679907665" lon="3.7944077492335873"><ele>55.5</ele><time>2026-05-03T09:11:10.998Z</time></trkpt><trkpt lat="43.61303782098112" lon="3.794510957326051"><ele>54.75</ele><time>2026-05-03T09:11:12.998Z</time></trkpt><trkpt lat="43.61294884252836" lon="3.794620419602691"><ele>54.0</ele><time>2026-05-03T09:11:14.998Z</time></trkpt><trkpt lat="43.612863468989474" lon="3.794734135480236"><ele>54.25</ele><time>2026-05-03T09:11:16.998Z</time></trkpt><trkpt lat="43.61277284355295" lon="3.7948427264987328"><ele>54.5</ele><time>2026-05-03T09:11:18.998Z</time></trkpt><trkpt lat="43.612690559774045" lon="3.7949564591819898"><ele>54.75</ele><time>2026-05-03T09:11:20.998Z</time></trkpt><trkpt lat="43.612601826784285" lon="3.795064009294453"><ele>55.0</ele><time>2026-05-03T09:11:22.998Z</time></trkpt><trkpt lat="43.61251237365264" lon="3.7951828708638744"><ele>54.25</ele><time>2026-05-03T09:11:24.998Z</time></trkpt><trkpt lat="43.61242953218767" lon="3.795295989360511"><ele>53.5</ele><time>2026-05-03T09:11:27Z</time></trkpt><trkpt lat="43.612345989027325" lon="3.7954024562058257"><ele>52.75</ele><time>2026-05-03T09:11:29Z</time></trkpt><trkpt lat="43.61225916877935" lon="3.795506293316557"><ele>52.0</ele><time>2026-05-03T09:11:31Z</time></trkpt><trkpt lat="43.61215459381681" lon="3.7954977481695633"><ele>52.0</ele><time>2026-05-03T09:11:33Z</time></trkpt><trkpt lat="43.61211617642918" lon="3.7954270346169316"><ele>52.0</ele><time>2026-05-03T09:11:34Z</time></trkpt><trkpt lat="43.612049078607534" lon="3.7953167689976053"><ele>52.0</ele><time>2026-05-03T09:11:36Z</time></trkpt><trkpt lat="43.611986428265816" lon="3.795304992910983"><ele>52.0</ele><time>2026-05-03T09:11:37Z</time></trkpt><trkpt lat="43.61186519613045" lon="3.7953378412539753"><ele>52.0</ele><time>2026-05-03T09:11:39Z</time></trkpt><trkpt lat="43.611761826568895" lon="3.7953693858289377"><ele>52.2</ele><time>2026-05-03T09:11:41Z</time></trkpt><trkpt lat="43.61166081040556" lon="3.795390744220369"><ele>52.400000000000006</ele><time>2026-05-03T09:11:43Z</time></trkpt><trkpt lat="43.61154936790198" lon="3.7954528206267093"><ele>52.599999999999994</ele><time>2026-05-03T09:11:45Z</time></trkpt><trkpt lat="43.611449456737354" lon="3.7955421852867586"><ele>52.8</ele><time>2026-05-03T09:11:47Z</time></trkpt><trkpt lat="43.611398765560445" lon="3.7955961500026953"><ele>53.0</ele><time>2026-05-03T09:11:48Z</time></trkpt><trkpt lat="43.61134922792344" lon="3.795650269281072"><ele>53.0</ele><time>2026-05-03T09:11:49Z</time></trkpt><trkpt lat="43.611243133838165" lon="3.795746562872298"><ele>53.0</ele><time>2026-05-03T09:11:51Z</time></trkpt><trkpt lat="43.61112347398705" lon="3.79577703277293"><ele>53.0</ele><time>2026-05-03T09:11:52.999Z</time></trkpt><trkpt lat="43.610999960271855" lon="3.795767979136235"><ele>53.0</ele><time>2026-05-03T09:11:54.999Z</time></trkpt><trkpt lat="43.610934165152706" lon="3.7957690548387135"><ele>53.0</ele><time>2026-05-03T09:11:55.999Z</time></trkpt><trkpt lat="43.61083026973069" lon="3.7957631169782244"><ele>53.16666666666667</ele><time>2026-05-03T09:11:57.999Z</time></trkpt><trkpt lat="43.6107245260767" lon="3.795785625909257"><ele>53.333333333333336</ele><time>2026-05-03T09:11:59.999Z</time></trkpt><trkpt lat="43.61063307981784" lon="3.79576992800125"><ele>53.5</ele><time>2026-05-03T09:12:01.999Z</time></trkpt><trkpt lat="43.61058525514329" lon="3.7956750822531395"><ele>53.66666666666667</ele><time>2026-05-03T09:12:03.999Z</time></trkpt><trkpt lat="43.61061274326271" lon="3.7955793020894113"><ele>53.833333333333336</ele><time>2026-05-03T09:12:05.999Z</time></trkpt><trkpt lat="43.61063583075344" lon="3.795488383789539"><ele>54.0</ele><time>2026-05-03T09:12:07.999Z</time></trkpt><trkpt lat="43.61065328971791" lon="3.7953970594825535"><ele>54.0</ele><time>2026-05-03T09:12:09.999Z</time></trkpt><trkpt lat="43.610678364630466" lon="3.795281461767183"><ele>54.0</ele><time>2026-05-03T09:12:11.999Z</time></trkpt><trkpt lat="43.61070659992453" lon="3.795166512698736"><ele>54.0</ele><time>2026-05-03T09:12:13.999Z</time></trkpt><trkpt lat="43.61073315385726" lon="3.7950477381352625"><ele>54.0</ele><time>2026-05-03T09:12:15.999Z</time></trkpt><trkpt lat="43.61076466577123" lon="3.79493643055867"><ele>54.0</ele><time>2026-05-03T09:12:17.999Z</time></trkpt><trkpt lat="43.61079342467411" lon="3.794811024104072"><ele>54.0</ele><time>2026-05-03T09:12:19.999Z</time></trkpt><trkpt lat="43.61082036277969" lon="3.7946970600563654"><ele>55.0</ele><time>2026-05-03T09:12:21.999Z</time></trkpt><trkpt lat="43.61084768883411" lon="3.7945678261293923"><ele>56.00000000000001</ele><time>2026-05-03T09:12:23.999Z</time></trkpt><trkpt lat="43.61087009974841" lon="3.7944320130416123"><ele>57.00000000000001</ele><time>2026-05-03T09:12:25.999Z</time></trkpt><trkpt lat="43.61088687856549" lon="3.7942900952489858"><ele>58.0</ele><time>2026-05-03T09:12:27.999Z</time></trkpt><trkpt lat="43.61090843914184" lon="3.794154393787255"><ele>59.0</ele><time>2026-05-03T09:12:29.999Z</time></trkpt><trkpt lat="43.61092224578491" lon="3.7940157579264118"><ele>60.0</ele><time>2026-05-03T09:12:31.999Z</time></trkpt><trkpt lat="43.610919342322866" lon="3.7938788345630727"><ele>61.00000000000001</ele><time>2026-05-03T09:12:33.999Z</time></trkpt><trkpt lat="43.61091921274435" lon="3.793744292484856"><ele>62.00000000000001</ele><time>2026-05-03T09:12:35.999Z</time></trkpt><trkpt lat="43.610919830252605" lon="3.7936181366581168"><ele>63.0</ele><time>2026-05-03T09:12:37.999Z</time></trkpt><trkpt lat="43.610909899324156" lon="3.793498682149378"><ele>64.0</ele><time>2026-05-03T09:12:39.999Z</time></trkpt><trkpt lat="43.61092085644778" lon="3.7933744147661788"><ele>64.16666666666666</ele><time>2026-05-03T09:12:41.999Z</time></trkpt><trkpt lat="43.610927384820776" lon="3.793253474209354"><ele>64.33333333333333</ele><time>2026-05-03T09:12:43.999Z</time></trkpt><trkpt lat="43.61091787633929" lon="3.793130802604455"><ele>64.5</ele><time>2026-05-03T09:12:45.999Z</time></trkpt><trkpt lat="43.610920642945636" lon="3.793020445357116"><ele>64.66666666666667</ele><time>2026-05-03T09:12:47.999Z</time></trkpt><trkpt lat="43.61091234313982" lon="3.7928975103192375"><ele>64.83333333333334</ele><time>2026-05-03T09:12:49.999Z</time></trkpt><trkpt lat="43.61090062803218" lon="3.7927878439483185"><ele>65.0</ele><time>2026-05-03T09:12:51.999Z</time></trkpt><trkpt lat="43.610890912803356" lon="3.7926708965368716"><ele>65.83333333333334</ele><time>2026-05-03T09:12:53.999Z</time></trkpt><trkpt lat="43.61088366522608" lon="3.7925503503195954"><ele>66.66666666666667</ele><time>2026-05-03T09:12:55.999Z</time></trkpt><trkpt lat="43.61087709866687" lon="3.7924285570259006"><ele>67.5</ele><time>2026-05-03T09:12:57.999Z</time></trkpt><trkpt lat="43.61086587327753" lon="3.7923181829946992"><ele>68.33333333333333</ele><time>2026-05-03T09:12:59.998Z</time></trkpt><trkpt lat="43.61086943671305" lon="3.792192649933439"><ele>69.16666666666666</ele><time>2026-05-03T09:13:01.998Z</time></trkpt><trkpt lat="43.61086809789998" lon="3.792087794629607"><ele>70.0</ele><time>2026-05-03T09:13:03.998Z</time></trkpt><trkpt lat="43.61084685502602" lon="3.7919765618155394"><ele>70.0</ele><time>2026-05-03T09:13:05.998Z</time></trkpt><trkpt lat="43.610807045853946" lon="3.791883074836313"><ele>70.0</ele><time>2026-05-03T09:13:07.998Z</time></trkpt><trkpt lat="43.61078842286691" lon="3.7917864570800575"><ele>70.0</ele><time>2026-05-03T09:13:09.998Z</time></trkpt><trkpt lat="43.610784770525285" lon="3.791662050040311"><ele>70.0</ele><time>2026-05-03T09:13:11.998Z</time></trkpt><trkpt lat="43.61075062509405" lon="3.7915246976472745"><ele>70.0</ele><time>2026-05-03T09:13:13.998Z</time></trkpt><trkpt lat="43.610739432456064" lon="3.791388325285667"><ele>70.0</ele><time>2026-05-03T09:13:15.998Z</time></trkpt><trkpt lat="43.61071692819327" lon="3.791238957754283"><ele>70.8</ele><time>2026-05-03T09:13:17.998Z</time></trkpt><trkpt lat="43.61068789942429" lon="3.791088064771682"><ele>71.6</ele><time>2026-05-03T09:13:19.998Z</time></trkpt><trkpt lat="43.61067459551716" lon="3.7909406968575285"><ele>72.4</ele><time>2026-05-03T09:13:21.998Z</time></trkpt><trkpt lat="43.61065437220459" lon="3.7907988793868763"><ele>73.2</ele><time>2026-05-03T09:13:23.998Z</time></trkpt><trkpt lat="43.6106570981709" lon="3.7906543681294775"><ele>74.0</ele><time>2026-05-03T09:13:25.998Z</time></trkpt><trkpt lat="43.61064643081466" lon="3.7905099786696344"><ele>74.5</ele><time>2026-05-03T09:13:27.998Z</time></trkpt><trkpt lat="43.61064518376648" lon="3.790377994413814"><ele>75.0</ele><time>2026-05-03T09:13:29.998Z</time></trkpt><trkpt lat="43.61064519261979" lon="3.7902566125967216"><ele>75.5</ele><time>2026-05-03T09:13:32Z</time></trkpt><trkpt lat="43.61063405390541" lon="3.790125623956938"><ele>76.0</ele><time>2026-05-03T09:13:34Z</time></trkpt><trkpt lat="43.610639000026524" lon="3.7900102169752565"><ele>76.5</ele><time>2026-05-03T09:13:36Z</time></trkpt><trkpt lat="43.610633782018716" lon="3.7898997794409826"><ele>77.0</ele><time>2026-05-03T09:13:38Z</time></trkpt><trkpt lat="43.61064875233574" lon="3.7897983412998872"><ele>77.5</ele><time>2026-05-03T09:13:40Z</time></trkpt><trkpt lat="43.610652658032066" lon="3.7896825596047874"><ele>78.0</ele><time>2026-05-03T09:13:41.999Z</time></trkpt><trkpt lat="43.61067576144334" lon="3.789573202032213"><ele>78.5</ele><time>2026-05-03T09:13:44Z</time></trkpt><trkpt lat="43.610703160568164" lon="3.789471702055829"><ele>79.0</ele><time>2026-05-03T09:13:45.999Z</time></trkpt><trkpt lat="43.61070178966499" lon="3.789372820327457"><ele>79.5</ele><time>2026-05-03T09:13:47.999Z</time></trkpt><trkpt lat="43.61070378369925" lon="3.789261599929116"><ele>80.0</ele><time>2026-05-03T09:13:49.999Z</time></trkpt><trkpt lat="43.610720113128366" lon="3.7891431543163563"><ele>80.5</ele><time>2026-05-03T09:13:51.999Z</time></trkpt><trkpt lat="43.61073564832378" lon="3.7890235167097157"><ele>81.0</ele><time>2026-05-03T09:13:53.999Z</time></trkpt><trkpt lat="43.61074424805192" lon="3.7889023495399607"><ele>81.5</ele><time>2026-05-03T09:13:55.999Z</time></trkpt><trkpt lat="43.610750472297575" lon="3.788777039687869"><ele>82.0</ele><time>2026-05-03T09:13:57.999Z</time></trkpt><trkpt lat="43.61075520081249" lon="3.7886644698105822"><ele>82.5</ele><time>2026-05-03T09:13:59.999Z</time></trkpt><trkpt lat="43.610717493424445" lon="3.788558818483029"><ele>83.0</ele><time>2026-05-03T09:14:01.999Z</time></trkpt><trkpt lat="43.610663446792785" lon="3.7884656140628463"><ele>83.0</ele><time>2026-05-03T09:14:03.999Z</time></trkpt><trkpt lat="43.61060248768808" lon="3.7883677697113325"><ele>83.0</ele><time>2026-05-03T09:14:05.999Z</time></trkpt><trkpt lat="43.610517053506186" lon="3.788284981455243"><ele>83.0</ele><time>2026-05-03T09:14:07.999Z</time></trkpt><trkpt lat="43.61041349841123" lon="3.7883267488661856"><ele>83.0</ele><time>2026-05-03T09:14:09.999Z</time></trkpt><trkpt lat="43.610330553017526" lon="3.788407404992422"><ele>83.0</ele><time>2026-05-03T09:14:11.999Z</time></trkpt><trkpt lat="43.61024000216445" lon="3.7884767970880624"><ele>82.80000000000001</ele><time>2026-05-03T09:14:13.999Z</time></trkpt><trkpt lat="43.61015153862957" lon="3.788540561707681"><ele>82.6</ele><time>2026-05-03T09:14:15.999Z</time></trkpt><trkpt lat="43.610064935876274" lon="3.7886321029612784"><ele>82.4</ele><time>2026-05-03T09:14:17.999Z</time></trkpt><trkpt lat="43.60997322909772" lon="3.7886881596162354"><ele>82.19999999999999</ele><time>2026-05-03T09:14:19.999Z</time></trkpt><trkpt lat="43.609882572213266" lon="3.788758025238738"><ele>82.0</ele><time>2026-05-03T09:14:21.999Z</time></trkpt><trkpt lat="43.60979784896919" lon="3.7888228725234008"><ele>82.0</ele><time>2026-05-03T09:14:23.999Z</time></trkpt><trkpt lat="43.60970932281127" lon="3.7888755094612856"><ele>82.0</ele><time>2026-05-03T09:14:25.999Z</time></trkpt><trkpt lat="43.60963115072419" lon="3.7889516499990497"><ele>82.0</ele><time>2026-05-03T09:14:27.999Z</time></trkpt><trkpt lat="43.60954785459962" lon="3.789008573746281"><ele>82.0</ele><time>2026-05-03T09:14:29.999Z</time></trkpt><trkpt lat="43.60946981857485" lon="3.7890724376934046"><ele>82.0</ele><time>2026-05-03T09:14:31.999Z</time></trkpt><trkpt lat="43.609397065418825" lon="3.78912979962577"><ele>81.83333333333333</ele><time>2026-05-03T09:14:33.999Z</time></trkpt><trkpt lat="43.609321603969384" lon="3.789189877187689"><ele>81.66666666666666</ele><time>2026-05-03T09:14:35.999Z</time></trkpt><trkpt lat="43.60923885959602" lon="3.789229025995057"><ele>81.5</ele><time>2026-05-03T09:14:37.999Z</time></trkpt><trkpt lat="43.60916115239967" lon="3.7892821335937565"><ele>81.33333333333333</ele><time>2026-05-03T09:14:39.999Z</time></trkpt><trkpt lat="43.60907793280788" lon="3.789317232057856"><ele>81.16666666666667</ele><time>2026-05-03T09:14:41.999Z</time></trkpt><trkpt lat="43.608983350455574" lon="3.7893363866009304"><ele>81.0</ele><time>2026-05-03T09:14:43.999Z</time></trkpt><trkpt lat="43.608902394312885" lon="3.789314956687197"><ele>81.16666666666667</ele><time>2026-05-03T09:14:46.999Z</time></trkpt><trkpt lat="43.60881153698571" lon="3.7893571106290245"><ele>81.33333333333333</ele><time>2026-05-03T09:14:49.999Z</time></trkpt><trkpt lat="43.6087595550297" lon="3.7894347847814367"><ele>81.5</ele><time>2026-05-03T09:14:51.999Z</time></trkpt><trkpt lat="43.60871682750804" lon="3.7895079829696323"><ele>81.66666666666666</ele><time>2026-05-03T09:14:53.999Z</time></trkpt><trkpt lat="43.60866478643835" lon="3.789563787976356"><ele>81.83333333333333</ele><time>2026-05-03T09:14:55.999Z</time></trkpt><trkpt lat="43.60860300281926" lon="3.7896314718149844"><ele>82.0</ele><time>2026-05-03T09:14:57.998Z</time></trkpt><trkpt lat="43.608523544262475" lon="3.7896747995669555"><ele>81.5</ele><time>2026-05-03T09:14:59.998Z</time></trkpt><trkpt lat="43.608446773392885" lon="3.789732071246796"><ele>81.0</ele><time>2026-05-03T09:15:01.998Z</time></trkpt><trkpt lat="43.60837613616883" lon="3.7897901522467974"><ele>80.5</ele><time>2026-05-03T09:15:03.998Z</time></trkpt><trkpt lat="43.608296931015964" lon="3.7898406502132636"><ele>80.0</ele><time>2026-05-03T09:15:05.998Z</time></trkpt><trkpt lat="43.608226868299234" lon="3.789906848301113"><ele>79.5</ele><time>2026-05-03T09:15:07.998Z</time></trkpt><trkpt lat="43.608148491696085" lon="3.789961760656828"><ele>79.0</ele><time>2026-05-03T09:15:09.998Z</time></trkpt><trkpt lat="43.60807748506557" lon="3.79001745881072"><ele>79.0</ele><time>2026-05-03T09:15:11.998Z</time></trkpt><trkpt lat="43.60800093724541" lon="3.7900716342166136"><ele>79.0</ele><time>2026-05-03T09:15:13.998Z</time></trkpt><trkpt lat="43.60792338858545" lon="3.790116904501249"><ele>79.0</ele><time>2026-05-03T09:15:15.998Z</time></trkpt><trkpt lat="43.60784698146471" lon="3.790153627488429"><ele>79.0</ele><time>2026-05-03T09:15:17.998Z</time></trkpt><trkpt lat="43.607775732246004" lon="3.7901591488625908"><ele>79.0</ele><time>2026-05-03T09:15:19.998Z</time></trkpt><trkpt lat="43.60775745861158" lon="3.790075181425106"><ele>79.0</ele><time>2026-05-03T09:15:21.998Z</time></trkpt><trkpt lat="43.60775136146743" lon="3.7899724744871257"><ele>78.66666666666666</ele><time>2026-05-03T09:15:23.998Z</time></trkpt><trkpt lat="43.6076556735742" lon="3.789965762750679"><ele>78.33333333333333</ele><time>2026-05-03T09:15:25.998Z</time></trkpt><trkpt lat="43.607588188518" lon="3.7900228711214714"><ele>78.0</ele><time>2026-05-03T09:15:27.998Z</time></trkpt><trkpt lat="43.60751104234441" lon="3.790053020542018"><ele>77.66666666666667</ele><time>2026-05-03T09:15:29.998Z</time></trkpt><trkpt lat="43.60744062146617" lon="3.790084923496719"><ele>77.33333333333334</ele><time>2026-05-03T09:15:31.998Z</time></trkpt><trkpt lat="43.60736573286596" lon="3.7901228127262887"><ele>77.0</ele><time>2026-05-03T09:15:33.998Z</time></trkpt><trkpt lat="43.607300693547394" lon="3.790158687899339"><ele>76.83333333333334</ele><time>2026-05-03T09:15:35.998Z</time></trkpt><trkpt lat="43.60723175213942" lon="3.790199441952632"><ele>76.66666666666667</ele><time>2026-05-03T09:15:38Z</time></trkpt><trkpt lat="43.607159777842554" lon="3.7902406491127616"><ele>76.5</ele><time>2026-05-03T09:15:40Z</time></trkpt><trkpt lat="43.60708713267457" lon="3.7902834741165323"><ele>76.33333333333333</ele><time>2026-05-03T09:15:42Z</time></trkpt><trkpt lat="43.607011878716065" lon="3.79032582213138"><ele>76.16666666666666</ele><time>2026-05-03T09:15:44Z</time></trkpt><trkpt lat="43.6069324860529" lon="3.7903614607009137"><ele>76.0</ele><time>2026-05-03T09:15:46Z</time></trkpt><trkpt lat="43.606862362224284" lon="3.7904016972069234"><ele>76.0</ele><time>2026-05-03T09:15:48Z</time></trkpt><trkpt lat="43.60678373931309" lon="3.7904396242615066"><ele>76.0</ele><time>2026-05-03T09:15:50Z</time></trkpt><trkpt lat="43.606707757330355" lon="3.7904853963995846"><ele>76.0</ele><time>2026-05-03T09:15:52Z</time></trkpt><trkpt lat="43.60663395262452" lon="3.790527286057308"><ele>76.0</ele><time>2026-05-03T09:15:54Z</time></trkpt><trkpt lat="43.60655550703644" lon="3.7905702500302656"><ele>76.0</ele><time>2026-05-03T09:15:56Z</time></trkpt><trkpt lat="43.60647980060216" lon="3.7906310869020627"><ele>76.0</ele><time>2026-05-03T09:15:57.999Z</time></trkpt><trkpt lat="43.60639077843633" lon="3.7906601793236723"><ele>76.0</ele><time>2026-05-03T09:15:59.999Z</time></trkpt><trkpt lat="43.60631277978061" lon="3.7906912003533106"><ele>76.0</ele><time>2026-05-03T09:16:01.999Z</time></trkpt><trkpt lat="43.606223966364766" lon="3.7907246830510974"><ele>76.0</ele><time>2026-05-03T09:16:03.999Z</time></trkpt><trkpt lat="43.60614067157611" lon="3.790760412985147"><ele>76.0</ele><time>2026-05-03T09:16:05.999Z</time></trkpt><trkpt lat="43.60605699840277" lon="3.7907774202662825"><ele>76.0</ele><time>2026-05-03T09:16:07.999Z</time></trkpt><trkpt lat="43.6059716012707" lon="3.7908142582431896"><ele>76.0</ele><time>2026-05-03T09:16:09.999Z</time></trkpt><trkpt lat="43.60588445178057" lon="3.790850591821527"><ele>75.39999999999999</ele><time>2026-05-03T09:16:11.999Z</time></trkpt><trkpt lat="43.60579710708551" lon="3.7908948056955993"><ele>74.8</ele><time>2026-05-03T09:16:13.999Z</time></trkpt><trkpt lat="43.60570851374924" lon="3.79093355572998"><ele>74.19999999999999</ele><time>2026-05-03T09:16:15.999Z</time></trkpt><trkpt lat="43.60562338876584" lon="3.7909873244101613"><ele>73.6</ele><time>2026-05-03T09:16:17.999Z</time></trkpt><trkpt lat="43.605539760027604" lon="3.79105832730145"><ele>73.0</ele><time>2026-05-03T09:16:19.999Z</time></trkpt><trkpt lat="43.605455233132695" lon="3.7911171780993786"><ele>73.0</ele><time>2026-05-03T09:16:21.999Z</time></trkpt><trkpt lat="43.60536776224899" lon="3.7911791549338254"><ele>73.0</ele><time>2026-05-03T09:16:23.999Z</time></trkpt><trkpt lat="43.605279644634585" lon="3.791218092826721"><ele>73.0</ele><time>2026-05-03T09:16:25.999Z</time></trkpt><trkpt lat="43.605189924959724" lon="3.791243422978318"><ele>73.0</ele><time>2026-05-03T09:16:27.999Z</time></trkpt><trkpt lat="43.60510154428932" lon="3.791281542264908"><ele>73.0</ele><time>2026-05-03T09:16:29.999Z</time></trkpt><trkpt lat="43.60501441204855" lon="3.791318781857618"><ele>72.5</ele><time>2026-05-03T09:16:31.999Z</time></trkpt><trkpt lat="43.60493817355159" lon="3.791359082361201"><ele>72.0</ele><time>2026-05-03T09:16:33.999Z</time></trkpt><trkpt lat="43.60485966170523" lon="3.7914106696352676"><ele>71.5</ele><time>2026-05-03T09:16:35.999Z</time></trkpt><trkpt lat="43.60479824218639" lon="3.791454928264026"><ele>71.0</ele><time>2026-05-03T09:16:37.999Z</time></trkpt><trkpt lat="43.604732433702424" lon="3.7915046713759537"><ele>70.5</ele><time>2026-05-03T09:16:39.999Z</time></trkpt><trkpt lat="43.60466677999577" lon="3.7915672940541905"><ele>70.0</ele><time>2026-05-03T09:16:41.999Z</time></trkpt><trkpt lat="43.604608893372635" lon="3.7916271102388857"><ele>70.0</ele><time>2026-05-03T09:16:43.999Z</time></trkpt><trkpt lat="43.604549821643715" lon="3.7916914129579524"><ele>70.0</ele><time>2026-05-03T09:16:45.999Z</time></trkpt><trkpt lat="43.60449305105184" lon="3.7917508253691006"><ele>70.0</ele><time>2026-05-03T09:16:47.999Z</time></trkpt><trkpt lat="43.60443046669422" lon="3.791813055921263"><ele>70.0</ele><time>2026-05-03T09:16:49.999Z</time></trkpt><trkpt lat="43.60437994971368" lon="3.7918723847343805"><ele>70.0</ele><time>2026-05-03T09:16:51.999Z</time></trkpt><trkpt lat="43.60432558682708" lon="3.7919248673597488"><ele>70.0</ele><time>2026-05-03T09:16:53.999Z</time></trkpt><trkpt lat="43.60424715809305" lon="3.79198471454085"><ele>70.0</ele><time>2026-05-03T09:16:56.999Z</time></trkpt><trkpt lat="43.6041775702006" lon="3.7919344277559492"><ele>69.83333333333333</ele><time>2026-05-03T09:16:59.999Z</time></trkpt><trkpt lat="43.60414080277886" lon="3.7918587868115137"><ele>69.66666666666666</ele><time>2026-05-03T09:17:01.999Z</time></trkpt><trkpt lat="43.60409578492475" lon="3.7917768353660732"><ele>69.5</ele><time>2026-05-03T09:17:03.999Z</time></trkpt><trkpt lat="43.60405037280655" lon="3.7916877853155166"><ele>69.33333333333333</ele><time>2026-05-03T09:17:05.999Z</time></trkpt><trkpt lat="43.60400865728972" lon="3.7916010572043963"><ele>69.16666666666667</ele><time>2026-05-03T09:17:07.999Z</time></trkpt><trkpt lat="43.603957203831285" lon="3.791517483833366"><ele>69.0</ele><time>2026-05-03T09:17:09.999Z</time></trkpt><trkpt lat="43.60390045340085" lon="3.7914338777398005"><ele>68.83333333333333</ele><time>2026-05-03T09:17:11.999Z</time></trkpt><trkpt lat="43.60384011958857" lon="3.791357587661903"><ele>68.66666666666667</ele><time>2026-05-03T09:17:13.998Z</time></trkpt><trkpt lat="43.60376683204042" lon="3.7912767467014743"><ele>68.5</ele><time>2026-05-03T09:17:15.998Z</time></trkpt><trkpt lat="43.60369775027082" lon="3.7911931559302356"><ele>68.33333333333334</ele><time>2026-05-03T09:17:17.998Z</time></trkpt><trkpt lat="43.603628361780224" lon="3.791128995867933"><ele>68.16666666666667</ele><time>2026-05-03T09:17:19.998Z</time></trkpt><trkpt lat="43.60354848132486" lon="3.7910762946798546"><ele>68.0</ele><time>2026-05-03T09:17:21.998Z</time></trkpt><trkpt lat="43.60346155423367" lon="3.791028866573521"><ele>67.4</ele><time>2026-05-03T09:17:23.998Z</time></trkpt><trkpt lat="43.603372675140726" lon="3.790983857960261"><ele>66.8</ele><time>2026-05-03T09:17:25.998Z</time></trkpt><trkpt lat="43.60327974513546" lon="3.790935875524128"><ele>66.2</ele><time>2026-05-03T09:17:27.998Z</time></trkpt><trkpt lat="43.60318950307577" lon="3.7908921876184096"><ele>65.6</ele><time>2026-05-03T09:17:29.998Z</time></trkpt><trkpt lat="43.60309819696939" lon="3.790858125364687"><ele>65.0</ele><time>2026-05-03T09:17:31.998Z</time></trkpt><trkpt lat="43.60299709398682" lon="3.7908239493827938"><ele>65.0</ele><time>2026-05-03T09:17:33.998Z</time></trkpt><trkpt lat="43.602909780862106" lon="3.7907700818804777"><ele>65.0</ele><time>2026-05-03T09:17:35.998Z</time></trkpt><trkpt lat="43.60281767784541" lon="3.790698809475802"><ele>65.0</ele><time>2026-05-03T09:17:37.998Z</time></trkpt><trkpt lat="43.60275343406986" lon="3.79058846051458"><ele>65.0</ele><time>2026-05-03T09:17:39.998Z</time></trkpt><trkpt lat="43.602719860463225" lon="3.7904630925484772"><ele>65.0</ele><time>2026-05-03T09:17:41.998Z</time></trkpt><trkpt lat="43.60269708550661" lon="3.790328698258658"><ele>64.2</ele><time>2026-05-03T09:17:44Z</time></trkpt><trkpt lat="43.602690906599584" lon="3.7901774567032795"><ele>63.4</ele><time>2026-05-03T09:17:46Z</time></trkpt><trkpt lat="43.60267851205384" lon="3.7900233520498032"><ele>62.599999999999994</ele><time>2026-05-03T09:17:48Z</time></trkpt><trkpt lat="43.60267881951417" lon="3.7899346899842206"><ele>61.8</ele><time>2026-05-03T09:17:49Z</time></trkpt><trkpt lat="43.602672610981465" lon="3.7897752732736247"><ele>61.0</ele><time>2026-05-03T09:17:51Z</time></trkpt><trkpt lat="43.60264840586637" lon="3.789634217127374"><ele>60.99999999999999</ele><time>2026-05-03T09:17:53Z</time></trkpt><trkpt lat="43.60259823401476" lon="3.789505857850758"><ele>61.0</ele><time>2026-05-03T09:17:55Z</time></trkpt><trkpt lat="43.60255530137193" lon="3.7893928927978213"><ele>61.0</ele><time>2026-05-03T09:17:57Z</time></trkpt><trkpt lat="43.60251003214874" lon="3.789287536812226"><ele>61.0</ele><time>2026-05-03T09:17:59Z</time></trkpt><trkpt lat="43.602490403690425" lon="3.7891731314274497"><ele>60.99999999999999</ele><time>2026-05-03T09:18:01Z</time></trkpt><trkpt lat="43.60245367735641" lon="3.78909316669053"><ele>61.0</ele><time>2026-05-03T09:18:03Z</time></trkpt><trkpt lat="43.602422501935855" lon="3.789007817105032"><ele>60.99999999999999</ele><time>2026-05-03T09:18:05Z</time></trkpt><trkpt lat="43.60239396654037" lon="3.788927299694144"><ele>61.0</ele><time>2026-05-03T09:18:06.999Z</time></trkpt><trkpt lat="43.602369639358315" lon="3.7888408656097323"><ele>60.99999999999999</ele><time>2026-05-03T09:18:08.999Z</time></trkpt><trkpt lat="43.60233798524909" lon="3.7887434391537185"><ele>60.99999999999999</ele><time>2026-05-03T09:18:11.999Z</time></trkpt><trkpt lat="43.60231469470923" lon="3.788648074976822"><ele>61.0</ele><time>2026-05-03T09:18:17.999Z</time></trkpt><trkpt lat="43.60225890480598" lon="3.788585069013018"><ele>60.99999999999999</ele><time>2026-05-03T09:18:19.999Z</time></trkpt><trkpt lat="43.60221062375837" lon="3.7884967301196473"><ele>60.99999999999999</ele><time>2026-05-03T09:18:22.999Z</time></trkpt><trkpt lat="43.60216614989432" lon="3.7883943829890567"><ele>61.666666666666664</ele><time>2026-05-03T09:18:25.999Z</time></trkpt><trkpt lat="43.60212048251097" lon="3.7883040837968185"><ele>62.33333333333333</ele><time>2026-05-03T09:18:28.999Z</time></trkpt><trkpt lat="43.60208314582634" lon="3.7882090274403377"><ele>63.0</ele><time>2026-05-03T09:18:31.999Z</time></trkpt><trkpt lat="43.60203817843928" lon="3.788100103007765"><ele>63.66666666666667</ele><time>2026-05-03T09:18:34.999Z</time></trkpt><trkpt lat="43.60199589277574" lon="3.7879939587247677"><ele>64.33333333333334</ele><time>2026-05-03T09:18:37.999Z</time></trkpt><trkpt lat="43.60194653943856" lon="3.7878869376740583"><ele>65.0</ele><time>2026-05-03T09:18:40.999Z</time></trkpt><trkpt lat="43.6019008499405" lon="3.7877847648743956"><ele>65.00000000000001</ele><time>2026-05-03T09:18:43.999Z</time></trkpt><trkpt lat="43.60186228230697" lon="3.787711699228757"><ele>65.0</ele><time>2026-05-03T09:18:45.999Z</time></trkpt><trkpt lat="43.60182679742563" lon="3.787637558583932"><ele>65.0</ele><time>2026-05-03T09:18:47.999Z</time></trkpt><trkpt lat="43.60178917217558" lon="3.787556789049795"><ele>65.0</ele><time>2026-05-03T09:18:49.999Z</time></trkpt><trkpt lat="43.601754593018676" lon="3.787475951838674"><ele>65.0</ele><time>2026-05-03T09:18:51.999Z</time></trkpt><trkpt lat="43.60170560376388" lon="3.787391759343804"><ele>65.00000000000001</ele><time>2026-05-03T09:18:53.999Z</time></trkpt><trkpt lat="43.6016620302302" lon="3.787313148641048"><ele>65.0</ele><time>2026-05-03T09:18:55.999Z</time></trkpt><trkpt lat="43.60161084011611" lon="3.78723771258151"><ele>65.14285714285715</ele><time>2026-05-03T09:18:57.999Z</time></trkpt><trkpt lat="43.601563375563735" lon="3.7871521310772835"><ele>65.28571428571429</ele><time>2026-05-03T09:18:59.999Z</time></trkpt><trkpt lat="43.60150794373594" lon="3.787081645546797"><ele>65.42857142857143</ele><time>2026-05-03T09:19:01.999Z</time></trkpt><trkpt lat="43.60146173765666" lon="3.7870088661239336"><ele>65.57142857142858</ele><time>2026-05-03T09:19:03.999Z</time></trkpt><trkpt lat="43.601412809688895" lon="3.7869417558811818"><ele>65.71428571428572</ele><time>2026-05-03T09:19:05.999Z</time></trkpt><trkpt lat="43.601363116895264" lon="3.7868548435617146"><ele>65.85714285714286</ele><time>2026-05-03T09:19:07.999Z</time></trkpt><trkpt lat="43.60131318012296" lon="3.786792178446633"><ele>66.0</ele><time>2026-05-03T09:19:09.999Z</time></trkpt><trkpt lat="43.60126907003123" lon="3.7867131999475463"><ele>66.0</ele><time>2026-05-03T09:19:11.999Z</time></trkpt><trkpt lat="43.60122781833456" lon="3.7866474880110466"><ele>66.0</ele><time>2026-05-03T09:19:13.999Z</time></trkpt><trkpt lat="43.60118893998346" lon="3.7865790639579577"><ele>66.0</ele><time>2026-05-03T09:19:15.999Z</time></trkpt><trkpt lat="43.60112577247374" lon="3.7864729086767164"><ele>66.0</ele><time>2026-05-03T09:19:18.998Z</time></trkpt><trkpt lat="43.6010838152688" lon="3.7863970207301603"><ele>66.0</ele><time>2026-05-03T09:19:20.998Z</time></trkpt><trkpt lat="43.601037919398436" lon="3.78632342111452"><ele>66.0</ele><time>2026-05-03T09:19:22.998Z</time></trkpt><trkpt lat="43.60098984039947" lon="3.7862484675401147"><ele>66.0</ele><time>2026-05-03T09:19:24.998Z</time></trkpt><trkpt lat="43.60094388014457" lon="3.78616811577824"><ele>65.5</ele><time>2026-05-03T09:19:26.998Z</time></trkpt><trkpt lat="43.60090675551428" lon="3.7860940927740656"><ele>65.0</ele><time>2026-05-03T09:19:28.998Z</time></trkpt><trkpt lat="43.60085898464762" lon="3.786009874274652"><ele>64.5</ele><time>2026-05-03T09:19:30.998Z</time></trkpt><trkpt lat="43.60081753379744" lon="3.7859194550093456"><ele>64.0</ele><time>2026-05-03T09:19:32.998Z</time></trkpt><trkpt lat="43.60077029759035" lon="3.7858228458693106"><ele>63.5</ele><time>2026-05-03T09:19:34.998Z</time></trkpt><trkpt lat="43.60072364114761" lon="3.7857536070537714"><ele>63.0</ele><time>2026-05-03T09:19:36.998Z</time></trkpt><trkpt lat="43.60065639672793" lon="3.78566972119457"><ele>63.0</ele><time>2026-05-03T09:19:39.998Z</time></trkpt><trkpt lat="43.60062576230855" lon="3.78558700367549"><ele>63.0</ele><time>2026-05-03T09:19:41.998Z</time></trkpt><trkpt lat="43.60058295251517" lon="3.785511488217122"><ele>63.0</ele><time>2026-05-03T09:19:43.998Z</time></trkpt><trkpt lat="43.60051913986713" lon="3.7854133559939083"><ele>63.0</ele><time>2026-05-03T09:19:46.998Z</time></trkpt><trkpt lat="43.60047794433271" lon="3.7853257668080085"><ele>63.0</ele><time>2026-05-03T09:19:48.998Z</time></trkpt><trkpt lat="43.60042727385866" lon="3.7852586611934815"><ele>63.0</ele><time>2026-05-03T09:19:51Z</time></trkpt><trkpt lat="43.60038328606898" lon="3.785180164432251"><ele>61.166666666666664</ele><time>2026-05-03T09:19:53Z</time></trkpt><trkpt lat="43.60031910771373" lon="3.7851000088863045"><ele>59.33333333333333</ele><time>2026-05-03T09:19:55Z</time></trkpt><trkpt lat="43.600273029488534" lon="3.7850024488305394"><ele>57.5</ele><time>2026-05-03T09:19:57Z</time></trkpt><trkpt lat="43.60021895273766" lon="3.784922869733467"><ele>55.666666666666664</ele><time>2026-05-03T09:19:59Z</time></trkpt><trkpt lat="43.60017169775705" lon="3.7848465671958147"><ele>53.83333333333333</ele><time>2026-05-03T09:20:01Z</time></trkpt><trkpt lat="43.600116080357296" lon="3.7847796349281557"><ele>52.0</ele><time>2026-05-03T09:20:03Z</time></trkpt><trkpt lat="43.6000606974855" lon="3.784700595077659"><ele>51.99999999999999</ele><time>2026-05-03T09:20:05Z</time></trkpt><trkpt lat="43.600018124391184" lon="3.784601850951091"><ele>52.0</ele><time>2026-05-03T09:20:08Z</time></trkpt><trkpt lat="43.59993463039516" lon="3.784637204248326"><ele>52.0</ele><time>2026-05-03T09:20:10.999Z</time></trkpt><trkpt lat="43.599865965098424" lon="3.7846686613019496"><ele>52.0</ele><time>2026-05-03T09:20:12.999Z</time></trkpt><trkpt lat="43.5997867082969" lon="3.784730095447769"><ele>51.99999999999999</ele><time>2026-05-03T09:20:14.999Z</time></trkpt><trkpt lat="43.599721986626" lon="3.784796426957986"><ele>52.0</ele><time>2026-05-03T09:20:16.999Z</time></trkpt><trkpt lat="43.59965750086685" lon="3.7848452938762556"><ele>52.0</ele><time>2026-05-03T09:20:18.999Z</time></trkpt><trkpt lat="43.599572258533875" lon="3.784849932083974"><ele>52.0</ele><time>2026-05-03T09:20:20.999Z</time></trkpt><trkpt lat="43.599495203444334" lon="3.784859292256506"><ele>52.0</ele><time>2026-05-03T09:20:23.999Z</time></trkpt><trkpt lat="43.59942552430815" lon="3.7848501612973626"><ele>52.0</ele><time>2026-05-03T09:20:25.999Z</time></trkpt><trkpt lat="43.5993654720572" lon="3.7848893943300506"><ele>52.0</ele><time>2026-05-03T09:20:28.999Z</time></trkpt><trkpt lat="43.59932060115338" lon="3.7849508416415123"><ele>52.0</ele><time>2026-05-03T09:20:30.999Z</time></trkpt><trkpt lat="43.599275276447905" lon="3.7850196181936506"><ele>52.0</ele><time>2026-05-03T09:20:32.999Z</time></trkpt><trkpt lat="43.59920719965193" lon="3.7851190990269514"><ele>52.83333333333333</ele><time>2026-05-03T09:20:35.999Z</time></trkpt><trkpt lat="43.599157673562644" lon="3.785182737228244"><ele>53.666666666666664</ele><time>2026-05-03T09:20:37.999Z</time></trkpt><trkpt lat="43.59905887060463" lon="3.78521780127097"><ele>54.5</ele><time>2026-05-03T09:20:40.999Z</time></trkpt><trkpt lat="43.59903248850152" lon="3.785314788475431"><ele>55.33333333333333</ele><time>2026-05-03T09:20:42.999Z</time></trkpt><trkpt lat="43.598993414758866" lon="3.7853971162532734"><ele>56.166666666666664</ele><time>2026-05-03T09:20:44.999Z</time></trkpt><trkpt lat="43.598946265254156" lon="3.78549827724438"><ele>57.0</ele><time>2026-05-03T09:20:47.999Z</time></trkpt><trkpt lat="43.59889737992218" lon="3.7856194234752554"><ele>57.0</ele><time>2026-05-03T09:20:50.999Z</time></trkpt><trkpt lat="43.598852020848724" lon="3.7857140389947213"><ele>57.0</ele><time>2026-05-03T09:20:54.999Z</time></trkpt><trkpt lat="43.598812228357325" lon="3.7858305078149175"><ele>57.0</ele><time>2026-05-03T09:20:57.999Z</time></trkpt><trkpt lat="43.59877582651216" lon="3.7859126683834683"><ele>57.0</ele><time>2026-05-03T09:20:59.999Z</time></trkpt><trkpt lat="43.598732485159026" lon="3.7860149011043394"><ele>57.0</ele><time>2026-05-03T09:21:02.999Z</time></trkpt><trkpt lat="43.59868647950996" lon="3.7860819386707303"><ele>57.0</ele><time>2026-05-03T09:21:04.999Z</time></trkpt><trkpt lat="43.598638081060244" lon="3.786149663700873"><ele>56.5</ele><time>2026-05-03T09:21:06.999Z</time></trkpt><trkpt lat="43.598599450516446" lon="3.7862617644139442"><ele>56.0</ele><time>2026-05-03T09:21:09.999Z</time></trkpt><trkpt lat="43.598554314264916" lon="3.7863394817187026"><ele>55.5</ele><time>2026-05-03T09:21:11.999Z</time></trkpt><trkpt lat="43.59851003884592" lon="3.786428671494492"><ele>55.0</ele><time>2026-05-03T09:21:13.999Z</time></trkpt><trkpt lat="43.59844832373331" lon="3.786499978879824"><ele>54.5</ele><time>2026-05-03T09:21:15.999Z</time></trkpt><trkpt lat="43.5984054517155" lon="3.7865963842952945"><ele>54.0</ele><time>2026-05-03T09:21:17.998Z</time></trkpt><trkpt lat="43.59834768921123" lon="3.7866959172653933"><ele>54.0</ele><time>2026-05-03T09:21:20.998Z</time></trkpt><trkpt lat="43.59829638916336" lon="3.786778739282513"><ele>54.0</ele><time>2026-05-03T09:21:22.998Z</time></trkpt><trkpt lat="43.59825235301903" lon="3.786850414530792"><ele>54.0</ele><time>2026-05-03T09:21:24.998Z</time></trkpt><trkpt lat="43.59819038463666" lon="3.7869239351485398"><ele>54.0</ele><time>2026-05-03T09:21:27.998Z</time></trkpt><trkpt lat="43.598119261645614" lon="3.786982453158758"><ele>54.0</ele><time>2026-05-03T09:21:29.998Z</time></trkpt><trkpt lat="43.598060267213626" lon="3.787052587988867"><ele>54.0</ele><time>2026-05-03T09:21:31.998Z</time></trkpt><trkpt lat="43.59800047067481" lon="3.787119633819319"><ele>53.857142857142854</ele><time>2026-05-03T09:21:33.998Z</time></trkpt><trkpt lat="43.597947707658165" lon="3.7871827314453106"><ele>53.71428571428571</ele><time>2026-05-03T09:21:35.998Z</time></trkpt><trkpt lat="43.59788371038714" lon="3.787259179533932"><ele>53.57142857142857</ele><time>2026-05-03T09:21:38.998Z</time></trkpt><trkpt lat="43.597843011635774" lon="3.7873299420299116"><ele>53.42857142857143</ele><time>2026-05-03T09:21:40.998Z</time></trkpt><trkpt lat="43.59777708262705" lon="3.787364400584963"><ele>53.285714285714285</ele><time>2026-05-03T09:21:42.998Z</time></trkpt><trkpt lat="43.59774050002355" lon="3.7874443596971883"><ele>53.142857142857146</ele><time>2026-05-03T09:21:47.998Z</time></trkpt><trkpt lat="43.5977030189843" lon="3.787516740552116"><ele>53.0</ele><time>2026-05-03T09:21:49.998Z</time></trkpt><trkpt lat="43.59764420740534" lon="3.7876045125268907"><ele>53.0</ele><time>2026-05-03T09:21:52.998Z</time></trkpt><trkpt lat="43.597583889790926" lon="3.78766448772547"><ele>53.0</ele><time>2026-05-03T09:21:54.998Z</time></trkpt><trkpt lat="43.5975346692807" lon="3.7877402721638673"><ele>53.0</ele><time>2026-05-03T09:21:57Z</time></trkpt><trkpt lat="43.59746921963307" lon="3.7878042590097096"><ele>53.0</ele><time>2026-05-03T09:21:59Z</time></trkpt><trkpt lat="43.5974289306555" lon="3.7878734769859754"><ele>53.0</ele><time>2026-05-03T09:22:01Z</time></trkpt><trkpt lat="43.597384115029776" lon="3.787941307631174"><ele>53.0</ele><time>2026-05-03T09:22:03Z</time></trkpt><trkpt lat="43.59732218142437" lon="3.78801126793604"><ele>53.0</ele><time>2026-05-03T09:22:05Z</time></trkpt><trkpt lat="43.59726224273864" lon="3.7880765951675452"><ele>53.50000000000001</ele><time>2026-05-03T09:22:07Z</time></trkpt><trkpt lat="43.59719053326613" lon="3.788155191115187"><ele>54.0</ele><time>2026-05-03T09:22:09Z</time></trkpt><trkpt lat="43.59713760747337" lon="3.7882147306179026"><ele>54.5</ele><time>2026-05-03T09:22:11Z</time></trkpt><trkpt lat="43.59705785198843" lon="3.788286085247162"><ele>55.0</ele><time>2026-05-03T09:22:13Z</time></trkpt><trkpt lat="43.59698920935908" lon="3.7883544344303566"><ele>55.50000000000001</ele><time>2026-05-03T09:22:15Z</time></trkpt><trkpt lat="43.59692770169892" lon="3.7884435075588114"><ele>56.0</ele><time>2026-05-03T09:22:17Z</time></trkpt><trkpt lat="43.59686917492448" lon="3.7884940101506963"><ele>55.4</ele><time>2026-05-03T09:22:19Z</time></trkpt><trkpt lat="43.59680728037918" lon="3.788623896665154"><ele>54.8</ele><time>2026-05-03T09:22:21.999Z</time></trkpt><trkpt lat="43.59673912473983" lon="3.7886854747927754"><ele>54.199999999999996</ele><time>2026-05-03T09:22:23.999Z</time></trkpt><trkpt lat="43.59666573460077" lon="3.7887608254880156"><ele>53.599999999999994</ele><time>2026-05-03T09:22:25.999Z</time></trkpt><trkpt lat="43.5965902583069" lon="3.7888324640881965"><ele>53.0</ele><time>2026-05-03T09:22:27.999Z</time></trkpt><trkpt lat="43.59651518779851" lon="3.7889095823074337"><ele>53.00000000000001</ele><time>2026-05-03T09:22:29.999Z</time></trkpt><trkpt lat="43.59643542450749" lon="3.7889749113484608"><ele>53.0</ele><time>2026-05-03T09:22:31.999Z</time></trkpt><trkpt lat="43.59636291660408" lon="3.7890409140092385"><ele>53.0</ele><time>2026-05-03T09:22:33.999Z</time></trkpt><trkpt lat="43.59628678548887" lon="3.7890870515898256"><ele>53.0</ele><time>2026-05-03T09:22:35.999Z</time></trkpt><trkpt lat="43.59619944202313" lon="3.7891161157075914"><ele>53.00000000000001</ele><time>2026-05-03T09:22:37.999Z</time></trkpt><trkpt lat="43.59611419214354" lon="3.789171748182117"><ele>53.0</ele><time>2026-05-03T09:22:39.999Z</time></trkpt><trkpt lat="43.59604559886873" lon="3.789241090585764"><ele>52.50000000000001</ele><time>2026-05-03T09:22:41.999Z</time></trkpt><trkpt lat="43.595975020798676" lon="3.7893121253247695"><ele>52.0</ele><time>2026-05-03T09:22:43.999Z</time></trkpt><trkpt lat="43.59589872908191" lon="3.7893742213097985"><ele>51.5</ele><time>2026-05-03T09:22:45.999Z</time></trkpt><trkpt lat="43.595831778116306" lon="3.789446246138032"><ele>51.0</ele><time>2026-05-03T09:22:47.999Z</time></trkpt><trkpt lat="43.595764542305965" lon="3.7895246885680103"><ele>50.50000000000001</ele><time>2026-05-03T09:22:49.999Z</time></trkpt><trkpt lat="43.59569505179432" lon="3.789587757018455"><ele>50.0</ele><time>2026-05-03T09:22:51.999Z</time></trkpt><trkpt lat="43.59562003779429" lon="3.7896510484112866"><ele>50.00000000000001</ele><time>2026-05-03T09:22:53.999Z</time></trkpt><trkpt lat="43.5955460301847" lon="3.7897074932424757"><ele>50.0</ele><time>2026-05-03T09:22:55.999Z</time></trkpt><trkpt lat="43.595474437216076" lon="3.789773345317741"><ele>50.0</ele><time>2026-05-03T09:22:57.999Z</time></trkpt><trkpt lat="43.595406369526074" lon="3.7898737166187217"><ele>50.0</ele><time>2026-05-03T09:22:59.999Z</time></trkpt><trkpt lat="43.59535490449355" lon="3.7899715960477036"><ele>50.00000000000001</ele><time>2026-05-03T09:23:01.999Z</time></trkpt><trkpt lat="43.595297566167986" lon="3.7900087138118486"><ele>50.0</ele><time>2026-05-03T09:23:02.999Z</time></trkpt><trkpt lat="43.59519034417231" lon="3.7901187866381467"><ele>50.00000000000001</ele><time>2026-05-03T09:23:04.999Z</time></trkpt><trkpt lat="43.5951346301335" lon="3.790171370439827"><ele>50.0</ele><time>2026-05-03T09:23:05.999Z</time></trkpt><trkpt lat="43.59506076555655" lon="3.790262189395951"><ele>50.0</ele><time>2026-05-03T09:23:07.999Z</time></trkpt><trkpt lat="43.59496780356624" lon="3.7903039757888197"><ele>50.0</ele><time>2026-05-03T09:23:10.999Z</time></trkpt><trkpt lat="43.59491783265527" lon="3.790378628778525"><ele>50.00000000000001</ele><time>2026-05-03T09:23:12.999Z</time></trkpt><trkpt lat="43.59484999585798" lon="3.7904345543801212"><ele>50.0</ele><time>2026-05-03T09:23:14.999Z</time></trkpt><trkpt lat="43.594787099687274" lon="3.79050099967749"><ele>50.00000000000001</ele><time>2026-05-03T09:23:16.999Z</time></trkpt><trkpt lat="43.59473450544305" lon="3.7905727382588643"><ele>50.0</ele><time>2026-05-03T09:23:18.999Z</time></trkpt><trkpt lat="43.59468754040065" lon="3.790652627123979"><ele>50.0</ele><time>2026-05-03T09:23:20.999Z</time></trkpt><trkpt lat="43.59464340454298" lon="3.7907443623881036"><ele>50.0</ele><time>2026-05-03T09:23:22.999Z</time></trkpt><trkpt lat="43.59459819419923" lon="3.790858923273629"><ele>50.00000000000001</ele><time>2026-05-03T09:23:25.999Z</time></trkpt><trkpt lat="43.594557327869424" lon="3.790945259718898"><ele>50.0</ele><time>2026-05-03T09:23:27.999Z</time></trkpt><trkpt lat="43.59451532205487" lon="3.7910465046464004"><ele>49.66666666666667</ele><time>2026-05-03T09:23:29.999Z</time></trkpt><trkpt lat="43.594467544834075" lon="3.7911228570636"><ele>49.333333333333336</ele><time>2026-05-03T09:23:31.999Z</time></trkpt><trkpt lat="43.5944251060209" lon="3.7912039810535494"><ele>49.0</ele><time>2026-05-03T09:23:33.998Z</time></trkpt><trkpt lat="43.59438331783385" lon="3.791291387040517"><ele>48.66666666666667</ele><time>2026-05-03T09:23:35.998Z</time></trkpt><trkpt lat="43.594343630599504" lon="3.791371580601577"><ele>48.333333333333336</ele><time>2026-05-03T09:23:37.998Z</time></trkpt><trkpt lat="43.594299804082404" lon="3.7914568605584744"><ele>48.0</ele><time>2026-05-03T09:23:39.998Z</time></trkpt><trkpt lat="43.594241107699446" lon="3.791544776319378"><ele>48.0</ele><time>2026-05-03T09:23:41.998Z</time></trkpt><trkpt lat="43.594199052733906" lon="3.7916267020126013"><ele>48.0</ele><time>2026-05-03T09:23:43.998Z</time></trkpt><trkpt lat="43.59415761256916" lon="3.7917676929087905"><ele>48.0</ele><time>2026-05-03T09:23:46.998Z</time></trkpt><trkpt lat="43.59410192024665" lon="3.7918497002547022"><ele>48.0</ele><time>2026-05-03T09:23:48.998Z</time></trkpt><trkpt lat="43.594041132779736" lon="3.7919434458955"><ele>48.0</ele><time>2026-05-03T09:23:50.998Z</time></trkpt><trkpt lat="43.59398139093212" lon="3.7920203835035813"><ele>48.0</ele><time>2026-05-03T09:23:52.998Z</time></trkpt><trkpt lat="43.59391105369137" lon="3.792084885717239"><ele>48.333333333333336</ele><time>2026-05-03T09:23:54.998Z</time></trkpt><trkpt lat="43.59384298100432" lon="3.792154384162542"><ele>48.66666666666667</ele><time>2026-05-03T09:23:56.998Z</time></trkpt><trkpt lat="43.593778509226894" lon="3.792236134273814"><ele>49.0</ele><time>2026-05-03T09:23:58.998Z</time></trkpt><trkpt lat="43.59371548562434" lon="3.792316981172671"><ele>49.333333333333336</ele><time>2026-05-03T09:24:00.998Z</time></trkpt><trkpt lat="43.593645624973576" lon="3.792396487852893"><ele>49.66666666666667</ele><time>2026-05-03T09:24:03Z</time></trkpt><trkpt lat="43.59357612590825" lon="3.7924747953324394"><ele>50.0</ele><time>2026-05-03T09:24:05Z</time></trkpt><trkpt lat="43.593507621948135" lon="3.7925075736692238"><ele>49.16666666666667</ele><time>2026-05-03T09:24:07Z</time></trkpt><trkpt lat="43.59344943880229" lon="3.7925768113719998"><ele>48.333333333333336</ele><time>2026-05-03T09:24:09Z</time></trkpt><trkpt lat="43.593382728608674" lon="3.792624926387174"><ele>47.5</ele><time>2026-05-03T09:24:11Z</time></trkpt><trkpt lat="43.5932945111613" lon="3.792672317609287"><ele>46.66666666666667</ele><time>2026-05-03T09:24:14Z</time></trkpt><trkpt lat="43.59319458499106" lon="3.792712846019871"><ele>45.833333333333336</ele><time>2026-05-03T09:24:17Z</time></trkpt><trkpt lat="43.593162695147996" lon="3.7928227185088503"><ele>45.0</ele><time>2026-05-03T09:24:19Z</time></trkpt><trkpt lat="43.59311744844758" lon="3.792916208338413"><ele>45.0</ele><time>2026-05-03T09:24:21Z</time></trkpt><trkpt lat="43.5930630361521" lon="3.7930039386807843"><ele>45.0</ele><time>2026-05-03T09:24:23Z</time></trkpt><trkpt lat="43.592965209539734" lon="3.7930450349879052"><ele>45.0</ele><time>2026-05-03T09:24:25Z</time></trkpt><trkpt lat="43.592900203917154" lon="3.793155748398484"><ele>45.0</ele><time>2026-05-03T09:24:27Z</time></trkpt><trkpt lat="43.59284898550929" lon="3.793248403649511"><ele>45.0</ele><time>2026-05-03T09:24:29Z</time></trkpt><trkpt lat="43.592790860394665" lon="3.7933277217700807"><ele>44.833333333333336</ele><time>2026-05-03T09:24:31Z</time></trkpt><trkpt lat="43.592721241610185" lon="3.7934197261612077"><ele>44.666666666666664</ele><time>2026-05-03T09:24:33Z</time></trkpt><trkpt lat="43.592658341287056" lon="3.7935128465194383"><ele>44.5</ele><time>2026-05-03T09:24:35Z</time></trkpt><trkpt lat="43.59259499058991" lon="3.7935826310781513"><ele>44.33333333333333</ele><time>2026-05-03T09:24:37Z</time></trkpt><trkpt lat="43.59251587116955" lon="3.79360488356279"><ele>44.166666666666664</ele><time>2026-05-03T09:24:39Z</time></trkpt><trkpt lat="43.59243113400637" lon="3.793639025820437"><ele>44.0</ele><time>2026-05-03T09:24:41Z</time></trkpt><trkpt lat="43.59235768584885" lon="3.7936810453566157"><ele>44.0</ele><time>2026-05-03T09:24:43Z</time></trkpt><trkpt lat="43.59228635678609" lon="3.7937121133244722"><ele>44.0</ele><time>2026-05-03T09:24:45Z</time></trkpt><trkpt lat="43.59221774817537" lon="3.793782535242133"><ele>44.0</ele><time>2026-05-03T09:24:47Z</time></trkpt><trkpt lat="43.592182477388846" lon="3.7938784979547724"><ele>44.0</ele><time>2026-05-03T09:24:48.999Z</time></trkpt><trkpt lat="43.59215239312197" lon="3.7939696607957525"><ele>44.0</ele><time>2026-05-03T09:24:50.999Z</time></trkpt><trkpt lat="43.59212987748335" lon="3.7940680516977796"><ele>44.0</ele><time>2026-05-03T09:24:52.999Z</time></trkpt><trkpt lat="43.592096232995026" lon="3.794152895585652"><ele>44.0</ele><time>2026-05-03T09:24:54.999Z</time></trkpt><trkpt lat="43.592070056911666" lon="3.794241940703028"><ele>44.0</ele><time>2026-05-03T09:24:56.999Z</time></trkpt><trkpt lat="43.592044023662396" lon="3.794332415135521"><ele>44.0</ele><time>2026-05-03T09:24:58.999Z</time></trkpt><trkpt lat="43.59200914067303" lon="3.7944083811118055"><ele>44.0</ele><time>2026-05-03T09:25:00.999Z</time></trkpt><trkpt lat="43.59197740743354" lon="3.7944943456704903"><ele>44.0</ele><time>2026-05-03T09:25:02.999Z</time></trkpt><trkpt lat="43.591937620907586" lon="3.7946076433748015"><ele>44.0</ele><time>2026-05-03T09:25:05.999Z</time></trkpt><trkpt lat="43.591912965103205" lon="3.7946987843115583"><ele>44.0</ele><time>2026-05-03T09:25:07.999Z</time></trkpt><trkpt lat="43.59188142029092" lon="3.79478832773629"><ele>43.83333333333333</ele><time>2026-05-03T09:25:09.999Z</time></trkpt><trkpt lat="43.59184091434433" lon="3.79487524465662"><ele>43.666666666666664</ele><time>2026-05-03T09:25:11.999Z</time></trkpt><trkpt lat="43.59180125598039" lon="3.7949595518007793"><ele>43.5</ele><time>2026-05-03T09:25:13.999Z</time></trkpt><trkpt lat="43.59176447899575" lon="3.7950437366658893"><ele>43.333333333333336</ele><time>2026-05-03T09:25:15.999Z</time></trkpt><trkpt lat="43.591706383287345" lon="3.7951147401137164"><ele>43.16666666666667</ele><time>2026-05-03T09:25:17.999Z</time></trkpt><trkpt lat="43.59166910214674" lon="3.7952091659490983"><ele>43.0</ele><time>2026-05-03T09:25:19.999Z</time></trkpt><trkpt lat="43.59162745156525" lon="3.795298864594558"><ele>43.0</ele><time>2026-05-03T09:25:21.999Z</time></trkpt><trkpt lat="43.59159621606912" lon="3.7953898458218482"><ele>43.0</ele><time>2026-05-03T09:25:23.999Z</time></trkpt><trkpt lat="43.591557985854784" lon="3.795469694699421"><ele>43.0</ele><time>2026-05-03T09:25:25.999Z</time></trkpt><trkpt lat="43.59151566049047" lon="3.7955506906945273"><ele>43.0</ele><time>2026-05-03T09:25:27.999Z</time></trkpt><trkpt lat="43.59147371651596" lon="3.7956672561284703"><ele>43.0</ele><time>2026-05-03T09:25:30.999Z</time></trkpt><trkpt lat="43.59142106083604" lon="3.7957331887635184"><ele>43.0</ele><time>2026-05-03T09:25:33.999Z</time></trkpt><trkpt lat="43.591371331365224" lon="3.795618600438982"><ele>43.0</ele><time>2026-05-03T09:25:37.999Z</time></trkpt><trkpt lat="43.591303116095965" lon="3.795556368274751"><ele>43.0</ele><time>2026-05-03T09:25:39.999Z</time></trkpt><trkpt lat="43.59122566832449" lon="3.795500334468301"><ele>43.0</ele><time>2026-05-03T09:25:41.999Z</time></trkpt><trkpt lat="43.591153025429946" lon="3.795396561954147"><ele>43.0</ele><time>2026-05-03T09:25:43.999Z</time></trkpt><trkpt lat="43.591085563761084" lon="3.7953065012276412"><ele>43.0</ele><time>2026-05-03T09:25:45.999Z</time></trkpt><trkpt lat="43.5910076220865" lon="3.795215656184239"><ele>41.66666666666667</ele><time>2026-05-03T09:25:47.999Z</time></trkpt><trkpt lat="43.59093349553372" lon="3.7951359374780798"><ele>40.333333333333336</ele><time>2026-05-03T09:25:49.999Z</time></trkpt><trkpt lat="43.59086026259372" lon="3.7950757599077307"><ele>39.0</ele><time>2026-05-03T09:25:51.999Z</time></trkpt><trkpt lat="43.59079069349658" lon="3.795079049552051"><ele>37.666666666666664</ele><time>2026-05-03T09:25:54.999Z</time></trkpt><trkpt lat="43.59080216440921" lon="3.7949641201178554"><ele>36.33333333333333</ele><time>2026-05-03T09:25:58.998Z</time></trkpt><trkpt lat="43.59083804682278" lon="3.794868573047429"><ele>35.0</ele><time>2026-05-03T09:26:00.998Z</time></trkpt><trkpt lat="43.59087344605256" lon="3.794754369801287"><ele>35.0</ele><time>2026-05-03T09:26:02.998Z</time></trkpt><trkpt lat="43.59090913755702" lon="3.794628198564999"><ele>35.0</ele><time>2026-05-03T09:26:04.998Z</time></trkpt><trkpt lat="43.59095455845889" lon="3.7944924386166865"><ele>35.0</ele><time>2026-05-03T09:26:06.998Z</time></trkpt><trkpt lat="43.59099099729984" lon="3.794356592320412"><ele>35.0</ele><time>2026-05-03T09:26:09Z</time></trkpt><trkpt lat="43.59102368013882" lon="3.7942146033379043"><ele>35.0</ele><time>2026-05-03T09:26:11Z</time></trkpt><trkpt lat="43.59104543862613" lon="3.7940743915156436"><ele>35.0</ele><time>2026-05-03T09:26:13Z</time></trkpt><trkpt lat="43.5910719042624" lon="3.793915114809586"><ele>35.0</ele><time>2026-05-03T09:26:15Z</time></trkpt><trkpt lat="43.59108904885547" lon="3.7938302824983188"><ele>35.0</ele><time>2026-05-03T09:26:16Z</time></trkpt><trkpt lat="43.59110546562508" lon="3.7936731409892017"><ele>35.0</ele><time>2026-05-03T09:26:18Z</time></trkpt><trkpt lat="43.59109332891395" lon="3.793587304088112"><ele>35.0</ele><time>2026-05-03T09:26:19Z</time></trkpt><trkpt lat="43.59107769362179" lon="3.793450861329443"><ele>35.166666666666664</ele><time>2026-05-03T09:26:21Z</time></trkpt><trkpt lat="43.59108393442032" lon="3.793319311370222"><ele>35.33333333333333</ele><time>2026-05-03T09:26:23Z</time></trkpt><trkpt lat="43.5911368087429" lon="3.793230669942833"><ele>35.5</ele><time>2026-05-03T09:26:25Z</time></trkpt><trkpt lat="43.59119317817513" lon="3.7931902331857343"><ele>35.666666666666664</ele><time>2026-05-03T09:26:27Z</time></trkpt><trkpt lat="43.59123279981462" lon="3.793097983289294"><ele>35.833333333333336</ele><time>2026-05-03T09:26:29Z</time></trkpt><trkpt lat="43.59128354730473" lon="3.7929730152944705"><ele>36.0</ele><time>2026-05-03T09:26:31Z</time></trkpt><trkpt lat="43.5913170150895" lon="3.7928528837945423"><ele>36.0</ele><time>2026-05-03T09:26:33Z</time></trkpt><trkpt lat="43.59137346079682" lon="3.7927564359083794"><ele>36.0</ele><time>2026-05-03T09:26:35Z</time></trkpt><trkpt lat="43.5914169062033" lon="3.7926443767149887"><ele>36.0</ele><time>2026-05-03T09:26:37Z</time></trkpt><trkpt lat="43.59147589100314" lon="3.7925187743830366"><ele>36.0</ele><time>2026-05-03T09:26:39Z</time></trkpt><trkpt lat="43.59151839556369" lon="3.792395380449101"><ele>36.0</ele><time>2026-05-03T09:26:41Z</time></trkpt><trkpt lat="43.5915630473026" lon="3.7922846763319034"><ele>36.166666666666664</ele><time>2026-05-03T09:26:43Z</time></trkpt><trkpt lat="43.591601040425175" lon="3.7921742532643674"><ele>36.333333333333336</ele><time>2026-05-03T09:26:45Z</time></trkpt><trkpt lat="43.59162452107029" lon="3.7920558646672626"><ele>36.5</ele><time>2026-05-03T09:26:47Z</time></trkpt><trkpt lat="43.591621760118684" lon="3.791928829413217"><ele>36.66666666666667</ele><time>2026-05-03T09:26:48.999Z</time></trkpt><trkpt lat="43.59162553091972" lon="3.791805598796783"><ele>36.833333333333336</ele><time>2026-05-03T09:26:50.999Z</time></trkpt><trkpt lat="43.59160856108304" lon="3.7916979570965488"><ele>37.0</ele><time>2026-05-03T09:26:53.999Z</time></trkpt><trkpt lat="43.59161106460872" lon="3.7915760515473886"><ele>37.833333333333336</ele><time>2026-05-03T09:26:55.999Z</time></trkpt><trkpt lat="43.591617539496774" lon="3.791471752947938"><ele>38.66666666666667</ele><time>2026-05-03T09:26:56.999Z</time></trkpt><trkpt lat="43.59163178553641" lon="3.7913451108593836"><ele>39.5</ele><time>2026-05-03T09:26:58.999Z</time></trkpt><trkpt lat="43.59164310912111" lon="3.791216964382422"><ele>40.333333333333336</ele><time>2026-05-03T09:27:00.999Z</time></trkpt><trkpt lat="43.59165958890746" lon="3.7910926205780484"><ele>41.166666666666664</ele><time>2026-05-03T09:27:02.999Z</time></trkpt><trkpt lat="43.59167495567769" lon="3.790989996905133"><ele>42.0</ele><time>2026-05-03T09:27:04.999Z</time></trkpt><trkpt lat="43.591690320776344" lon="3.790895289108107"><ele>42.142857142857146</ele><time>2026-05-03T09:27:06.999Z</time></trkpt><trkpt lat="43.591714178715925" lon="3.7907991549159643"><ele>42.285714285714285</ele><time>2026-05-03T09:27:08.999Z</time></trkpt><trkpt lat="43.59173461135342" lon="3.790699673827766"><ele>42.42857142857143</ele><time>2026-05-03T09:27:10.999Z</time></trkpt><trkpt lat="43.591753375552976" lon="3.790607426318646"><ele>42.57142857142857</ele><time>2026-05-03T09:27:12.999Z</time></trkpt><trkpt lat="43.591782788225" lon="3.790527348912972"><ele>42.714285714285715</ele><time>2026-05-03T09:27:14.999Z</time></trkpt><trkpt lat="43.591794853411486" lon="3.790432131625977"><ele>42.85714285714286</ele><time>2026-05-03T09:27:16.999Z</time></trkpt><trkpt lat="43.59182929649339" lon="3.790348689478431"><ele>43.0</ele><time>2026-05-03T09:27:18.999Z</time></trkpt><trkpt lat="43.59186570614978" lon="3.7902214348322807"><ele>42.833333333333336</ele><time>2026-05-03T09:27:21.999Z</time></trkpt><trkpt lat="43.59184359064781" lon="3.7901050370863185"><ele>42.66666666666667</ele><time>2026-05-03T09:27:23.999Z</time></trkpt><trkpt lat="43.59179284535871" lon="3.7900353679338044"><ele>42.5</ele><time>2026-05-03T09:27:25.999Z</time></trkpt><trkpt lat="43.59175521819224" lon="3.789943968800017"><ele>42.333333333333336</ele><time>2026-05-03T09:27:27.999Z</time></trkpt><trkpt lat="43.59168463710189" lon="3.789847575817483"><ele>42.166666666666664</ele><time>2026-05-03T09:27:29.999Z</time></trkpt><trkpt lat="43.59164349117759" lon="3.7897533905637615"><ele>42.0</ele><time>2026-05-03T09:27:31.999Z</time></trkpt><trkpt lat="43.5915871966667" lon="3.7896627696865446"><ele>42.0</ele><time>2026-05-03T09:27:33.999Z</time></trkpt><trkpt lat="43.59153869613805" lon="3.7895672752388374"><ele>42.0</ele><time>2026-05-03T09:27:35.999Z</time></trkpt><trkpt lat="43.591481428941826" lon="3.789461682901596"><ele>42.0</ele><time>2026-05-03T09:27:37.999Z</time></trkpt><trkpt lat="43.591429664037136" lon="3.789375107320456"><ele>42.0</ele><time>2026-05-03T09:27:39.999Z</time></trkpt><trkpt lat="43.591376179672814" lon="3.789277078215076"><ele>42.0</ele><time>2026-05-03T09:27:41.999Z</time></trkpt><trkpt lat="43.59133080913785" lon="3.789180518505959"><ele>42.0</ele><time>2026-05-03T09:27:43.999Z</time></trkpt><trkpt lat="43.591293029952574" lon="3.789080747887213"><ele>42.166666666666664</ele><time>2026-05-03T09:27:45.999Z</time></trkpt><trkpt lat="43.59127291243768" lon="3.7889808034122603"><ele>42.333333333333336</ele><time>2026-05-03T09:27:47.999Z</time></trkpt><trkpt lat="43.591267427630726" lon="3.7888788418680237"><ele>42.5</ele><time>2026-05-03T09:27:49.999Z</time></trkpt><trkpt lat="43.591246998656416" lon="3.7887741105574158"><ele>42.66666666666667</ele><time>2026-05-03T09:27:51.999Z</time></trkpt><trkpt lat="43.591192043528224" lon="3.7887189645547292"><ele>42.833333333333336</ele><time>2026-05-03T09:27:54.998Z</time></trkpt><trkpt lat="43.591118286277265" lon="3.7887208780863233"><ele>43.0</ele><time>2026-05-03T09:27:57.998Z</time></trkpt><trkpt lat="43.59108954327308" lon="3.7885974034969325"><ele>43.5</ele><time>2026-05-03T09:28:00.998Z</time></trkpt><trkpt lat="43.59107076446968" lon="3.7884904963478383"><ele>44.0</ele><time>2026-05-03T09:28:02.998Z</time></trkpt><trkpt lat="43.5910295633887" lon="3.788373506515084"><ele>44.5</ele><time>2026-05-03T09:28:04.998Z</time></trkpt><trkpt lat="43.59098913020139" lon="3.7882764479061137"><ele>45.0</ele><time>2026-05-03T09:28:06.998Z</time></trkpt><trkpt lat="43.590952318159644" lon="3.7881867058848706"><ele>45.5</ele><time>2026-05-03T09:28:08.998Z</time></trkpt><trkpt lat="43.590920068084316" lon="3.7881032933377496"><ele>46.0</ele><time>2026-05-03T09:28:10.998Z</time></trkpt><trkpt lat="43.59088470467378" lon="3.7880101318299193"><ele>46.0</ele><time>2026-05-03T09:28:12.998Z</time></trkpt><trkpt lat="43.59086691530611" lon="3.787902281483992"><ele>46.0</ele><time>2026-05-03T09:28:15Z</time></trkpt><trkpt lat="43.59084410704945" lon="3.7877958195770116"><ele>46.0</ele><time>2026-05-03T09:28:17Z</time></trkpt><trkpt lat="43.59081316174713" lon="3.787698017524323"><ele>46.0</ele><time>2026-05-03T09:28:19Z</time></trkpt><trkpt lat="43.59077790784702" lon="3.7875893425371854"><ele>46.0</ele><time>2026-05-03T09:28:21Z</time></trkpt><trkpt lat="43.590737346781054" lon="3.7874943646863364"><ele>46.0</ele><time>2026-05-03T09:28:23Z</time></trkpt><trkpt lat="43.5907029969857" lon="3.7874071285624327"><ele>46.5</ele><time>2026-05-03T09:28:25Z</time></trkpt><trkpt lat="43.59066526315585" lon="3.7873068208241136"><ele>47.0</ele><time>2026-05-03T09:28:27Z</time></trkpt><trkpt lat="43.590660504693034" lon="3.7872044834577867"><ele>47.5</ele><time>2026-05-03T09:28:29Z</time></trkpt><trkpt lat="43.59069388637918" lon="3.787080756877129"><ele>48.0</ele><time>2026-05-03T09:28:31Z</time></trkpt><trkpt lat="43.59072865253417" lon="3.786968050522562"><ele>48.49999999999999</ele><time>2026-05-03T09:28:32.999Z</time></trkpt><trkpt lat="43.590768092237425" lon="3.7868457895667436"><ele>49.0</ele><time>2026-05-03T09:28:34.999Z</time></trkpt><trkpt lat="43.59080757710814" lon="3.786723897329435"><ele>49.49999999999999</ele><time>2026-05-03T09:28:36.999Z</time></trkpt><trkpt lat="43.59083597638421" lon="3.786613326147269"><ele>50.0</ele><time>2026-05-03T09:28:38.999Z</time></trkpt><trkpt lat="43.59088361424925" lon="3.786502922547144"><ele>50.5</ele><time>2026-05-03T09:28:40.999Z</time></trkpt><trkpt lat="43.590919384079264" lon="3.7863578969880627"><ele>51.0</ele><time>2026-05-03T09:28:42.999Z</time></trkpt><trkpt lat="43.59095361208416" lon="3.7862535775531243"><ele>51.49999999999999</ele><time>2026-05-03T09:28:46.999Z</time></trkpt><trkpt lat="43.59098646837757" lon="3.7861631097559854"><ele>52.0</ele><time>2026-05-03T09:28:49.999Z</time></trkpt><trkpt lat="43.59098470916673" lon="3.7860477132333066"><ele>52.42857142857142</ele><time>2026-05-03T09:28:52.999Z</time></trkpt><trkpt lat="43.59099075086925" lon="3.785958260063023"><ele>52.85714285714286</ele><time>2026-05-03T09:28:54.999Z</time></trkpt><trkpt lat="43.59100947121416" lon="3.7858505786949572"><ele>53.285714285714285</ele><time>2026-05-03T09:28:57.999Z</time></trkpt><trkpt lat="43.59101511931538" lon="3.7857468381302826"><ele>53.71428571428571</ele><time>2026-05-03T09:29:01.999Z</time></trkpt><trkpt lat="43.59102056984097" lon="3.7856593867273958"><ele>54.14285714285714</ele><time>2026-05-03T09:29:04.999Z</time></trkpt><trkpt lat="43.59102913488205" lon="3.7855428290803257"><ele>54.57142857142857</ele><time>2026-05-03T09:29:07.999Z</time></trkpt><trkpt lat="43.59102416615106" lon="3.7854529916813875"><ele>55.0</ele><time>2026-05-03T09:29:09.999Z</time></trkpt><trkpt lat="43.59101246612736" lon="3.7853418675746133"><ele>54.99999999999999</ele><time>2026-05-03T09:29:12.999Z</time></trkpt><trkpt lat="43.59102296971365" lon="3.7852500860249476"><ele>55.0</ele><time>2026-05-03T09:29:15.999Z</time></trkpt><trkpt lat="43.5910925973038" lon="3.7852023673982735"><ele>55.0</ele><time>2026-05-03T09:29:18.999Z</time></trkpt><trkpt lat="43.591078150932596" lon="3.785061004335916"><ele>55.0</ele><time>2026-05-03T09:29:21.999Z</time></trkpt><trkpt lat="43.591083693360574" lon="3.784946978081031"><ele>54.99999999999999</ele><time>2026-05-03T09:29:23.999Z</time></trkpt><trkpt lat="43.59110109436359" lon="3.7848286233138198"><ele>55.0</ele><time>2026-05-03T09:29:25.999Z</time></trkpt><trkpt lat="43.59110352421922" lon="3.784700397771108"><ele>55.166666666666664</ele><time>2026-05-03T09:29:27.999Z</time></trkpt><trkpt lat="43.59111282036039" lon="3.7845880124422036"><ele>55.33333333333333</ele><time>2026-05-03T09:29:29.999Z</time></trkpt><trkpt lat="43.591111785190485" lon="3.784480821078652"><ele>55.5</ele><time>2026-05-03T09:29:31.999Z</time></trkpt><trkpt lat="43.59111922763624" lon="3.7843766195052324"><ele>55.66666666666667</ele><time>2026-05-03T09:29:33.999Z</time></trkpt><trkpt lat="43.591142635628245" lon="3.7842756587229545"><ele>55.833333333333336</ele><time>2026-05-03T09:29:35.999Z</time></trkpt><trkpt lat="43.59114970029322" lon="3.7841629548119076"><ele>56.0</ele><time>2026-05-03T09:29:37.999Z</time></trkpt><trkpt lat="43.591145824383815" lon="3.78406924217322"><ele>57.00000000000001</ele><time>2026-05-03T09:29:39.999Z</time></trkpt><trkpt lat="43.59113235164043" lon="3.783969794578756"><ele>58.0</ele><time>2026-05-03T09:29:41.999Z</time></trkpt><trkpt lat="43.59110866131691" lon="3.78387741978881"><ele>59.0</ele><time>2026-05-03T09:29:43.998Z</time></trkpt><trkpt lat="43.591093171946795" lon="3.7837405909494493"><ele>60.0</ele><time>2026-05-03T09:29:46.998Z</time></trkpt><trkpt lat="43.59105655061825" lon="3.78362017747691"><ele>61.00000000000001</ele><time>2026-05-03T09:29:48.998Z</time></trkpt><trkpt lat="43.591041235942555" lon="3.7834939014298636"><ele>62.0</ele><time>2026-05-03T09:29:51.998Z</time></trkpt><trkpt lat="43.5910140499834" lon="3.783380584207118"><ele>62.00000000000001</ele><time>2026-05-03T09:29:53.998Z</time></trkpt><trkpt lat="43.59101065938748" lon="3.7832847759988706"><ele>62.0</ele><time>2026-05-03T09:29:55.998Z</time></trkpt><trkpt lat="43.59095569008934" lon="3.7831886748896046"><ele>62.0</ele><time>2026-05-03T09:29:58.998Z</time></trkpt><trkpt lat="43.5909144271127" lon="3.7830758148707817"><ele>62.0</ele><time>2026-05-03T09:30:01.998Z</time></trkpt><trkpt lat="43.59086954456585" lon="3.7829905425462744"><ele>62.00000000000001</ele><time>2026-05-03T09:30:03.998Z</time></trkpt><trkpt lat="43.5908565763112" lon="3.782883202618242"><ele>62.0</ele><time>2026-05-03T09:30:05.998Z</time></trkpt><trkpt lat="43.59078994981041" lon="3.7827974257265775"><ele>62.00000000000001</ele><time>2026-05-03T09:30:08.998Z</time></trkpt><trkpt lat="43.590752940156094" lon="3.7827225355784613"><ele>62.0</ele><time>2026-05-03T09:30:10.998Z</time></trkpt><trkpt lat="43.590713820467236" lon="3.782646545301052"><ele>62.0</ele><time>2026-05-03T09:30:13.998Z</time></trkpt><trkpt lat="43.59065157600111" lon="3.7825853446812103"><ele>62.0</ele><time>2026-05-03T09:30:16.998Z</time></trkpt><trkpt lat="43.59061866823296" lon="3.7824732120061118"><ele>62.00000000000001</ele><time>2026-05-03T09:30:20Z</time></trkpt><trkpt lat="43.59056024691245" lon="3.782380747848757"><ele>62.0</ele><time>2026-05-03T09:30:23Z</time></trkpt><trkpt lat="43.590487011106035" lon="3.7823163044561334"><ele>61.28571428571429</ele><time>2026-05-03T09:30:26Z</time></trkpt><trkpt lat="43.590442047381785" lon="3.782254166790011"><ele>60.57142857142858</ele><time>2026-05-03T09:30:29Z</time></trkpt><trkpt lat="43.59044649544252" lon="3.782166750055247"><ele>59.85714285714286</ele><time>2026-05-03T09:30:40.999Z</time></trkpt><trkpt lat="43.59040590894627" lon="3.7820795281606574"><ele>59.14285714285714</ele><time>2026-05-03T09:30:45.999Z</time></trkpt><trkpt lat="43.590359068158676" lon="3.7819862166833387"><ele>58.42857142857142</ele><time>2026-05-03T09:30:48.999Z</time></trkpt><trkpt lat="43.59031180495881" lon="3.781925856984892"><ele>57.71428571428571</ele><time>2026-05-03T09:30:58.999Z</time></trkpt><trkpt lat="43.59035216709824" lon="3.7820277861846425"><ele>57.0</ele><time>2026-05-03T09:31:16.999Z</time></trkpt><trkpt lat="43.59032587499725" lon="3.7821284559104478"><ele>58.57142857142857</ele><time>2026-05-03T09:31:20.999Z</time></trkpt><trkpt lat="43.59025046659462" lon="3.782189256168629"><ele>60.14285714285714</ele><time>2026-05-03T09:31:23.999Z</time></trkpt><trkpt lat="43.59018798212172" lon="3.7822649857629886"><ele>61.71428571428571</ele><time>2026-05-03T09:31:27.999Z</time></trkpt><trkpt lat="43.59012913346377" lon="3.782312913266541"><ele>63.28571428571428</ele><time>2026-05-03T09:31:30.999Z</time></trkpt><trkpt lat="43.59007169804267" lon="3.7823785366817306"><ele>64.85714285714286</ele><time>2026-05-03T09:31:34.999Z</time></trkpt><trkpt lat="43.59001221596306" lon="3.78233014952689"><ele>66.42857142857142</ele><time>2026-05-03T09:31:37.999Z</time></trkpt><trkpt lat="43.58998556372782" lon="3.782250802539461"><ele>68.0</ele><time>2026-05-03T09:31:40.999Z</time></trkpt><trkpt lat="43.58995892119689" lon="3.7821327313174136"><ele>68.0</ele><time>2026-05-03T09:31:43.999Z</time></trkpt><trkpt lat="43.58990860769614" lon="3.782077601289344"><ele>68.0</ele><time>2026-05-03T09:31:45.999Z</time></trkpt><trkpt lat="43.58982882397728" lon="3.7820052840066056"><ele>68.0</ele><time>2026-05-03T09:31:47.998Z</time></trkpt><trkpt lat="43.589766106462214" lon="3.7819259841593595"><ele>68.0</ele><time>2026-05-03T09:31:49.998Z</time></trkpt><trkpt lat="43.589688536566115" lon="3.781867733327539"><ele>68.0</ele><time>2026-05-03T09:31:51.998Z</time></trkpt><trkpt lat="43.58963312846201" lon="3.78181242518728"><ele>68.0</ele><time>2026-05-03T09:31:53.998Z</time></trkpt><trkpt lat="43.58956577944614" lon="3.781763556578429"><ele>68.0</ele><time>2026-05-03T09:31:54.998Z</time></trkpt><trkpt lat="43.58945948188983" lon="3.78181414229058"><ele>68.0</ele><time>2026-05-03T09:31:56.998Z</time></trkpt><trkpt lat="43.589336500999494" lon="3.7818476078243233"><ele>68.0</ele><time>2026-05-03T09:31:58.998Z</time></trkpt><trkpt lat="43.5892200598316" lon="3.7818821273778127"><ele>68.0</ele><time>2026-05-03T09:32:00.998Z</time></trkpt><trkpt lat="43.589116756926195" lon="3.7819378560434123"><ele>68.0</ele><time>2026-05-03T09:32:02.998Z</time></trkpt><trkpt lat="43.589049537182404" lon="3.781916701616952"><ele>68.0</ele><time>2026-05-03T09:32:03.998Z</time></trkpt><trkpt lat="43.58899447611792" lon="3.7818704842747164"><ele>68.0</ele><time>2026-05-03T09:32:04.998Z</time></trkpt><trkpt lat="43.58888779284793" lon="3.781853661786304"><ele>68.0</ele><time>2026-05-03T09:32:06.998Z</time></trkpt><trkpt lat="43.588796930884094" lon="3.78195622234743"><ele>68.0</ele><time>2026-05-03T09:32:08.998Z</time></trkpt><trkpt lat="43.588681088515166" lon="3.7819589496495087"><ele>67.4</ele><time>2026-05-03T09:32:10.998Z</time></trkpt><trkpt lat="43.58858440981957" lon="3.781933622239077"><ele>66.8</ele><time>2026-05-03T09:32:12.998Z</time></trkpt><trkpt lat="43.588470864204155" lon="3.7819220996278164"><ele>66.2</ele><time>2026-05-03T09:32:14.998Z</time></trkpt><trkpt lat="43.58840239460372" lon="3.7819149798334313"><ele>65.6</ele><time>2026-05-03T09:32:15.998Z</time></trkpt><trkpt lat="43.588293375543415" lon="3.781925098770565"><ele>65.0</ele><time>2026-05-03T09:32:17.998Z</time></trkpt><trkpt lat="43.58819019353902" lon="3.7819847157345787"><ele>65.0</ele><time>2026-05-03T09:32:19.998Z</time></trkpt><trkpt lat="43.588101227777436" lon="3.782021889116135"><ele>65.0</ele><time>2026-05-03T09:32:21.998Z</time></trkpt><trkpt lat="43.58801764488165" lon="3.7820566579775727"><ele>65.0</ele><time>2026-05-03T09:32:23.998Z</time></trkpt><trkpt lat="43.58793192753629" lon="3.7821135960033314"><ele>65.0</ele><time>2026-05-03T09:32:26Z</time></trkpt><trkpt lat="43.587868048551904" lon="3.782120515053885"><ele>65.0</ele><time>2026-05-03T09:32:27Z</time></trkpt><trkpt lat="43.58780368486386" lon="3.7820835255705068"><ele>65.0</ele><time>2026-05-03T09:32:28Z</time></trkpt><trkpt lat="43.58774898009901" lon="3.7820400895969986"><ele>64.0</ele><time>2026-05-03T09:32:29Z</time></trkpt><trkpt lat="43.58763540418461" lon="3.7820359855136365"><ele>63.0</ele><time>2026-05-03T09:32:31Z</time></trkpt><trkpt lat="43.587530073029235" lon="3.7820467743757664"><ele>62.0</ele><time>2026-05-03T09:32:33Z</time></trkpt><trkpt lat="43.58745642623432" lon="3.78208561091812"><ele>61.0</ele><time>2026-05-03T09:32:35Z</time></trkpt><trkpt lat="43.58736803936457" lon="3.782113623911168"><ele>60.0</ele><time>2026-05-03T09:32:37Z</time></trkpt><trkpt lat="43.58728321961289" lon="3.7821786165757696"><ele>60.0</ele><time>2026-05-03T09:32:39Z</time></trkpt><trkpt lat="43.58718302391549" lon="3.7821748148883447"><ele>60.0</ele><time>2026-05-03T09:32:41Z</time></trkpt><trkpt lat="43.587072579729245" lon="3.782203192038926"><ele>60.0</ele><time>2026-05-03T09:32:43Z</time></trkpt><trkpt lat="43.58699821472126" lon="3.782199750318801"><ele>60.0</ele><time>2026-05-03T09:32:44Z</time></trkpt><trkpt lat="43.58692143822154" lon="3.782201259777225"><ele>60.0</ele><time>2026-05-03T09:32:45Z</time></trkpt><trkpt lat="43.586857946973616" lon="3.782186403462603"><ele>60.0</ele><time>2026-05-03T09:32:46Z</time></trkpt><trkpt lat="43.58675147380168" lon="3.782184441943242"><ele>59.333333333333336</ele><time>2026-05-03T09:32:47.999Z</time></trkpt><trkpt lat="43.58672322136012" lon="3.7822837253063977"><ele>58.66666666666667</ele><time>2026-05-03T09:32:49.999Z</time></trkpt><trkpt lat="43.58669277892419" lon="3.7824502770123773"><ele>58.0</ele><time>2026-05-03T09:32:51.999Z</time></trkpt><trkpt lat="43.58663682266311" lon="3.782498673258038"><ele>57.333333333333336</ele><time>2026-05-03T09:32:52.999Z</time></trkpt><trkpt lat="43.58657989764254" lon="3.782558836214306"><ele>56.66666666666667</ele><time>2026-05-03T09:32:53.999Z</time></trkpt><trkpt lat="43.58654140895335" lon="3.7826334260568983"><ele>56.0</ele><time>2026-05-03T09:32:54.999Z</time></trkpt><trkpt lat="43.586500065812665" lon="3.7827784891778653"><ele>55.4</ele><time>2026-05-03T09:32:56.999Z</time></trkpt><trkpt lat="43.58642622640957" lon="3.7828756787114437"><ele>54.8</ele><time>2026-05-03T09:32:58.999Z</time></trkpt><trkpt lat="43.586311714748994" lon="3.7828448411823277"><ele>54.199999999999996</ele><time>2026-05-03T09:33:00.999Z</time></trkpt><trkpt lat="43.586234291524974" lon="3.7827351238627935"><ele>53.599999999999994</ele><time>2026-05-03T09:33:02.999Z</time></trkpt><trkpt lat="43.58615024630066" lon="3.7826275986830256"><ele>53.0</ele><time>2026-05-03T09:33:04.999Z</time></trkpt><trkpt lat="43.58602749875513" lon="3.782605274998005"><ele>52.599999999999994</ele><time>2026-05-03T09:33:06.999Z</time></trkpt><trkpt lat="43.5859521244234" lon="3.7825350508247566"><ele>52.199999999999996</ele><time>2026-05-03T09:33:08.999Z</time></trkpt><trkpt lat="43.58583465883695" lon="3.782510875823165"><ele>51.8</ele><time>2026-05-03T09:33:10.999Z</time></trkpt><trkpt lat="43.58574319766088" lon="3.7825718656775793"><ele>51.4</ele><time>2026-05-03T09:33:12.999Z</time></trkpt><trkpt lat="43.58563503337525" lon="3.78263581646345"><ele>51.0</ele><time>2026-05-03T09:33:14.999Z</time></trkpt><trkpt lat="43.58553330780512" lon="3.78270705693424"><ele>51.0</ele><time>2026-05-03T09:33:16.999Z</time></trkpt><trkpt lat="43.58544020068468" lon="3.7827517570961238"><ele>51.0</ele><time>2026-05-03T09:33:18.999Z</time></trkpt><trkpt lat="43.58534339636639" lon="3.782694952246223"><ele>51.0</ele><time>2026-05-03T09:33:20.999Z</time></trkpt><trkpt lat="43.58524374057228" lon="3.782699910580925"><ele>51.0</ele><time>2026-05-03T09:33:22.999Z</time></trkpt><trkpt lat="43.585157812643985" lon="3.7826298759067467"><ele>51.0</ele><time>2026-05-03T09:33:24.999Z</time></trkpt><trkpt lat="43.58512826016983" lon="3.7825357331573097"><ele>49.4</ele><time>2026-05-03T09:33:26.999Z</time></trkpt><trkpt lat="43.58509707195942" lon="3.782451912536282"><ele>47.8</ele><time>2026-05-03T09:33:28.999Z</time></trkpt><trkpt lat="43.58500960287655" lon="3.7823805666134356"><ele>46.199999999999996</ele><time>2026-05-03T09:33:30.999Z</time></trkpt><trkpt lat="43.58496115597507" lon="3.782254574763668"><ele>44.599999999999994</ele><time>2026-05-03T09:33:32.999Z</time></trkpt><trkpt lat="43.584897819294405" lon="3.782141429289777"><ele>43.0</ele><time>2026-05-03T09:33:34.999Z</time></trkpt><trkpt lat="43.58491169563726" lon="3.7819973900475246"><ele>43.00000000000001</ele><time>2026-05-03T09:33:36.999Z</time></trkpt><trkpt lat="43.58491368657691" lon="3.7818800110249913"><ele>43.0</ele><time>2026-05-03T09:33:38.999Z</time></trkpt><trkpt lat="43.58491342639858" lon="3.7817882040153448"><ele>43.0</ele><time>2026-05-03T09:33:40.999Z</time></trkpt><trkpt lat="43.58491429886303" lon="3.781695258685281"><ele>43.0</ele><time>2026-05-03T09:33:42.999Z</time></trkpt><trkpt lat="43.584907258653814" lon="3.781605244525301"><ele>43.0</ele><time>2026-05-03T09:33:44.999Z</time></trkpt><trkpt lat="43.584901541653" lon="3.781514252520618"><ele>43.00000000000001</ele><time>2026-05-03T09:33:46.999Z</time></trkpt><trkpt lat="43.58490149554386" lon="3.781421182574257"><ele>43.0</ele><time>2026-05-03T09:33:48.999Z</time></trkpt><trkpt lat="43.58490502523879" lon="3.781323457450541"><ele>42.66666666666667</ele><time>2026-05-03T09:33:50.999Z</time></trkpt><trkpt lat="43.58490411372281" lon="3.781220705512512"><ele>42.333333333333336</ele><time>2026-05-03T09:33:52.999Z</time></trkpt><trkpt lat="43.58489996360887" lon="3.7810997785566975"><ele>42.0</ele><time>2026-05-03T09:33:54.999Z</time></trkpt><trkpt lat="43.5848979785281" lon="3.7809741638678687"><ele>41.666666666666664</ele><time>2026-05-03T09:33:56.999Z</time></trkpt><trkpt lat="43.58489616053938" lon="3.780852564443762"><ele>41.33333333333333</ele><time>2026-05-03T09:33:58.998Z</time></trkpt><trkpt lat="43.584900292824656" lon="3.7807217998466243"><ele>41.0</ele><time>2026-05-03T09:34:00.998Z</time></trkpt><trkpt lat="43.584901746102254" lon="3.7805830674696357"><ele>40.599999999999994</ele><time>2026-05-03T09:34:02.998Z</time></trkpt><trkpt lat="43.5849055084112" lon="3.780437556489415"><ele>40.199999999999996</ele><time>2026-05-03T09:34:04.998Z</time></trkpt><trkpt lat="43.58490928251319" lon="3.7802976129488823"><ele>39.8</ele><time>2026-05-03T09:34:06.998Z</time></trkpt><trkpt lat="43.58490681352646" lon="3.7801628182440523"><ele>39.4</ele><time>2026-05-03T09:34:08.998Z</time></trkpt><trkpt lat="43.58491909756754" lon="3.780029137422895"><ele>39.0</ele><time>2026-05-03T09:34:10.998Z</time></trkpt><trkpt lat="43.58493594840037" lon="3.779887834035331"><ele>39.0</ele><time>2026-05-03T09:34:12.998Z</time></trkpt><trkpt lat="43.5849475622034" lon="3.7797558820058184"><ele>39.0</ele><time>2026-05-03T09:34:14.998Z</time></trkpt><trkpt lat="43.584968284911064" lon="3.779630588537611"><ele>39.0</ele><time>2026-05-03T09:34:16.998Z</time></trkpt><trkpt lat="43.58497739484064" lon="3.7794961653301797"><ele>39.0</ele><time>2026-05-03T09:34:18.998Z</time></trkpt><trkpt lat="43.585014059993554" lon="3.7793719121677616"><ele>39.0</ele><time>2026-05-03T09:34:20.998Z</time></trkpt><trkpt lat="43.585031568112925" lon="3.7792287825206525"><ele>38.8</ele><time>2026-05-03T09:34:22.998Z</time></trkpt><trkpt lat="43.58505403681136" lon="3.779118555407904"><ele>38.599999999999994</ele><time>2026-05-03T09:34:24.998Z</time></trkpt><trkpt lat="43.58508229228422" lon="3.778996126868994"><ele>38.4</ele><time>2026-05-03T09:34:26.998Z</time></trkpt><trkpt lat="43.58511385464626" lon="3.778862757937634"><ele>38.199999999999996</ele><time>2026-05-03T09:34:28.998Z</time></trkpt><trkpt lat="43.58515122549104" lon="3.778719218789218"><ele>38.0</ele><time>2026-05-03T09:34:30.998Z</time></trkpt><trkpt lat="43.58518435796545" lon="3.778588160476696"><ele>38.0</ele><time>2026-05-03T09:34:32.998Z</time></trkpt><trkpt lat="43.58522838002919" lon="3.778464998342092"><ele>38.0</ele><time>2026-05-03T09:34:34.998Z</time></trkpt><trkpt lat="43.585272088589264" lon="3.7783585188055047"><ele>38.0</ele><time>2026-05-03T09:34:36.998Z</time></trkpt><trkpt lat="43.585316312924924" lon="3.778247295479872"><ele>38.0</ele><time>2026-05-03T09:34:38.998Z</time></trkpt><trkpt lat="43.58535870899201" lon="3.7781282138169816"><ele>38.0</ele><time>2026-05-03T09:34:40.998Z</time></trkpt><trkpt lat="43.58540067584545" lon="3.778020827616865"><ele>38.33333333333333</ele><time>2026-05-03T09:34:42.998Z</time></trkpt><trkpt lat="43.585444474791636" lon="3.7779201380823615"><ele>38.666666666666664</ele><time>2026-05-03T09:34:44.998Z</time></trkpt><trkpt lat="43.585490258224915" lon="3.7778114465207007"><ele>39.0</ele><time>2026-05-03T09:34:46.998Z</time></trkpt><trkpt lat="43.58554266000379" lon="3.7777115890015494"><ele>39.333333333333336</ele><time>2026-05-03T09:34:48.998Z</time></trkpt><trkpt lat="43.58559582921268" lon="3.7776029076276796"><ele>39.66666666666667</ele><time>2026-05-03T09:34:50.998Z</time></trkpt><trkpt lat="43.58564004203461" lon="3.777502603065813"><ele>40.0</ele><time>2026-05-03T09:34:52.998Z</time></trkpt><trkpt lat="43.58569764406553" lon="3.777407021441726"><ele>40.0</ele><time>2026-05-03T09:34:54.998Z</time></trkpt><trkpt lat="43.58574994932405" lon="3.777311654168038"><ele>40.0</ele><time>2026-05-03T09:34:56.998Z</time></trkpt><trkpt lat="43.585798179493864" lon="3.777212824372059"><ele>40.0</ele><time>2026-05-03T09:34:58.998Z</time></trkpt><trkpt lat="43.5858530406541" lon="3.777106584307747"><ele>40.0</ele><time>2026-05-03T09:35:00.998Z</time></trkpt><trkpt lat="43.58590523420517" lon="3.7770062864586937"><ele>40.0</ele><time>2026-05-03T09:35:02.998Z</time></trkpt><trkpt lat="43.58596199240238" lon="3.7768989364674304"><ele>40.16666666666667</ele><time>2026-05-03T09:35:04.998Z</time></trkpt><trkpt lat="43.58601098462831" lon="3.7767986578257253"><ele>40.333333333333336</ele><time>2026-05-03T09:35:06.998Z</time></trkpt><trkpt lat="43.586062987234314" lon="3.776699573113876"><ele>40.5</ele><time>2026-05-03T09:35:08.997Z</time></trkpt><trkpt lat="43.58611876186129" lon="3.7765966548410845"><ele>40.666666666666664</ele><time>2026-05-03T09:35:10.997Z</time></trkpt><trkpt lat="43.586169622492335" lon="3.776500011020283"><ele>40.83333333333333</ele><time>2026-05-03T09:35:12.997Z</time></trkpt><trkpt lat="43.58622291969876" lon="3.7764011983700922"><ele>41.0</ele><time>2026-05-03T09:35:14.997Z</time></trkpt><trkpt lat="43.58627078203596" lon="3.776302636180793"><ele>41.4</ele><time>2026-05-03T09:35:16.997Z</time></trkpt><trkpt lat="43.58632205543909" lon="3.7761960832064783"><ele>41.8</ele><time>2026-05-03T09:35:18.997Z</time></trkpt><trkpt lat="43.58637469714508" lon="3.776097823179019"><ele>42.199999999999996</ele><time>2026-05-03T09:35:20.997Z</time></trkpt><trkpt lat="43.58642835137934" lon="3.7759915284924537"><ele>42.599999999999994</ele><time>2026-05-03T09:35:22.997Z</time></trkpt><trkpt lat="43.58648218366448" lon="3.7758843620704794"><ele>43.0</ele><time>2026-05-03T09:35:24.997Z</time></trkpt><trkpt lat="43.58654102536323" lon="3.775771134987998"><ele>43.2</ele><time>2026-05-03T09:35:26.997Z</time></trkpt><trkpt lat="43.58659238175399" lon="3.7756618740772123"><ele>43.4</ele><time>2026-05-03T09:35:28.997Z</time></trkpt><trkpt lat="43.58663884512004" lon="3.7755519427187147"><ele>43.6</ele><time>2026-05-03T09:35:30.997Z</time></trkpt><trkpt lat="43.58669576186055" lon="3.775442914137338"><ele>43.800000000000004</ele><time>2026-05-03T09:35:32.997Z</time></trkpt><trkpt lat="43.58674464967348" lon="3.7753283830820465"><ele>44.0</ele><time>2026-05-03T09:35:34.997Z</time></trkpt><trkpt lat="43.586794912089935" lon="3.775210339216577"><ele>44.0</ele><time>2026-05-03T09:35:36.997Z</time></trkpt><trkpt lat="43.586847943050586" lon="3.7751023006835966"><ele>44.0</ele><time>2026-05-03T09:35:38.997Z</time></trkpt><trkpt lat="43.58689677300124" lon="3.7749892400261853"><ele>44.0</ele><time>2026-05-03T09:35:40.997Z</time></trkpt><trkpt lat="43.58693597127912" lon="3.7748818751345805"><ele>44.0</ele><time>2026-05-03T09:35:42.997Z</time></trkpt><trkpt lat="43.58696326270982" lon="3.7747670427900273"><ele>44.0</ele><time>2026-05-03T09:35:44.997Z</time></trkpt><trkpt lat="43.58700416775469" lon="3.7746481640580862"><ele>44.2</ele><time>2026-05-03T09:35:46.997Z</time></trkpt><trkpt lat="43.58703956467223" lon="3.774525388650356"><ele>44.400000000000006</ele><time>2026-05-03T09:35:48.997Z</time></trkpt><trkpt lat="43.58707698685596" lon="3.774410980750921"><ele>44.6</ele><time>2026-05-03T09:35:50.997Z</time></trkpt><trkpt lat="43.58711038177071" lon="3.7742953122666445"><ele>44.8</ele><time>2026-05-03T09:35:52.997Z</time></trkpt><trkpt lat="43.58713965753083" lon="3.7741786705872897"><ele>45.0</ele><time>2026-05-03T09:35:54.997Z</time></trkpt><trkpt lat="43.58716299471545" lon="3.774051754093046"><ele>45.0</ele><time>2026-05-03T09:35:56.997Z</time></trkpt><trkpt lat="43.58719297619961" lon="3.773927819159778"><ele>45.0</ele><time>2026-05-03T09:35:58.997Z</time></trkpt><trkpt lat="43.58720856531267" lon="3.7738213424567175"><ele>45.0</ele><time>2026-05-03T09:36:00.997Z</time></trkpt><trkpt lat="43.58724234512842" lon="3.7737214811267252"><ele>45.0</ele><time>2026-05-03T09:36:02.997Z</time></trkpt><trkpt lat="43.58726665117843" lon="3.7735926057707267"><ele>45.0</ele><time>2026-05-03T09:36:04.997Z</time></trkpt><trkpt lat="43.58729793815801" lon="3.773472927921756"><ele>45.0</ele><time>2026-05-03T09:36:06.997Z</time></trkpt><trkpt lat="43.5873229922898" lon="3.7733467313672695"><ele>45.0</ele><time>2026-05-03T09:36:08.997Z</time></trkpt><trkpt lat="43.58735459273764" lon="3.7732288803239564"><ele>45.0</ele><time>2026-05-03T09:36:10.997Z</time></trkpt><trkpt lat="43.587367138783726" lon="3.7730933893553553"><ele>45.0</ele><time>2026-05-03T09:36:12.997Z</time></trkpt><trkpt lat="43.58739474723769" lon="3.772966054881157"><ele>45.0</ele><time>2026-05-03T09:36:14.997Z</time></trkpt><trkpt lat="43.58741962960326" lon="3.7728434854501542"><ele>45.0</ele><time>2026-05-03T09:36:16.996Z</time></trkpt><trkpt lat="43.587449758652134" lon="3.772719089674184"><ele>45.4</ele><time>2026-05-03T09:36:18.996Z</time></trkpt><trkpt lat="43.58747239767332" lon="3.7725913075046287"><ele>45.8</ele><time>2026-05-03T09:36:20.996Z</time></trkpt><trkpt lat="43.58750560597877" lon="3.7724691020788352"><ele>46.2</ele><time>2026-05-03T09:36:22.996Z</time></trkpt><trkpt lat="43.58753485244102" lon="3.772342320282075"><ele>46.6</ele><time>2026-05-03T09:36:24.996Z</time></trkpt><trkpt lat="43.587550478612094" lon="3.7722056297562494"><ele>47.0</ele><time>2026-05-03T09:36:26.996Z</time></trkpt><trkpt lat="43.58758199697121" lon="3.7720717134674544"><ele>47.0</ele><time>2026-05-03T09:36:28.996Z</time></trkpt><trkpt lat="43.58760043863597" lon="3.7719511673453057"><ele>47.0</ele><time>2026-05-03T09:36:30.996Z</time></trkpt><trkpt lat="43.587628079706754" lon="3.7718284268980944"><ele>47.0</ele><time>2026-05-03T09:36:32.996Z</time></trkpt><trkpt lat="43.58766612076246" lon="3.771705034902786"><ele>47.0</ele><time>2026-05-03T09:36:34.996Z</time></trkpt><trkpt lat="43.58770138620728" lon="3.7715811373252603"><ele>47.0</ele><time>2026-05-03T09:36:36.996Z</time></trkpt><trkpt lat="43.587733584004354" lon="3.7714592747127202"><ele>47.2</ele><time>2026-05-03T09:36:38.996Z</time></trkpt><trkpt lat="43.58775545255256" lon="3.7713312332463462"><ele>47.400000000000006</ele><time>2026-05-03T09:36:40.996Z</time></trkpt><trkpt lat="43.58778647884613" lon="3.771205459595438"><ele>47.599999999999994</ele><time>2026-05-03T09:36:42.996Z</time></trkpt><trkpt lat="43.58780880413663" lon="3.7710823119140806"><ele>47.8</ele><time>2026-05-03T09:36:44.996Z</time></trkpt><trkpt lat="43.58784757618853" lon="3.7709602555645754"><ele>48.0</ele><time>2026-05-03T09:36:46.996Z</time></trkpt><trkpt lat="43.58787758301851" lon="3.770842064439862"><ele>48.166666666666664</ele><time>2026-05-03T09:36:48.996Z</time></trkpt><trkpt lat="43.58791702128669" lon="3.770732693920266"><ele>48.33333333333333</ele><time>2026-05-03T09:36:50.996Z</time></trkpt><trkpt lat="43.58792965267837" lon="3.7706396084129405"><ele>48.5</ele><time>2026-05-03T09:36:52.996Z</time></trkpt><trkpt lat="43.587969564087196" lon="3.77056229294899"><ele>48.666666666666664</ele><time>2026-05-03T09:36:56.996Z</time></trkpt><trkpt lat="43.58797379194105" lon="3.770469273856569"><ele>48.83333333333333</ele><time>2026-05-03T09:36:59.996Z</time></trkpt><trkpt lat="43.588008376962286" lon="3.7703516796457968"><ele>49.0</ele><time>2026-05-03T09:37:01.996Z</time></trkpt><trkpt lat="43.588034868227346" lon="3.770243061829283"><ele>48.83333333333333</ele><time>2026-05-03T09:37:03.996Z</time></trkpt><trkpt lat="43.588051922571324" lon="3.770143768825663"><ele>48.666666666666664</ele><time>2026-05-03T09:37:05.996Z</time></trkpt><trkpt lat="43.58808189237732" lon="3.7700428080195287"><ele>48.5</ele><time>2026-05-03T09:37:07.996Z</time></trkpt><trkpt lat="43.58809564153107" lon="3.769948406438484"><ele>48.33333333333333</ele><time>2026-05-03T09:37:09.996Z</time></trkpt><trkpt lat="43.58812033320946" lon="3.769851540492244"><ele>48.166666666666664</ele><time>2026-05-03T09:37:11.996Z</time></trkpt><trkpt lat="43.58814678660974" lon="3.769741598308201"><ele>48.0</ele><time>2026-05-03T09:37:13.996Z</time></trkpt><trkpt lat="43.5881778841138" lon="3.769636308034882"><ele>48.0</ele><time>2026-05-03T09:37:15.996Z</time></trkpt><trkpt lat="43.588191982256916" lon="3.769542003850534"><ele>48.0</ele><time>2026-05-03T09:37:17.996Z</time></trkpt><trkpt lat="43.58820960159927" lon="3.769424382626243"><ele>48.0</ele><time>2026-05-03T09:37:19.996Z</time></trkpt><trkpt lat="43.58825122608591" lon="3.7693150801281297"><ele>48.0</ele><time>2026-05-03T09:37:21.996Z</time></trkpt><trkpt lat="43.58827997678105" lon="3.769205517524396"><ele>48.0</ele><time>2026-05-03T09:37:23.996Z</time></trkpt><trkpt lat="43.588295129337666" lon="3.7691119370838524"><ele>48.0</ele><time>2026-05-03T09:37:25.996Z</time></trkpt><trkpt lat="43.58830172783667" lon="3.769007975862801"><ele>47.666666666666664</ele><time>2026-05-03T09:37:27.995Z</time></trkpt><trkpt lat="43.588324952469726" lon="3.768899160919172"><ele>47.333333333333336</ele><time>2026-05-03T09:37:29.995Z</time></trkpt><trkpt lat="43.588337097916" lon="3.768779353381855"><ele>47.0</ele><time>2026-05-03T09:37:31.995Z</time></trkpt><trkpt lat="43.58837681223822" lon="3.7686640758772123"><ele>46.66666666666667</ele><time>2026-05-03T09:37:33.995Z</time></trkpt><trkpt lat="43.58839292948232" lon="3.768563837440061"><ele>46.333333333333336</ele><time>2026-05-03T09:37:35.995Z</time></trkpt><trkpt lat="43.58841812080477" lon="3.768455435680229"><ele>46.0</ele><time>2026-05-03T09:37:37.995Z</time></trkpt><trkpt lat="43.58843376897823" lon="3.768354209284483"><ele>46.0</ele><time>2026-05-03T09:37:39.995Z</time></trkpt><trkpt lat="43.58845159070614" lon="3.768247216993538"><ele>46.0</ele><time>2026-05-03T09:37:41.995Z</time></trkpt><trkpt lat="43.588463834211026" lon="3.768139974614848"><ele>46.0</ele><time>2026-05-03T09:37:43.995Z</time></trkpt><trkpt lat="43.588476556390475" lon="3.768035654560817"><ele>46.0</ele><time>2026-05-03T09:37:45.995Z</time></trkpt><trkpt lat="43.588471245267336" lon="3.7679369176386652"><ele>46.0</ele><time>2026-05-03T09:37:47.995Z</time></trkpt><trkpt lat="43.58844590787987" lon="3.767848338594237"><ele>46.0</ele><time>2026-05-03T09:37:49.995Z</time></trkpt><trkpt lat="43.58841215839042" lon="3.7677675572918727"><ele>46.0</ele><time>2026-05-03T09:37:52.995Z</time></trkpt><trkpt lat="43.588395824438614" lon="3.7676692562910663"><ele>46.333333333333336</ele><time>2026-05-03T09:37:54.995Z</time></trkpt><trkpt lat="43.588437318758544" lon="3.76758443022107"><ele>46.66666666666667</ele><time>2026-05-03T09:37:56.995Z</time></trkpt><trkpt lat="43.58848548408784" lon="3.7675060728486347"><ele>47.0</ele><time>2026-05-03T09:37:58.995Z</time></trkpt><trkpt lat="43.58852602093261" lon="3.7674231528707027"><ele>47.333333333333336</ele><time>2026-05-03T09:38:00.995Z</time></trkpt><trkpt lat="43.58850238013276" lon="3.7673075351044436"><ele>47.666666666666664</ele><time>2026-05-03T09:38:02.995Z</time></trkpt><trkpt lat="43.588490113275924" lon="3.767205607388308"><ele>48.0</ele><time>2026-05-03T09:38:04.995Z</time></trkpt><trkpt lat="43.58847528716191" lon="3.767107061903035"><ele>48.0</ele><time>2026-05-03T09:38:06.995Z</time></trkpt><trkpt lat="43.58846666259921" lon="3.7669945963309126"><ele>48.0</ele><time>2026-05-03T09:38:08.995Z</time></trkpt><trkpt lat="43.58845323605102" lon="3.7668925136043914"><ele>48.0</ele><time>2026-05-03T09:38:10.995Z</time></trkpt><trkpt lat="43.588442517481965" lon="3.76679240929542"><ele>48.0</ele><time>2026-05-03T09:38:12.995Z</time></trkpt><trkpt lat="43.58841920094513" lon="3.766677739804903"><ele>48.0</ele><time>2026-05-03T09:38:14.995Z</time></trkpt><trkpt lat="43.588387302096216" lon="3.7665804306933417"><ele>48.0</ele><time>2026-05-03T09:38:16.995Z</time></trkpt><trkpt lat="43.58837205470893" lon="3.7664741732627545"><ele>48.166666666666664</ele><time>2026-05-03T09:38:18.995Z</time></trkpt><trkpt lat="43.58835707989658" lon="3.7663663122961055"><ele>48.33333333333333</ele><time>2026-05-03T09:38:20.995Z</time></trkpt><trkpt lat="43.588355540891236" lon="3.766264967917115"><ele>48.5</ele><time>2026-05-03T09:38:22.995Z</time></trkpt><trkpt lat="43.58832222456997" lon="3.7661783451929756"><ele>48.666666666666664</ele><time>2026-05-03T09:38:24.995Z</time></trkpt><trkpt lat="43.5882966427189" lon="3.7660646030611526"><ele>48.83333333333333</ele><time>2026-05-03T09:38:26.995Z</time></trkpt><trkpt lat="43.58825849767005" lon="3.76593242033786"><ele>49.0</ele><time>2026-05-03T09:38:28.995Z</time></trkpt><trkpt lat="43.5882286179992" lon="3.765799638216302"><ele>48.99999999999999</ele><time>2026-05-03T09:38:30.995Z</time></trkpt><trkpt lat="43.58818864354824" lon="3.765690775119396"><ele>49.0</ele><time>2026-05-03T09:38:32.995Z</time></trkpt><trkpt lat="43.58815398498369" lon="3.7655809452100155"><ele>49.0</ele><time>2026-05-03T09:38:34.995Z</time></trkpt><trkpt lat="43.588107999742256" lon="3.7654676086055057"><ele>49.0</ele><time>2026-05-03T09:38:36.994Z</time></trkpt><trkpt lat="43.588064014405894" lon="3.765386978515093"><ele>48.99999999999999</ele><time>2026-05-03T09:38:38.994Z</time></trkpt><trkpt lat="43.588016168483165" lon="3.7652970937815446"><ele>49.0</ele><time>2026-05-03T09:38:40.994Z</time></trkpt><trkpt lat="43.58798133727437" lon="3.765210208732768"><ele>49.166666666666664</ele><time>2026-05-03T09:38:42.994Z</time></trkpt><trkpt lat="43.58794178348015" lon="3.7651117207481994"><ele>49.33333333333333</ele><time>2026-05-03T09:38:44.994Z</time></trkpt><trkpt lat="43.58789934124502" lon="3.7650067821032183"><ele>49.5</ele><time>2026-05-03T09:38:46.994Z</time></trkpt><trkpt lat="43.58784678643948" lon="3.7649148584547856"><ele>49.66666666666667</ele><time>2026-05-03T09:38:48.994Z</time></trkpt><trkpt lat="43.58781911577683" lon="3.7648207616685783"><ele>49.833333333333336</ele><time>2026-05-03T09:38:50.994Z</time></trkpt><trkpt lat="43.587778008054435" lon="3.7647135847401296"><ele>50.0</ele><time>2026-05-03T09:38:52.994Z</time></trkpt><trkpt lat="43.587741444692846" lon="3.7646018644792694"><ele>50.00000000000001</ele><time>2026-05-03T09:38:54.994Z</time></trkpt><trkpt lat="43.5876916019665" lon="3.764496690565321"><ele>50.0</ele><time>2026-05-03T09:38:56.994Z</time></trkpt><trkpt lat="43.58763756759841" lon="3.7644105305968654"><ele>50.0</ele><time>2026-05-03T09:38:58.994Z</time></trkpt><trkpt lat="43.58758673035213" lon="3.7643101701368433"><ele>50.0</ele><time>2026-05-03T09:39:00.994Z</time></trkpt><trkpt lat="43.587530811388696" lon="3.7642044816428895"><ele>50.00000000000001</ele><time>2026-05-03T09:39:02.994Z</time></trkpt><trkpt lat="43.58748283132913" lon="3.764114546179178"><ele>50.0</ele><time>2026-05-03T09:39:04.994Z</time></trkpt><trkpt lat="43.58744133326992" lon="3.764032770556646"><ele>50.333333333333336</ele><time>2026-05-03T09:39:06.994Z</time></trkpt><trkpt lat="43.58740537141133" lon="3.763937231775582"><ele>50.66666666666667</ele><time>2026-05-03T09:39:08.994Z</time></trkpt><trkpt lat="43.587363951622706" lon="3.7638409878998558"><ele>51.0</ele><time>2026-05-03T09:39:10.994Z</time></trkpt><trkpt lat="43.587316087227" lon="3.7637448967790985"><ele>51.33333333333333</ele><time>2026-05-03T09:39:12.994Z</time></trkpt><trkpt lat="43.58727071207007" lon="3.763641288885606"><ele>51.666666666666664</ele><time>2026-05-03T09:39:14.994Z</time></trkpt><trkpt lat="43.58722963227981" lon="3.7635464933044718"><ele>52.0</ele><time>2026-05-03T09:39:16.994Z</time></trkpt><trkpt lat="43.58718031721113" lon="3.7634407282992677"><ele>52.33333333333333</ele><time>2026-05-03T09:39:18.994Z</time></trkpt><trkpt lat="43.58713988032713" lon="3.763344951712211"><ele>52.666666666666664</ele><time>2026-05-03T09:39:20.994Z</time></trkpt><trkpt lat="43.58709977118755" lon="3.763247544668049"><ele>53.0</ele><time>2026-05-03T09:39:22.994Z</time></trkpt><trkpt lat="43.58705949820138" lon="3.76314281171834"><ele>53.33333333333333</ele><time>2026-05-03T09:39:24.994Z</time></trkpt><trkpt lat="43.587081507987975" lon="3.7630303396755074"><ele>53.666666666666664</ele><time>2026-05-03T09:39:26.994Z</time></trkpt><trkpt lat="43.587063824542895" lon="3.762928238024788"><ele>54.0</ele><time>2026-05-03T09:39:28.994Z</time></trkpt><trkpt lat="43.587029729328535" lon="3.762814033095992"><ele>53.2</ele><time>2026-05-03T09:39:30.994Z</time></trkpt><trkpt lat="43.586978056617134" lon="3.7627094835138837"><ele>52.400000000000006</ele><time>2026-05-03T09:39:32.994Z</time></trkpt><trkpt lat="43.58690928422488" lon="3.7626150962002023"><ele>51.6</ele><time>2026-05-03T09:39:34.994Z</time></trkpt><trkpt lat="43.586850150677634" lon="3.7625243119075535"><ele>50.8</ele><time>2026-05-03T09:39:36.994Z</time></trkpt><trkpt lat="43.586799747004356" lon="3.762421640283241"><ele>50.0</ele><time>2026-05-03T09:39:38.994Z</time></trkpt><trkpt lat="43.58673809054594" lon="3.7623095363260775"><ele>50.0</ele><time>2026-05-03T09:39:40.994Z</time></trkpt><trkpt lat="43.58668825624379" lon="3.7622001667016858"><ele>50.0</ele><time>2026-05-03T09:39:42.994Z</time></trkpt><trkpt lat="43.58663580907598" lon="3.7620868347188248"><ele>50.0</ele><time>2026-05-03T09:39:44.994Z</time></trkpt><trkpt lat="43.58658547827512" lon="3.761970280856087"><ele>50.0</ele><time>2026-05-03T09:39:46.993Z</time></trkpt><trkpt lat="43.58652483662371" lon="3.761860523718386"><ele>50.0</ele><time>2026-05-03T09:39:48.993Z</time></trkpt><trkpt lat="43.58647211530978" lon="3.7617505368934854"><ele>50.6</ele><time>2026-05-03T09:39:50.993Z</time></trkpt><trkpt lat="43.58640782119529" lon="3.761647492900302"><ele>51.2</ele><time>2026-05-03T09:39:52.993Z</time></trkpt><trkpt lat="43.586351257369735" lon="3.761534132002547"><ele>51.8</ele><time>2026-05-03T09:39:54.993Z</time></trkpt><trkpt lat="43.58630469039248" lon="3.7614062038639635"><ele>52.4</ele><time>2026-05-03T09:39:56.993Z</time></trkpt><trkpt lat="43.58625263062133" lon="3.7612986757595905"><ele>53.0</ele><time>2026-05-03T09:39:58.993Z</time></trkpt><trkpt lat="43.586209834227205" lon="3.761187243838072"><ele>52.833333333333336</ele><time>2026-05-03T09:40:00.993Z</time></trkpt><trkpt lat="43.58616715015077" lon="3.761073600735567"><ele>52.66666666666667</ele><time>2026-05-03T09:40:02.993Z</time></trkpt><trkpt lat="43.58612021615518" lon="3.760972156747799"><ele>52.5</ele><time>2026-05-03T09:40:04.993Z</time></trkpt><trkpt lat="43.58606753938427" lon="3.760861378990628"><ele>52.33333333333333</ele><time>2026-05-03T09:40:06.993Z</time></trkpt><trkpt lat="43.58602364346307" lon="3.7607628280501677"><ele>52.166666666666664</ele><time>2026-05-03T09:40:08.993Z</time></trkpt><trkpt lat="43.58598239250527" lon="3.760658339593211"><ele>52.0</ele><time>2026-05-03T09:40:10.993Z</time></trkpt><trkpt lat="43.58593098720434" lon="3.760558861545647"><ele>51.99999999999999</ele><time>2026-05-03T09:40:12.993Z</time></trkpt><trkpt lat="43.585889926091404" lon="3.7604604182322934"><ele>52.0</ele><time>2026-05-03T09:40:14.993Z</time></trkpt><trkpt lat="43.58585239832289" lon="3.760362892193217"><ele>52.0</ele><time>2026-05-03T09:40:16.993Z</time></trkpt><trkpt lat="43.585817287312" lon="3.7602642492394933"><ele>52.0</ele><time>2026-05-03T09:40:18.993Z</time></trkpt><trkpt lat="43.58583106900516" lon="3.7601611571664395"><ele>51.99999999999999</ele><time>2026-05-03T09:40:20.993Z</time></trkpt><trkpt lat="43.585816656954336" lon="3.760057003103587"><ele>52.0</ele><time>2026-05-03T09:40:22.993Z</time></trkpt><trkpt lat="43.585743169412396" lon="3.7599721971159257"><ele>52.33333333333333</ele><time>2026-05-03T09:40:24.993Z</time></trkpt><trkpt lat="43.585674877385564" lon="3.7598692770062683"><ele>52.666666666666664</ele><time>2026-05-03T09:40:26.993Z</time></trkpt><trkpt lat="43.58562831435332" lon="3.7597511664420797"><ele>53.0</ele><time>2026-05-03T09:40:28.993Z</time></trkpt><trkpt lat="43.58556171871156" lon="3.7596711749508676"><ele>53.33333333333333</ele><time>2026-05-03T09:40:30.993Z</time></trkpt><trkpt lat="43.58556013052002" lon="3.7595820179522823"><ele>53.666666666666664</ele><time>2026-05-03T09:40:33.993Z</time></trkpt><trkpt lat="43.585508363574725" lon="3.7595293534722125"><ele>54.0</ele><time>2026-05-03T09:40:35.993Z</time></trkpt><trkpt lat="43.58544312099633" lon="3.7594205446029747"><ele>53.857142857142854</ele><time>2026-05-03T09:40:38.993Z</time></trkpt><trkpt lat="43.58540341094532" lon="3.759337626311051"><ele>53.71428571428571</ele><time>2026-05-03T09:40:40.993Z</time></trkpt><trkpt lat="43.58537430095392" lon="3.7592571882383994"><ele>53.57142857142857</ele><time>2026-05-03T09:40:42.993Z</time></trkpt><trkpt lat="43.585333155357866" lon="3.7591549622819085"><ele>53.42857142857143</ele><time>2026-05-03T09:40:44.993Z</time></trkpt><trkpt lat="43.585294449426605" lon="3.759069580683313"><ele>53.285714285714285</ele><time>2026-05-03T09:40:46.993Z</time></trkpt><trkpt lat="43.58525307121926" lon="3.7589813847580267"><ele>53.142857142857146</ele><time>2026-05-03T09:40:48.993Z</time></trkpt><trkpt lat="43.58520711583684" lon="3.7589033094227373"><ele>53.0</ele><time>2026-05-03T09:40:50.993Z</time></trkpt><trkpt lat="43.585207682870106" lon="3.758802987129697"><ele>53.00000000000001</ele><time>2026-05-03T09:40:52.993Z</time></trkpt><trkpt lat="43.585187032797926" lon="3.7587007920295687"><ele>53.0</ele><time>2026-05-03T09:40:54.992Z</time></trkpt><trkpt lat="43.5851290149613" lon="3.7586230860847043"><ele>53.0</ele><time>2026-05-03T09:40:56.992Z</time></trkpt><trkpt lat="43.58507107730579" lon="3.7585383971567365"><ele>53.0</ele><time>2026-05-03T09:40:58.992Z</time></trkpt><trkpt lat="43.585022150933405" lon="3.7584503182140585"><ele>53.00000000000001</ele><time>2026-05-03T09:41:00.992Z</time></trkpt><trkpt lat="43.58496680758228" lon="3.758359895197245"><ele>53.0</ele><time>2026-05-03T09:41:02.992Z</time></trkpt><trkpt lat="43.584921005827404" lon="3.758264655331333"><ele>53.333333333333336</ele><time>2026-05-03T09:41:04.992Z</time></trkpt><trkpt lat="43.584879806797574" lon="3.7581576158333094"><ele>53.66666666666667</ele><time>2026-05-03T09:41:06.992Z</time></trkpt><trkpt lat="43.58484568156345" lon="3.7580698775456116"><ele>54.0</ele><time>2026-05-03T09:41:08.992Z</time></trkpt><trkpt lat="43.58479845143444" lon="3.757971705577587"><ele>54.33333333333333</ele><time>2026-05-03T09:41:10.992Z</time></trkpt><trkpt lat="43.584758597180254" lon="3.7578619750583058"><ele>54.666666666666664</ele><time>2026-05-03T09:41:12.992Z</time></trkpt><trkpt lat="43.58477063198046" lon="3.757756819284501"><ele>55.0</ele><time>2026-05-03T09:41:14.992Z</time></trkpt><trkpt lat="43.58475334946877" lon="3.7576268291618047"><ele>55.2</ele><time>2026-05-03T09:41:16.992Z</time></trkpt><trkpt lat="43.5846629078488" lon="3.757557438242289"><ele>55.4</ele><time>2026-05-03T09:41:18.992Z</time></trkpt><trkpt lat="43.5845765210249" lon="3.757480123947041"><ele>55.599999999999994</ele><time>2026-05-03T09:41:20.992Z</time></trkpt><trkpt lat="43.58453258202302" lon="3.7573740934790525"><ele>55.8</ele><time>2026-05-03T09:41:22.992Z</time></trkpt><trkpt lat="43.58448415558977" lon="3.75727139304252"><ele>56.0</ele><time>2026-05-03T09:41:24.992Z</time></trkpt><trkpt lat="43.58442929069442" lon="3.7571604695530914"><ele>55.66666666666667</ele><time>2026-05-03T09:41:26.992Z</time></trkpt><trkpt lat="43.584390591035124" lon="3.757043765174611"><ele>55.333333333333336</ele><time>2026-05-03T09:41:28.992Z</time></trkpt><trkpt lat="43.584350954284886" lon="3.7569425386589965"><ele>55.0</ele><time>2026-05-03T09:41:30.992Z</time></trkpt><trkpt lat="43.58430788387801" lon="3.756836329512331"><ele>54.66666666666667</ele><time>2026-05-03T09:41:32.992Z</time></trkpt><trkpt lat="43.584266737802004" lon="3.75674456824518"><ele>54.333333333333336</ele><time>2026-05-03T09:41:34.992Z</time></trkpt><trkpt lat="43.584218670587305" lon="3.756646349812934"><ele>54.0</ele><time>2026-05-03T09:41:36.992Z</time></trkpt><trkpt lat="43.58416616129525" lon="3.756565129352754"><ele>54.0</ele><time>2026-05-03T09:41:38.992Z</time></trkpt><trkpt lat="43.58412622004928" lon="3.7564751571777437"><ele>54.0</ele><time>2026-05-03T09:41:40.992Z</time></trkpt><trkpt lat="43.58408780705278" lon="3.7563714779514616"><ele>54.0</ele><time>2026-05-03T09:41:42.992Z</time></trkpt><trkpt lat="43.5840547540859" lon="3.756271249014121"><ele>54.0</ele><time>2026-05-03T09:41:44.992Z</time></trkpt><trkpt lat="43.58401222086961" lon="3.756181380844405"><ele>54.0</ele><time>2026-05-03T09:41:46.992Z</time></trkpt><trkpt lat="43.58396962618044" lon="3.756098342664922"><ele>54.0</ele><time>2026-05-03T09:41:48.992Z</time></trkpt><trkpt lat="43.58393867567551" lon="3.756007387353219"><ele>54.0</ele><time>2026-05-03T09:41:50.992Z</time></trkpt><trkpt lat="43.58390243081577" lon="3.7558937267551387"><ele>54.0</ele><time>2026-05-03T09:41:52.992Z</time></trkpt><trkpt lat="43.583853014592094" lon="3.755785021965262"><ele>54.0</ele><time>2026-05-03T09:41:54.992Z</time></trkpt><trkpt lat="43.58381212695349" lon="3.7556872338766114"><ele>54.0</ele><time>2026-05-03T09:41:56.992Z</time></trkpt><trkpt lat="43.583772216736456" lon="3.755593607694762"><ele>54.0</ele><time>2026-05-03T09:41:58.992Z</time></trkpt><trkpt lat="43.583719816993835" lon="3.7554894199819517"><ele>54.0</ele><time>2026-05-03T09:42:00.992Z</time></trkpt><trkpt lat="43.58366562028584" lon="3.755386814101048"><ele>53.833333333333336</ele><time>2026-05-03T09:42:02.992Z</time></trkpt><trkpt lat="43.58363422972122" lon="3.7552918083132454"><ele>53.66666666666667</ele><time>2026-05-03T09:42:04.991Z</time></trkpt><trkpt lat="43.583592471099436" lon="3.7551961928001365"><ele>53.5</ele><time>2026-05-03T09:42:06.991Z</time></trkpt><trkpt lat="43.583537523606935" lon="3.7551175036284885"><ele>53.333333333333336</ele><time>2026-05-03T09:42:08.991Z</time></trkpt><trkpt lat="43.58349747566414" lon="3.7550032737793586"><ele>53.16666666666667</ele><time>2026-05-03T09:42:10.991Z</time></trkpt><trkpt lat="43.58344398564981" lon="3.754890580584937"><ele>53.0</ele><time>2026-05-03T09:42:12.991Z</time></trkpt><trkpt lat="43.583403474153144" lon="3.75478123864959"><ele>53.0</ele><time>2026-05-03T09:42:14.991Z</time></trkpt><trkpt lat="43.583341400021986" lon="3.7546316489900904"><ele>53.0</ele><time>2026-05-03T09:42:17.991Z</time></trkpt><trkpt lat="43.583280115915606" lon="3.754503966837444"><ele>53.0</ele><time>2026-05-03T09:42:19.991Z</time></trkpt><trkpt lat="43.58322787296357" lon="3.7543972916157062"><ele>53.0</ele><time>2026-05-03T09:42:21.991Z</time></trkpt><trkpt lat="43.58317247704591" lon="3.7542874305430733"><ele>53.0</ele><time>2026-05-03T09:42:23.991Z</time></trkpt><trkpt lat="43.58311541672333" lon="3.7541726654547154"><ele>53.4</ele><time>2026-05-03T09:42:25.991Z</time></trkpt><trkpt lat="43.58307107601078" lon="3.754042252554087"><ele>53.8</ele><time>2026-05-03T09:42:27.991Z</time></trkpt><trkpt lat="43.58300837646724" lon="3.7539199653701227"><ele>54.2</ele><time>2026-05-03T09:42:29.991Z</time></trkpt><trkpt lat="43.582955464202094" lon="3.7537969408298504"><ele>54.6</ele><time>2026-05-03T09:42:31.991Z</time></trkpt><trkpt lat="43.58290324571263" lon="3.753674113983772"><ele>55.0</ele><time>2026-05-03T09:42:33.991Z</time></trkpt><trkpt lat="43.5828510963217" lon="3.7535534543591176"><ele>54.8</ele><time>2026-05-03T09:42:35.991Z</time></trkpt><trkpt lat="43.58279380073945" lon="3.753421025812253"><ele>54.6</ele><time>2026-05-03T09:42:37.991Z</time></trkpt><trkpt lat="43.5827347470791" lon="3.753288184695545"><ele>54.400000000000006</ele><time>2026-05-03T09:42:39.991Z</time></trkpt><trkpt lat="43.58268110873706" lon="3.7531671813068663"><ele>54.2</ele><time>2026-05-03T09:42:41.991Z</time></trkpt><trkpt lat="43.58262512966852" lon="3.7530451568333554"><ele>54.0</ele><time>2026-05-03T09:42:43.991Z</time></trkpt><trkpt lat="43.58258500980269" lon="3.7529188911799234"><ele>54.0</ele><time>2026-05-03T09:42:45.991Z</time></trkpt><trkpt lat="43.582519807016574" lon="3.752798200978023"><ele>54.00000000000001</ele><time>2026-05-03T09:42:47.991Z</time></trkpt><trkpt lat="43.58246117433049" lon="3.752662815117543"><ele>54.00000000000001</ele><time>2026-05-03T09:42:49.991Z</time></trkpt><trkpt lat="43.58242974380328" lon="3.752583633325935"><ele>54.0</ele><time>2026-05-03T09:42:50.991Z</time></trkpt><trkpt lat="43.58237284720435" lon="3.7524460296234237"><ele>54.0</ele><time>2026-05-03T09:42:52.991Z</time></trkpt><trkpt lat="43.58232960865591" lon="3.752320054687504"><ele>54.400000000000006</ele><time>2026-05-03T09:42:54.991Z</time></trkpt><trkpt lat="43.58226048531579" lon="3.7522008866535197"><ele>54.800000000000004</ele><time>2026-05-03T09:42:56.991Z</time></trkpt><trkpt lat="43.582223380815115" lon="3.75211638649042"><ele>55.199999999999996</ele><time>2026-05-03T09:42:57.991Z</time></trkpt><trkpt lat="43.58216235388712" lon="3.7519891427064334"><ele>55.599999999999994</ele><time>2026-05-03T09:42:59.991Z</time></trkpt><trkpt lat="43.58210086748552" lon="3.751859090454825"><ele>56.0</ele><time>2026-05-03T09:43:01.991Z</time></trkpt><trkpt lat="43.58203647423121" lon="3.7517210705396056"><ele>56.199999999999996</ele><time>2026-05-03T09:43:03.991Z</time></trkpt><trkpt lat="43.58198923377418" lon="3.751585745462759"><ele>56.39999999999999</ele><time>2026-05-03T09:43:05.991Z</time></trkpt><trkpt lat="43.5819374718219" lon="3.7514668051393154"><ele>56.6</ele><time>2026-05-03T09:43:07.991Z</time></trkpt><trkpt lat="43.58189010496806" lon="3.7513425142018746"><ele>56.8</ele><time>2026-05-03T09:43:09.991Z</time></trkpt><trkpt lat="43.58184100996126" lon="3.751228356521405"><ele>57.0</ele><time>2026-05-03T09:43:11.991Z</time></trkpt><trkpt lat="43.581783753705665" lon="3.751132704089619"><ele>57.6</ele><time>2026-05-03T09:43:13.991Z</time></trkpt><trkpt lat="43.581748332255174" lon="3.751020415384759"><ele>58.2</ele><time>2026-05-03T09:43:15.99Z</time></trkpt><trkpt lat="43.58169037608706" lon="3.750926362562204"><ele>58.8</ele><time>2026-05-03T09:43:17.99Z</time></trkpt><trkpt lat="43.58164027569103" lon="3.7508138032059377"><ele>59.4</ele><time>2026-05-03T09:43:19.99Z</time></trkpt><trkpt lat="43.58158060714078" lon="3.7506872700766998"><ele>60.0</ele><time>2026-05-03T09:43:22.99Z</time></trkpt><trkpt lat="43.58152815904706" lon="3.7505900765346243"><ele>60.0</ele><time>2026-05-03T09:43:25.99Z</time></trkpt><trkpt lat="43.581503219527875" lon="3.7504997048808284"><ele>60.0</ele><time>2026-05-03T09:43:27.99Z</time></trkpt><trkpt lat="43.58146797892871" lon="3.750424575516028"><ele>60.0</ele><time>2026-05-03T09:43:29.99Z</time></trkpt><trkpt lat="43.58143975239694" lon="3.7503354100338666"><ele>60.0</ele><time>2026-05-03T09:43:31.99Z</time></trkpt><trkpt lat="43.58139776281454" lon="3.7502598923910875"><ele>60.0</ele><time>2026-05-03T09:43:33.99Z</time></trkpt><trkpt lat="43.58135046997251" lon="3.7501751125606226"><ele>60.0</ele><time>2026-05-03T09:43:35.99Z</time></trkpt><trkpt lat="43.581287515653834" lon="3.7501289420148662"><ele>60.0</ele><time>2026-05-03T09:43:37.99Z</time></trkpt><trkpt lat="43.58123945401585" lon="3.7500530662350298"><ele>60.33333333333333</ele><time>2026-05-03T09:43:40.99Z</time></trkpt><trkpt lat="43.581192362803826" lon="3.749968738017405"><ele>60.666666666666664</ele><time>2026-05-03T09:43:43.99Z</time></trkpt><trkpt lat="43.5811193103071" lon="3.749950902593232"><ele>61.0</ele><time>2026-05-03T09:43:47.99Z</time></trkpt><trkpt lat="43.619402943468344" lon="3.7829431027066214"><ele>64.6</ele><time>2026-05-03T09:03:13.999Z</time></trkpt><trkpt lat="43.619347748212995" lon="3.7830353810574016"><ele>68.19999999999999</ele><time>2026-05-03T09:03:15.999Z</time></trkpt><trkpt lat="43.61936005143991" lon="3.7831634196387127"><ele>71.80000000000001</ele><time>2026-05-03T09:03:17.999Z</time></trkpt><trkpt lat="43.61932923774735" lon="3.783289326248506"><ele>75.4</ele><time>2026-05-03T09:03:19.999Z</time></trkpt><trkpt lat="43.619242795778945" lon="3.7833580524119137"><ele>79.0</ele><time>2026-05-03T09:03:21.999Z</time></trkpt><trkpt lat="43.61918777978713" lon="3.7834476222005864"><ele>78.0</ele><time>2026-05-03T09:03:23.999Z</time></trkpt><trkpt lat="43.61915600577849" lon="3.7835533993952564"><ele>77.0</ele><time>2026-05-03T09:03:25.999Z</time></trkpt><trkpt lat="43.619128582623816" lon="3.783658944162535"><ele>76.0</ele><time>2026-05-03T09:03:27.999Z</time></trkpt><trkpt lat="43.619090583728806" lon="3.783764078329856"><ele>75.0</ele><time>2026-05-03T09:03:29.999Z</time></trkpt><trkpt lat="43.619045767323954" lon="3.783961131544061"><ele>74.0</ele><time>2026-05-03T09:03:33.999Z</time></trkpt><trkpt lat="43.61898353205169" lon="3.7840430632563677"><ele>74.0</ele><time>2026-05-03T09:03:35.999Z</time></trkpt><trkpt lat="43.61893808552435" lon="3.7841254490159013"><ele>74.0</ele><time>2026-05-03T09:03:37.999Z</time></trkpt><trkpt lat="43.61890404628605" lon="3.7841998847918563"><ele>74.0</ele><time>2026-05-03T09:03:39.999Z</time></trkpt><trkpt lat="43.61882045108512" lon="3.784254497087013"><ele>74.0</ele><time>2026-05-03T09:03:42.999Z</time></trkpt><trkpt lat="43.61874231717194" lon="3.7843041132063875"><ele>74.0</ele><time>2026-05-03T09:03:44.999Z</time></trkpt><trkpt lat="43.61866005543925" lon="3.784327088032534"><ele>74.0</ele><time>2026-05-03T09:03:46.999Z</time></trkpt><trkpt lat="43.61858795269591" lon="3.7843179817625425"><ele>73.8</ele><time>2026-05-03T09:03:48.999Z</time></trkpt><trkpt lat="43.61849979593354" lon="3.784272543207722"><ele>73.60000000000001</ele><time>2026-05-03T09:03:50.999Z</time></trkpt><trkpt lat="43.61842835278281" lon="3.784064110569442"><ele>73.4</ele><time>2026-05-03T09:03:54.999Z</time></trkpt><trkpt lat="43.618405031760496" lon="3.7839497525248915"><ele>73.2</ele><time>2026-05-03T09:03:56.999Z</time></trkpt><trkpt lat="43.61837128585777" lon="3.783839954313818"><ele>73.0</ele><time>2026-05-03T09:03:58.999Z</time></trkpt><trkpt lat="43.61835334312418" lon="3.7837098159373577"><ele>73.0</ele><time>2026-05-03T09:04:00.999Z</time></trkpt><trkpt lat="43.61833309715447" lon="3.7835970672323507"><ele>73.0</ele><time>2026-05-03T09:04:02.999Z</time></trkpt><trkpt lat="43.61828126176157" lon="3.783501858362073"><ele>73.0</ele><time>2026-05-03T09:04:04.999Z</time></trkpt><trkpt lat="43.618293323861636" lon="3.78340420410293"><ele>73.0</ele><time>2026-05-03T09:04:06.999Z</time></trkpt><trkpt lat="43.618322174968704" lon="3.78330114129281"><ele>73.0</ele><time>2026-05-03T09:04:08.999Z</time></trkpt><trkpt lat="43.61835644957948" lon="3.7832002348018507"><ele>73.0</ele><time>2026-05-03T09:04:10.999Z</time></trkpt><trkpt lat="43.618406821838946" lon="3.7831148412742266"><ele>73.8</ele><time>2026-05-03T09:04:12.999Z</time></trkpt><trkpt lat="43.618513946389534" lon="3.7829153542802008"><ele>74.6</ele><time>2026-05-03T09:04:16.999Z</time></trkpt><trkpt lat="43.61852948845081" lon="3.782808287243551"><ele>75.4</ele><time>2026-05-03T09:04:18.999Z</time></trkpt><trkpt lat="43.618539974832636" lon="3.7826986199033192"><ele>76.2</ele><time>2026-05-03T09:04:20.999Z</time></trkpt><trkpt lat="43.618542326060876" lon="3.7825968966572"><ele>77.0</ele><time>2026-05-03T09:04:22.999Z</time></trkpt><trkpt lat="43.61854833757013" lon="3.782469657201024"><ele>77.16666666666667</ele><time>2026-05-03T09:04:25.998Z</time></trkpt><trkpt lat="43.6185468792606" lon="3.7823618854682617"><ele>77.33333333333334</ele><time>2026-05-03T09:04:27.998Z</time></trkpt><trkpt lat="43.61859601030855" lon="3.7822972059904565"><ele>77.5</ele><time>2026-05-03T09:04:29.998Z</time></trkpt><trkpt lat="43.61865063683492" lon="3.7822280489497904"><ele>77.66666666666667</ele><time>2026-05-03T09:04:31.998Z</time></trkpt><trkpt lat="43.61865830172408" lon="3.7821411752775886"><ele>77.83333333333333</ele><time>2026-05-03T09:04:33.998Z</time></trkpt><trkpt lat="43.61868320924192" lon="3.7819346981705655"><ele>78.0</ele><time>2026-05-03T09:04:38.998Z</time></trkpt><trkpt lat="43.61870820076466" lon="3.7818181514500138"><ele>78.85714285714286</ele><time>2026-05-03T09:04:41.998Z</time></trkpt><trkpt lat="43.61873208179775" lon="3.781730602881002"><ele>79.71428571428571</ele><time>2026-05-03T09:04:43.998Z</time></trkpt><trkpt lat="43.61880781878982" lon="3.7816424746046615"><ele>80.57142857142857</ele><time>2026-05-03T09:04:46.998Z</time></trkpt><trkpt lat="43.618850374882584" lon="3.7815733254592145"><ele>81.42857142857143</ele><time>2026-05-03T09:04:48.998Z</time></trkpt><trkpt lat="43.61889774797793" lon="3.7815099101611014"><ele>82.28571428571428</ele><time>2026-05-03T09:04:50.998Z</time></trkpt><trkpt lat="43.6189275976769" lon="3.781422776651447"><ele>83.14285714285714</ele><time>2026-05-03T09:04:53.998Z</time></trkpt><trkpt lat="43.61891196856911" lon="3.7813194192741357"><ele>84.0</ele><time>2026-05-03T09:04:56.998Z</time></trkpt><trkpt lat="43.619017305519414" lon="3.7811679721849405"><ele>84.0</ele><time>2026-05-03T09:05:01.998Z</time></trkpt><trkpt lat="43.619063615039316" lon="3.7810977756830635"><ele>84.0</ele><time>2026-05-03T09:05:03.998Z</time></trkpt><trkpt lat="43.619142697105445" lon="3.781069217274665"><ele>84.0</ele><time>2026-05-03T09:05:06.998Z</time></trkpt><trkpt lat="43.61919527424038" lon="3.7810046529664194"><ele>84.0</ele><time>2026-05-03T09:05:10Z</time></trkpt><trkpt lat="43.61924987942698" lon="3.780928190888057"><ele>84.0</ele><time>2026-05-03T09:05:12Z</time></trkpt><trkpt lat="43.619244014231626" lon="3.780818070380339"><ele>84.0</ele><time>2026-05-03T09:05:13.999Z</time></trkpt><trkpt lat="43.619264308763164" lon="3.7807324669661906"><ele>84.0</ele><time>2026-05-03T09:05:16Z</time></trkpt><trkpt lat="43.61926050880625" lon="3.7806397967483116"><ele>83.66666666666667</ele><time>2026-05-03T09:05:18Z</time></trkpt><trkpt lat="43.61929602626751" lon="3.7804493537579895"><ele>83.33333333333333</ele><time>2026-05-03T09:05:22Z</time></trkpt><trkpt lat="43.619322312791844" lon="3.7803580460626454"><ele>83.0</ele><time>2026-05-03T09:05:24Z</time></trkpt><trkpt lat="43.61933587489627" lon="3.7802582109503673"><ele>82.66666666666666</ele><time>2026-05-03T09:05:26Z</time></trkpt><trkpt lat="43.61936414733375" lon="3.780168482883794"><ele>82.33333333333333</ele><time>2026-05-03T09:05:28Z</time></trkpt><trkpt lat="43.619368887388255" lon="3.78005442213371"><ele>82.0</ele><time>2026-05-03T09:05:30Z</time></trkpt><trkpt lat="43.61939302262065" lon="3.779957724774827"><ele>81.8</ele><time>2026-05-03T09:05:32Z</time></trkpt><trkpt lat="43.61940648097838" lon="3.7798575625838673"><ele>81.6</ele><time>2026-05-03T09:05:34Z</time></trkpt><trkpt lat="43.61940330030323" lon="3.7797638482818927"><ele>81.39999999999999</ele><time>2026-05-03T09:05:36Z</time></trkpt><trkpt lat="43.61940100701402" lon="3.779667016029832"><ele>81.19999999999999</ele><time>2026-05-03T09:05:38Z</time></trkpt><trkpt lat="43.61942982463704" lon="3.779549277864674"><ele>81.0</ele><time>2026-05-03T09:05:41Z</time></trkpt><trkpt lat="43.619501682312276" lon="3.779324089616612"><ele>82.33333333333333</ele><time>2026-05-03T09:05:46.999Z</time></trkpt><trkpt lat="43.61952733963681" lon="3.7791915766228175"><ele>83.66666666666667</ele><time>2026-05-03T09:05:49.999Z</time></trkpt><trkpt lat="43.61953686484861" lon="3.7790619854733682"><ele>85.0</ele><time>2026-05-03T09:05:52.999Z</time></trkpt><trkpt lat="43.61957751336455" lon="3.7789552354786813"><ele>86.33333333333334</ele><time>2026-05-03T09:05:55.999Z</time></trkpt><trkpt lat="43.619616782217825" lon="3.778868946733969"><ele>87.66666666666667</ele><time>2026-05-03T09:05:57.999Z</time></trkpt><trkpt lat="43.61965520977126" lon="3.778763101492905"><ele>89.0</ele><time>2026-05-03T09:06:00.999Z</time></trkpt><trkpt lat="43.6196828981123" lon="3.77865398165017"><ele>88.80000000000001</ele><time>2026-05-03T09:06:03.999Z</time></trkpt><trkpt lat="43.61974851573563" lon="3.778443123445699"><ele>88.60000000000001</ele><time>2026-05-03T09:06:08.999Z</time></trkpt><trkpt lat="43.61976144081521" lon="3.7783423834165477"><ele>88.4</ele><time>2026-05-03T09:06:10.999Z</time></trkpt><trkpt lat="43.61973508327001" lon="3.7782591751414936"><ele>88.2</ele><time>2026-05-03T09:06:12.999Z</time></trkpt><trkpt lat="43.61965381891107" lon="3.778216146467303"><ele>88.0</ele><time>2026-05-03T09:06:14.999Z</time></trkpt><trkpt lat="43.61959556298536" lon="3.778137413697266"><ele>88.0</ele><time>2026-05-03T09:06:16.999Z</time></trkpt><trkpt lat="43.6195378454315" lon="3.778032252024243"><ele>88.0</ele><time>2026-05-03T09:06:17.999Z</time></trkpt><trkpt lat="43.61950329834893" lon="3.7779390535455546"><ele>88.0</ele><time>2026-05-03T09:06:18.999Z</time></trkpt><trkpt lat="43.61945504504581" lon="3.7778635046520734"><ele>88.0</ele><time>2026-05-03T09:06:19.999Z</time></trkpt><trkpt lat="43.619368528012345" lon="3.7778425652256162"><ele>88.0</ele><time>2026-05-03T09:06:21.999Z</time></trkpt><trkpt lat="43.61929313668043" lon="3.77792938395225"><ele>88.0</ele><time>2026-05-03T09:06:23.999Z</time></trkpt><trkpt lat="43.61923003759872" lon="3.778018561675077"><ele>87.2</ele><time>2026-05-03T09:06:25.999Z</time></trkpt><trkpt lat="43.61911890892178" lon="3.7781610092436346"><ele>86.4</ele><time>2026-05-03T09:06:29.999Z</time></trkpt><trkpt lat="43.619051323527025" lon="3.77822948639681"><ele>85.60000000000001</ele><time>2026-05-03T09:06:31.999Z</time></trkpt><trkpt lat="43.61898297542041" lon="3.7783019719840225"><ele>84.80000000000001</ele><time>2026-05-03T09:06:33.999Z</time></trkpt><trkpt lat="43.618920788569476" lon="3.778381671097306"><ele>84.0</ele><time>2026-05-03T09:06:35.999Z</time></trkpt><trkpt lat="43.61885601927185" lon="3.7784503820259427"><ele>84.0</ele><time>2026-05-03T09:06:37.999Z</time></trkpt><trkpt lat="43.61879092773349" lon="3.7785165346234755"><ele>84.0</ele><time>2026-05-03T09:06:39.999Z</time></trkpt><trkpt lat="43.61871464923617" lon="3.7785667327722585"><ele>84.0</ele><time>2026-05-03T09:06:41.999Z</time></trkpt><trkpt lat="43.61864263884448" lon="3.7786122319751434"><ele>84.0</ele><time>2026-05-03T09:06:43.999Z</time></trkpt><trkpt lat="43.61857409922011" lon="3.7786467436890296"><ele>84.0</ele><time>2026-05-03T09:06:45.999Z</time></trkpt><trkpt lat="43.61851515278188" lon="3.7786901857912167"><ele>84.0</ele><time>2026-05-03T09:06:47.999Z</time></trkpt><trkpt lat="43.61854101055157" lon="3.7789078208180356"><ele>84.0</ele><time>2026-05-03T09:06:51.998Z</time></trkpt><trkpt lat="43.618541985805784" lon="3.779029899474552"><ele>84.0</ele><time>2026-05-03T09:06:53.998Z</time></trkpt><trkpt lat="43.6185280871863" lon="3.7791709097243626"><ele>84.0</ele><time>2026-05-03T09:06:55.998Z</time></trkpt><trkpt lat="43.61851880917732" lon="3.7792582798630465"><ele>84.0</ele><time>2026-05-03T09:06:56.998Z</time></trkpt><trkpt lat="43.61850348675451" lon="3.7793993224249545"><ele>84.0</ele><time>2026-05-03T09:06:58.998Z</time></trkpt><trkpt lat="43.61847710959865" lon="3.7795558471011863"><ele>84.0</ele><time>2026-05-03T09:07:00.998Z</time></trkpt><trkpt lat="43.61847174401997" lon="3.779709655471045"><ele>84.0</ele><time>2026-05-03T09:07:02.998Z</time></trkpt><trkpt lat="43.61842778058494" lon="3.779863645978904"><ele>84.0</ele><time>2026-05-03T09:07:04.998Z</time></trkpt><trkpt lat="43.61836905979461" lon="3.7799939545922725"><ele>84.0</ele><time>2026-05-03T09:07:06.998Z</time></trkpt><trkpt lat="43.61833177418617" lon="3.7801519218656368"><ele>83.5</ele><time>2026-05-03T09:07:08.998Z</time></trkpt><trkpt lat="43.618244800053915" lon="3.7803683563125667"><ele>83.0</ele><time>2026-05-03T09:07:11.998Z</time></trkpt><trkpt lat="43.618153197754644" lon="3.7804316305247037"><ele>82.5</ele><time>2026-05-03T09:07:13.998Z</time></trkpt><trkpt lat="43.618078721055035" lon="3.7805258291160175"><ele>82.0</ele><time>2026-05-03T09:07:16Z</time></trkpt><trkpt lat="43.617988280913785" lon="3.7806192871618194"><ele>82.0</ele><time>2026-05-03T09:07:18Z</time></trkpt><trkpt lat="43.61791404139048" lon="3.780701739481438"><ele>82.0</ele><time>2026-05-03T09:07:20Z</time></trkpt><trkpt lat="43.61782682903793" lon="3.780777770306882"><ele>82.0</ele><time>2026-05-03T09:07:22Z</time></trkpt><trkpt lat="43.61774596578812" lon="3.780882792686315"><ele>82.0</ele><time>2026-05-03T09:07:24Z</time></trkpt><trkpt lat="43.6176863865194" lon="3.7810106653314284"><ele>82.0</ele><time>2026-05-03T09:07:26Z</time></trkpt><trkpt lat="43.61762387053795" lon="3.7811517564018216"><ele>82.66666666666666</ele><time>2026-05-03T09:07:28Z</time></trkpt><trkpt lat="43.61757644835785" lon="3.781282652347809"><ele>83.33333333333333</ele><time>2026-05-03T09:07:30Z</time></trkpt><trkpt lat="43.61748467845403" lon="3.781608215778262"><ele>84.0</ele><time>2026-05-03T09:07:34Z</time></trkpt><trkpt lat="43.61744366724957" lon="3.7817709864800917"><ele>83.2</ele><time>2026-05-03T09:07:36Z</time></trkpt><trkpt lat="43.61740308829072" lon="3.7819405743581687"><ele>82.4</ele><time>2026-05-03T09:07:38Z</time></trkpt><trkpt lat="43.617385779662406" lon="3.7820321610155503"><ele>81.6</ele><time>2026-05-03T09:07:39Z</time></trkpt><trkpt lat="43.61734996793648" lon="3.7821953314292864"><ele>80.8</ele><time>2026-05-03T09:07:41Z</time></trkpt><trkpt lat="43.61731333092477" lon="3.7823631191953555"><ele>80.0</ele><time>2026-05-03T09:07:43Z</time></trkpt><trkpt lat="43.61727452099" lon="3.782518495692878"><ele>80.0</ele><time>2026-05-03T09:07:45Z</time></trkpt><trkpt lat="43.61725395873858" lon="3.7826145591731315"><ele>80.0</ele><time>2026-05-03T09:07:46Z</time></trkpt><trkpt lat="43.61721729806636" lon="3.782778187717636"><ele>80.0</ele><time>2026-05-03T09:07:48Z</time></trkpt><trkpt lat="43.6171992514364" lon="3.782885943329043"><ele>80.0</ele><time>2026-05-03T09:07:49Z</time></trkpt><trkpt lat="43.617195223432255" lon="3.7829800816139953"><ele>80.0</ele><time>2026-05-03T09:07:49.999Z</time></trkpt><trkpt lat="43.617182904704954" lon="3.783070636633516"><ele>80.0</ele><time>2026-05-03T09:07:50.999Z</time></trkpt><trkpt lat="43.61715275826333" lon="3.783359091569621"><ele>79.2</ele><time>2026-05-03T09:07:53.999Z</time></trkpt><trkpt lat="43.61715499486654" lon="3.7834676524092314"><ele>78.4</ele><time>2026-05-03T09:07:54.999Z</time></trkpt><trkpt lat="43.61716428212593" lon="3.783570427674909"><ele>77.6</ele><time>2026-05-03T09:07:55.999Z</time></trkpt><trkpt lat="43.617173017275164" lon="3.783657129197448"><ele>76.8</ele><time>2026-05-03T09:07:56.999Z</time></trkpt><trkpt lat="43.61719504329148" lon="3.7838323768438817"><ele>76.0</ele><time>2026-05-03T09:07:58.999Z</time></trkpt><trkpt lat="43.6172400962777" lon="3.7839680528296"><ele>75.8</ele><time>2026-05-03T09:08:00.999Z</time></trkpt><trkpt lat="43.61726219608091" lon="3.7841147403147284"><ele>75.6</ele><time>2026-05-03T09:08:02.999Z</time></trkpt><trkpt lat="43.617278432154365" lon="3.7842502935464384"><ele>75.4</ele><time>2026-05-03T09:08:04.999Z</time></trkpt><trkpt lat="43.61728185251917" lon="3.784386416060878"><ele>75.2</ele><time>2026-05-03T09:08:06.999Z</time></trkpt><trkpt lat="43.6172825446504" lon="3.784499261565122"><ele>75.0</ele><time>2026-05-03T09:08:08.999Z</time></trkpt><trkpt lat="43.61727389257906" lon="3.7846457975491314"><ele>75.5</ele><time>2026-05-03T09:08:10.999Z</time></trkpt><trkpt lat="43.617253670031815" lon="3.784781668019226"><ele>76.0</ele><time>2026-05-03T09:08:12.999Z</time></trkpt><trkpt lat="43.61716569630432" lon="3.78505540004229"><ele>76.5</ele><time>2026-05-03T09:08:16.999Z</time></trkpt><trkpt lat="43.61712852964272" lon="3.7852133965074164"><ele>77.0</ele><time>2026-05-03T09:08:18.999Z</time></trkpt><trkpt lat="43.61710530384976" lon="3.7852983758137313"><ele>76.5</ele><time>2026-05-03T09:08:19.999Z</time></trkpt><trkpt lat="43.61706687820317" lon="3.7853787443412488"><ele>76.0</ele><time>2026-05-03T09:08:20.999Z</time></trkpt><trkpt lat="43.617020498852526" lon="3.7854506762047246"><ele>75.5</ele><time>2026-05-03T09:08:21.999Z</time></trkpt><trkpt lat="43.61697754009425" lon="3.785531220794033"><ele>75.0</ele><time>2026-05-03T09:08:22.999Z</time></trkpt><trkpt lat="43.61693534733097" lon="3.785627536553934"><ele>74.5</ele><time>2026-05-03T09:08:23.999Z</time></trkpt><trkpt lat="43.6168869070798" lon="3.7857214876662413"><ele>74.0</ele><time>2026-05-03T09:08:24.999Z</time></trkpt><trkpt lat="43.616834869529235" lon="3.7858130973060553"><ele>74.0</ele><time>2026-05-03T09:08:25.999Z</time></trkpt><trkpt lat="43.61678433424508" lon="3.7859044962152337"><ele>74.0</ele><time>2026-05-03T09:08:26.999Z</time></trkpt><trkpt lat="43.61674091917417" lon="3.7860058272496464"><ele>74.0</ele><time>2026-05-03T09:08:27.999Z</time></trkpt><trkpt lat="43.616700684158005" lon="3.786106033278114"><ele>74.0</ele><time>2026-05-03T09:08:28.999Z</time></trkpt><trkpt lat="43.616640575578145" lon="3.786207621527427"><ele>74.0</ele><time>2026-05-03T09:08:29.999Z</time></trkpt><trkpt lat="43.61657030864394" lon="3.7863075231354326"><ele>74.0</ele><time>2026-05-03T09:08:30.999Z</time></trkpt><trkpt lat="43.61649868763242" lon="3.786394244440447"><ele>72.60000000000001</ele><time>2026-05-03T09:08:31.999Z</time></trkpt><trkpt lat="43.61644117037061" lon="3.78647232525736"><ele>71.2</ele><time>2026-05-03T09:08:32.999Z</time></trkpt><trkpt lat="43.616372525983536" lon="3.7865628031246854"><ele>69.80000000000001</ele><time>2026-05-03T09:08:34.999Z</time></trkpt><trkpt lat="43.61626238925724" lon="3.786709471586769"><ele>68.4</ele><time>2026-05-03T09:08:40.999Z</time></trkpt><trkpt lat="43.616198096255495" lon="3.786800155828869"><ele>67.0</ele><time>2026-05-03T09:08:42.999Z</time></trkpt><trkpt lat="43.6161411419169" lon="3.7869018029180155"><ele>67.0</ele><time>2026-05-03T09:08:44.999Z</time></trkpt><trkpt lat="43.6160919033282" lon="3.7869643699452973"><ele>67.0</ele><time>2026-05-03T09:08:45.999Z</time></trkpt><trkpt lat="43.61602302464099" lon="3.7870760081078614"><ele>67.0</ele><time>2026-05-03T09:08:47.999Z</time></trkpt><trkpt lat="43.6159596285578" lon="3.78715066798601"><ele>67.0</ele><time>2026-05-03T09:08:49.999Z</time></trkpt><trkpt lat="43.61591979914452" lon="3.7872301412062352"><ele>67.0</ele><time>2026-05-03T09:08:50.999Z</time></trkpt><trkpt lat="43.61588077178089" lon="3.787361796060642"><ele>67.0</ele><time>2026-05-03T09:08:52.999Z</time></trkpt><trkpt lat="43.615837611646484" lon="3.787428270762331"><ele>67.0</ele><time>2026-05-03T09:08:54.999Z</time></trkpt><trkpt lat="43.61578099916723" lon="3.7875548345092986"><ele>67.0</ele><time>2026-05-03T09:08:56.999Z</time></trkpt><trkpt lat="43.61566372703334" lon="3.7877656234365573"><ele>67.0</ele><time>2026-05-03T09:09:00.998Z</time></trkpt><trkpt lat="43.61560865866152" lon="3.7878534525961864"><ele>67.0</ele><time>2026-05-03T09:09:02.998Z</time></trkpt><trkpt lat="43.615568570092286" lon="3.7879252594896498"><ele>67.0</ele><time>2026-05-03T09:09:04.998Z</time></trkpt><trkpt lat="43.61551845933416" lon="3.788040178084708"><ele>67.0</ele><time>2026-05-03T09:09:06.998Z</time></trkpt><trkpt lat="43.61550481565033" lon="3.7882148846071497"><ele>67.0</ele><time>2026-05-03T09:09:08.998Z</time></trkpt><trkpt lat="43.615500881784456" lon="3.788306367087841"><ele>67.0</ele><time>2026-05-03T09:09:09.998Z</time></trkpt><trkpt lat="43.615503730396576" lon="3.788460704920528"><ele>67.0</ele><time>2026-05-03T09:09:11.998Z</time></trkpt><trkpt lat="43.61550341819148" lon="3.7886128239952055"><ele>66.75</ele><time>2026-05-03T09:09:13.998Z</time></trkpt><trkpt lat="43.61550064808045" lon="3.788765542304516"><ele>66.5</ele><time>2026-05-03T09:09:15.998Z</time></trkpt><trkpt lat="43.61552238836821" lon="3.788924658848655"><ele>66.25</ele><time>2026-05-03T09:09:17.998Z</time></trkpt><trkpt lat="43.61563433360954" lon="3.789132464281504"><ele>66.0</ele><time>2026-05-03T09:09:21.999Z</time></trkpt><trkpt lat="43.615609621590984" lon="3.7892297925957728"><ele>66.0</ele><time>2026-05-03T09:09:24Z</time></trkpt><trkpt lat="43.61560950006539" lon="3.7893198909679673"><ele>66.0</ele><time>2026-05-03T09:09:27Z</time></trkpt><trkpt lat="43.61564179941404" lon="3.789398878242764"><ele>66.0</ele><time>2026-05-03T09:09:28.999Z</time></trkpt><trkpt lat="43.6156729055003" lon="3.7895003506442686"><ele>66.0</ele><time>2026-05-03T09:09:31Z</time></trkpt><trkpt lat="43.61566372354249" lon="3.7896155239301583"><ele>66.0</ele><time>2026-05-03T09:09:33Z</time></trkpt><trkpt lat="43.61566508996015" lon="3.7897219594096754"><ele>66.0</ele><time>2026-05-03T09:09:35Z</time></trkpt><trkpt lat="43.615667520954396" lon="3.789828308804798"><ele>66.0</ele><time>2026-05-03T09:09:37Z</time></trkpt><trkpt lat="43.61567228680648" lon="3.789940688292882"><ele>64.75</ele><time>2026-05-03T09:09:39Z</time></trkpt><trkpt lat="43.615669411606056" lon="3.7901818921093677"><ele>63.5</ele><time>2026-05-03T09:09:43Z</time></trkpt><trkpt lat="43.61566235967602" lon="3.790311709207744"><ele>62.25</ele><time>2026-05-03T09:09:45Z</time></trkpt><trkpt lat="43.61564449496685" lon="3.7904399246030005"><ele>61.0</ele><time>2026-05-03T09:09:47Z</time></trkpt><trkpt lat="43.61561250517349" lon="3.790576000249096"><ele>61.0</ele><time>2026-05-03T09:09:49Z</time></trkpt><trkpt lat="43.61559492170476" lon="3.7907209418299597"><ele>60.99999999999999</ele><time>2026-05-03T09:09:51Z</time></trkpt><trkpt lat="43.615559839363314" lon="3.7908668412567996"><ele>60.99999999999999</ele><time>2026-05-03T09:09:53Z</time></trkpt><trkpt lat="43.61553304559575" lon="3.7910064642052634"><ele>61.0</ele><time>2026-05-03T09:09:55Z</time></trkpt><trkpt lat="43.61551056146957" lon="3.7911555136050694"><ele>61.0</ele><time>2026-05-03T09:09:56.999Z</time></trkpt><trkpt lat="43.61548604913741" lon="3.7912647692098282"><ele>61.199999999999996</ele><time>2026-05-03T09:09:58.999Z</time></trkpt><trkpt lat="43.61540213913154" lon="3.791248237775754"><ele>61.39999999999999</ele><time>2026-05-03T09:10:01.999Z</time></trkpt><trkpt lat="43.61535343564518" lon="3.791053615734027"><ele>61.6</ele><time>2026-05-03T09:10:05.999Z</time></trkpt><trkpt lat="43.615269501296" lon="3.7910569300914347"><ele>61.8</ele><time>2026-05-03T09:10:08.999Z</time></trkpt><trkpt lat="43.61522638829742" lon="3.7911709988043736"><ele>62.0</ele><time>2026-05-03T09:10:10.999Z</time></trkpt><trkpt lat="43.615180882724445" lon="3.791256206656817"><ele>62.0</ele><time>2026-05-03T09:10:12.999Z</time></trkpt><trkpt lat="43.61513519274328" lon="3.7913839521452983"><ele>62.0</ele><time>2026-05-03T09:10:14.999Z</time></trkpt><trkpt lat="43.61509171749471" lon="3.7915131288875075"><ele>62.0</ele><time>2026-05-03T09:10:16.999Z</time></trkpt><trkpt lat="43.615036445119216" lon="3.791646943703302"><ele>62.0</ele><time>2026-05-03T09:10:18.999Z</time></trkpt><trkpt lat="43.614973216564074" lon="3.7917656276097076"><ele>62.0</ele><time>2026-05-03T09:10:20.999Z</time></trkpt><trkpt lat="43.614896650860146" lon="3.7918726772816504"><ele>61.75</ele><time>2026-05-03T09:10:22.999Z</time></trkpt><trkpt lat="43.61473602615598" lon="3.792033394254225"><ele>61.5</ele><time>2026-05-03T09:10:26.999Z</time></trkpt><trkpt lat="43.614647435631966" lon="3.79209881988214"><ele>61.25</ele><time>2026-05-03T09:10:28.999Z</time></trkpt><trkpt lat="43.61453983308429" lon="3.792142693511874"><ele>61.0</ele><time>2026-05-03T09:10:30.999Z</time></trkpt><trkpt lat="43.61444159980967" lon="3.7921548387815918"><ele>60.99999999999999</ele><time>2026-05-03T09:10:32.999Z</time></trkpt><trkpt lat="43.61435719147177" lon="3.792222923342375"><ele>61.0</ele><time>2026-05-03T09:10:34.999Z</time></trkpt><trkpt lat="43.61431713491629" lon="3.792376284744056"><ele>61.0</ele><time>2026-05-03T09:10:36.999Z</time></trkpt><trkpt lat="43.61428706458856" lon="3.7924697551260023"><ele>61.0</ele><time>2026-05-03T09:10:37.999Z</time></trkpt><trkpt lat="43.61429140675992" lon="3.792573343570285"><ele>60.99999999999999</ele><time>2026-05-03T09:10:38.999Z</time></trkpt><trkpt lat="43.6142621409867" lon="3.7926747079460417"><ele>61.0</ele><time>2026-05-03T09:10:39.999Z</time></trkpt><trkpt lat="43.61421212218564" lon="3.7927640773629645"><ele>60.0</ele><time>2026-05-03T09:10:40.999Z</time></trkpt><trkpt lat="43.614162175251515" lon="3.792822904258565"><ele>59.0</ele><time>2026-05-03T09:10:41.999Z</time></trkpt><trkpt lat="43.61409171773311" lon="3.7929607588146523"><ele>58.0</ele><time>2026-05-03T09:10:43.999Z</time></trkpt><trkpt lat="43.613967758594676" lon="3.793232031115322"><ele>57.0</ele><time>2026-05-03T09:10:47.999Z</time></trkpt><trkpt lat="43.61393172308823" lon="3.7933065883090635"><ele>57.0</ele><time>2026-05-03T09:10:48.999Z</time></trkpt><trkpt lat="43.613891907677534" lon="3.793379922547807"><ele>57.0</ele><time>2026-05-03T09:10:49.999Z</time></trkpt><trkpt lat="43.613861934042475" lon="3.7934634575831945"><ele>57.0</ele><time>2026-05-03T09:10:50.999Z</time></trkpt><trkpt lat="43.61380155049734" lon="3.793605441978607"><ele>57.0</ele><time>2026-05-03T09:10:52.999Z</time></trkpt><trkpt lat="43.6137491555729" lon="3.793754767754628"><ele>57.0</ele><time>2026-05-03T09:10:54.999Z</time></trkpt><trkpt lat="43.61369980641397" lon="3.7938196136965745"><ele>57.0</ele><time>2026-05-03T09:10:56.999Z</time></trkpt><trkpt lat="43.61366648270989" lon="3.793896797830398"><ele>57.0</ele><time>2026-05-03T09:10:58.999Z</time></trkpt><trkpt lat="43.61357412644408" lon="3.793978472565131"><ele>57.0</ele><time>2026-05-03T09:11:00.999Z</time></trkpt><trkpt lat="43.61347911964587" lon="3.794040929122993"><ele>57.0</ele><time>2026-05-03T09:11:02.999Z</time></trkpt><trkpt lat="43.61339306641456" lon="3.7941173648579842"><ele>57.0</ele><time>2026-05-03T09:11:04.999Z</time></trkpt><trkpt lat="43.613228265646896" lon="3.7943163933809263"><ele>56.25</ele><time>2026-05-03T09:11:08.998Z</time></trkpt><trkpt lat="43.613132679907665" lon="3.7944077492335873"><ele>55.5</ele><time>2026-05-03T09:11:10.998Z</time></trkpt><trkpt lat="43.61303782098112" lon="3.794510957326051"><ele>54.75</ele><time>2026-05-03T09:11:12.998Z</time></trkpt><trkpt lat="43.61294884252836" lon="3.794620419602691"><ele>54.0</ele><time>2026-05-03T09:11:14.998Z</time></trkpt><trkpt lat="43.612863468989474" lon="3.794734135480236"><ele>54.25</ele><time>2026-05-03T09:11:16.998Z</time></trkpt><trkpt lat="43.61277284355295" lon="3.7948427264987328"><ele>54.5</ele><time>2026-05-03T09:11:18.998Z</time></trkpt><trkpt lat="43.612690559774045" lon="3.7949564591819898"><ele>54.75</ele><time>2026-05-03T09:11:20.998Z</time></trkpt><trkpt lat="43.612601826784285" lon="3.795064009294453"><ele>55.0</ele><time>2026-05-03T09:11:22.998Z</time></trkpt><trkpt lat="43.61251237365264" lon="3.7951828708638744"><ele>54.0</ele><time>2026-05-03T09:11:24.998Z</time></trkpt><trkpt lat="43.61242953218767" lon="3.795295989360511"><ele>53.0</ele><time>2026-05-03T09:11:27Z</time></trkpt><trkpt lat="43.61225916877935" lon="3.795506293316557"><ele>52.0</ele><time>2026-05-03T09:11:31Z</time></trkpt><trkpt lat="43.61215459381681" lon="3.7954977481695633"><ele>52.0</ele><time>2026-05-03T09:11:33Z</time></trkpt><trkpt lat="43.61211617642918" lon="3.7954270346169316"><ele>52.0</ele><time>2026-05-03T09:11:34Z</time></trkpt><trkpt lat="43.612049078607534" lon="3.7953167689976053"><ele>52.0</ele><time>2026-05-03T09:11:36Z</time></trkpt><trkpt lat="43.611986428265816" lon="3.795304992910983"><ele>52.0</ele><time>2026-05-03T09:11:37Z</time></trkpt><trkpt lat="43.61186519613045" lon="3.7953378412539753"><ele>52.0</ele><time>2026-05-03T09:11:39Z</time></trkpt><trkpt lat="43.611761826568895" lon="3.7953693858289377"><ele>52.2</ele><time>2026-05-03T09:11:41Z</time></trkpt><trkpt lat="43.61166081040556" lon="3.795390744220369"><ele>52.400000000000006</ele><time>2026-05-03T09:11:43Z</time></trkpt><trkpt lat="43.61154936790198" lon="3.7954528206267093"><ele>52.599999999999994</ele><time>2026-05-03T09:11:45Z</time></trkpt><trkpt lat="43.611449456737354" lon="3.7955421852867586"><ele>52.8</ele><time>2026-05-03T09:11:47Z</time></trkpt><trkpt lat="43.611398765560445" lon="3.7955961500026953"><ele>53.0</ele><time>2026-05-03T09:11:48Z</time></trkpt><trkpt lat="43.611243133838165" lon="3.795746562872298"><ele>53.2</ele><time>2026-05-03T09:11:51Z</time></trkpt><trkpt lat="43.61112347398705" lon="3.79577703277293"><ele>53.4</ele><time>2026-05-03T09:11:52.999Z</time></trkpt><trkpt lat="43.610999960271855" lon="3.795767979136235"><ele>53.60000000000001</ele><time>2026-05-03T09:11:54.999Z</time></trkpt><trkpt lat="43.610934165152706" lon="3.7957690548387135"><ele>53.800000000000004</ele><time>2026-05-03T09:11:55.999Z</time></trkpt><trkpt lat="43.61083026973069" lon="3.7957631169782244"><ele>54.0</ele><time>2026-05-03T09:11:57.999Z</time></trkpt><trkpt lat="43.6107245260767" lon="3.795785625909257"><ele>54.0</ele><time>2026-05-03T09:11:59.999Z</time></trkpt><trkpt lat="43.61063307981784" lon="3.79576992800125"><ele>54.0</ele><time>2026-05-03T09:12:01.999Z</time></trkpt><trkpt lat="43.61058525514329" lon="3.7956750822531395"><ele>54.0</ele><time>2026-05-03T09:12:03.999Z</time></trkpt><trkpt lat="43.61061274326271" lon="3.7955793020894113"><ele>54.0</ele><time>2026-05-03T09:12:05.999Z</time></trkpt><trkpt lat="43.61063583075344" lon="3.795488383789539"><ele>54.0</ele><time>2026-05-03T09:12:07.999Z</time></trkpt><trkpt lat="43.61065328971791" lon="3.7953970594825535"><ele>54.0</ele><time>2026-05-03T09:12:09.999Z</time></trkpt><trkpt lat="43.61070659992453" lon="3.795166512698736"><ele>55.0</ele><time>2026-05-03T09:12:13.999Z</time></trkpt><trkpt lat="43.61073315385726" lon="3.7950477381352625"><ele>56.00000000000001</ele><time>2026-05-03T09:12:15.999Z</time></trkpt><trkpt lat="43.61076466577123" lon="3.79493643055867"><ele>57.00000000000001</ele><time>2026-05-03T09:12:17.999Z</time></trkpt><trkpt lat="43.61079342467411" lon="3.794811024104072"><ele>58.0</ele><time>2026-05-03T09:12:19.999Z</time></trkpt><trkpt lat="43.61082036277969" lon="3.7946970600563654"><ele>59.0</ele><time>2026-05-03T09:12:21.999Z</time></trkpt><trkpt lat="43.61084768883411" lon="3.7945678261293923"><ele>59.0</ele><time>2026-05-03T09:12:23.999Z</time></trkpt><trkpt lat="43.61087009974841" lon="3.7944320130416123"><ele>59.00000000000001</ele><time>2026-05-03T09:12:25.999Z</time></trkpt><trkpt lat="43.61088687856549" lon="3.7942900952489858"><ele>59.00000000000001</ele><time>2026-05-03T09:12:27.999Z</time></trkpt><trkpt lat="43.61090843914184" lon="3.794154393787255"><ele>59.0</ele><time>2026-05-03T09:12:29.999Z</time></trkpt><trkpt lat="43.61092224578491" lon="3.7940157579264118"><ele>59.0</ele><time>2026-05-03T09:12:31.999Z</time></trkpt><trkpt lat="43.61091921274435" lon="3.793744292484856"><ele>59.833333333333336</ele><time>2026-05-03T09:12:35.999Z</time></trkpt><trkpt lat="43.610919830252605" lon="3.7936181366581168"><ele>60.66666666666667</ele><time>2026-05-03T09:12:37.999Z</time></trkpt><trkpt lat="43.610909899324156" lon="3.793498682149378"><ele>61.5</ele><time>2026-05-03T09:12:39.999Z</time></trkpt><trkpt lat="43.61092085644778" lon="3.7933744147661788"><ele>62.33333333333333</ele><time>2026-05-03T09:12:41.999Z</time></trkpt><trkpt lat="43.610927384820776" lon="3.793253474209354"><ele>63.166666666666664</ele><time>2026-05-03T09:12:43.999Z</time></trkpt><trkpt lat="43.61091787633929" lon="3.793130802604455"><ele>64.0</ele><time>2026-05-03T09:12:45.999Z</time></trkpt><trkpt lat="43.610920642945636" lon="3.793020445357116"><ele>64.2</ele><time>2026-05-03T09:12:47.999Z</time></trkpt><trkpt lat="43.61091234313982" lon="3.7928975103192375"><ele>64.4</ele><time>2026-05-03T09:12:49.999Z</time></trkpt><trkpt lat="43.61090062803218" lon="3.7927878439483185"><ele>64.6</ele><time>2026-05-03T09:12:51.999Z</time></trkpt><trkpt lat="43.610890912803356" lon="3.7926708965368716"><ele>64.8</ele><time>2026-05-03T09:12:53.999Z</time></trkpt><trkpt lat="43.61087709866687" lon="3.7924285570259006"><ele>65.0</ele><time>2026-05-03T09:12:57.999Z</time></trkpt><trkpt lat="43.61086587327753" lon="3.7923181829946992"><ele>65.83333333333334</ele><time>2026-05-03T09:12:59.998Z</time></trkpt><trkpt lat="43.61086943671305" lon="3.792192649933439"><ele>66.66666666666667</ele><time>2026-05-03T09:13:01.998Z</time></trkpt><trkpt lat="43.61086809789998" lon="3.792087794629607"><ele>67.5</ele><time>2026-05-03T09:13:03.998Z</time></trkpt><trkpt lat="43.61084685502602" lon="3.7919765618155394"><ele>68.33333333333333</ele><time>2026-05-03T09:13:05.998Z</time></trkpt><trkpt lat="43.610807045853946" lon="3.791883074836313"><ele>69.16666666666666</ele><time>2026-05-03T09:13:07.998Z</time></trkpt><trkpt lat="43.61078842286691" lon="3.7917864570800575"><ele>70.0</ele><time>2026-05-03T09:13:09.998Z</time></trkpt><trkpt lat="43.610784770525285" lon="3.791662050040311"><ele>71.0</ele><time>2026-05-03T09:13:11.998Z</time></trkpt><trkpt lat="43.61075062509405" lon="3.7915246976472745"><ele>72.0</ele><time>2026-05-03T09:13:13.998Z</time></trkpt><trkpt lat="43.610739432456064" lon="3.791388325285667"><ele>73.0</ele><time>2026-05-03T09:13:15.998Z</time></trkpt><trkpt lat="43.61068789942429" lon="3.791088064771682"><ele>74.0</ele><time>2026-05-03T09:13:19.998Z</time></trkpt><trkpt lat="43.61067459551716" lon="3.7909406968575285"><ele>74.60000000000001</ele><time>2026-05-03T09:13:21.998Z</time></trkpt><trkpt lat="43.61065437220459" lon="3.7907988793868763"><ele>75.2</ele><time>2026-05-03T09:13:23.998Z</time></trkpt><trkpt lat="43.6106570981709" lon="3.7906543681294775"><ele>75.80000000000001</ele><time>2026-05-03T09:13:25.998Z</time></trkpt><trkpt lat="43.61064643081466" lon="3.7905099786696344"><ele>76.4</ele><time>2026-05-03T09:13:27.998Z</time></trkpt><trkpt lat="43.61064518376648" lon="3.790377994413814"><ele>77.0</ele><time>2026-05-03T09:13:29.998Z</time></trkpt><trkpt lat="43.61064519261979" lon="3.7902566125967216"><ele>77.6</ele><time>2026-05-03T09:13:32Z</time></trkpt><trkpt lat="43.61063405390541" lon="3.790125623956938"><ele>78.2</ele><time>2026-05-03T09:13:34Z</time></trkpt><trkpt lat="43.610639000026524" lon="3.7900102169752565"><ele>78.8</ele><time>2026-05-03T09:13:36Z</time></trkpt><trkpt lat="43.610633782018716" lon="3.7898997794409826"><ele>79.4</ele><time>2026-05-03T09:13:38Z</time></trkpt><trkpt lat="43.610652658032066" lon="3.7896825596047874"><ele>80.0</ele><time>2026-05-03T09:13:41.999Z</time></trkpt><trkpt lat="43.61067576144334" lon="3.789573202032213"><ele>80.0</ele><time>2026-05-03T09:13:44Z</time></trkpt><trkpt lat="43.610703160568164" lon="3.789471702055829"><ele>80.0</ele><time>2026-05-03T09:13:45.999Z</time></trkpt><trkpt lat="43.61070178966499" lon="3.789372820327457"><ele>80.0</ele><time>2026-05-03T09:13:47.999Z</time></trkpt><trkpt lat="43.61070378369925" lon="3.789261599929116"><ele>80.0</ele><time>2026-05-03T09:13:49.999Z</time></trkpt><trkpt lat="43.610720113128366" lon="3.7891431543163563"><ele>80.0</ele><time>2026-05-03T09:13:51.999Z</time></trkpt><trkpt lat="43.61073564832378" lon="3.7890235167097157"><ele>80.0</ele><time>2026-05-03T09:13:53.999Z</time></trkpt><trkpt lat="43.61074424805192" lon="3.7889023495399607"><ele>80.6</ele><time>2026-05-03T09:13:55.999Z</time></trkpt><trkpt lat="43.610750472297575" lon="3.788777039687869"><ele>81.2</ele><time>2026-05-03T09:13:57.999Z</time></trkpt><trkpt lat="43.61075520081249" lon="3.7886644698105822"><ele>81.80000000000001</ele><time>2026-05-03T09:13:59.999Z</time></trkpt><trkpt lat="43.610663446792785" lon="3.7884656140628463"><ele>82.4</ele><time>2026-05-03T09:14:03.999Z</time></trkpt><trkpt lat="43.61060248768808" lon="3.7883677697113325"><ele>83.0</ele><time>2026-05-03T09:14:05.999Z</time></trkpt><trkpt lat="43.610517053506186" lon="3.788284981455243"><ele>83.0</ele><time>2026-05-03T09:14:07.999Z</time></trkpt><trkpt lat="43.61041349841123" lon="3.7883267488661856"><ele>83.0</ele><time>2026-05-03T09:14:09.999Z</time></trkpt><trkpt lat="43.610330553017526" lon="3.788407404992422"><ele>83.0</ele><time>2026-05-03T09:14:11.999Z</time></trkpt><trkpt lat="43.61024000216445" lon="3.7884767970880624"><ele>83.0</ele><time>2026-05-03T09:14:13.999Z</time></trkpt><trkpt lat="43.61015153862957" lon="3.788540561707681"><ele>83.0</ele><time>2026-05-03T09:14:15.999Z</time></trkpt><trkpt lat="43.610064935876274" lon="3.7886321029612784"><ele>82.75</ele><time>2026-05-03T09:14:17.999Z</time></trkpt><trkpt lat="43.60997322909772" lon="3.7886881596162354"><ele>82.5</ele><time>2026-05-03T09:14:19.999Z</time></trkpt><trkpt lat="43.609882572213266" lon="3.788758025238738"><ele>82.25</ele><time>2026-05-03T09:14:21.999Z</time></trkpt><trkpt lat="43.60970932281127" lon="3.7888755094612856"><ele>82.0</ele><time>2026-05-03T09:14:25.999Z</time></trkpt><trkpt lat="43.60963115072419" lon="3.7889516499990497"><ele>82.0</ele><time>2026-05-03T09:14:27.999Z</time></trkpt><trkpt lat="43.60954785459962" lon="3.789008573746281"><ele>82.0</ele><time>2026-05-03T09:14:29.999Z</time></trkpt><trkpt lat="43.60946981857485" lon="3.7890724376934046"><ele>82.0</ele><time>2026-05-03T09:14:31.999Z</time></trkpt><trkpt lat="43.609397065418825" lon="3.78912979962577"><ele>82.0</ele><time>2026-05-03T09:14:33.999Z</time></trkpt><trkpt lat="43.609321603969384" lon="3.789189877187689"><ele>82.0</ele><time>2026-05-03T09:14:35.999Z</time></trkpt><trkpt lat="43.60923885959602" lon="3.789229025995057"><ele>82.0</ele><time>2026-05-03T09:14:37.999Z</time></trkpt><trkpt lat="43.60916115239967" lon="3.7892821335937565"><ele>82.0</ele><time>2026-05-03T09:14:39.999Z</time></trkpt><trkpt lat="43.60907793280788" lon="3.789317232057856"><ele>82.0</ele><time>2026-05-03T09:14:41.999Z</time></trkpt><trkpt lat="43.608983350455574" lon="3.7893363866009304"><ele>82.0</ele><time>2026-05-03T09:14:43.999Z</time></trkpt><trkpt lat="43.60881153698571" lon="3.7893571106290245"><ele>82.0</ele><time>2026-05-03T09:14:49.999Z</time></trkpt><trkpt lat="43.6087595550297" lon="3.7894347847814367"><ele>82.0</ele><time>2026-05-03T09:14:51.999Z</time></trkpt><trkpt lat="43.60871682750804" lon="3.7895079829696323"><ele>82.0</ele><time>2026-05-03T09:14:53.999Z</time></trkpt><trkpt lat="43.60866478643835" lon="3.789563787976356"><ele>82.0</ele><time>2026-05-03T09:14:55.999Z</time></trkpt><trkpt lat="43.60860300281926" lon="3.7896314718149844"><ele>82.0</ele><time>2026-05-03T09:14:57.998Z</time></trkpt><trkpt lat="43.608523544262475" lon="3.7896747995669555"><ele>82.0</ele><time>2026-05-03T09:14:59.998Z</time></trkpt><trkpt lat="43.608446773392885" lon="3.789732071246796"><ele>82.0</ele><time>2026-05-03T09:15:01.998Z</time></trkpt><trkpt lat="43.60837613616883" lon="3.7897901522467974"><ele>82.0</ele><time>2026-05-03T09:15:03.998Z</time></trkpt><trkpt lat="43.608296931015964" lon="3.7898406502132636"><ele>81.39999999999999</ele><time>2026-05-03T09:15:05.998Z</time></trkpt><trkpt lat="43.608148491696085" lon="3.789961760656828"><ele>80.8</ele><time>2026-05-03T09:15:09.998Z</time></trkpt><trkpt lat="43.60807748506557" lon="3.79001745881072"><ele>80.2</ele><time>2026-05-03T09:15:11.998Z</time></trkpt><trkpt lat="43.60800093724541" lon="3.7900716342166136"><ele>79.6</ele><time>2026-05-03T09:15:13.998Z</time></trkpt><trkpt lat="43.60792338858545" lon="3.790116904501249"><ele>79.0</ele><time>2026-05-03T09:15:15.998Z</time></trkpt><trkpt lat="43.60784698146471" lon="3.790153627488429"><ele>78.66666666666666</ele><time>2026-05-03T09:15:17.998Z</time></trkpt><trkpt lat="43.607775732246004" lon="3.7901591488625908"><ele>78.33333333333333</ele><time>2026-05-03T09:15:19.998Z</time></trkpt><trkpt lat="43.60775745861158" lon="3.790075181425106"><ele>78.0</ele><time>2026-05-03T09:15:21.998Z</time></trkpt><trkpt lat="43.60775136146743" lon="3.7899724744871257"><ele>77.66666666666667</ele><time>2026-05-03T09:15:23.998Z</time></trkpt><trkpt lat="43.6076556735742" lon="3.789965762750679"><ele>77.33333333333334</ele><time>2026-05-03T09:15:25.998Z</time></trkpt><trkpt lat="43.607588188518" lon="3.7900228711214714"><ele>77.0</ele><time>2026-05-03T09:15:27.998Z</time></trkpt><trkpt lat="43.60744062146617" lon="3.790084923496719"><ele>77.0</ele><time>2026-05-03T09:15:31.998Z</time></trkpt><trkpt lat="43.60736573286596" lon="3.7901228127262887"><ele>77.0</ele><time>2026-05-03T09:15:33.998Z</time></trkpt><trkpt lat="43.607300693547394" lon="3.790158687899339"><ele>77.0</ele><time>2026-05-03T09:15:35.998Z</time></trkpt><trkpt lat="43.60723175213942" lon="3.790199441952632"><ele>77.0</ele><time>2026-05-03T09:15:38Z</time></trkpt><trkpt lat="43.607159777842554" lon="3.7902406491127616"><ele>77.0</ele><time>2026-05-03T09:15:40Z</time></trkpt><trkpt lat="43.60708713267457" lon="3.7902834741165323"><ele>77.0</ele><time>2026-05-03T09:15:42Z</time></trkpt><trkpt lat="43.607011878716065" lon="3.79032582213138"><ele>76.8</ele><time>2026-05-03T09:15:44Z</time></trkpt><trkpt lat="43.6069324860529" lon="3.7903614607009137"><ele>76.6</ele><time>2026-05-03T09:15:46Z</time></trkpt><trkpt lat="43.606862362224284" lon="3.7904016972069234"><ele>76.39999999999999</ele><time>2026-05-03T09:15:48Z</time></trkpt><trkpt lat="43.60678373931309" lon="3.7904396242615066"><ele>76.2</ele><time>2026-05-03T09:15:50Z</time></trkpt><trkpt lat="43.60663395262452" lon="3.790527286057308"><ele>76.0</ele><time>2026-05-03T09:15:54Z</time></trkpt><trkpt lat="43.60655550703644" lon="3.7905702500302656"><ele>76.0</ele><time>2026-05-03T09:15:56Z</time></trkpt><trkpt lat="43.60647980060216" lon="3.7906310869020627"><ele>76.0</ele><time>2026-05-03T09:15:57.999Z</time></trkpt><trkpt lat="43.60639077843633" lon="3.7906601793236723"><ele>76.0</ele><time>2026-05-03T09:15:59.999Z</time></trkpt><trkpt lat="43.60631277978061" lon="3.7906912003533106"><ele>76.0</ele><time>2026-05-03T09:16:01.999Z</time></trkpt><trkpt lat="43.606223966364766" lon="3.7907246830510974"><ele>76.0</ele><time>2026-05-03T09:16:03.999Z</time></trkpt><trkpt lat="43.60614067157611" lon="3.790760412985147"><ele>76.0</ele><time>2026-05-03T09:16:05.999Z</time></trkpt><trkpt lat="43.60605699840277" lon="3.7907774202662825"><ele>74.75</ele><time>2026-05-03T09:16:07.999Z</time></trkpt><trkpt lat="43.6059716012707" lon="3.7908142582431896"><ele>73.5</ele><time>2026-05-03T09:16:09.999Z</time></trkpt><trkpt lat="43.60588445178057" lon="3.790850591821527"><ele>72.25</ele><time>2026-05-03T09:16:11.999Z</time></trkpt><trkpt lat="43.60570851374924" lon="3.79093355572998"><ele>71.0</ele><time>2026-05-03T09:16:15.999Z</time></trkpt><trkpt lat="43.60562338876584" lon="3.7909873244101613"><ele>70.8</ele><time>2026-05-03T09:16:17.999Z</time></trkpt><trkpt lat="43.605539760027604" lon="3.79105832730145"><ele>70.6</ele><time>2026-05-03T09:16:19.999Z</time></trkpt><trkpt lat="43.605455233132695" lon="3.7911171780993786"><ele>70.4</ele><time>2026-05-03T09:16:21.999Z</time></trkpt><trkpt lat="43.60536776224899" lon="3.7911791549338254"><ele>70.2</ele><time>2026-05-03T09:16:23.999Z</time></trkpt><trkpt lat="43.605279644634585" lon="3.791218092826721"><ele>70.0</ele><time>2026-05-03T09:16:25.999Z</time></trkpt><trkpt lat="43.605189924959724" lon="3.791243422978318"><ele>70.0</ele><time>2026-05-03T09:16:27.999Z</time></trkpt><trkpt lat="43.60510154428932" lon="3.791281542264908"><ele>70.0</ele><time>2026-05-03T09:16:29.999Z</time></trkpt><trkpt lat="43.60501441204855" lon="3.791318781857618"><ele>70.0</ele><time>2026-05-03T09:16:31.999Z</time></trkpt><trkpt lat="43.60493817355159" lon="3.791359082361201"><ele>70.0</ele><time>2026-05-03T09:16:33.999Z</time></trkpt><trkpt lat="43.60479824218639" lon="3.791454928264026"><ele>70.0</ele><time>2026-05-03T09:16:37.999Z</time></trkpt><trkpt lat="43.604732433702424" lon="3.7915046713759537"><ele>70.0</ele><time>2026-05-03T09:16:39.999Z</time></trkpt><trkpt lat="43.60466677999577" lon="3.7915672940541905"><ele>70.0</ele><time>2026-05-03T09:16:41.999Z</time></trkpt><trkpt lat="43.604608893372635" lon="3.7916271102388857"><ele>70.0</ele><time>2026-05-03T09:16:43.999Z</time></trkpt><trkpt lat="43.604549821643715" lon="3.7916914129579524"><ele>70.0</ele><time>2026-05-03T09:16:45.999Z</time></trkpt><trkpt lat="43.60449305105184" lon="3.7917508253691006"><ele>70.0</ele><time>2026-05-03T09:16:47.999Z</time></trkpt><trkpt lat="43.60443046669422" lon="3.791813055921263"><ele>70.0</ele><time>2026-05-03T09:16:49.999Z</time></trkpt><trkpt lat="43.60437994971368" lon="3.7918723847343805"><ele>70.0</ele><time>2026-05-03T09:16:51.999Z</time></trkpt><trkpt lat="43.60432558682708" lon="3.7919248673597488"><ele>69.8</ele><time>2026-05-03T09:16:53.999Z</time></trkpt><trkpt lat="43.60424715809305" lon="3.79198471454085"><ele>69.6</ele><time>2026-05-03T09:16:56.999Z</time></trkpt><trkpt lat="43.60414080277886" lon="3.7918587868115137"><ele>69.4</ele><time>2026-05-03T09:17:01.999Z</time></trkpt><trkpt lat="43.60409578492475" lon="3.7917768353660732"><ele>69.2</ele><time>2026-05-03T09:17:03.999Z</time></trkpt><trkpt lat="43.60405037280655" lon="3.7916877853155166"><ele>69.0</ele><time>2026-05-03T09:17:05.999Z</time></trkpt><trkpt lat="43.60400865728972" lon="3.7916010572043963"><ele>68.83333333333333</ele><time>2026-05-03T09:17:07.999Z</time></trkpt><trkpt lat="43.603957203831285" lon="3.791517483833366"><ele>68.66666666666667</ele><time>2026-05-03T09:17:09.999Z</time></trkpt><trkpt lat="43.60390045340085" lon="3.7914338777398005"><ele>68.5</ele><time>2026-05-03T09:17:11.999Z</time></trkpt><trkpt lat="43.60384011958857" lon="3.791357587661903"><ele>68.33333333333334</ele><time>2026-05-03T09:17:13.998Z</time></trkpt><trkpt lat="43.60376683204042" lon="3.7912767467014743"><ele>68.16666666666667</ele><time>2026-05-03T09:17:15.998Z</time></trkpt><trkpt lat="43.60369775027082" lon="3.7911931559302356"><ele>68.0</ele><time>2026-05-03T09:17:17.998Z</time></trkpt><trkpt lat="43.60354848132486" lon="3.7910762946798546"><ele>67.6</ele><time>2026-05-03T09:17:21.998Z</time></trkpt><trkpt lat="43.60346155423367" lon="3.791028866573521"><ele>67.19999999999999</ele><time>2026-05-03T09:17:23.998Z</time></trkpt><trkpt lat="43.603372675140726" lon="3.790983857960261"><ele>66.8</ele><time>2026-05-03T09:17:25.998Z</time></trkpt><trkpt lat="43.60327974513546" lon="3.790935875524128"><ele>66.39999999999999</ele><time>2026-05-03T09:17:27.998Z</time></trkpt><trkpt lat="43.60318950307577" lon="3.7908921876184096"><ele>66.0</ele><time>2026-05-03T09:17:29.998Z</time></trkpt><trkpt lat="43.60309819696939" lon="3.790858125364687"><ele>65.8</ele><time>2026-05-03T09:17:31.998Z</time></trkpt><trkpt lat="43.60299709398682" lon="3.7908239493827938"><ele>65.6</ele><time>2026-05-03T09:17:33.998Z</time></trkpt><trkpt lat="43.602909780862106" lon="3.7907700818804777"><ele>65.4</ele><time>2026-05-03T09:17:35.998Z</time></trkpt><trkpt lat="43.60281767784541" lon="3.790698809475802"><ele>65.2</ele><time>2026-05-03T09:17:37.998Z</time></trkpt><trkpt lat="43.60275343406986" lon="3.79058846051458"><ele>65.0</ele><time>2026-05-03T09:17:39.998Z</time></trkpt><trkpt lat="43.60269708550661" lon="3.790328698258658"><ele>64.2</ele><time>2026-05-03T09:17:44Z</time></trkpt><trkpt lat="43.602690906599584" lon="3.7901774567032795"><ele>63.4</ele><time>2026-05-03T09:17:46Z</time></trkpt><trkpt lat="43.60267851205384" lon="3.7900233520498032"><ele>62.599999999999994</ele><time>2026-05-03T09:17:48Z</time></trkpt><trkpt lat="43.60267881951417" lon="3.7899346899842206"><ele>61.8</ele><time>2026-05-03T09:17:49Z</time></trkpt><trkpt lat="43.602672610981465" lon="3.7897752732736247"><ele>61.0</ele><time>2026-05-03T09:17:51Z</time></trkpt><trkpt lat="43.60264840586637" lon="3.789634217127374"><ele>61.0</ele><time>2026-05-03T09:17:53Z</time></trkpt><trkpt lat="43.60259823401476" lon="3.789505857850758"><ele>60.99999999999999</ele><time>2026-05-03T09:17:55Z</time></trkpt><trkpt lat="43.60255530137193" lon="3.7893928927978213"><ele>60.99999999999999</ele><time>2026-05-03T09:17:57Z</time></trkpt><trkpt lat="43.60251003214874" lon="3.789287536812226"><ele>61.0</ele><time>2026-05-03T09:17:59Z</time></trkpt><trkpt lat="43.602490403690425" lon="3.7891731314274497"><ele>61.0</ele><time>2026-05-03T09:18:01Z</time></trkpt><trkpt lat="43.602422501935855" lon="3.789007817105032"><ele>60.99999999999999</ele><time>2026-05-03T09:18:05Z</time></trkpt><trkpt lat="43.60239396654037" lon="3.788927299694144"><ele>61.0</ele><time>2026-05-03T09:18:06.999Z</time></trkpt><trkpt lat="43.602369639358315" lon="3.7888408656097323"><ele>60.99999999999999</ele><time>2026-05-03T09:18:08.999Z</time></trkpt><trkpt lat="43.60233798524909" lon="3.7887434391537185"><ele>60.99999999999999</ele><time>2026-05-03T09:18:11.999Z</time></trkpt><trkpt lat="43.60231469470923" lon="3.788648074976822"><ele>61.0</ele><time>2026-05-03T09:18:17.999Z</time></trkpt><trkpt lat="43.60225890480598" lon="3.788585069013018"><ele>60.99999999999999</ele><time>2026-05-03T09:18:19.999Z</time></trkpt><trkpt lat="43.60221062375837" lon="3.7884967301196473"><ele>60.99999999999999</ele><time>2026-05-03T09:18:22.999Z</time></trkpt><trkpt lat="43.60212048251097" lon="3.7883040837968185"><ele>61.666666666666664</ele><time>2026-05-03T09:18:28.999Z</time></trkpt><trkpt lat="43.60208314582634" lon="3.7882090274403377"><ele>62.33333333333333</ele><time>2026-05-03T09:18:31.999Z</time></trkpt><trkpt lat="43.60203817843928" lon="3.788100103007765"><ele>63.0</ele><time>2026-05-03T09:18:34.999Z</time></trkpt><trkpt lat="43.60199589277574" lon="3.7879939587247677"><ele>63.66666666666667</ele><time>2026-05-03T09:18:37.999Z</time></trkpt><trkpt lat="43.60194653943856" lon="3.7878869376740583"><ele>64.33333333333334</ele><time>2026-05-03T09:18:40.999Z</time></trkpt><trkpt lat="43.6019008499405" lon="3.7877847648743956"><ele>65.0</ele><time>2026-05-03T09:18:43.999Z</time></trkpt><trkpt lat="43.60182679742563" lon="3.787637558583932"><ele>65.28571428571429</ele><time>2026-05-03T09:18:47.999Z</time></trkpt><trkpt lat="43.60178917217558" lon="3.787556789049795"><ele>65.57142857142857</ele><time>2026-05-03T09:18:49.999Z</time></trkpt><trkpt lat="43.601754593018676" lon="3.787475951838674"><ele>65.85714285714286</ele><time>2026-05-03T09:18:51.999Z</time></trkpt><trkpt lat="43.60170560376388" lon="3.787391759343804"><ele>66.14285714285714</ele><time>2026-05-03T09:18:53.999Z</time></trkpt><trkpt lat="43.6016620302302" lon="3.787313148641048"><ele>66.42857142857143</ele><time>2026-05-03T09:18:55.999Z</time></trkpt><trkpt lat="43.60161084011611" lon="3.78723771258151"><ele>66.71428571428572</ele><time>2026-05-03T09:18:57.999Z</time></trkpt><trkpt lat="43.601563375563735" lon="3.7871521310772835"><ele>67.0</ele><time>2026-05-03T09:18:59.999Z</time></trkpt><trkpt lat="43.60150794373594" lon="3.787081645546797"><ele>67.0</ele><time>2026-05-03T09:19:01.999Z</time></trkpt><trkpt lat="43.60146173765666" lon="3.7870088661239336"><ele>67.0</ele><time>2026-05-03T09:19:03.999Z</time></trkpt><trkpt lat="43.601412809688895" lon="3.7869417558811818"><ele>67.0</ele><time>2026-05-03T09:19:05.999Z</time></trkpt><trkpt lat="43.60131318012296" lon="3.786792178446633"><ele>67.0</ele><time>2026-05-03T09:19:09.999Z</time></trkpt><trkpt lat="43.60126907003123" lon="3.7867131999475463"><ele>67.0</ele><time>2026-05-03T09:19:11.999Z</time></trkpt><trkpt lat="43.60122781833456" lon="3.7866474880110466"><ele>67.0</ele><time>2026-05-03T09:19:13.999Z</time></trkpt><trkpt lat="43.60118893998346" lon="3.7865790639579577"><ele>66.33333333333333</ele><time>2026-05-03T09:19:15.999Z</time></trkpt><trkpt lat="43.60112577247374" lon="3.7864729086767164"><ele>65.66666666666666</ele><time>2026-05-03T09:19:18.998Z</time></trkpt><trkpt lat="43.6010838152688" lon="3.7863970207301603"><ele>65.0</ele><time>2026-05-03T09:19:20.998Z</time></trkpt><trkpt lat="43.601037919398436" lon="3.78632342111452"><ele>64.33333333333333</ele><time>2026-05-03T09:19:22.998Z</time></trkpt><trkpt lat="43.60098984039947" lon="3.7862484675401147"><ele>63.666666666666664</ele><time>2026-05-03T09:19:24.998Z</time></trkpt><trkpt lat="43.60094388014457" lon="3.78616811577824"><ele>63.0</ele><time>2026-05-03T09:19:26.998Z</time></trkpt><trkpt lat="43.60085898464762" lon="3.786009874274652"><ele>63.0</ele><time>2026-05-03T09:19:30.998Z</time></trkpt><trkpt lat="43.60081753379744" lon="3.7859194550093456"><ele>63.0</ele><time>2026-05-03T09:19:32.998Z</time></trkpt><trkpt lat="43.60077029759035" lon="3.7858228458693106"><ele>63.0</ele><time>2026-05-03T09:19:34.998Z</time></trkpt><trkpt lat="43.60072364114761" lon="3.7857536070537714"><ele>63.0</ele><time>2026-05-03T09:19:36.998Z</time></trkpt><trkpt lat="43.60065639672793" lon="3.78566972119457"><ele>63.0</ele><time>2026-05-03T09:19:39.998Z</time></trkpt><trkpt lat="43.60062576230855" lon="3.78558700367549"><ele>63.0</ele><time>2026-05-03T09:19:41.998Z</time></trkpt><trkpt lat="43.60058295251517" lon="3.785511488217122"><ele>63.0</ele><time>2026-05-03T09:19:43.998Z</time></trkpt><trkpt lat="43.60051913986713" lon="3.7854133559939083"><ele>63.0</ele><time>2026-05-03T09:19:46.998Z</time></trkpt><trkpt lat="43.60047794433271" lon="3.7853257668080085"><ele>63.0</ele><time>2026-05-03T09:19:48.998Z</time></trkpt><trkpt lat="43.60038328606898" lon="3.785180164432251"><ele>63.0</ele><time>2026-05-03T09:19:53Z</time></trkpt><trkpt lat="43.60031910771373" lon="3.7851000088863045"><ele>63.0</ele><time>2026-05-03T09:19:55Z</time></trkpt><trkpt lat="43.600273029488534" lon="3.7850024488305394"><ele>61.166666666666664</ele><time>2026-05-03T09:19:57Z</time></trkpt><trkpt lat="43.60021895273766" lon="3.784922869733467"><ele>59.33333333333333</ele><time>2026-05-03T09:19:59Z</time></trkpt><trkpt lat="43.60017169775705" lon="3.7848465671958147"><ele>57.5</ele><time>2026-05-03T09:20:01Z</time></trkpt><trkpt lat="43.600116080357296" lon="3.7847796349281557"><ele>55.666666666666664</ele><time>2026-05-03T09:20:03Z</time></trkpt><trkpt lat="43.6000606974855" lon="3.784700595077659"><ele>53.83333333333333</ele><time>2026-05-03T09:20:05Z</time></trkpt><trkpt lat="43.600018124391184" lon="3.784601850951091"><ele>52.0</ele><time>2026-05-03T09:20:08Z</time></trkpt><trkpt lat="43.59993463039516" lon="3.784637204248326"><ele>52.0</ele><time>2026-05-03T09:20:10.999Z</time></trkpt><trkpt lat="43.5997867082969" lon="3.784730095447769"><ele>52.0</ele><time>2026-05-03T09:20:14.999Z</time></trkpt><trkpt lat="43.599721986626" lon="3.784796426957986"><ele>52.0</ele><time>2026-05-03T09:20:16.999Z</time></trkpt><trkpt lat="43.59965750086685" lon="3.7848452938762556"><ele>52.0</ele><time>2026-05-03T09:20:18.999Z</time></trkpt><trkpt lat="43.599572258533875" lon="3.784849932083974"><ele>52.0</ele><time>2026-05-03T09:20:20.999Z</time></trkpt><trkpt lat="43.599495203444334" lon="3.784859292256506"><ele>51.49999999999999</ele><time>2026-05-03T09:20:23.999Z</time></trkpt><trkpt lat="43.59942552430815" lon="3.7848501612973626"><ele>51.0</ele><time>2026-05-03T09:20:25.999Z</time></trkpt><trkpt lat="43.5993654720572" lon="3.7848893943300506"><ele>50.5</ele><time>2026-05-03T09:20:28.999Z</time></trkpt><trkpt lat="43.59932060115338" lon="3.7849508416415123"><ele>50.0</ele><time>2026-05-03T09:20:30.999Z</time></trkpt><trkpt lat="43.599275276447905" lon="3.7850196181936506"><ele>49.49999999999999</ele><time>2026-05-03T09:20:32.999Z</time></trkpt><trkpt lat="43.599157673562644" lon="3.785182737228244"><ele>49.0</ele><time>2026-05-03T09:20:37.999Z</time></trkpt><trkpt lat="43.59905887060463" lon="3.78521780127097"><ele>50.33333333333333</ele><time>2026-05-03T09:20:40.999Z</time></trkpt><trkpt lat="43.59903248850152" lon="3.785314788475431"><ele>51.666666666666664</ele><time>2026-05-03T09:20:42.999Z</time></trkpt><trkpt lat="43.598993414758866" lon="3.7853971162532734"><ele>53.0</ele><time>2026-05-03T09:20:44.999Z</time></trkpt><trkpt lat="43.598946265254156" lon="3.78549827724438"><ele>54.33333333333333</ele><time>2026-05-03T09:20:47.999Z</time></trkpt><trkpt lat="43.59889737992218" lon="3.7856194234752554"><ele>55.666666666666664</ele><time>2026-05-03T09:20:50.999Z</time></trkpt><trkpt lat="43.598852020848724" lon="3.7857140389947213"><ele>57.0</ele><time>2026-05-03T09:20:54.999Z</time></trkpt><trkpt lat="43.59877582651216" lon="3.7859126683834683"><ele>57.5</ele><time>2026-05-03T09:20:59.999Z</time></trkpt><trkpt lat="43.598732485159026" lon="3.7860149011043394"><ele>58.0</ele><time>2026-05-03T09:21:02.999Z</time></trkpt><trkpt lat="43.59868647950996" lon="3.7860819386707303"><ele>58.5</ele><time>2026-05-03T09:21:04.999Z</time></trkpt><trkpt lat="43.598638081060244" lon="3.786149663700873"><ele>59.0</ele><time>2026-05-03T09:21:06.999Z</time></trkpt><trkpt lat="43.598599450516446" lon="3.7862617644139442"><ele>59.5</ele><time>2026-05-03T09:21:09.999Z</time></trkpt><trkpt lat="43.598554314264916" lon="3.7863394817187026"><ele>60.0</ele><time>2026-05-03T09:21:11.999Z</time></trkpt><trkpt lat="43.59851003884592" lon="3.786428671494492"><ele>59.4</ele><time>2026-05-03T09:21:13.999Z</time></trkpt><trkpt lat="43.59844832373331" lon="3.786499978879824"><ele>58.8</ele><time>2026-05-03T09:21:15.999Z</time></trkpt><trkpt lat="43.59834768921123" lon="3.7866959172653933"><ele>58.2</ele><time>2026-05-03T09:21:20.998Z</time></trkpt><trkpt lat="43.59829638916336" lon="3.786778739282513"><ele>57.6</ele><time>2026-05-03T09:21:22.998Z</time></trkpt><trkpt lat="43.59825235301903" lon="3.786850414530792"><ele>57.0</ele><time>2026-05-03T09:21:24.998Z</time></trkpt><trkpt lat="43.59819038463666" lon="3.7869239351485398"><ele>57.0</ele><time>2026-05-03T09:21:27.998Z</time></trkpt><trkpt lat="43.598119261645614" lon="3.786982453158758"><ele>57.0</ele><time>2026-05-03T09:21:29.998Z</time></trkpt><trkpt lat="43.598060267213626" lon="3.787052587988867"><ele>57.0</ele><time>2026-05-03T09:21:31.998Z</time></trkpt><trkpt lat="43.59800047067481" lon="3.787119633819319"><ele>57.0</ele><time>2026-05-03T09:21:33.998Z</time></trkpt><trkpt lat="43.597947707658165" lon="3.7871827314453106"><ele>57.0</ele><time>2026-05-03T09:21:35.998Z</time></trkpt><trkpt lat="43.59788371038714" lon="3.787259179533932"><ele>57.0</ele><time>2026-05-03T09:21:38.998Z</time></trkpt><trkpt lat="43.59777708262705" lon="3.787364400584963"><ele>56.857142857142854</ele><time>2026-05-03T09:21:42.998Z</time></trkpt><trkpt lat="43.59774050002355" lon="3.7874443596971883"><ele>56.71428571428571</ele><time>2026-05-03T09:21:47.998Z</time></trkpt><trkpt lat="43.5977030189843" lon="3.787516740552116"><ele>56.57142857142857</ele><time>2026-05-03T09:21:49.998Z</time></trkpt><trkpt lat="43.59764420740534" lon="3.7876045125268907"><ele>56.42857142857143</ele><time>2026-05-03T09:21:52.998Z</time></trkpt><trkpt lat="43.597583889790926" lon="3.78766448772547"><ele>56.285714285714285</ele><time>2026-05-03T09:21:54.998Z</time></trkpt><trkpt lat="43.5975346692807" lon="3.7877402721638673"><ele>56.14285714285714</ele><time>2026-05-03T09:21:57Z</time></trkpt><trkpt lat="43.59746921963307" lon="3.7878042590097096"><ele>56.0</ele><time>2026-05-03T09:21:59Z</time></trkpt><trkpt lat="43.5974289306555" lon="3.7878734769859754"><ele>56.0</ele><time>2026-05-03T09:22:01Z</time></trkpt><trkpt lat="43.59732218142437" lon="3.78801126793604"><ele>55.99999999999999</ele><time>2026-05-03T09:22:05Z</time></trkpt><trkpt lat="43.59726224273864" lon="3.7880765951675452"><ele>55.99999999999999</ele><time>2026-05-03T09:22:07Z</time></trkpt><trkpt lat="43.59719053326613" lon="3.788155191115187"><ele>56.0</ele><time>2026-05-03T09:22:09Z</time></trkpt><trkpt lat="43.59713760747337" lon="3.7882147306179026"><ele>56.0</ele><time>2026-05-03T09:22:11Z</time></trkpt><trkpt lat="43.59705785198843" lon="3.788286085247162"><ele>55.4</ele><time>2026-05-03T09:22:13Z</time></trkpt><trkpt lat="43.59698920935908" lon="3.7883544344303566"><ele>54.8</ele><time>2026-05-03T09:22:15Z</time></trkpt><trkpt lat="43.59692770169892" lon="3.7884435075588114"><ele>54.199999999999996</ele><time>2026-05-03T09:22:17Z</time></trkpt><trkpt lat="43.59686917492448" lon="3.7884940101506963"><ele>53.599999999999994</ele><time>2026-05-03T09:22:19Z</time></trkpt><trkpt lat="43.59680728037918" lon="3.788623896665154"><ele>53.0</ele><time>2026-05-03T09:22:21.999Z</time></trkpt><trkpt lat="43.59666573460077" lon="3.7887608254880156"><ele>53.00000000000001</ele><time>2026-05-03T09:22:25.999Z</time></trkpt><trkpt lat="43.5965902583069" lon="3.7888324640881965"><ele>53.0</ele><time>2026-05-03T09:22:27.999Z</time></trkpt><trkpt lat="43.59651518779851" lon="3.7889095823074337"><ele>53.0</ele><time>2026-05-03T09:22:29.999Z</time></trkpt><trkpt lat="43.59643542450749" lon="3.7889749113484608"><ele>53.0</ele><time>2026-05-03T09:22:31.999Z</time></trkpt><trkpt lat="43.59636291660408" lon="3.7890409140092385"><ele>53.00000000000001</ele><time>2026-05-03T09:22:33.999Z</time></trkpt><trkpt lat="43.59628678548887" lon="3.7890870515898256"><ele>53.0</ele><time>2026-05-03T09:22:35.999Z</time></trkpt><trkpt lat="43.59619944202313" lon="3.7891161157075914"><ele>52.4</ele><time>2026-05-03T09:22:37.999Z</time></trkpt><trkpt lat="43.59611419214354" lon="3.789171748182117"><ele>51.8</ele><time>2026-05-03T09:22:39.999Z</time></trkpt><trkpt lat="43.59604559886873" lon="3.789241090585764"><ele>51.2</ele><time>2026-05-03T09:22:41.999Z</time></trkpt><trkpt lat="43.595975020798676" lon="3.7893121253247695"><ele>50.6</ele><time>2026-05-03T09:22:43.999Z</time></trkpt><trkpt lat="43.595831778116306" lon="3.789446246138032"><ele>50.0</ele><time>2026-05-03T09:22:47.999Z</time></trkpt><trkpt lat="43.595764542305965" lon="3.7895246885680103"><ele>50.00000000000001</ele><time>2026-05-03T09:22:49.999Z</time></trkpt><trkpt lat="43.59569505179432" lon="3.789587757018455"><ele>50.0</ele><time>2026-05-03T09:22:51.999Z</time></trkpt><trkpt lat="43.59562003779429" lon="3.7896510484112866"><ele>50.0</ele><time>2026-05-03T09:22:53.999Z</time></trkpt><trkpt lat="43.5955460301847" lon="3.7897074932424757"><ele>50.0</ele><time>2026-05-03T09:22:55.999Z</time></trkpt><trkpt lat="43.595474437216076" lon="3.789773345317741"><ele>50.00000000000001</ele><time>2026-05-03T09:22:57.999Z</time></trkpt><trkpt lat="43.595406369526074" lon="3.7898737166187217"><ele>50.0</ele><time>2026-05-03T09:22:59.999Z</time></trkpt><trkpt lat="43.59535490449355" lon="3.7899715960477036"><ele>50.0</ele><time>2026-05-03T09:23:01.999Z</time></trkpt><trkpt lat="43.595297566167986" lon="3.7900087138118486"><ele>50.0</ele><time>2026-05-03T09:23:02.999Z</time></trkpt><trkpt lat="43.59519034417231" lon="3.7901187866381467"><ele>50.0</ele><time>2026-05-03T09:23:04.999Z</time></trkpt><trkpt lat="43.59506076555655" lon="3.790262189395951"><ele>50.0</ele><time>2026-05-03T09:23:07.999Z</time></trkpt><trkpt lat="43.59496780356624" lon="3.7903039757888197"><ele>50.00000000000001</ele><time>2026-05-03T09:23:10.999Z</time></trkpt><trkpt lat="43.59491783265527" lon="3.790378628778525"><ele>50.0</ele><time>2026-05-03T09:23:12.999Z</time></trkpt><trkpt lat="43.59484999585798" lon="3.7904345543801212"><ele>50.0</ele><time>2026-05-03T09:23:14.999Z</time></trkpt><trkpt lat="43.594787099687274" lon="3.79050099967749"><ele>50.0</ele><time>2026-05-03T09:23:16.999Z</time></trkpt><trkpt lat="43.59473450544305" lon="3.7905727382588643"><ele>50.00000000000001</ele><time>2026-05-03T09:23:18.999Z</time></trkpt><trkpt lat="43.59468754040065" lon="3.790652627123979"><ele>50.0</ele><time>2026-05-03T09:23:20.999Z</time></trkpt><trkpt lat="43.59464340454298" lon="3.7907443623881036"><ele>50.0</ele><time>2026-05-03T09:23:22.999Z</time></trkpt><trkpt lat="43.59459819419923" lon="3.790858923273629"><ele>50.0</ele><time>2026-05-03T09:23:25.999Z</time></trkpt><trkpt lat="43.59451532205487" lon="3.7910465046464004"><ele>50.0</ele><time>2026-05-03T09:23:29.999Z</time></trkpt><trkpt lat="43.594467544834075" lon="3.7911228570636"><ele>50.0</ele><time>2026-05-03T09:23:31.999Z</time></trkpt><trkpt lat="43.5944251060209" lon="3.7912039810535494"><ele>50.0</ele><time>2026-05-03T09:23:33.998Z</time></trkpt><trkpt lat="43.59438331783385" lon="3.791291387040517"><ele>50.00000000000001</ele><time>2026-05-03T09:23:35.998Z</time></trkpt><trkpt lat="43.594343630599504" lon="3.791371580601577"><ele>50.0</ele><time>2026-05-03T09:23:37.998Z</time></trkpt><trkpt lat="43.594299804082404" lon="3.7914568605584744"><ele>50.0</ele><time>2026-05-03T09:23:39.998Z</time></trkpt><trkpt lat="43.594241107699446" lon="3.791544776319378"><ele>50.0</ele><time>2026-05-03T09:23:41.998Z</time></trkpt><trkpt lat="43.594199052733906" lon="3.7916267020126013"><ele>50.00000000000001</ele><time>2026-05-03T09:23:43.998Z</time></trkpt><trkpt lat="43.59415761256916" lon="3.7917676929087905"><ele>50.0</ele><time>2026-05-03T09:23:46.998Z</time></trkpt><trkpt lat="43.594041132779736" lon="3.7919434458955"><ele>50.00000000000001</ele><time>2026-05-03T09:23:50.998Z</time></trkpt><trkpt lat="43.59398139093212" lon="3.7920203835035813"><ele>50.0</ele><time>2026-05-03T09:23:52.998Z</time></trkpt><trkpt lat="43.59391105369137" lon="3.792084885717239"><ele>50.0</ele><time>2026-05-03T09:23:54.998Z</time></trkpt><trkpt lat="43.59384298100432" lon="3.792154384162542"><ele>50.0</ele><time>2026-05-03T09:23:56.998Z</time></trkpt><trkpt lat="43.593778509226894" lon="3.792236134273814"><ele>50.00000000000001</ele><time>2026-05-03T09:23:58.998Z</time></trkpt><trkpt lat="43.59371548562434" lon="3.792316981172671"><ele>50.0</ele><time>2026-05-03T09:24:00.998Z</time></trkpt><trkpt lat="43.593645624973576" lon="3.792396487852893"><ele>49.0</ele><time>2026-05-03T09:24:03Z</time></trkpt><trkpt lat="43.59357612590825" lon="3.7924747953324394"><ele>48.0</ele><time>2026-05-03T09:24:05Z</time></trkpt><trkpt lat="43.593507621948135" lon="3.7925075736692238"><ele>47.0</ele><time>2026-05-03T09:24:07Z</time></trkpt><trkpt lat="43.59344943880229" lon="3.7925768113719998"><ele>46.0</ele><time>2026-05-03T09:24:09Z</time></trkpt><trkpt lat="43.5932945111613" lon="3.792672317609287"><ele>45.0</ele><time>2026-05-03T09:24:14Z</time></trkpt><trkpt lat="43.59319458499106" lon="3.792712846019871"><ele>45.0</ele><time>2026-05-03T09:24:17Z</time></trkpt><trkpt lat="43.593162695147996" lon="3.7928227185088503"><ele>45.0</ele><time>2026-05-03T09:24:19Z</time></trkpt><trkpt lat="43.59311744844758" lon="3.792916208338413"><ele>45.0</ele><time>2026-05-03T09:24:21Z</time></trkpt><trkpt lat="43.5930630361521" lon="3.7930039386807843"><ele>45.0</ele><time>2026-05-03T09:24:23Z</time></trkpt><trkpt lat="43.592965209539734" lon="3.7930450349879052"><ele>45.0</ele><time>2026-05-03T09:24:25Z</time></trkpt><trkpt lat="43.592900203917154" lon="3.793155748398484"><ele>45.0</ele><time>2026-05-03T09:24:27Z</time></trkpt><trkpt lat="43.59284898550929" lon="3.793248403649511"><ele>45.0</ele><time>2026-05-03T09:24:29Z</time></trkpt><trkpt lat="43.592790860394665" lon="3.7933277217700807"><ele>45.0</ele><time>2026-05-03T09:24:31Z</time></trkpt><trkpt lat="43.592658341287056" lon="3.7935128465194383"><ele>45.0</ele><time>2026-05-03T09:24:35Z</time></trkpt><trkpt lat="43.59259499058991" lon="3.7935826310781513"><ele>45.0</ele><time>2026-05-03T09:24:37Z</time></trkpt><trkpt lat="43.59251587116955" lon="3.79360488356279"><ele>44.833333333333336</ele><time>2026-05-03T09:24:39Z</time></trkpt><trkpt lat="43.59243113400637" lon="3.793639025820437"><ele>44.666666666666664</ele><time>2026-05-03T09:24:41Z</time></trkpt><trkpt lat="43.59235768584885" lon="3.7936810453566157"><ele>44.5</ele><time>2026-05-03T09:24:43Z</time></trkpt><trkpt lat="43.59228635678609" lon="3.7937121133244722"><ele>44.33333333333333</ele><time>2026-05-03T09:24:45Z</time></trkpt><trkpt lat="43.59221774817537" lon="3.793782535242133"><ele>44.166666666666664</ele><time>2026-05-03T09:24:47Z</time></trkpt><trkpt lat="43.592182477388846" lon="3.7938784979547724"><ele>44.0</ele><time>2026-05-03T09:24:48.999Z</time></trkpt><trkpt lat="43.59215239312197" lon="3.7939696607957525"><ele>44.0</ele><time>2026-05-03T09:24:50.999Z</time></trkpt><trkpt lat="43.59212987748335" lon="3.7940680516977796"><ele>44.0</ele><time>2026-05-03T09:24:52.999Z</time></trkpt><trkpt lat="43.592070056911666" lon="3.794241940703028"><ele>44.0</ele><time>2026-05-03T09:24:56.999Z</time></trkpt><trkpt lat="43.592044023662396" lon="3.794332415135521"><ele>44.0</ele><time>2026-05-03T09:24:58.999Z</time></trkpt><trkpt lat="43.59200914067303" lon="3.7944083811118055"><ele>44.0</ele><time>2026-05-03T09:25:00.999Z</time></trkpt><trkpt lat="43.59197740743354" lon="3.7944943456704903"><ele>44.0</ele><time>2026-05-03T09:25:02.999Z</time></trkpt><trkpt lat="43.591937620907586" lon="3.7946076433748015"><ele>43.83333333333333</ele><time>2026-05-03T09:25:05.999Z</time></trkpt><trkpt lat="43.591912965103205" lon="3.7946987843115583"><ele>43.666666666666664</ele><time>2026-05-03T09:25:07.999Z</time></trkpt><trkpt lat="43.59188142029092" lon="3.79478832773629"><ele>43.5</ele><time>2026-05-03T09:25:09.999Z</time></trkpt><trkpt lat="43.59184091434433" lon="3.79487524465662"><ele>43.333333333333336</ele><time>2026-05-03T09:25:11.999Z</time></trkpt><trkpt lat="43.59180125598039" lon="3.7949595518007793"><ele>43.16666666666667</ele><time>2026-05-03T09:25:13.999Z</time></trkpt><trkpt lat="43.591706383287345" lon="3.7951147401137164"><ele>43.0</ele><time>2026-05-03T09:25:17.999Z</time></trkpt><trkpt lat="43.59166910214674" lon="3.7952091659490983"><ele>43.0</ele><time>2026-05-03T09:25:19.999Z</time></trkpt><trkpt lat="43.59162745156525" lon="3.795298864594558"><ele>43.0</ele><time>2026-05-03T09:25:21.999Z</time></trkpt><trkpt lat="43.59159621606912" lon="3.7953898458218482"><ele>43.0</ele><time>2026-05-03T09:25:23.999Z</time></trkpt><trkpt lat="43.591557985854784" lon="3.795469694699421"><ele>43.0</ele><time>2026-05-03T09:25:25.999Z</time></trkpt><trkpt lat="43.59151566049047" lon="3.7955506906945273"><ele>43.0</ele><time>2026-05-03T09:25:27.999Z</time></trkpt><trkpt lat="43.59147371651596" lon="3.7956672561284703"><ele>43.0</ele><time>2026-05-03T09:25:30.999Z</time></trkpt><trkpt lat="43.59142106083604" lon="3.7957331887635184"><ele>43.0</ele><time>2026-05-03T09:25:33.999Z</time></trkpt><trkpt lat="43.591371331365224" lon="3.795618600438982"><ele>43.0</ele><time>2026-05-03T09:25:37.999Z</time></trkpt><trkpt lat="43.59122566832449" lon="3.795500334468301"><ele>43.0</ele><time>2026-05-03T09:25:41.999Z</time></trkpt><trkpt lat="43.591153025429946" lon="3.795396561954147"><ele>43.0</ele><time>2026-05-03T09:25:43.999Z</time></trkpt><trkpt lat="43.591085563761084" lon="3.7953065012276412"><ele>42.333333333333336</ele><time>2026-05-03T09:25:45.999Z</time></trkpt><trkpt lat="43.5910076220865" lon="3.795215656184239"><ele>41.66666666666667</ele><time>2026-05-03T09:25:47.999Z</time></trkpt><trkpt lat="43.59093349553372" lon="3.7951359374780798"><ele>41.0</ele><time>2026-05-03T09:25:49.999Z</time></trkpt><trkpt lat="43.59086026259372" lon="3.7950757599077307"><ele>40.333333333333336</ele><time>2026-05-03T09:25:51.999Z</time></trkpt><trkpt lat="43.59079069349658" lon="3.795079049552051"><ele>39.666666666666664</ele><time>2026-05-03T09:25:54.999Z</time></trkpt><trkpt lat="43.59080216440921" lon="3.7949641201178554"><ele>39.0</ele><time>2026-05-03T09:25:58.998Z</time></trkpt><trkpt lat="43.59087344605256" lon="3.794754369801287"><ele>38.2</ele><time>2026-05-03T09:26:02.998Z</time></trkpt><trkpt lat="43.59090913755702" lon="3.794628198564999"><ele>37.4</ele><time>2026-05-03T09:26:04.998Z</time></trkpt><trkpt lat="43.59095455845889" lon="3.7944924386166865"><ele>36.6</ele><time>2026-05-03T09:26:06.998Z</time></trkpt><trkpt lat="43.59099099729984" lon="3.794356592320412"><ele>35.8</ele><time>2026-05-03T09:26:09Z</time></trkpt><trkpt lat="43.59102368013882" lon="3.7942146033379043"><ele>35.0</ele><time>2026-05-03T09:26:11Z</time></trkpt><trkpt lat="43.59104543862613" lon="3.7940743915156436"><ele>35.0</ele><time>2026-05-03T09:26:13Z</time></trkpt><trkpt lat="43.5910719042624" lon="3.793915114809586"><ele>35.0</ele><time>2026-05-03T09:26:15Z</time></trkpt><trkpt lat="43.59108904885547" lon="3.7938302824983188"><ele>35.0</ele><time>2026-05-03T09:26:16Z</time></trkpt><trkpt lat="43.59110546562508" lon="3.7936731409892017"><ele>35.0</ele><time>2026-05-03T09:26:18Z</time></trkpt><trkpt lat="43.59109332891395" lon="3.793587304088112"><ele>35.0</ele><time>2026-05-03T09:26:19Z</time></trkpt><trkpt lat="43.59107769362179" lon="3.793450861329443"><ele>35.2</ele><time>2026-05-03T09:26:21Z</time></trkpt><trkpt lat="43.5911368087429" lon="3.793230669942833"><ele>35.4</ele><time>2026-05-03T09:26:25Z</time></trkpt><trkpt lat="43.59119317817513" lon="3.7931902331857343"><ele>35.6</ele><time>2026-05-03T09:26:27Z</time></trkpt><trkpt lat="43.59123279981462" lon="3.793097983289294"><ele>35.8</ele><time>2026-05-03T09:26:29Z</time></trkpt><trkpt lat="43.59128354730473" lon="3.7929730152944705"><ele>36.0</ele><time>2026-05-03T09:26:31Z</time></trkpt><trkpt lat="43.5913170150895" lon="3.7928528837945423"><ele>36.0</ele><time>2026-05-03T09:26:33Z</time></trkpt><trkpt lat="43.59137346079682" lon="3.7927564359083794"><ele>36.0</ele><time>2026-05-03T09:26:35Z</time></trkpt><trkpt lat="43.5914169062033" lon="3.7926443767149887"><ele>36.0</ele><time>2026-05-03T09:26:37Z</time></trkpt><trkpt lat="43.59147589100314" lon="3.7925187743830366"><ele>36.0</ele><time>2026-05-03T09:26:39Z</time></trkpt><trkpt lat="43.59151839556369" lon="3.792395380449101"><ele>36.0</ele><time>2026-05-03T09:26:41Z</time></trkpt><trkpt lat="43.5915630473026" lon="3.7922846763319034"><ele>36.2</ele><time>2026-05-03T09:26:43Z</time></trkpt><trkpt lat="43.59162452107029" lon="3.7920558646672626"><ele>36.400000000000006</ele><time>2026-05-03T09:26:47Z</time></trkpt><trkpt lat="43.591621760118684" lon="3.791928829413217"><ele>36.6</ele><time>2026-05-03T09:26:48.999Z</time></trkpt><trkpt lat="43.59162553091972" lon="3.791805598796783"><ele>36.800000000000004</ele><time>2026-05-03T09:26:50.999Z</time></trkpt><trkpt lat="43.59160856108304" lon="3.7916979570965488"><ele>37.0</ele><time>2026-05-03T09:26:53.999Z</time></trkpt><trkpt lat="43.59161106460872" lon="3.7915760515473886"><ele>37.833333333333336</ele><time>2026-05-03T09:26:55.999Z</time></trkpt><trkpt lat="43.591617539496774" lon="3.791471752947938"><ele>38.66666666666667</ele><time>2026-05-03T09:26:56.999Z</time></trkpt><trkpt lat="43.59163178553641" lon="3.7913451108593836"><ele>39.5</ele><time>2026-05-03T09:26:58.999Z</time></trkpt><trkpt lat="43.59164310912111" lon="3.791216964382422"><ele>40.333333333333336</ele><time>2026-05-03T09:27:00.999Z</time></trkpt><trkpt lat="43.59165958890746" lon="3.7910926205780484"><ele>41.166666666666664</ele><time>2026-05-03T09:27:02.999Z</time></trkpt><trkpt lat="43.59167495567769" lon="3.790989996905133"><ele>42.0</ele><time>2026-05-03T09:27:04.999Z</time></trkpt><trkpt lat="43.591714178715925" lon="3.7907991549159643"><ele>42.0</ele><time>2026-05-03T09:27:08.999Z</time></trkpt><trkpt lat="43.59173461135342" lon="3.790699673827766"><ele>42.0</ele><time>2026-05-03T09:27:10.999Z</time></trkpt><trkpt lat="43.591753375552976" lon="3.790607426318646"><ele>42.0</ele><time>2026-05-03T09:27:12.999Z</time></trkpt><trkpt lat="43.591782788225" lon="3.790527348912972"><ele>42.0</ele><time>2026-05-03T09:27:14.999Z</time></trkpt><trkpt lat="43.591794853411486" lon="3.790432131625977"><ele>42.0</ele><time>2026-05-03T09:27:16.999Z</time></trkpt><trkpt lat="43.59182929649339" lon="3.790348689478431"><ele>42.0</ele><time>2026-05-03T09:27:18.999Z</time></trkpt><trkpt lat="43.59186570614978" lon="3.7902214348322807"><ele>42.0</ele><time>2026-05-03T09:27:21.999Z</time></trkpt><trkpt lat="43.59184359064781" lon="3.7901050370863185"><ele>42.0</ele><time>2026-05-03T09:27:23.999Z</time></trkpt><trkpt lat="43.59179284535871" lon="3.7900353679338044"><ele>42.0</ele><time>2026-05-03T09:27:25.999Z</time></trkpt><trkpt lat="43.59168463710189" lon="3.789847575817483"><ele>42.0</ele><time>2026-05-03T09:27:29.999Z</time></trkpt><trkpt lat="43.59164349117759" lon="3.7897533905637615"><ele>42.0</ele><time>2026-05-03T09:27:31.999Z</time></trkpt><trkpt lat="43.5915871966667" lon="3.7896627696865446"><ele>42.0</ele><time>2026-05-03T09:27:33.999Z</time></trkpt><trkpt lat="43.59153869613805" lon="3.7895672752388374"><ele>42.0</ele><time>2026-05-03T09:27:35.999Z</time></trkpt><trkpt lat="43.591481428941826" lon="3.789461682901596"><ele>42.0</ele><time>2026-05-03T09:27:37.999Z</time></trkpt><trkpt lat="43.591429664037136" lon="3.789375107320456"><ele>42.0</ele><time>2026-05-03T09:27:39.999Z</time></trkpt><trkpt lat="43.591376179672814" lon="3.789277078215076"><ele>42.0</ele><time>2026-05-03T09:27:41.999Z</time></trkpt><trkpt lat="43.59133080913785" lon="3.789180518505959"><ele>42.0</ele><time>2026-05-03T09:27:43.999Z</time></trkpt><trkpt lat="43.591293029952574" lon="3.789080747887213"><ele>42.0</ele><time>2026-05-03T09:27:45.999Z</time></trkpt><trkpt lat="43.59127291243768" lon="3.7889808034122603"><ele>42.2</ele><time>2026-05-03T09:27:47.999Z</time></trkpt><trkpt lat="43.591246998656416" lon="3.7887741105574158"><ele>42.400000000000006</ele><time>2026-05-03T09:27:51.999Z</time></trkpt><trkpt lat="43.591192043528224" lon="3.7887189645547292"><ele>42.599999999999994</ele><time>2026-05-03T09:27:54.998Z</time></trkpt><trkpt lat="43.591118286277265" lon="3.7887208780863233"><ele>42.8</ele><time>2026-05-03T09:27:57.998Z</time></trkpt><trkpt lat="43.59108954327308" lon="3.7885974034969325"><ele>43.0</ele><time>2026-05-03T09:28:00.998Z</time></trkpt><trkpt lat="43.59107076446968" lon="3.7884904963478383"><ele>43.599999999999994</ele><time>2026-05-03T09:28:02.998Z</time></trkpt><trkpt lat="43.5910295633887" lon="3.788373506515084"><ele>44.199999999999996</ele><time>2026-05-03T09:28:04.998Z</time></trkpt><trkpt lat="43.59098913020139" lon="3.7882764479061137"><ele>44.8</ele><time>2026-05-03T09:28:06.998Z</time></trkpt><trkpt lat="43.590952318159644" lon="3.7881867058848706"><ele>45.4</ele><time>2026-05-03T09:28:08.998Z</time></trkpt><trkpt lat="43.59088470467378" lon="3.7880101318299193"><ele>46.0</ele><time>2026-05-03T09:28:12.998Z</time></trkpt><trkpt lat="43.59086691530611" lon="3.787902281483992"><ele>46.0</ele><time>2026-05-03T09:28:15Z</time></trkpt><trkpt lat="43.59084410704945" lon="3.7877958195770116"><ele>46.0</ele><time>2026-05-03T09:28:17Z</time></trkpt><trkpt lat="43.59081316174713" lon="3.787698017524323"><ele>46.0</ele><time>2026-05-03T09:28:19Z</time></trkpt><trkpt lat="43.59077790784702" lon="3.7875893425371854"><ele>46.0</ele><time>2026-05-03T09:28:21Z</time></trkpt><trkpt lat="43.590737346781054" lon="3.7874943646863364"><ele>46.0</ele><time>2026-05-03T09:28:23Z</time></trkpt><trkpt lat="43.5907029969857" lon="3.7874071285624327"><ele>46.0</ele><time>2026-05-03T09:28:25Z</time></trkpt><trkpt lat="43.59066526315585" lon="3.7873068208241136"><ele>46.75</ele><time>2026-05-03T09:28:27Z</time></trkpt><trkpt lat="43.590660504693034" lon="3.7872044834577867"><ele>47.5</ele><time>2026-05-03T09:28:29Z</time></trkpt><trkpt lat="43.59069388637918" lon="3.787080756877129"><ele>48.25</ele><time>2026-05-03T09:28:31Z</time></trkpt><trkpt lat="43.590768092237425" lon="3.7868457895667436"><ele>49.0</ele><time>2026-05-03T09:28:34.999Z</time></trkpt><trkpt lat="43.59080757710814" lon="3.786723897329435"><ele>49.49999999999999</ele><time>2026-05-03T09:28:36.999Z</time></trkpt><trkpt lat="43.59083597638421" lon="3.786613326147269"><ele>50.0</ele><time>2026-05-03T09:28:38.999Z</time></trkpt><trkpt lat="43.59088361424925" lon="3.786502922547144"><ele>50.5</ele><time>2026-05-03T09:28:40.999Z</time></trkpt><trkpt lat="43.590919384079264" lon="3.7863578969880627"><ele>51.0</ele><time>2026-05-03T09:28:42.999Z</time></trkpt><trkpt lat="43.59095361208416" lon="3.7862535775531243"><ele>51.49999999999999</ele><time>2026-05-03T09:28:46.999Z</time></trkpt><trkpt lat="43.59098646837757" lon="3.7861631097559854"><ele>52.0</ele><time>2026-05-03T09:28:49.999Z</time></trkpt><trkpt lat="43.59098470916673" lon="3.7860477132333066"><ele>52.49999999999999</ele><time>2026-05-03T09:28:52.999Z</time></trkpt><trkpt lat="43.59100947121416" lon="3.7858505786949572"><ele>53.0</ele><time>2026-05-03T09:28:57.999Z</time></trkpt><trkpt lat="43.59101511931538" lon="3.7857468381302826"><ele>53.5</ele><time>2026-05-03T09:29:01.999Z</time></trkpt><trkpt lat="43.59102056984097" lon="3.7856593867273958"><ele>54.0</ele><time>2026-05-03T09:29:04.999Z</time></trkpt><trkpt lat="43.59102913488205" lon="3.7855428290803257"><ele>54.49999999999999</ele><time>2026-05-03T09:29:07.999Z</time></trkpt><trkpt lat="43.59102416615106" lon="3.7854529916813875"><ele>55.0</ele><time>2026-05-03T09:29:09.999Z</time></trkpt><trkpt lat="43.59101246612736" lon="3.7853418675746133"><ele>55.0</ele><time>2026-05-03T09:29:12.999Z</time></trkpt><trkpt lat="43.59102296971365" lon="3.7852500860249476"><ele>55.0</ele><time>2026-05-03T09:29:15.999Z</time></trkpt><trkpt lat="43.591078150932596" lon="3.785061004335916"><ele>55.0</ele><time>2026-05-03T09:29:21.999Z</time></trkpt><trkpt lat="43.591083693360574" lon="3.784946978081031"><ele>55.0</ele><time>2026-05-03T09:29:23.999Z</time></trkpt><trkpt lat="43.59110109436359" lon="3.7848286233138198"><ele>55.0</ele><time>2026-05-03T09:29:25.999Z</time></trkpt><trkpt lat="43.59110352421922" lon="3.784700397771108"><ele>55.166666666666664</ele><time>2026-05-03T09:29:27.999Z</time></trkpt><trkpt lat="43.59111282036039" lon="3.7845880124422036"><ele>55.33333333333333</ele><time>2026-05-03T09:29:29.999Z</time></trkpt><trkpt lat="43.591111785190485" lon="3.784480821078652"><ele>55.5</ele><time>2026-05-03T09:29:31.999Z</time></trkpt><trkpt lat="43.59111922763624" lon="3.7843766195052324"><ele>55.66666666666667</ele><time>2026-05-03T09:29:33.999Z</time></trkpt><trkpt lat="43.591142635628245" lon="3.7842756587229545"><ele>55.833333333333336</ele><time>2026-05-03T09:29:35.999Z</time></trkpt><trkpt lat="43.59114970029322" lon="3.7841629548119076"><ele>56.0</ele><time>2026-05-03T09:29:37.999Z</time></trkpt><trkpt lat="43.59113235164043" lon="3.783969794578756"><ele>57.00000000000001</ele><time>2026-05-03T09:29:41.999Z</time></trkpt><trkpt lat="43.59110866131691" lon="3.78387741978881"><ele>58.0</ele><time>2026-05-03T09:29:43.998Z</time></trkpt><trkpt lat="43.591093171946795" lon="3.7837405909494493"><ele>59.0</ele><time>2026-05-03T09:29:46.998Z</time></trkpt><trkpt lat="43.59105655061825" lon="3.78362017747691"><ele>60.0</ele><time>2026-05-03T09:29:48.998Z</time></trkpt><trkpt lat="43.591041235942555" lon="3.7834939014298636"><ele>61.00000000000001</ele><time>2026-05-03T09:29:51.998Z</time></trkpt><trkpt lat="43.5910140499834" lon="3.783380584207118"><ele>62.0</ele><time>2026-05-03T09:29:53.998Z</time></trkpt><trkpt lat="43.59101065938748" lon="3.7832847759988706"><ele>62.0</ele><time>2026-05-03T09:29:55.998Z</time></trkpt><trkpt lat="43.59095569008934" lon="3.7831886748896046"><ele>62.0</ele><time>2026-05-03T09:29:58.998Z</time></trkpt><trkpt lat="43.59086954456585" lon="3.7829905425462744"><ele>62.0</ele><time>2026-05-03T09:30:03.998Z</time></trkpt><trkpt lat="43.5908565763112" lon="3.782883202618242"><ele>62.0</ele><time>2026-05-03T09:30:05.998Z</time></trkpt><trkpt lat="43.59078994981041" lon="3.7827974257265775"><ele>62.0</ele><time>2026-05-03T09:30:08.998Z</time></trkpt><trkpt lat="43.590752940156094" lon="3.7827225355784613"><ele>61.0</ele><time>2026-05-03T09:30:10.998Z</time></trkpt><trkpt lat="43.590713820467236" lon="3.782646545301052"><ele>60.0</ele><time>2026-05-03T09:30:13.998Z</time></trkpt><trkpt lat="43.59065157600111" lon="3.7825853446812103"><ele>59.0</ele><time>2026-05-03T09:30:16.998Z</time></trkpt><trkpt lat="43.59061866823296" lon="3.7824732120061118"><ele>58.0</ele><time>2026-05-03T09:30:20Z</time></trkpt><trkpt lat="43.590487011106035" lon="3.7823163044561334"><ele>57.0</ele><time>2026-05-03T09:30:26Z</time></trkpt><trkpt lat="43.590442047381785" lon="3.782254166790011"><ele>57.0</ele><time>2026-05-03T09:30:29Z</time></trkpt><trkpt lat="43.59044649544252" lon="3.782166750055247"><ele>57.0</ele><time>2026-05-03T09:30:40.999Z</time></trkpt><trkpt lat="43.590359068158676" lon="3.7819862166833387"><ele>57.0</ele><time>2026-05-03T09:30:48.999Z</time></trkpt><trkpt lat="43.59031180495881" lon="3.781925856984892"><ele>57.0</ele><time>2026-05-03T09:30:58.999Z</time></trkpt><trkpt lat="43.59035216709824" lon="3.7820277861846425"><ele>57.0</ele><time>2026-05-03T09:31:16.999Z</time></trkpt><trkpt lat="43.59025046659462" lon="3.782189256168629"><ele>58.833333333333336</ele><time>2026-05-03T09:31:23.999Z</time></trkpt><trkpt lat="43.59018798212172" lon="3.7822649857629886"><ele>60.66666666666667</ele><time>2026-05-03T09:31:27.999Z</time></trkpt><trkpt lat="43.59012913346377" lon="3.782312913266541"><ele>62.5</ele><time>2026-05-03T09:31:30.999Z</time></trkpt><trkpt lat="43.59007169804267" lon="3.7823785366817306"><ele>64.33333333333334</ele><time>2026-05-03T09:31:34.999Z</time></trkpt><trkpt lat="43.59001221596306" lon="3.78233014952689"><ele>66.16666666666667</ele><time>2026-05-03T09:31:37.999Z</time></trkpt><trkpt lat="43.58995892119689" lon="3.7821327313174136"><ele>68.0</ele><time>2026-05-03T09:31:43.999Z</time></trkpt><trkpt lat="43.58990860769614" lon="3.782077601289344"><ele>68.0</ele><time>2026-05-03T09:31:45.999Z</time></trkpt><trkpt lat="43.58982882397728" lon="3.7820052840066056"><ele>68.0</ele><time>2026-05-03T09:31:47.998Z</time></trkpt><trkpt lat="43.589766106462214" lon="3.7819259841593595"><ele>68.0</ele><time>2026-05-03T09:31:49.998Z</time></trkpt><trkpt lat="43.589688536566115" lon="3.781867733327539"><ele>68.0</ele><time>2026-05-03T09:31:51.998Z</time></trkpt><trkpt lat="43.58963312846201" lon="3.78181242518728"><ele>68.0</ele><time>2026-05-03T09:31:53.998Z</time></trkpt><trkpt lat="43.58956577944614" lon="3.781763556578429"><ele>68.0</ele><time>2026-05-03T09:31:54.998Z</time></trkpt><trkpt lat="43.58945948188983" lon="3.78181414229058"><ele>68.0</ele><time>2026-05-03T09:31:56.998Z</time></trkpt><trkpt lat="43.589336500999494" lon="3.7818476078243233"><ele>68.0</ele><time>2026-05-03T09:31:58.998Z</time></trkpt><trkpt lat="43.589116756926195" lon="3.7819378560434123"><ele>68.0</ele><time>2026-05-03T09:32:02.998Z</time></trkpt><trkpt lat="43.589049537182404" lon="3.781916701616952"><ele>68.0</ele><time>2026-05-03T09:32:03.998Z</time></trkpt><trkpt lat="43.58899447611792" lon="3.7818704842747164"><ele>68.0</ele><time>2026-05-03T09:32:04.998Z</time></trkpt><trkpt lat="43.58888779284793" lon="3.781853661786304"><ele>68.0</ele><time>2026-05-03T09:32:06.998Z</time></trkpt><trkpt lat="43.588796930884094" lon="3.78195622234743"><ele>68.0</ele><time>2026-05-03T09:32:08.998Z</time></trkpt><trkpt lat="43.588681088515166" lon="3.7819589496495087"><ele>68.0</ele><time>2026-05-03T09:32:10.998Z</time></trkpt><trkpt lat="43.58858440981957" lon="3.781933622239077"><ele>68.0</ele><time>2026-05-03T09:32:12.998Z</time></trkpt><trkpt lat="43.588470864204155" lon="3.7819220996278164"><ele>67.25</ele><time>2026-05-03T09:32:14.998Z</time></trkpt><trkpt lat="43.58840239460372" lon="3.7819149798334313"><ele>66.5</ele><time>2026-05-03T09:32:15.998Z</time></trkpt><trkpt lat="43.588293375543415" lon="3.781925098770565"><ele>65.75</ele><time>2026-05-03T09:32:17.998Z</time></trkpt><trkpt lat="43.58819019353902" lon="3.7819847157345787"><ele>65.0</ele><time>2026-05-03T09:32:19.998Z</time></trkpt><trkpt lat="43.58801764488165" lon="3.7820566579775727"><ele>65.0</ele><time>2026-05-03T09:32:23.998Z</time></trkpt><trkpt lat="43.58793192753629" lon="3.7821135960033314"><ele>65.0</ele><time>2026-05-03T09:32:26Z</time></trkpt><trkpt lat="43.587868048551904" lon="3.782120515053885"><ele>65.0</ele><time>2026-05-03T09:32:27Z</time></trkpt><trkpt lat="43.58780368486386" lon="3.7820835255705068"><ele>65.0</ele><time>2026-05-03T09:32:28Z</time></trkpt><trkpt lat="43.58774898009901" lon="3.7820400895969986"><ele>65.0</ele><time>2026-05-03T09:32:29Z</time></trkpt><trkpt lat="43.58763540418461" lon="3.7820359855136365"><ele>65.0</ele><time>2026-05-03T09:32:31Z</time></trkpt><trkpt lat="43.587530073029235" lon="3.7820467743757664"><ele>64.0</ele><time>2026-05-03T09:32:33Z</time></trkpt><trkpt lat="43.58745642623432" lon="3.78208561091812"><ele>63.0</ele><time>2026-05-03T09:32:35Z</time></trkpt><trkpt lat="43.58736803936457" lon="3.782113623911168"><ele>62.0</ele><time>2026-05-03T09:32:37Z</time></trkpt><trkpt lat="43.58728321961289" lon="3.7821786165757696"><ele>61.0</ele><time>2026-05-03T09:32:39Z</time></trkpt><trkpt lat="43.58718302391549" lon="3.7821748148883447"><ele>60.0</ele><time>2026-05-03T09:32:41Z</time></trkpt><trkpt lat="43.58699821472126" lon="3.782199750318801"><ele>59.333333333333336</ele><time>2026-05-03T09:32:44Z</time></trkpt><trkpt lat="43.58692143822154" lon="3.782201259777225"><ele>58.66666666666667</ele><time>2026-05-03T09:32:45Z</time></trkpt><trkpt lat="43.586857946973616" lon="3.782186403462603"><ele>58.0</ele><time>2026-05-03T09:32:46Z</time></trkpt><trkpt lat="43.58675147380168" lon="3.782184441943242"><ele>57.333333333333336</ele><time>2026-05-03T09:32:47.999Z</time></trkpt><trkpt lat="43.58672322136012" lon="3.7822837253063977"><ele>56.66666666666667</ele><time>2026-05-03T09:32:49.999Z</time></trkpt><trkpt lat="43.58669277892419" lon="3.7824502770123773"><ele>56.0</ele><time>2026-05-03T09:32:51.999Z</time></trkpt><trkpt lat="43.58663682266311" lon="3.782498673258038"><ele>56.0</ele><time>2026-05-03T09:32:52.999Z</time></trkpt><trkpt lat="43.58657989764254" lon="3.782558836214306"><ele>55.99999999999999</ele><time>2026-05-03T09:32:53.999Z</time></trkpt><trkpt lat="43.58654140895335" lon="3.7826334260568983"><ele>55.99999999999999</ele><time>2026-05-03T09:32:54.999Z</time></trkpt><trkpt lat="43.586500065812665" lon="3.7827784891778653"><ele>56.0</ele><time>2026-05-03T09:32:56.999Z</time></trkpt><trkpt lat="43.58642622640957" lon="3.7828756787114437"><ele>56.0</ele><time>2026-05-03T09:32:58.999Z</time></trkpt><trkpt lat="43.586311714748994" lon="3.7828448411823277"><ele>55.25</ele><time>2026-05-03T09:33:00.999Z</time></trkpt><trkpt lat="43.586234291524974" lon="3.7827351238627935"><ele>54.5</ele><time>2026-05-03T09:33:02.999Z</time></trkpt><trkpt lat="43.58602749875513" lon="3.782605274998005"><ele>53.75</ele><time>2026-05-03T09:33:06.999Z</time></trkpt><trkpt lat="43.5859521244234" lon="3.7825350508247566"><ele>53.0</ele><time>2026-05-03T09:33:08.999Z</time></trkpt><trkpt lat="43.58583465883695" lon="3.782510875823165"><ele>52.599999999999994</ele><time>2026-05-03T09:33:10.999Z</time></trkpt><trkpt lat="43.58574319766088" lon="3.7825718656775793"><ele>52.199999999999996</ele><time>2026-05-03T09:33:12.999Z</time></trkpt><trkpt lat="43.58563503337525" lon="3.78263581646345"><ele>51.8</ele><time>2026-05-03T09:33:14.999Z</time></trkpt><trkpt lat="43.58553330780512" lon="3.78270705693424"><ele>51.4</ele><time>2026-05-03T09:33:16.999Z</time></trkpt><trkpt lat="43.58544020068468" lon="3.7827517570961238"><ele>51.0</ele><time>2026-05-03T09:33:18.999Z</time></trkpt><trkpt lat="43.58534339636639" lon="3.782694952246223"><ele>49.8</ele><time>2026-05-03T09:33:20.999Z</time></trkpt><trkpt lat="43.58524374057228" lon="3.782699910580925"><ele>48.599999999999994</ele><time>2026-05-03T09:33:22.999Z</time></trkpt><trkpt lat="43.585157812643985" lon="3.7826298759067467"><ele>47.4</ele><time>2026-05-03T09:33:24.999Z</time></trkpt><trkpt lat="43.58509707195942" lon="3.782451912536282"><ele>46.2</ele><time>2026-05-03T09:33:28.999Z</time></trkpt><trkpt lat="43.58500960287655" lon="3.7823805666134356"><ele>45.0</ele><time>2026-05-03T09:33:30.999Z</time></trkpt><trkpt lat="43.58496115597507" lon="3.782254574763668"><ele>44.666666666666664</ele><time>2026-05-03T09:33:32.999Z</time></trkpt><trkpt lat="43.584897819294405" lon="3.782141429289777"><ele>44.333333333333336</ele><time>2026-05-03T09:33:34.999Z</time></trkpt><trkpt lat="43.58491169563726" lon="3.7819973900475246"><ele>44.0</ele><time>2026-05-03T09:33:36.999Z</time></trkpt><trkpt lat="43.58491368657691" lon="3.7818800110249913"><ele>43.66666666666667</ele><time>2026-05-03T09:33:38.999Z</time></trkpt><trkpt lat="43.58491342639858" lon="3.7817882040153448"><ele>43.333333333333336</ele><time>2026-05-03T09:33:40.999Z</time></trkpt><trkpt lat="43.58491429886303" lon="3.781695258685281"><ele>43.0</ele><time>2026-05-03T09:33:42.999Z</time></trkpt><trkpt lat="43.584907258653814" lon="3.781605244525301"><ele>42.599999999999994</ele><time>2026-05-03T09:33:44.999Z</time></trkpt><trkpt lat="43.584901541653" lon="3.781514252520618"><ele>42.199999999999996</ele><time>2026-05-03T09:33:46.999Z</time></trkpt><trkpt lat="43.58490502523879" lon="3.781323457450541"><ele>41.8</ele><time>2026-05-03T09:33:50.999Z</time></trkpt><trkpt lat="43.58490411372281" lon="3.781220705512512"><ele>41.4</ele><time>2026-05-03T09:33:52.999Z</time></trkpt><trkpt lat="43.58489996360887" lon="3.7810997785566975"><ele>41.0</ele><time>2026-05-03T09:33:54.999Z</time></trkpt><trkpt lat="43.5848979785281" lon="3.7809741638678687"><ele>40.4</ele><time>2026-05-03T09:33:56.999Z</time></trkpt><trkpt lat="43.58489616053938" lon="3.780852564443762"><ele>39.8</ele><time>2026-05-03T09:33:58.998Z</time></trkpt><trkpt lat="43.584900292824656" lon="3.7807217998466243"><ele>39.199999999999996</ele><time>2026-05-03T09:34:00.998Z</time></trkpt><trkpt lat="43.584901746102254" lon="3.7805830674696357"><ele>38.599999999999994</ele><time>2026-05-03T09:34:02.998Z</time></trkpt><trkpt lat="43.5849055084112" lon="3.780437556489415"><ele>38.0</ele><time>2026-05-03T09:34:04.998Z</time></trkpt><trkpt lat="43.58490928251319" lon="3.7802976129488823"><ele>38.25</ele><time>2026-05-03T09:34:06.998Z</time></trkpt><trkpt lat="43.58490681352646" lon="3.7801628182440523"><ele>38.5</ele><time>2026-05-03T09:34:08.998Z</time></trkpt><trkpt lat="43.58493594840037" lon="3.779887834035331"><ele>38.75</ele><time>2026-05-03T09:34:12.998Z</time></trkpt><trkpt lat="43.5849475622034" lon="3.7797558820058184"><ele>39.0</ele><time>2026-05-03T09:34:14.998Z</time></trkpt><trkpt lat="43.584968284911064" lon="3.779630588537611"><ele>39.0</ele><time>2026-05-03T09:34:16.998Z</time></trkpt><trkpt lat="43.58497739484064" lon="3.7794961653301797"><ele>39.0</ele><time>2026-05-03T09:34:18.998Z</time></trkpt><trkpt lat="43.585014059993554" lon="3.7793719121677616"><ele>39.0</ele><time>2026-05-03T09:34:20.998Z</time></trkpt><trkpt lat="43.585031568112925" lon="3.7792287825206525"><ele>39.0</ele><time>2026-05-03T09:34:22.998Z</time></trkpt><trkpt lat="43.58505403681136" lon="3.779118555407904"><ele>39.0</ele><time>2026-05-03T09:34:24.998Z</time></trkpt><trkpt lat="43.58508229228422" lon="3.778996126868994"><ele>38.75</ele><time>2026-05-03T09:34:26.998Z</time></trkpt><trkpt lat="43.58511385464626" lon="3.778862757937634"><ele>38.5</ele><time>2026-05-03T09:34:28.998Z</time></trkpt><trkpt lat="43.58515122549104" lon="3.778719218789218"><ele>38.25</ele><time>2026-05-03T09:34:30.998Z</time></trkpt><trkpt lat="43.58522838002919" lon="3.778464998342092"><ele>38.0</ele><time>2026-05-03T09:34:34.998Z</time></trkpt><trkpt lat="43.585272088589264" lon="3.7783585188055047"><ele>38.0</ele><time>2026-05-03T09:34:36.998Z</time></trkpt><trkpt lat="43.585316312924924" lon="3.778247295479872"><ele>38.0</ele><time>2026-05-03T09:34:38.998Z</time></trkpt><trkpt lat="43.58535870899201" lon="3.7781282138169816"><ele>38.0</ele><time>2026-05-03T09:34:40.998Z</time></trkpt><trkpt lat="43.58540067584545" lon="3.778020827616865"><ele>38.0</ele><time>2026-05-03T09:34:42.998Z</time></trkpt><trkpt lat="43.585444474791636" lon="3.7779201380823615"><ele>38.0</ele><time>2026-05-03T09:34:44.998Z</time></trkpt><trkpt lat="43.585490258224915" lon="3.7778114465207007"><ele>38.4</ele><time>2026-05-03T09:34:46.998Z</time></trkpt><trkpt lat="43.58554266000379" lon="3.7777115890015494"><ele>38.8</ele><time>2026-05-03T09:34:48.998Z</time></trkpt><trkpt lat="43.58559582921268" lon="3.7776029076276796"><ele>39.2</ele><time>2026-05-03T09:34:50.998Z</time></trkpt><trkpt lat="43.58564004203461" lon="3.777502603065813"><ele>39.6</ele><time>2026-05-03T09:34:52.998Z</time></trkpt><trkpt lat="43.58574994932405" lon="3.777311654168038"><ele>40.0</ele><time>2026-05-03T09:34:56.998Z</time></trkpt><trkpt lat="43.585798179493864" lon="3.777212824372059"><ele>40.0</ele><time>2026-05-03T09:34:58.998Z</time></trkpt><trkpt lat="43.5858530406541" lon="3.777106584307747"><ele>40.0</ele><time>2026-05-03T09:35:00.998Z</time></trkpt><trkpt lat="43.58590523420517" lon="3.7770062864586937"><ele>40.0</ele><time>2026-05-03T09:35:02.998Z</time></trkpt><trkpt lat="43.58596199240238" lon="3.7768989364674304"><ele>40.0</ele><time>2026-05-03T09:35:04.998Z</time></trkpt><trkpt lat="43.58601098462831" lon="3.7767986578257253"><ele>40.0</ele><time>2026-05-03T09:35:06.998Z</time></trkpt><trkpt lat="43.586062987234314" lon="3.776699573113876"><ele>40.2</ele><time>2026-05-03T09:35:08.997Z</time></trkpt><trkpt lat="43.58611876186129" lon="3.7765966548410845"><ele>40.4</ele><time>2026-05-03T09:35:10.997Z</time></trkpt><trkpt lat="43.586169622492335" lon="3.776500011020283"><ele>40.599999999999994</ele><time>2026-05-03T09:35:12.997Z</time></trkpt><trkpt lat="43.58622291969876" lon="3.7764011983700922"><ele>40.8</ele><time>2026-05-03T09:35:14.997Z</time></trkpt><trkpt lat="43.58632205543909" lon="3.7761960832064783"><ele>41.0</ele><time>2026-05-03T09:35:18.997Z</time></trkpt><trkpt lat="43.58637469714508" lon="3.776097823179019"><ele>41.599999999999994</ele><time>2026-05-03T09:35:20.997Z</time></trkpt><trkpt lat="43.58642835137934" lon="3.7759915284924537"><ele>42.2</ele><time>2026-05-03T09:35:22.997Z</time></trkpt><trkpt lat="43.58648218366448" lon="3.7758843620704794"><ele>42.8</ele><time>2026-05-03T09:35:24.997Z</time></trkpt><trkpt lat="43.58654102536323" lon="3.775771134987998"><ele>43.400000000000006</ele><time>2026-05-03T09:35:26.997Z</time></trkpt><trkpt lat="43.58659238175399" lon="3.7756618740772123"><ele>44.0</ele><time>2026-05-03T09:35:28.997Z</time></trkpt><trkpt lat="43.58663884512004" lon="3.7755519427187147"><ele>44.0</ele><time>2026-05-03T09:35:30.997Z</time></trkpt><trkpt lat="43.58669576186055" lon="3.775442914137338"><ele>44.0</ele><time>2026-05-03T09:35:32.997Z</time></trkpt><trkpt lat="43.58674464967348" lon="3.7753283830820465"><ele>44.0</ele><time>2026-05-03T09:35:34.997Z</time></trkpt><trkpt lat="43.586794912089935" lon="3.775210339216577"><ele>44.0</ele><time>2026-05-03T09:35:36.997Z</time></trkpt><trkpt lat="43.58689677300124" lon="3.7749892400261853"><ele>44.0</ele><time>2026-05-03T09:35:40.997Z</time></trkpt><trkpt lat="43.58693597127912" lon="3.7748818751345805"><ele>44.0</ele><time>2026-05-03T09:35:42.997Z</time></trkpt><trkpt lat="43.58696326270982" lon="3.7747670427900273"><ele>44.0</ele><time>2026-05-03T09:35:44.997Z</time></trkpt><trkpt lat="43.58700416775469" lon="3.7746481640580862"><ele>44.0</ele><time>2026-05-03T09:35:46.997Z</time></trkpt><trkpt lat="43.58703956467223" lon="3.774525388650356"><ele>44.0</ele><time>2026-05-03T09:35:48.997Z</time></trkpt><trkpt lat="43.58707698685596" lon="3.774410980750921"><ele>44.2</ele><time>2026-05-03T09:35:50.997Z</time></trkpt><trkpt lat="43.58711038177071" lon="3.7742953122666445"><ele>44.400000000000006</ele><time>2026-05-03T09:35:52.997Z</time></trkpt><trkpt lat="43.58713965753083" lon="3.7741786705872897"><ele>44.6</ele><time>2026-05-03T09:35:54.997Z</time></trkpt><trkpt lat="43.58716299471545" lon="3.774051754093046"><ele>44.8</ele><time>2026-05-03T09:35:56.997Z</time></trkpt><trkpt lat="43.58719297619961" lon="3.773927819159778"><ele>45.0</ele><time>2026-05-03T09:35:58.997Z</time></trkpt><trkpt lat="43.58724234512842" lon="3.7737214811267252"><ele>45.0</ele><time>2026-05-03T09:36:02.997Z</time></trkpt><trkpt lat="43.58726665117843" lon="3.7735926057707267"><ele>45.0</ele><time>2026-05-03T09:36:04.997Z</time></trkpt><trkpt lat="43.58729793815801" lon="3.773472927921756"><ele>45.0</ele><time>2026-05-03T09:36:06.997Z</time></trkpt><trkpt lat="43.5873229922898" lon="3.7733467313672695"><ele>45.0</ele><time>2026-05-03T09:36:08.997Z</time></trkpt><trkpt lat="43.58735459273764" lon="3.7732288803239564"><ele>45.0</ele><time>2026-05-03T09:36:10.997Z</time></trkpt><trkpt lat="43.587367138783726" lon="3.7730933893553553"><ele>45.0</ele><time>2026-05-03T09:36:12.997Z</time></trkpt><trkpt lat="43.58739474723769" lon="3.772966054881157"><ele>45.0</ele><time>2026-05-03T09:36:14.997Z</time></trkpt><trkpt lat="43.58741962960326" lon="3.7728434854501542"><ele>45.0</ele><time>2026-05-03T09:36:16.996Z</time></trkpt><trkpt lat="43.587449758652134" lon="3.772719089674184"><ele>45.0</ele><time>2026-05-03T09:36:18.996Z</time></trkpt><trkpt lat="43.58747239767332" lon="3.7725913075046287"><ele>45.0</ele><time>2026-05-03T09:36:20.996Z</time></trkpt><trkpt lat="43.58753485244102" lon="3.772342320282075"><ele>45.4</ele><time>2026-05-03T09:36:24.996Z</time></trkpt><trkpt lat="43.587550478612094" lon="3.7722056297562494"><ele>45.8</ele><time>2026-05-03T09:36:26.996Z</time></trkpt><trkpt lat="43.58758199697121" lon="3.7720717134674544"><ele>46.2</ele><time>2026-05-03T09:36:28.996Z</time></trkpt><trkpt lat="43.58760043863597" lon="3.7719511673453057"><ele>46.6</ele><time>2026-05-03T09:36:30.996Z</time></trkpt><trkpt lat="43.587628079706754" lon="3.7718284268980944"><ele>47.0</ele><time>2026-05-03T09:36:32.996Z</time></trkpt><trkpt lat="43.58766612076246" lon="3.771705034902786"><ele>47.2</ele><time>2026-05-03T09:36:34.996Z</time></trkpt><trkpt lat="43.58770138620728" lon="3.7715811373252603"><ele>47.400000000000006</ele><time>2026-05-03T09:36:36.996Z</time></trkpt><trkpt lat="43.587733584004354" lon="3.7714592747127202"><ele>47.599999999999994</ele><time>2026-05-03T09:36:38.996Z</time></trkpt><trkpt lat="43.58775545255256" lon="3.7713312332463462"><ele>47.8</ele><time>2026-05-03T09:36:40.996Z</time></trkpt><trkpt lat="43.58778647884613" lon="3.771205459595438"><ele>48.0</ele><time>2026-05-03T09:36:42.996Z</time></trkpt><trkpt lat="43.58784757618853" lon="3.7709602555645754"><ele>48.166666666666664</ele><time>2026-05-03T09:36:46.996Z</time></trkpt><trkpt lat="43.58787758301851" lon="3.770842064439862"><ele>48.33333333333333</ele><time>2026-05-03T09:36:48.996Z</time></trkpt><trkpt lat="43.58791702128669" lon="3.770732693920266"><ele>48.5</ele><time>2026-05-03T09:36:50.996Z</time></trkpt><trkpt lat="43.58792965267837" lon="3.7706396084129405"><ele>48.666666666666664</ele><time>2026-05-03T09:36:52.996Z</time></trkpt><trkpt lat="43.587969564087196" lon="3.77056229294899"><ele>48.83333333333333</ele><time>2026-05-03T09:36:56.996Z</time></trkpt><trkpt lat="43.58797379194105" lon="3.770469273856569"><ele>49.0</ele><time>2026-05-03T09:36:59.996Z</time></trkpt><trkpt lat="43.588008376962286" lon="3.7703516796457968"><ele>49.0</ele><time>2026-05-03T09:37:01.996Z</time></trkpt><trkpt lat="43.588034868227346" lon="3.770243061829283"><ele>49.0</ele><time>2026-05-03T09:37:03.996Z</time></trkpt><trkpt lat="43.58808189237732" lon="3.7700428080195287"><ele>49.0</ele><time>2026-05-03T09:37:07.996Z</time></trkpt><trkpt lat="43.58809564153107" lon="3.769948406438484"><ele>49.0</ele><time>2026-05-03T09:37:09.996Z</time></trkpt><trkpt lat="43.58812033320946" lon="3.769851540492244"><ele>49.0</ele><time>2026-05-03T09:37:11.996Z</time></trkpt><trkpt lat="43.58814678660974" lon="3.769741598308201"><ele>48.83333333333333</ele><time>2026-05-03T09:37:13.996Z</time></trkpt><trkpt lat="43.5881778841138" lon="3.769636308034882"><ele>48.666666666666664</ele><time>2026-05-03T09:37:15.996Z</time></trkpt><trkpt lat="43.588191982256916" lon="3.769542003850534"><ele>48.5</ele><time>2026-05-03T09:37:17.996Z</time></trkpt><trkpt lat="43.58820960159927" lon="3.769424382626243"><ele>48.33333333333333</ele><time>2026-05-03T09:37:19.996Z</time></trkpt><trkpt lat="43.58825122608591" lon="3.7693150801281297"><ele>48.166666666666664</ele><time>2026-05-03T09:37:21.996Z</time></trkpt><trkpt lat="43.58827997678105" lon="3.769205517524396"><ele>48.0</ele><time>2026-05-03T09:37:23.996Z</time></trkpt><trkpt lat="43.588295129337666" lon="3.7691119370838524"><ele>47.599999999999994</ele><time>2026-05-03T09:37:25.996Z</time></trkpt><trkpt lat="43.588324952469726" lon="3.768899160919172"><ele>47.199999999999996</ele><time>2026-05-03T09:37:29.995Z</time></trkpt><trkpt lat="43.588337097916" lon="3.768779353381855"><ele>46.8</ele><time>2026-05-03T09:37:31.995Z</time></trkpt><trkpt lat="43.58837681223822" lon="3.7686640758772123"><ele>46.4</ele><time>2026-05-03T09:37:33.995Z</time></trkpt><trkpt lat="43.58839292948232" lon="3.768563837440061"><ele>46.0</ele><time>2026-05-03T09:37:35.995Z</time></trkpt><trkpt lat="43.58841812080477" lon="3.768455435680229"><ele>46.0</ele><time>2026-05-03T09:37:37.995Z</time></trkpt><trkpt lat="43.58843376897823" lon="3.768354209284483"><ele>46.0</ele><time>2026-05-03T09:37:39.995Z</time></trkpt><trkpt lat="43.58845159070614" lon="3.768247216993538"><ele>46.0</ele><time>2026-05-03T09:37:41.995Z</time></trkpt><trkpt lat="43.588463834211026" lon="3.768139974614848"><ele>46.0</ele><time>2026-05-03T09:37:43.995Z</time></trkpt><trkpt lat="43.588476556390475" lon="3.768035654560817"><ele>46.0</ele><time>2026-05-03T09:37:45.995Z</time></trkpt><trkpt lat="43.588471245267336" lon="3.7679369176386652"><ele>46.0</ele><time>2026-05-03T09:37:47.995Z</time></trkpt><trkpt lat="43.58841215839042" lon="3.7677675572918727"><ele>46.333333333333336</ele><time>2026-05-03T09:37:52.995Z</time></trkpt><trkpt lat="43.588395824438614" lon="3.7676692562910663"><ele>46.66666666666667</ele><time>2026-05-03T09:37:54.995Z</time></trkpt><trkpt lat="43.588437318758544" lon="3.76758443022107"><ele>47.0</ele><time>2026-05-03T09:37:56.995Z</time></trkpt><trkpt lat="43.58848548408784" lon="3.7675060728486347"><ele>47.333333333333336</ele><time>2026-05-03T09:37:58.995Z</time></trkpt><trkpt lat="43.58852602093261" lon="3.7674231528707027"><ele>47.666666666666664</ele><time>2026-05-03T09:38:00.995Z</time></trkpt><trkpt lat="43.58850238013276" lon="3.7673075351044436"><ele>48.0</ele><time>2026-05-03T09:38:02.995Z</time></trkpt><trkpt lat="43.588490113275924" lon="3.767205607388308"><ele>48.0</ele><time>2026-05-03T09:38:04.995Z</time></trkpt><trkpt lat="43.58847528716191" lon="3.767107061903035"><ele>48.0</ele><time>2026-05-03T09:38:06.995Z</time></trkpt><trkpt lat="43.58846666259921" lon="3.7669945963309126"><ele>48.0</ele><time>2026-05-03T09:38:08.995Z</time></trkpt><trkpt lat="43.588442517481965" lon="3.76679240929542"><ele>48.0</ele><time>2026-05-03T09:38:12.995Z</time></trkpt><trkpt lat="43.58841920094513" lon="3.766677739804903"><ele>48.0</ele><time>2026-05-03T09:38:14.995Z</time></trkpt><trkpt lat="43.588387302096216" lon="3.7665804306933417"><ele>48.166666666666664</ele><time>2026-05-03T09:38:16.995Z</time></trkpt><trkpt lat="43.58837205470893" lon="3.7664741732627545"><ele>48.33333333333333</ele><time>2026-05-03T09:38:18.995Z</time></trkpt><trkpt lat="43.58835707989658" lon="3.7663663122961055"><ele>48.5</ele><time>2026-05-03T09:38:20.995Z</time></trkpt><trkpt lat="43.588355540891236" lon="3.766264967917115"><ele>48.666666666666664</ele><time>2026-05-03T09:38:22.995Z</time></trkpt><trkpt lat="43.58832222456997" lon="3.7661783451929756"><ele>48.83333333333333</ele><time>2026-05-03T09:38:24.995Z</time></trkpt><trkpt lat="43.5882966427189" lon="3.7660646030611526"><ele>49.0</ele><time>2026-05-03T09:38:26.995Z</time></trkpt><trkpt lat="43.58825849767005" lon="3.76593242033786"><ele>49.0</ele><time>2026-05-03T09:38:28.995Z</time></trkpt><trkpt lat="43.5882286179992" lon="3.765799638216302"><ele>49.0</ele><time>2026-05-03T09:38:30.995Z</time></trkpt><trkpt lat="43.58815398498369" lon="3.7655809452100155"><ele>49.0</ele><time>2026-05-03T09:38:34.995Z</time></trkpt><trkpt lat="43.588107999742256" lon="3.7654676086055057"><ele>49.0</ele><time>2026-05-03T09:38:36.994Z</time></trkpt><trkpt lat="43.588064014405894" lon="3.765386978515093"><ele>49.0</ele><time>2026-05-03T09:38:38.994Z</time></trkpt><trkpt lat="43.588016168483165" lon="3.7652970937815446"><ele>48.99999999999999</ele><time>2026-05-03T09:38:40.994Z</time></trkpt><trkpt lat="43.58798133727437" lon="3.765210208732768"><ele>49.0</ele><time>2026-05-03T09:38:42.994Z</time></trkpt><trkpt lat="43.58794178348015" lon="3.7651117207481994"><ele>49.0</ele><time>2026-05-03T09:38:44.994Z</time></trkpt><trkpt lat="43.58789934124502" lon="3.7650067821032183"><ele>49.0</ele><time>2026-05-03T09:38:46.994Z</time></trkpt><trkpt lat="43.58784678643948" lon="3.7649148584547856"><ele>48.99999999999999</ele><time>2026-05-03T09:38:48.994Z</time></trkpt><trkpt lat="43.58781911577683" lon="3.7648207616685783"><ele>49.0</ele><time>2026-05-03T09:38:50.994Z</time></trkpt><trkpt lat="43.587778008054435" lon="3.7647135847401296"><ele>49.2</ele><time>2026-05-03T09:38:52.994Z</time></trkpt><trkpt lat="43.5876916019665" lon="3.764496690565321"><ele>49.400000000000006</ele><time>2026-05-03T09:38:56.994Z</time></trkpt><trkpt lat="43.58763756759841" lon="3.7644105305968654"><ele>49.6</ele><time>2026-05-03T09:38:58.994Z</time></trkpt><trkpt lat="43.58758673035213" lon="3.7643101701368433"><ele>49.8</ele><time>2026-05-03T09:39:00.994Z</time></trkpt><trkpt lat="43.587530811388696" lon="3.7642044816428895"><ele>50.0</ele><time>2026-05-03T09:39:02.994Z</time></trkpt><trkpt lat="43.58748283132913" lon="3.764114546179178"><ele>50.333333333333336</ele><time>2026-05-03T09:39:04.994Z</time></trkpt><trkpt lat="43.58744133326992" lon="3.764032770556646"><ele>50.66666666666667</ele><time>2026-05-03T09:39:06.994Z</time></trkpt><trkpt lat="43.58740537141133" lon="3.763937231775582"><ele>51.0</ele><time>2026-05-03T09:39:08.994Z</time></trkpt><trkpt lat="43.587363951622706" lon="3.7638409878998558"><ele>51.33333333333333</ele><time>2026-05-03T09:39:10.994Z</time></trkpt><trkpt lat="43.587316087227" lon="3.7637448967790985"><ele>51.666666666666664</ele><time>2026-05-03T09:39:12.994Z</time></trkpt><trkpt lat="43.58727071207007" lon="3.763641288885606"><ele>52.0</ele><time>2026-05-03T09:39:14.994Z</time></trkpt><trkpt lat="43.58718031721113" lon="3.7634407282992677"><ele>52.33333333333333</ele><time>2026-05-03T09:39:18.994Z</time></trkpt><trkpt lat="43.58713988032713" lon="3.763344951712211"><ele>52.666666666666664</ele><time>2026-05-03T09:39:20.994Z</time></trkpt><trkpt lat="43.58709977118755" lon="3.763247544668049"><ele>53.0</ele><time>2026-05-03T09:39:22.994Z</time></trkpt><trkpt lat="43.58705949820138" lon="3.76314281171834"><ele>53.33333333333333</ele><time>2026-05-03T09:39:24.994Z</time></trkpt><trkpt lat="43.587081507987975" lon="3.7630303396755074"><ele>53.666666666666664</ele><time>2026-05-03T09:39:26.994Z</time></trkpt><trkpt lat="43.587063824542895" lon="3.762928238024788"><ele>54.0</ele><time>2026-05-03T09:39:28.994Z</time></trkpt><trkpt lat="43.587029729328535" lon="3.762814033095992"><ele>53.0</ele><time>2026-05-03T09:39:30.994Z</time></trkpt><trkpt lat="43.586978056617134" lon="3.7627094835138837"><ele>52.0</ele><time>2026-05-03T09:39:32.994Z</time></trkpt><trkpt lat="43.58690928422488" lon="3.7626150962002023"><ele>51.0</ele><time>2026-05-03T09:39:34.994Z</time></trkpt><trkpt lat="43.586850150677634" lon="3.7625243119075535"><ele>50.0</ele><time>2026-05-03T09:39:36.994Z</time></trkpt><trkpt lat="43.58673809054594" lon="3.7623095363260775"><ele>50.0</ele><time>2026-05-03T09:39:40.994Z</time></trkpt><trkpt lat="43.58668825624379" lon="3.7622001667016858"><ele>50.0</ele><time>2026-05-03T09:39:42.994Z</time></trkpt><trkpt lat="43.58663580907598" lon="3.7620868347188248"><ele>50.0</ele><time>2026-05-03T09:39:44.994Z</time></trkpt><trkpt lat="43.58658547827512" lon="3.761970280856087"><ele>50.0</ele><time>2026-05-03T09:39:46.993Z</time></trkpt><trkpt lat="43.58652483662371" lon="3.761860523718386"><ele>50.0</ele><time>2026-05-03T09:39:48.993Z</time></trkpt><trkpt lat="43.58647211530978" lon="3.7617505368934854"><ele>50.2</ele><time>2026-05-03T09:39:50.993Z</time></trkpt><trkpt lat="43.58640782119529" lon="3.761647492900302"><ele>50.4</ele><time>2026-05-03T09:39:52.993Z</time></trkpt><trkpt lat="43.586351257369735" lon="3.761534132002547"><ele>50.599999999999994</ele><time>2026-05-03T09:39:54.993Z</time></trkpt><trkpt lat="43.58630469039248" lon="3.7614062038639635"><ele>50.8</ele><time>2026-05-03T09:39:56.993Z</time></trkpt><trkpt lat="43.58625263062133" lon="3.7612986757595905"><ele>51.0</ele><time>2026-05-03T09:39:58.993Z</time></trkpt><trkpt lat="43.58616715015077" lon="3.761073600735567"><ele>51.166666666666664</ele><time>2026-05-03T09:40:02.993Z</time></trkpt><trkpt lat="43.58612021615518" lon="3.760972156747799"><ele>51.33333333333333</ele><time>2026-05-03T09:40:04.993Z</time></trkpt><trkpt lat="43.58606753938427" lon="3.760861378990628"><ele>51.5</ele><time>2026-05-03T09:40:06.993Z</time></trkpt><trkpt lat="43.58602364346307" lon="3.7607628280501677"><ele>51.666666666666664</ele><time>2026-05-03T09:40:08.993Z</time></trkpt><trkpt lat="43.58598239250527" lon="3.760658339593211"><ele>51.83333333333333</ele><time>2026-05-03T09:40:10.993Z</time></trkpt><trkpt lat="43.58593098720434" lon="3.760558861545647"><ele>52.0</ele><time>2026-05-03T09:40:12.993Z</time></trkpt><trkpt lat="43.585889926091404" lon="3.7604604182322934"><ele>52.0</ele><time>2026-05-03T09:40:14.993Z</time></trkpt><trkpt lat="43.58585239832289" lon="3.760362892193217"><ele>52.0</ele><time>2026-05-03T09:40:16.993Z</time></trkpt><trkpt lat="43.585817287312" lon="3.7602642492394933"><ele>52.0</ele><time>2026-05-03T09:40:18.993Z</time></trkpt><trkpt lat="43.58583106900516" lon="3.7601611571664395"><ele>52.0</ele><time>2026-05-03T09:40:20.993Z</time></trkpt><trkpt lat="43.585743169412396" lon="3.7599721971159257"><ele>52.0</ele><time>2026-05-03T09:40:24.993Z</time></trkpt><trkpt lat="43.585674877385564" lon="3.7598692770062683"><ele>52.33333333333333</ele><time>2026-05-03T09:40:26.993Z</time></trkpt><trkpt lat="43.58562831435332" lon="3.7597511664420797"><ele>52.666666666666664</ele><time>2026-05-03T09:40:28.993Z</time></trkpt><trkpt lat="43.58556171871156" lon="3.7596711749508676"><ele>53.0</ele><time>2026-05-03T09:40:30.993Z</time></trkpt><trkpt lat="43.58556013052002" lon="3.7595820179522823"><ele>53.33333333333333</ele><time>2026-05-03T09:40:33.993Z</time></trkpt><trkpt lat="43.585508363574725" lon="3.7595293534722125"><ele>53.666666666666664</ele><time>2026-05-03T09:40:35.993Z</time></trkpt><trkpt lat="43.58544312099633" lon="3.7594205446029747"><ele>54.0</ele><time>2026-05-03T09:40:38.993Z</time></trkpt><trkpt lat="43.58540341094532" lon="3.759337626311051"><ele>53.833333333333336</ele><time>2026-05-03T09:40:40.993Z</time></trkpt><trkpt lat="43.58537430095392" lon="3.7592571882383994"><ele>53.66666666666667</ele><time>2026-05-03T09:40:42.993Z</time></trkpt><trkpt lat="43.585294449426605" lon="3.759069580683313"><ele>53.5</ele><time>2026-05-03T09:40:46.993Z</time></trkpt><trkpt lat="43.58525307121926" lon="3.7589813847580267"><ele>53.333333333333336</ele><time>2026-05-03T09:40:48.993Z</time></trkpt><trkpt lat="43.58520711583684" lon="3.7589033094227373"><ele>53.16666666666667</ele><time>2026-05-03T09:40:50.993Z</time></trkpt><trkpt lat="43.585207682870106" lon="3.758802987129697"><ele>53.0</ele><time>2026-05-03T09:40:52.993Z</time></trkpt><trkpt lat="43.585187032797926" lon="3.7587007920295687"><ele>53.00000000000001</ele><time>2026-05-03T09:40:54.992Z</time></trkpt><trkpt lat="43.5851290149613" lon="3.7586230860847043"><ele>53.0</ele><time>2026-05-03T09:40:56.992Z</time></trkpt><trkpt lat="43.58507107730579" lon="3.7585383971567365"><ele>53.0</ele><time>2026-05-03T09:40:58.992Z</time></trkpt><trkpt lat="43.585022150933405" lon="3.7584503182140585"><ele>53.0</ele><time>2026-05-03T09:41:00.992Z</time></trkpt><trkpt lat="43.58496680758228" lon="3.758359895197245"><ele>53.00000000000001</ele><time>2026-05-03T09:41:02.992Z</time></trkpt><trkpt lat="43.584921005827404" lon="3.758264655331333"><ele>53.0</ele><time>2026-05-03T09:41:04.992Z</time></trkpt><trkpt lat="43.58484568156345" lon="3.7580698775456116"><ele>53.4</ele><time>2026-05-03T09:41:08.992Z</time></trkpt><trkpt lat="43.58479845143444" lon="3.757971705577587"><ele>53.8</ele><time>2026-05-03T09:41:10.992Z</time></trkpt><trkpt lat="43.584758597180254" lon="3.7578619750583058"><ele>54.2</ele><time>2026-05-03T09:41:12.992Z</time></trkpt><trkpt lat="43.58477063198046" lon="3.757756819284501"><ele>54.6</ele><time>2026-05-03T09:41:14.992Z</time></trkpt><trkpt lat="43.58475334946877" lon="3.7576268291618047"><ele>55.0</ele><time>2026-05-03T09:41:16.992Z</time></trkpt><trkpt lat="43.5846629078488" lon="3.757557438242289"><ele>55.25</ele><time>2026-05-03T09:41:18.992Z</time></trkpt><trkpt lat="43.5845765210249" lon="3.757480123947041"><ele>55.5</ele><time>2026-05-03T09:41:20.992Z</time></trkpt><trkpt lat="43.58453258202302" lon="3.7573740934790525"><ele>55.75</ele><time>2026-05-03T09:41:22.992Z</time></trkpt><trkpt lat="43.58448415558977" lon="3.75727139304252"><ele>56.0</ele><time>2026-05-03T09:41:24.992Z</time></trkpt><trkpt lat="43.584390591035124" lon="3.757043765174611"><ele>55.66666666666667</ele><time>2026-05-03T09:41:28.992Z</time></trkpt><trkpt lat="43.584350954284886" lon="3.7569425386589965"><ele>55.333333333333336</ele><time>2026-05-03T09:41:30.992Z</time></trkpt><trkpt lat="43.58430788387801" lon="3.756836329512331"><ele>55.0</ele><time>2026-05-03T09:41:32.992Z</time></trkpt><trkpt lat="43.584266737802004" lon="3.75674456824518"><ele>54.66666666666667</ele><time>2026-05-03T09:41:34.992Z</time></trkpt><trkpt lat="43.584218670587305" lon="3.756646349812934"><ele>54.333333333333336</ele><time>2026-05-03T09:41:36.992Z</time></trkpt><trkpt lat="43.58416616129525" lon="3.756565129352754"><ele>54.0</ele><time>2026-05-03T09:41:38.992Z</time></trkpt><trkpt lat="43.58412622004928" lon="3.7564751571777437"><ele>54.0</ele><time>2026-05-03T09:41:40.992Z</time></trkpt><trkpt lat="43.58408780705278" lon="3.7563714779514616"><ele>54.00000000000001</ele><time>2026-05-03T09:41:42.992Z</time></trkpt><trkpt lat="43.5840547540859" lon="3.756271249014121"><ele>54.00000000000001</ele><time>2026-05-03T09:41:44.992Z</time></trkpt><trkpt lat="43.58401222086961" lon="3.756181380844405"><ele>54.0</ele><time>2026-05-03T09:41:46.992Z</time></trkpt><trkpt lat="43.58393867567551" lon="3.756007387353219"><ele>54.0</ele><time>2026-05-03T09:41:50.992Z</time></trkpt><trkpt lat="43.58390243081577" lon="3.7558937267551387"><ele>54.0</ele><time>2026-05-03T09:41:52.992Z</time></trkpt><trkpt lat="43.583853014592094" lon="3.755785021965262"><ele>54.0</ele><time>2026-05-03T09:41:54.992Z</time></trkpt><trkpt lat="43.58381212695349" lon="3.7556872338766114"><ele>54.0</ele><time>2026-05-03T09:41:56.992Z</time></trkpt><trkpt lat="43.583772216736456" lon="3.755593607694762"><ele>54.0</ele><time>2026-05-03T09:41:58.992Z</time></trkpt><trkpt lat="43.583719816993835" lon="3.7554894199819517"><ele>54.0</ele><time>2026-05-03T09:42:00.992Z</time></trkpt><trkpt lat="43.58366562028584" lon="3.755386814101048"><ele>54.0</ele><time>2026-05-03T09:42:02.992Z</time></trkpt><trkpt lat="43.58363422972122" lon="3.7552918083132454"><ele>53.800000000000004</ele><time>2026-05-03T09:42:04.991Z</time></trkpt><trkpt lat="43.583592471099436" lon="3.7551961928001365"><ele>53.60000000000001</ele><time>2026-05-03T09:42:06.991Z</time></trkpt><trkpt lat="43.583537523606935" lon="3.7551175036284885"><ele>53.4</ele><time>2026-05-03T09:42:08.991Z</time></trkpt><trkpt lat="43.58344398564981" lon="3.754890580584937"><ele>53.2</ele><time>2026-05-03T09:42:12.991Z</time></trkpt><trkpt lat="43.583403474153144" lon="3.75478123864959"><ele>53.0</ele><time>2026-05-03T09:42:14.991Z</time></trkpt><trkpt lat="43.583341400021986" lon="3.7546316489900904"><ele>53.0</ele><time>2026-05-03T09:42:17.991Z</time></trkpt><trkpt lat="43.583280115915606" lon="3.754503966837444"><ele>53.0</ele><time>2026-05-03T09:42:19.991Z</time></trkpt><trkpt lat="43.58322787296357" lon="3.7543972916157062"><ele>53.0</ele><time>2026-05-03T09:42:21.991Z</time></trkpt><trkpt lat="43.58317247704591" lon="3.7542874305430733"><ele>53.0</ele><time>2026-05-03T09:42:23.991Z</time></trkpt><trkpt lat="43.58311541672333" lon="3.7541726654547154"><ele>53.0</ele><time>2026-05-03T09:42:25.991Z</time></trkpt><trkpt lat="43.58307107601078" lon="3.754042252554087"><ele>53.25</ele><time>2026-05-03T09:42:27.991Z</time></trkpt><trkpt lat="43.58300837646724" lon="3.7539199653701227"><ele>53.5</ele><time>2026-05-03T09:42:29.991Z</time></trkpt><trkpt lat="43.58290324571263" lon="3.753674113983772"><ele>53.75</ele><time>2026-05-03T09:42:33.991Z</time></trkpt><trkpt lat="43.5828510963217" lon="3.7535534543591176"><ele>54.0</ele><time>2026-05-03T09:42:35.991Z</time></trkpt><trkpt lat="43.58279380073945" lon="3.753421025812253"><ele>54.0</ele><time>2026-05-03T09:42:37.991Z</time></trkpt><trkpt lat="43.5827347470791" lon="3.753288184695545"><ele>54.00000000000001</ele><time>2026-05-03T09:42:39.991Z</time></trkpt><trkpt lat="43.58268110873706" lon="3.7531671813068663"><ele>54.00000000000001</ele><time>2026-05-03T09:42:41.991Z</time></trkpt><trkpt lat="43.58262512966852" lon="3.7530451568333554"><ele>54.0</ele><time>2026-05-03T09:42:43.991Z</time></trkpt><trkpt lat="43.58258500980269" lon="3.7529188911799234"><ele>54.0</ele><time>2026-05-03T09:42:45.991Z</time></trkpt><trkpt lat="43.582519807016574" lon="3.752798200978023"><ele>54.5</ele><time>2026-05-03T09:42:47.991Z</time></trkpt><trkpt lat="43.58246117433049" lon="3.752662815117543"><ele>55.0</ele><time>2026-05-03T09:42:49.991Z</time></trkpt><trkpt lat="43.58242974380328" lon="3.752583633325935"><ele>55.5</ele><time>2026-05-03T09:42:50.991Z</time></trkpt><trkpt lat="43.58232960865591" lon="3.752320054687504"><ele>56.0</ele><time>2026-05-03T09:42:54.991Z</time></trkpt><trkpt lat="43.58226048531579" lon="3.7522008866535197"><ele>56.0</ele><time>2026-05-03T09:42:56.991Z</time></trkpt><trkpt lat="43.582223380815115" lon="3.75211638649042"><ele>55.99999999999999</ele><time>2026-05-03T09:42:57.991Z</time></trkpt><trkpt lat="43.58216235388712" lon="3.7519891427064334"><ele>55.99999999999999</ele><time>2026-05-03T09:42:59.991Z</time></trkpt><trkpt lat="43.58210086748552" lon="3.751859090454825"><ele>56.0</ele><time>2026-05-03T09:43:01.991Z</time></trkpt><trkpt lat="43.58203647423121" lon="3.7517210705396056"><ele>56.0</ele><time>2026-05-03T09:43:03.991Z</time></trkpt><trkpt lat="43.58198923377418" lon="3.751585745462759"><ele>56.25</ele><time>2026-05-03T09:43:05.991Z</time></trkpt><trkpt lat="43.5819374718219" lon="3.7514668051393154"><ele>56.5</ele><time>2026-05-03T09:43:07.991Z</time></trkpt><trkpt lat="43.58189010496806" lon="3.7513425142018746"><ele>56.75</ele><time>2026-05-03T09:43:09.991Z</time></trkpt><trkpt lat="43.58184100996126" lon="3.751228356521405"><ele>57.0</ele><time>2026-05-03T09:43:11.991Z</time></trkpt><trkpt lat="43.581748332255174" lon="3.751020415384759"><ele>57.6</ele><time>2026-05-03T09:43:15.99Z</time></trkpt><trkpt lat="43.58169037608706" lon="3.750926362562204"><ele>58.2</ele><time>2026-05-03T09:43:17.99Z</time></trkpt><trkpt lat="43.58164027569103" lon="3.7508138032059377"><ele>58.8</ele><time>2026-05-03T09:43:19.99Z</time></trkpt><trkpt lat="43.58158060714078" lon="3.7506872700766998"><ele>59.4</ele><time>2026-05-03T09:43:22.99Z</time></trkpt><trkpt lat="43.58152815904706" lon="3.7505900765346243"><ele>60.0</ele><time>2026-05-03T09:43:25.99Z</time></trkpt><trkpt lat="43.581503219527875" lon="3.7504997048808284"><ele>60.0</ele><time>2026-05-03T09:43:27.99Z</time></trkpt><trkpt lat="43.58146797892871" lon="3.750424575516028"><ele>60.0</ele><time>2026-05-03T09:43:29.99Z</time></trkpt><trkpt lat="43.58143975239694" lon="3.7503354100338666"><ele>60.0</ele><time>2026-05-03T09:43:31.99Z</time></trkpt><trkpt lat="43.58139776281454" lon="3.7502598923910875"><ele>60.0</ele><time>2026-05-03T09:43:33.99Z</time></trkpt><trkpt lat="43.581287515653834" lon="3.7501289420148662"><ele>60.0</ele><time>2026-05-03T09:43:37.99Z</time></trkpt><trkpt lat="43.58123945401585" lon="3.7500530662350298"><ele>60.0</ele><time>2026-05-03T09:43:40.99Z</time></trkpt><trkpt lat="43.581192362803826" lon="3.749968738017405"><ele>60.2</ele><time>2026-05-03T09:43:43.99Z</time></trkpt><trkpt lat="43.5811193103071" lon="3.749950902593232"><ele>60.4</ele><time>2026-05-03T09:43:47.99Z</time></trkpt><trkpt lat="43.581186959562345" lon="3.749876553739353"><ele>60.599999999999994</ele><time>2026-05-03T09:46:46.987Z</time></trkpt><trkpt lat="43.58111748363863" lon="3.7496874119475434"><ele>60.8</ele><time>2026-05-03T09:46:50.987Z</time></trkpt><trkpt lat="43.58107006326018" lon="3.749578669273954"><ele>61.0</ele><time>2026-05-03T09:46:52.987Z</time></trkpt><trkpt lat="43.581013188233406" lon="3.749475019394516"><ele>60.33333333333333</ele><time>2026-05-03T09:46:54.987Z</time></trkpt><trkpt lat="43.58096814780937" lon="3.7493605163485015"><ele>59.666666666666664</ele><time>2026-05-03T09:46:56.987Z</time></trkpt><trkpt lat="43.58091955135896" lon="3.749252438031866"><ele>59.0</ele><time>2026-05-03T09:46:58.987Z</time></trkpt><trkpt lat="43.580873331758795" lon="3.7491538610755653"><ele>58.33333333333333</ele><time>2026-05-03T09:47:00.987Z</time></trkpt><trkpt lat="43.580864243375316" lon="3.7490491199164926"><ele>57.666666666666664</ele><time>2026-05-03T09:47:02.987Z</time></trkpt><trkpt lat="43.58090425327662" lon="3.7489407698600523"><ele>57.0</ele><time>2026-05-03T09:47:04.987Z</time></trkpt><trkpt lat="43.58100028668922" lon="3.7489050689009704"><ele>57.0</ele><time>2026-05-03T09:47:06.987Z</time></trkpt><trkpt lat="43.581088617949" lon="3.748882869803983"><ele>57.0</ele><time>2026-05-03T09:47:08.987Z</time></trkpt><trkpt lat="43.58125456448543" lon="3.748812624216744"><ele>57.0</ele><time>2026-05-03T09:47:12.987Z</time></trkpt><trkpt lat="43.58131670888075" lon="3.7487319262913275"><ele>57.0</ele><time>2026-05-03T09:47:14.987Z</time></trkpt><trkpt lat="43.581359901747575" lon="3.7486423913009683"><ele>57.0</ele><time>2026-05-03T09:47:16.987Z</time></trkpt><trkpt lat="43.58139795403741" lon="3.748543245592764"><ele>59.0</ele><time>2026-05-03T09:47:18.987Z</time></trkpt><trkpt lat="43.5814281339554" lon="3.748441759305133"><ele>61.0</ele><time>2026-05-03T09:47:20.987Z</time></trkpt><trkpt lat="43.58145010263666" lon="3.7483261534818926"><ele>63.0</ele><time>2026-05-03T09:47:22.987Z</time></trkpt><trkpt lat="43.5814822022184" lon="3.7482179304728445"><ele>65.0</ele><time>2026-05-03T09:47:24.987Z</time></trkpt><trkpt lat="43.58150238537804" lon="3.7481051298561057"><ele>67.0</ele><time>2026-05-03T09:47:26.987Z</time></trkpt><trkpt lat="43.581533265562214" lon="3.7479913007440593"><ele>69.0</ele><time>2026-05-03T09:47:28.987Z</time></trkpt><trkpt lat="43.5815694633381" lon="3.7478766974948905"><ele>69.8</ele><time>2026-05-03T09:47:30.987Z</time></trkpt><trkpt lat="43.58161664404835" lon="3.7476562189164357"><ele>70.60000000000001</ele><time>2026-05-03T09:47:34.987Z</time></trkpt><trkpt lat="43.58162869670733" lon="3.7475450609996903"><ele>71.4</ele><time>2026-05-03T09:47:36.987Z</time></trkpt><trkpt lat="43.58157694346037" lon="3.7474641931915103"><ele>72.2</ele><time>2026-05-03T09:47:38.987Z</time></trkpt><trkpt lat="43.58148865535673" lon="3.7474481895895204"><ele>73.0</ele><time>2026-05-03T09:47:40.987Z</time></trkpt><trkpt lat="43.5813917766926" lon="3.7474085011951663"><ele>73.0</ele><time>2026-05-03T09:47:42.987Z</time></trkpt><trkpt lat="43.581285217504224" lon="3.7473259663365144"><ele>73.0</ele><time>2026-05-03T09:47:44.987Z</time></trkpt><trkpt lat="43.581234890009604" lon="3.747272655656885"><ele>73.0</ele><time>2026-05-03T09:47:45.987Z</time></trkpt><trkpt lat="43.581141952993114" lon="3.7471630004258327"><ele>73.0</ele><time>2026-05-03T09:47:47.987Z</time></trkpt><trkpt lat="43.581057018039346" lon="3.747052216425325"><ele>73.0</ele><time>2026-05-03T09:47:49.987Z</time></trkpt><trkpt lat="43.58097470547698" lon="3.746931790393004"><ele>64.0</ele><time>2026-05-03T09:47:51.987Z</time></trkpt></trkseg></trk></gpx>